BY322 / G-FDZZ 7700 Squawk Report (13th of October, 2021)

Time Lat Lon Altitude Heading Speed Vertical Rate
2021-10-13 19:43:45 GMT 27.886826 -16.564482 5,900 274 272 -1408
2021-10-13 19:43:39 GMT 27.886374 -16.555656 6,025 274 272 -1216
2021-10-13 19:43:29 GMT 27.885544 -16.541523 6,225 274 273 -1216
2021-10-13 19:43:18 GMT 27.884604 -16.526871 6,450 275 273 -1280
2021-10-13 19:43:08 GMT 27.883533 -16.512293 6,675 276 274 -1280
2021-10-13 19:42:57 GMT 27.882339 -16.496696 6,900 276 275 -1216
2021-10-13 19:42:48 GMT 27.881298 -16.483349 7,100 276 277 -1280
2021-10-13 19:42:38 GMT 27.880089 -16.468559 7,325 276 278 -1280
2021-10-13 19:42:28 GMT 27.878906 -16.454100 7,525 276 279 -1280
2021-10-13 19:42:17 GMT 27.877714 -16.439243 7,750 276 280 -1216
2021-10-13 19:42:07 GMT 27.876551 -16.424507 7,950 276 281 -1344
2021-10-13 19:41:57 GMT 27.875340 -16.409138 8,200 276 282 -1344
2021-10-13 19:41:47 GMT 27.874178 -16.394032 8,425 275 283 -1344
2021-10-13 19:41:37 GMT 27.873106 -16.379454 8,650 275 284 -1344
2021-10-13 19:41:27 GMT 27.871994 -16.364655 8,875 276 284 -1408
2021-10-13 19:41:16 GMT 27.870804 -16.349470 9,125 275 285 -1408
2021-10-13 19:41:06 GMT 27.869614 -16.334183 9,350 276 285 -1344
2021-10-13 19:40:56 GMT 27.868450 -16.319029 9,575 276 286 -1344
2021-10-13 19:40:46 GMT 27.867287 -16.304239 9,775 276 288 -1344
2021-10-13 19:40:35 GMT 27.865952 -16.288372 9,975 276 291 -960
2021-10-13 19:40:26 GMT 27.864716 -16.273550 10,075 276 299 -320
2021-10-13 19:40:15 GMT 27.863388 -16.257484 10,150 276 306 -448
2021-10-13 19:40:05 GMT 27.862061 -16.241264 10,200 276 315 -192
2021-10-13 19:39:55 GMT 27.860630 -16.223532 10,325 276 321 -1280
2021-10-13 19:39:45 GMT 27.859234 -16.206682 10,675 276 319 -2432
2021-10-13 19:39:35 GMT 27.857895 -16.190428 11,000 274 320 -1792
2021-10-13 19:39:24 GMT 27.857849 -16.173273 11,300 264 320 -1664
2021-10-13 19:39:14 GMT 27.859589 -16.156431 11,575 264 322 -1664
2021-10-13 19:39:04 GMT 27.861422 -16.139391 11,850 264 324 -1536
2021-10-13 19:38:54 GMT 27.863251 -16.122074 12,125 264 326 -1664
2021-10-13 19:38:44 GMT 27.865145 -16.104637 12,425 263 327 -1728
2021-10-13 19:38:33 GMT 27.867054 -16.087101 12,725 264 329 -1728
2021-10-13 19:38:23 GMT 27.868881 -16.069992 13,000 264 331 -1728
2021-10-13 19:38:13 GMT 27.870777 -16.052452 13,300 264 333 -1728
2021-10-13 19:38:05 GMT 27.872175 -16.039669 13,500 264 334 -1728
2021-10-13 19:38:03 GMT 27.872681 -16.035168 13,575 264 335 -1728
2021-10-13 19:37:55 GMT 27.874037 -16.022133 13,800 264 336 -1728
2021-10-13 19:37:52 GMT 27.874641 -16.016693 13,875 264 336 -1728
2021-10-13 19:37:46 GMT 27.875839 -16.005007 14,075 264 337 -1792
2021-10-13 19:37:43 GMT 27.876434 -15.999566 14,175 264 338 -1792
2021-10-13 19:37:36 GMT 27.877714 -15.987484 14,375 264 339 -1728
2021-10-13 19:37:32 GMT 27.878357 -15.981480 14,475 264 340 -1728
2021-10-13 19:37:26 GMT 27.879547 -15.970234 14,650 264 341 -1728
2021-10-13 19:37:22 GMT 27.880276 -15.963504 14,775 264 341 -1728
2021-10-13 19:37:16 GMT 27.881485 -15.951832 14,950 264 342 -1728
2021-10-13 19:37:12 GMT 27.882137 -15.945599 15,050 264 343 -1728
2021-10-13 19:37:06 GMT 27.883301 -15.934425 15,250 264 344 -1728
2021-10-13 19:37:02 GMT 27.884047 -15.927640 15,350 264 344 -1728
2021-10-13 19:36:56 GMT 27.885269 -15.916028 15,550 264 345 -1792
2021-10-13 19:36:52 GMT 27.885954 -15.909207 15,650 264 345 -1792
2021-10-13 19:36:45 GMT 27.887238 -15.897217 15,850 264 346 -1792
2021-10-13 19:36:41 GMT 27.887863 -15.891090 15,950 264 347 -1728
2021-10-13 19:36:36 GMT 27.889023 -15.880478 16,125 264 348 -1792
2021-10-13 19:36:30 GMT 27.890167 -15.869803 16,300 264 350 -1792
2021-10-13 19:36:26 GMT 27.890991 -15.861822 16,425 264 350 -1792
2021-10-13 19:36:19 GMT 27.892273 -15.849851 16,625 264 351 -1792
2021-10-13 19:36:16 GMT 27.892914 -15.843840 16,725 264 352 -1792
2021-10-13 19:36:10 GMT 27.894009 -15.833253 16,900 264 353 -1792
2021-10-13 19:36:06 GMT 27.894798 -15.825383 17,025 264 354 -1792
2021-10-13 19:36:01 GMT 27.895706 -15.816737 17,175 264 354 -1792
2021-10-13 19:35:56 GMT 27.896667 -15.807357 17,325 264 355 -1792
2021-10-13 19:35:51 GMT 27.897684 -15.797600 17,475 264 356 -1792
2021-10-13 19:35:45 GMT 27.898636 -15.788338 17,625 264 357 -1856
2021-10-13 19:35:41 GMT 27.899551 -15.779425 17,775 264 358 -1856
2021-10-13 19:35:35 GMT 27.900572 -15.769395 17,950 264 358 -1856
2021-10-13 19:35:29 GMT 27.901840 -15.757348 18,150 264 359 -1856
2021-10-13 19:35:25 GMT 27.902527 -15.750819 18,250 264 360 -1856
2021-10-13 19:35:20 GMT 27.903442 -15.741802 18,425 264 361 -1856
2021-10-13 19:35:15 GMT 27.904434 -15.732475 18,550 264 362 -1920
2021-10-13 19:35:11 GMT 27.905319 -15.723664 18,700 264 363 -1920
2021-10-13 19:35:08 GMT 27.905823 -15.718948 18,775 264 363 -1920
2021-10-13 19:35:05 GMT 27.906343 -15.713671 18,875 264 363 -1856
2021-10-13 19:35:00 GMT 27.907415 -15.703266 19,050 264 364 -1856
2021-10-13 19:34:55 GMT 27.908340 -15.694436 19,200 264 365 -1856
2021-10-13 19:34:49 GMT 27.909485 -15.683605 19,350 264 366 -1856
2021-10-13 19:34:45 GMT 27.910349 -15.675642 19,500 264 366 -1856
2021-10-13 19:34:39 GMT 27.911465 -15.664972 19,650 264 368 -1920
2021-10-13 19:34:35 GMT 27.912350 -15.656415 19,825 264 368 -1920
2021-10-13 19:34:29 GMT 27.913559 -15.644739 19,975 264 369 -1920
2021-10-13 19:34:25 GMT 27.914398 -15.636503 20,150 264 370 -1920
2021-10-13 19:34:19 GMT 27.915482 -15.625720 20,325 264 371 -1920
2021-10-13 19:34:15 GMT 27.916399 -15.617065 20,475 264 371 -1920
2021-10-13 19:34:10 GMT 27.917450 -15.607012 20,625 264 372 -1920
2021-10-13 19:34:08 GMT 27.917749 -15.604125 20,725 264 373 -1920
2021-10-13 19:34:05 GMT 27.918402 -15.597734 20,800 264 373 -1920
2021-10-13 19:33:59 GMT 27.919647 -15.585557 21,000 264 374 -1920
2021-10-13 19:33:55 GMT 27.920357 -15.578560 21,100 264 375 -1920
2021-10-13 19:33:50 GMT 27.921432 -15.567834 21,275 264 376 -1920
2021-10-13 19:33:48 GMT 27.921753 -15.564933 21,325 264 376 -1920
2021-10-13 19:33:45 GMT 27.922312 -15.559229 21,425 264 377 -1920
2021-10-13 19:33:40 GMT 27.923447 -15.548297 21,600 264 377 -1984
2021-10-13 19:33:38 GMT 27.923859 -15.544566 21,675 264 378 -1984
2021-10-13 19:33:35 GMT 27.924316 -15.539850 21,750 264 378 -1984
2021-10-13 19:33:28 GMT 27.925896 -15.524949 22,000 264 379 -1984
2021-10-13 19:33:25 GMT 27.926422 -15.519795 22,075 264 380 -1984
2021-10-13 19:33:18 GMT 27.928038 -15.504244 22,325 264 381 -1920
2021-10-13 19:33:15 GMT 27.928528 -15.499895 22,400 264 381 -1920
2021-10-13 19:33:08 GMT 27.929947 -15.486007 22,825 264 383 -1984
2021-10-13 19:33:05 GMT 27.930634 -15.479840 22,725 264 383 -1984
2021-10-13 19:32:57 GMT 27.932135 -15.465317 23,000 264 384 -1984
2021-10-13 19:32:54 GMT 27.932877 -15.458126 23,100 264 385 -1984
2021-10-13 19:32:49 GMT 27.933809 -15.448943 23,250 264 385 -1984
2021-10-13 19:32:47 GMT 27.934158 -15.445741 23,300 264 386 -1984
2021-10-13 19:32:44 GMT 27.934834 -15.438907 23,400 264 386 -1984
2021-10-13 19:32:37 GMT 27.936184 -15.425280 23,725 264 388 -1984
2021-10-13 19:32:34 GMT 27.936743 -15.419259 23,750 264 388 -1984
2021-10-13 19:32:27 GMT 27.938828 -15.398272 24,075 264 389 -1984
2021-10-13 19:32:24 GMT 27.938828 -15.398272 24,075 264 389 -1984
2021-10-13 19:32:17 GMT 27.940187 -15.384737 24,300 264 390 -1984
2021-10-13 19:32:13 GMT 27.940886 -15.377628 24,425 264 391 -1984
2021-10-13 19:32:09 GMT 27.941862 -15.368096 24,575 264 391 -1984
2021-10-13 19:32:07 GMT 27.942329 -15.363841 24,650 264 392 -1984
2021-10-13 19:32:03 GMT 27.943073 -15.356679 24,775 264 392 -1984
2021-10-13 19:31:58 GMT 27.944052 -15.347093 24,925 264 393 -2048
2021-10-13 19:31:56 GMT 27.944517 -15.342838 25,000 264 394 -2048
2021-10-13 19:31:53 GMT 27.945263 -15.335675 25,075 264 394 -2048
2021-10-13 19:31:48 GMT 27.946239 -15.326466 25,275 264 395 -2112
2021-10-13 19:31:46 GMT 27.946655 -15.322389 25,350 264 395 -2112
2021-10-13 19:31:43 GMT 27.947433 -15.315206 25,425 264 395 -2112
2021-10-13 19:31:39 GMT 27.948334 -15.306594 25,600 264 396 -2112
2021-10-13 19:31:36 GMT 27.948853 -15.301208 25,700 264 396 -2112
2021-10-13 19:31:33 GMT 27.949631 -15.294025 25,825 264 397 -2112
2021-10-13 19:31:28 GMT 27.950521 -15.285160 25,975 264 397 -2112
2021-10-13 19:31:24 GMT 27.951508 -15.275697 26,125 264 398 -2176
2021-10-13 19:31:22 GMT 27.951828 -15.272792 26,200 264 398 -2176
2021-10-13 19:31:19 GMT 27.952572 -15.265341 26,325 264 399 -2112
2021-10-13 19:31:14 GMT 27.953659 -15.254781 26,500 264 400 -2112
2021-10-13 19:31:12 GMT 27.953966 -15.251662 26,550 264 400 -2112
2021-10-13 19:31:09 GMT 27.954664 -15.244392 26,675 264 400 -2112
2021-10-13 19:31:04 GMT 27.955643 -15.233998 26,850 265 401 -2112
2021-10-13 19:30:59 GMT 27.956573 -15.223820 27,025 264 401 -2112
2021-10-13 19:30:54 GMT 27.957739 -15.212510 27,225 262 402 -2176
2021-10-13 19:30:51 GMT 27.958250 -15.208363 27,300 261 402 -2176
2021-10-13 19:30:47 GMT 27.959610 -15.199638 27,450 259 403 -2176
2021-10-13 19:30:44 GMT 27.961042 -15.191991 27,575 257 404 -2240
2021-10-13 19:30:41 GMT 27.962128 -15.186856 27,675 255 404 -2432
2021-10-13 19:30:38 GMT 27.963417 -15.181544 27,800 254 404 -2496
2021-10-13 19:30:34 GMT 27.966202 -15.171168 28,025 251 404 -2944
2021-10-13 19:30:31 GMT 27.967712 -15.166415 28,150 250 403 -3264
2021-10-13 19:30:27 GMT 27.969841 -15.160056 28,325 247 402 -3648
2021-10-13 19:30:24 GMT 27.972914 -15.152139 28,800 243 399 -3712
2021-10-13 19:30:20 GMT 27.975800 -15.145569 28,825 243 399 -3712
2021-10-13 19:30:17 GMT 27.977755 -15.141260 28,925 242 399 -3200
2021-10-13 19:30:14 GMT 27.981949 -15.132875 29,125 240 401 -2176
2021-10-13 19:30:08 GMT 27.986572 -15.123843 29,300 240 401 -1984
2021-10-13 19:30:03 GMT 27.992092 -15.113095 29,500 241 403 -1984
2021-10-13 19:29:58 GMT 27.995819 -15.105779 29,625 241 403 -1984
2021-10-13 19:29:52 GMT 28.002102 -15.093491 29,800 241 404 -2048
2021-10-13 19:29:49 GMT 28.004059 -15.089669 29,925 241 405 -2048
2021-10-13 19:29:46 GMT 28.006758 -15.084336 30,025 241 405 -2048
2021-10-13 19:29:42 GMT 28.011429 -15.075091 30,175 241 406 -2048
2021-10-13 19:29:38 GMT 28.014439 -15.069203 30,300 241 408 -2048
2021-10-13 19:29:33 GMT 28.019512 -15.059186 30,475 241 408 -2048
2021-10-13 19:29:31 GMT 28.021793 -15.054770 30,600 241 410 -2048
2021-10-13 19:29:28 GMT 28.024246 -15.049949 30,650 241 410 -2048
2021-10-13 19:29:23 GMT 28.028589 -15.041360 30,825 241 411 -2048
2021-10-13 19:29:18 GMT 28.033813 -15.031093 31,000 241 412 -1984
2021-10-13 19:29:13 GMT 28.038460 -15.021973 31,150 241 413 -2048
2021-10-13 19:29:11 GMT 28.040367 -15.018203 31,225 241 413 -2048
2021-10-13 19:29:08 GMT 28.043116 -15.012764 31,325 241 414 -2048
2021-10-13 19:29:03 GMT 28.047909 -15.003339 31,500 241 416 -2048
2021-10-13 19:29:01 GMT 28.050003 -14.999192 31,575 241 416 -2048
2021-10-13 19:28:58 GMT 28.052490 -14.994331 31,675 241 417 -2048
2021-10-13 19:28:53 GMT 28.057686 -14.984113 31,850 241 417 -2048
2021-10-13 19:28:48 GMT 28.062481 -14.974635 32,025 241 419 -2048
2021-10-13 19:28:43 GMT 28.067413 -14.964911 32,200 241 420 -2048
2021-10-13 19:28:38 GMT 28.072174 -14.955615 32,375 241 421 -2048
2021-10-13 19:28:33 GMT 28.076935 -14.946213 32,525 241 422 -2048
2021-10-13 19:28:28 GMT 28.081894 -14.936452 32,725 241 422 -2112
2021-10-13 19:28:23 GMT 28.086777 -14.926828 32,900 241 424 -2176
2021-10-13 19:28:17 GMT 28.092552 -14.915502 33,100 241 425 -2176
2021-10-13 19:28:13 GMT 28.096558 -14.907586 33,250 241 426 -2112
2021-10-13 19:28:08 GMT 28.101746 -14.897355 33,450 241 427 -2112
2021-10-13 19:28:02 GMT 28.106892 -14.887282 33,650 241 428 -2304
2021-10-13 19:27:58 GMT 28.111496 -14.878129 33,825 241 428 -2688
2021-10-13 19:27:52 GMT 28.117041 -14.867249 34,075 241 428 -2816
2021-10-13 19:27:48 GMT 28.121323 -14.858686 34,300 241 427 -2816
2021-10-13 19:27:42 GMT 28.126955 -14.847645 34,550 241 427 -2752
2021-10-13 19:27:38 GMT 28.131363 -14.838938 34,750 241 427 -2752
2021-10-13 19:27:32 GMT 28.136948 -14.827898 35,000 241 427 -2688
2021-10-13 19:27:28 GMT 28.141388 -14.819131 35,225 241 426 -2688
2021-10-13 19:27:23 GMT 28.145920 -14.810257 35,400 241 427 -2624
2021-10-13 19:27:18 GMT 28.150955 -14.800380 35,625 241 427 -2368
2021-10-13 19:27:13 GMT 28.156036 -14.790291 35,825 241 427 -1984
2021-10-13 19:27:08 GMT 28.160751 -14.780974 35,950 241 427 -1344
2021-10-13 19:27:03 GMT 28.165546 -14.771495 36,050 241 427 -960
2021-10-13 19:26:58 GMT 28.170776 -14.761188 36,150 241 426 -960
2021-10-13 19:26:53 GMT 28.175583 -14.751734 36,225 241 425 -960
2021-10-13 19:26:51 GMT 28.177046 -14.748822 36,250 241 425 -896
2021-10-13 19:26:47 GMT 28.180756 -14.741487 36,300 241 424 -896
2021-10-13 19:26:43 GMT 28.185331 -14.732451 36,375 241 423 -960
2021-10-13 19:26:41 GMT 28.187164 -14.728757 36,400 241 422 -960
2021-10-13 19:26:36 GMT 28.191057 -14.721087 36,475 241 422 -960
2021-10-13 19:26:33 GMT 28.194901 -14.713440 36,550 241 421 -1024
2021-10-13 19:26:30 GMT 28.196831 -14.709616 36,575 241 420 -1024
2021-10-13 19:26:26 GMT 28.200602 -14.702130 36,625 241 420 -1088
2021-10-13 19:26:21 GMT 28.206421 -14.690713 36,725 241 419 -1088
2021-10-13 19:26:17 GMT 28.210144 -14.683281 36,800 241 419 -1088
2021-10-13 19:26:13 GMT 28.214401 -14.674882 36,875 241 419 -1024
2021-10-13 19:26:10 GMT 28.216335 -14.671056 36,925 241 419 -896
2021-10-13 19:26:07 GMT 28.219482 -14.664794 36,950 241 420 -704
2021-10-13 19:26:03 GMT 28.223923 -14.656026 37,000 241 420 -64
2021-10-13 19:26:00 GMT 28.226343 -14.651238 37,000 241 420 0
2021-10-13 19:25:57 GMT 28.229599 -14.644775 37,000 241 420 0
2021-10-13 19:25:52 GMT 28.233627 -14.636747 37,000 241 420 0
2021-10-13 19:25:50 GMT 28.235733 -14.632521 37,000 241 420 0
2021-10-13 19:25:46 GMT 28.239487 -14.625074 37,000 241 419 0
2021-10-13 19:25:42 GMT 28.243151 -14.617848 37,000 241 419 0
2021-10-13 19:25:36 GMT 28.249191 -14.605795 37,000 241 420 0
2021-10-13 19:25:32 GMT 28.253065 -14.598191 37,000 241 419 0
2021-10-13 19:25:27 GMT 28.258530 -14.587308 37,000 241 419 0
2021-10-13 19:25:22 GMT 28.262377 -14.579665 37,000 241 419 0
2021-10-13 19:25:19 GMT 28.265354 -14.573741 37,000 241 419 0
2021-10-13 19:25:16 GMT 28.268784 -14.566868 37,000 241 419 0
2021-10-13 19:25:12 GMT 28.272058 -14.560385 37,000 241 419 0
2021-10-13 19:25:09 GMT 28.274805 -14.554838 37,000 241 419 0
2021-10-13 19:25:06 GMT 28.278671 -14.547219 37,000 241 419 0
2021-10-13 19:25:01 GMT 28.282114 -14.540351 37,000 241 419 0
2021-10-13 19:24:59 GMT 28.284861 -14.534804 37,000 241 419 0
2021-10-13 19:24:56 GMT 28.289003 -14.526619 37,000 241 418 0
2021-10-13 19:24:52 GMT 28.291378 -14.521825 37,000 241 418 0
2021-10-13 19:24:49 GMT 28.294830 -14.514947 37,000 241 418 0
2021-10-13 19:24:46 GMT 28.297165 -14.510404 37,000 241 418 0
2021-10-13 19:24:44 GMT 28.299133 -14.506390 37,000 241 418 0
2021-10-13 19:24:41 GMT 28.301340 -14.502007 37,000 241 418 0
2021-10-13 19:24:39 GMT 28.304031 -14.496671 37,000 241 418 0
2021-10-13 19:24:35 GMT 28.308462 -14.487897 37,000 241 418 0
2021-10-13 19:24:32 GMT 28.310650 -14.483481 37,000 241 418 0
2021-10-13 19:24:29 GMT 28.313919 -14.477023 37,000 241 418 0
2021-10-13 19:24:26 GMT 28.316666 -14.471477 37,000 241 418 -64
2021-10-13 19:24:21 GMT 28.320419 -14.464029 37,000 241 418 -64
2021-10-13 19:24:16 GMT 28.329830 -14.445352 37,000 241 418 64
2021-10-13 19:24:12 GMT 28.329830 -14.445352 37,000 241 418 64
2021-10-13 19:24:06 GMT 28.336029 -14.432972 37,000 241 418 0
2021-10-13 19:24:02 GMT 28.339466 -14.426126 37,000 241 418 0
2021-10-13 19:23:58 GMT 28.343307 -14.418499 37,000 241 418 0
2021-10-13 19:23:55 GMT 28.346512 -14.412214 37,000 241 418 0
2021-10-13 19:23:52 GMT 28.348963 -14.407277 37,000 241 418 0
2021-10-13 19:23:48 GMT 28.353012 -14.399273 37,000 241 418 0
2021-10-13 19:23:45 GMT 28.355528 -14.394298 37,000 241 418 0
2021-10-13 19:23:42 GMT 28.358646 -14.388051 37,000 241 418 0
2021-10-13 19:23:36 GMT 28.364792 -14.375826 37,000 241 418 0
2021-10-13 19:23:32 GMT 28.367956 -14.369579 37,000 241 418 0
2021-10-13 19:23:26 GMT 28.374474 -14.356600 37,000 241 418 0
2021-10-13 19:23:22 GMT 28.377825 -14.349922 37,000 241 418 0
2021-10-13 19:23:15 GMT 28.384460 -14.336788 37,000 241 418 0
2021-10-13 19:23:12 GMT 28.387436 -14.330873 37,000 241 418 -64
2021-10-13 19:23:06 GMT 28.393654 -14.318525 37,000 241 418 0
2021-10-13 19:23:02 GMT 28.397005 -14.311847 37,000 241 418 0
2021-10-13 19:22:56 GMT 28.403151 -14.299675 37,000 241 418 64
2021-10-13 19:22:52 GMT 28.406502 -14.292997 37,000 241 418 0
2021-10-13 19:22:46 GMT 28.412842 -14.280167 37,000 241 419 -64
2021-10-13 19:22:42 GMT 28.416231 -14.273287 37,000 241 417 -64
2021-10-13 19:22:36 GMT 28.422455 -14.260888 37,000 239 417 0
2021-10-13 19:22:32 GMT 28.426163 -14.253968 37,000 238 418 0
2021-10-13 19:22:25 GMT 28.432663 -14.242718 37,000 235 419 0
2021-10-13 19:22:21 GMT 28.437971 -14.234296 37,000 234 419 0
2021-10-13 19:22:15 GMT 28.444382 -14.224865 37,000 231 420 0
2021-10-13 19:22:12 GMT 28.449875 -14.217418 37,000 229 420 0
2021-10-13 19:22:04 GMT 28.458298 -14.206907 37,000 226 422 0
2021-10-13 19:22:02 GMT 28.461992 -14.202630 37,000 224 422 0
2021-10-13 19:22:00 GMT 28.464367 -14.199991 37,000 224 422 0
2021-10-13 19:21:54 GMT 28.473175 -14.190797 37,000 222 424 0
2021-10-13 19:21:50 GMT 28.478989 -14.185145 37,000 221 424 -64
2021-10-13 19:21:45 GMT 28.486633 -14.177751 37,000 221 425 0
2021-10-13 19:21:42 GMT 28.491531 -14.172944 37,000 221 424 64
2021-10-13 19:21:40 GMT 28.493774 -14.170779 37,000 221 424 0
2021-10-13 19:21:34 GMT 28.502014 -14.162803 37,000 221 424 0
2021-10-13 19:21:31 GMT 28.507233 -14.157680 37,000 221 425 0
2021-10-13 19:21:29 GMT 28.510345 -14.154616 37,000 221 425 0
2021-10-13 19:21:24 GMT 28.517075 -14.148067 37,000 221 425 -64
2021-10-13 19:21:22 GMT 28.522137 -14.143120 37,000 221 425 0
2021-10-13 19:21:19 GMT 28.525131 -14.140197 37,000 221 425 0
2021-10-13 19:21:15 GMT 28.531265 -14.134228 37,000 221 425 0
2021-10-13 19:21:12 GMT 28.536484 -14.129157 37,000 221 425 0
2021-10-13 19:21:09 GMT 28.540192 -14.125513 37,000 221 425 0
2021-10-13 19:21:05 GMT 28.546762 -14.119101 37,000 221 425 -64
2021-10-13 19:21:02 GMT 28.551977 -14.113985 37,000 221 425 -64
2021-10-13 19:20:59 GMT 28.554932 -14.111041 37,000 221 425 -64
2021-10-13 19:20:55 GMT 28.561066 -14.105072 37,000 221 425 0
2021-10-13 19:20:52 GMT 28.566879 -14.099368 37,000 221 425 0
2021-10-13 19:20:48 GMT 28.572693 -14.093716 37,000 221 425 0
2021-10-13 19:20:44 GMT 28.576996 -14.089490 37,000 221 424 0
2021-10-13 19:20:42 GMT 28.581619 -14.084948 37,000 221 424 0
2021-10-13 19:20:38 GMT 28.586100 -14.080595 37,000 221 424 0
2021-10-13 19:20:32 GMT 28.596680 -14.070264 37,000 221 424 64
2021-10-13 19:20:28 GMT 28.601303 -14.065775 37,000 221 424 0
2021-10-13 19:20:25 GMT 28.606071 -14.061100 37,000 221 424 64
2021-10-13 19:20:22 GMT 28.611006 -14.056307 37,000 221 424 0
2021-10-13 19:20:17 GMT 28.619202 -14.048292 37,000 221 424 0
2021-10-13 19:20:14 GMT 28.622635 -14.044911 37,000 221 424 0
2021-10-13 19:20:12 GMT 28.626205 -14.041425 37,000 221 424 64
2021-10-13 19:20:09 GMT 28.631580 -14.036219 37,000 221 424 0
2021-10-13 19:20:04 GMT 28.637558 -14.030386 37,000 221 424 0
2021-10-13 19:20:02 GMT 28.641451 -14.026633 37,000 221 424 0
2021-10-13 19:19:58 GMT 28.647263 -14.020932 37,000 221 424 0
2021-10-13 19:19:54 GMT 28.652481 -14.015861 37,000 221 424 -64
2021-10-13 19:19:51 GMT 28.656532 -14.011931 37,000 221 424 -64
2021-10-13 19:19:47 GMT 28.664913 -14.003852 37,000 221 424 0
2021-10-13 19:19:44 GMT 28.667908 -14.000913 37,000 221 424 0
2021-10-13 19:19:40 GMT 28.671799 -13.997163 37,000 221 425 0
2021-10-13 19:19:37 GMT 28.678391 -13.990772 37,000 221 425 0
2021-10-13 19:19:34 GMT 28.682877 -13.986388 37,000 221 424 0
2021-10-13 19:19:31 GMT 28.686584 -13.982796 37,000 221 424 0
2021-10-13 19:19:26 GMT 28.694641 -13.974926 37,000 221 425 0
2021-10-13 19:19:23 GMT 28.697498 -13.972132 37,000 221 425 0
2021-10-13 19:19:21 GMT 28.701370 -13.968324 37,000 221 425 0
2021-10-13 19:19:17 GMT 28.707602 -13.962223 37,000 221 425 0
2021-10-13 19:19:14 GMT 28.712402 -13.957549 37,000 221 425 0
2021-10-13 19:19:11 GMT 28.716110 -13.953852 37,000 221 425 -64
2021-10-13 19:19:07 GMT 28.722794 -13.947302 37,000 221 425 0
2021-10-13 19:19:03 GMT 28.727417 -13.942760 37,000 221 425 0
2021-10-13 19:19:01 GMT 28.731623 -13.938688 37,000 221 425 0
2021-10-13 19:18:56 GMT 28.738325 -13.932118 37,000 221 425 0
2021-10-13 19:18:53 GMT 28.742933 -13.927540 37,000 221 425 0
2021-10-13 19:18:50 GMT 28.747217 -13.923286 37,000 221 425 64
2021-10-13 19:18:47 GMT 28.754059 -13.916561 37,000 221 426 0
2021-10-13 19:18:44 GMT 28.757217 -13.913445 37,000 221 426 0
2021-10-13 19:18:41 GMT 28.761383 -13.909378 37,000 221 425 0
2021-10-13 19:18:36 GMT 28.769119 -13.901719 37,000 221 425 0
2021-10-13 19:18:33 GMT 28.773743 -13.897177 37,000 221 425 64
2021-10-13 19:18:30 GMT 28.776686 -13.894258 37,000 221 425 0
2021-10-13 19:18:24 GMT 28.787111 -13.883972 37,000 221 426 0
2021-10-13 19:18:21 GMT 28.791138 -13.880011 37,000 221 426 0
2021-10-13 19:18:14 GMT 28.805923 -13.865538 37,000 221 426 0
2021-10-13 19:18:11 GMT 28.805923 -13.865538 37,000 221 426 0
2021-10-13 19:18:06 GMT 28.814621 -13.857035 37,000 221 426 0
2021-10-13 19:18:01 GMT 28.821327 -13.850421 37,000 221 426 0
2021-10-13 19:17:54 GMT 28.832129 -13.839865 37,000 221 426 0
2021-10-13 19:17:51 GMT 28.835999 -13.836065 37,000 221 426 0
2021-10-13 19:17:43 GMT 28.847946 -13.824287 37,000 221 426 0
2021-10-13 19:17:40 GMT 28.852146 -13.820155 37,000 221 426 0
2021-10-13 19:17:33 GMT 28.862619 -13.809868 37,000 221 427 0
2021-10-13 19:17:31 GMT 28.866064 -13.806475 37,000 221 427 0
2021-10-13 19:17:22 GMT 28.878914 -13.793820 37,000 221 427 0
2021-10-13 19:17:20 GMT 28.882187 -13.790588 37,000 221 427 0
2021-10-13 19:17:13 GMT 28.893265 -13.779708 37,000 221 427 0
2021-10-13 19:17:11 GMT 28.896231 -13.776748 37,000 221 427 0
2021-10-13 19:17:04 GMT 28.906752 -13.766462 37,000 221 428 0
2021-10-13 19:17:01 GMT 28.911209 -13.762013 37,000 221 427 0
2021-10-13 19:16:53 GMT 28.923092 -13.750413 37,000 221 427 0
2021-10-13 19:16:50 GMT 28.926817 -13.746751 37,000 221 427 0
2021-10-13 19:16:42 GMT 28.938826 -13.734957 37,000 221 427 0
2021-10-13 19:16:40 GMT 28.942474 -13.731431 37,000 221 427 0
2021-10-13 19:16:33 GMT 28.953552 -13.720551 37,000 221 428 0
2021-10-13 19:16:31 GMT 28.958378 -13.715838 37,000 221 428 0
2021-10-13 19:16:23 GMT 28.968704 -13.705656 37,000 221 428 0
2021-10-13 19:16:21 GMT 28.971863 -13.702592 37,000 221 427 0
2021-10-13 19:16:12 GMT 28.985046 -13.689599 37,000 221 428 0
2021-10-13 19:16:09 GMT 28.988205 -13.686482 37,000 221 428 0
2021-10-13 19:16:02 GMT 28.999008 -13.675813 37,000 221 428 0
2021-10-13 19:15:59 GMT 29.003487 -13.671408 37,000 221 428 0
2021-10-13 19:15:52 GMT 29.018463 -13.656640 37,000 221 428 -64
2021-10-13 19:15:49 GMT 29.018463 -13.656640 37,000 221 428 -64
2021-10-13 19:15:41 GMT 29.029266 -13.645970 37,000 221 427 0
2021-10-13 19:15:39 GMT 29.033747 -13.641573 37,000 221 427 0
2021-10-13 19:15:32 GMT 29.043777 -13.631656 37,000 221 427 0
2021-10-13 19:15:30 GMT 29.049637 -13.625899 37,000 221 427 0
2021-10-13 19:15:21 GMT 29.059799 -13.615864 37,000 221 427 0
2021-10-13 19:15:19 GMT 29.064148 -13.611585 37,000 221 427 0
2021-10-13 19:15:11 GMT 29.079254 -13.596637 37,000 222 426 0
2021-10-13 19:15:08 GMT 29.079254 -13.596637 37,000 222 426 0
2021-10-13 19:15:02 GMT 29.088638 -13.587341 37,000 222 426 0
2021-10-13 19:15:00 GMT 29.091612 -13.584379 37,000 222 426 0
2021-10-13 19:14:58 GMT 29.094589 -13.581417 37,000 222 426 0
2021-10-13 19:14:51 GMT 29.104877 -13.571239 37,000 222 426 0
2021-10-13 19:14:48 GMT 29.110138 -13.566123 37,000 222 426 0
2021-10-13 19:14:42 GMT 29.119217 -13.557076 37,000 222 425 0
2021-10-13 19:14:38 GMT 29.124985 -13.551372 37,000 222 425 0
2021-10-13 19:14:32 GMT 29.134346 -13.542050 37,000 221 425 0
2021-10-13 19:14:29 GMT 29.137344 -13.539118 37,000 221 425 0
2021-10-13 19:14:27 GMT 29.140320 -13.536160 37,000 222 424 0
2021-10-13 19:14:22 GMT 29.149660 -13.526863 37,000 222 425 0
2021-10-13 19:14:19 GMT 29.151850 -13.524655 37,000 221 423 0
2021-10-13 19:14:17 GMT 29.155993 -13.520562 37,000 221 424 0
2021-10-13 19:14:09 GMT 29.170029 -13.507426 37,000 218 426 0
2021-10-13 19:14:00 GMT 29.184296 -13.495412 37,000 217 426 0
2021-10-13 19:13:57 GMT 29.186857 -13.493257 37,000 217 426 0
2021-10-13 19:13:50 GMT 29.203125 -13.479696 37,000 217 426 0
2021-10-13 19:13:47 GMT 29.203125 -13.479696 37,000 217 426 0
2021-10-13 19:13:40 GMT 29.214249 -13.470400 37,000 217 425 0
2021-10-13 19:13:37 GMT 29.219351 -13.466169 37,000 217 425 0
2021-10-13 19:13:30 GMT 29.235260 -13.452917 37,000 217 425 0
2021-10-13 19:13:27 GMT 29.235260 -13.452917 37,000 217 425 0
2021-10-13 19:13:19 GMT 29.250214 -13.440426 37,000 217 425 0
2021-10-13 19:13:16 GMT 29.251797 -13.439080 37,000 217 425 0
2021-10-13 19:13:10 GMT 29.262131 -13.430416 37,000 217 425 0
2021-10-13 19:13:08 GMT 29.264969 -13.428040 37,000 217 425 0
2021-10-13 19:13:05 GMT 29.269114 -13.424539 37,000 217 425 0
2021-10-13 19:13:00 GMT 29.277679 -13.417376 37,000 217 424 0
2021-10-13 19:12:56 GMT 29.283871 -13.412152 37,000 217 424 0
2021-10-13 19:12:50 GMT 29.294020 -13.403643 37,000 217 425 0
2021-10-13 19:12:45 GMT 29.300676 -13.398043 37,000 217 424 0
2021-10-13 19:12:40 GMT 29.309381 -13.390718 37,000 217 424 0
2021-10-13 19:12:38 GMT 29.314178 -13.386682 37,000 217 425 0
2021-10-13 19:12:35 GMT 29.316690 -13.384579 37,000 217 425 0
2021-10-13 19:12:30 GMT 29.325768 -13.376932 37,000 217 425 0
2021-10-13 19:12:25 GMT 29.333817 -13.370150 37,000 217 425 0
2021-10-13 19:12:21 GMT 29.340200 -13.364814 37,000 217 426 0
2021-10-13 19:12:15 GMT 29.349695 -13.356790 37,000 217 425 0
2021-10-13 19:12:10 GMT 29.357145 -13.350543 37,000 217 425 0
2021-10-13 19:12:05 GMT 29.364594 -13.344242 37,000 217 425 -64
2021-10-13 19:12:00 GMT 29.373159 -13.337025 37,000 217 425 0
2021-10-13 19:11:55 GMT 29.381397 -13.330078 37,000 217 426 0
2021-10-13 19:11:49 GMT 29.389984 -13.322877 37,000 217 425 0
2021-10-13 19:11:44 GMT 29.397629 -13.316433 37,000 217 426 0
2021-10-13 19:11:39 GMT 29.406006 -13.309356 37,000 217 425 0
2021-10-13 19:11:34 GMT 29.414612 -13.302172 37,000 217 425 0
2021-10-13 19:11:30 GMT 29.419991 -13.297604 37,000 217 425 0
2021-10-13 19:11:24 GMT 29.429718 -13.289496 37,000 217 426 0
2021-10-13 19:11:19 GMT 29.437960 -13.282525 37,000 217 426 0
2021-10-13 19:11:15 GMT 29.445786 -13.275974 37,000 217 426 0
2021-10-13 19:11:09 GMT 29.454071 -13.269055 37,000 217 427 0
2021-10-13 19:11:04 GMT 29.462027 -13.262329 37,000 217 427 0
2021-10-13 19:11:00 GMT 29.468719 -13.256748 37,000 217 427 -64
2021-10-13 19:10:54 GMT 29.478086 -13.248812 37,000 217 427 0
2021-10-13 19:10:49 GMT 29.485748 -13.242381 37,000 217 427 0
2021-10-13 19:10:44 GMT 29.494194 -13.235294 37,000 217 427 64
2021-10-13 19:10:40 GMT 29.500854 -13.229652 37,000 217 427 0
2021-10-13 19:10:33 GMT 29.510580 -13.221453 37,000 217 427 0
2021-10-13 19:10:30 GMT 29.517097 -13.215960 37,000 217 427 0
2021-10-13 19:10:23 GMT 29.527618 -13.207074 37,000 217 427 0
2021-10-13 19:10:20 GMT 29.532879 -13.202604 37,000 217 427 0
2021-10-13 19:10:13 GMT 29.543074 -13.193988 37,000 217 427 0
2021-10-13 19:10:10 GMT 29.548187 -13.189668 37,000 217 428 0
2021-10-13 19:10:03 GMT 29.558855 -13.180632 37,000 217 428 0
2021-10-13 19:10:00 GMT 29.563934 -13.176305 37,000 217 428 0
2021-10-13 19:09:54 GMT 29.575241 -13.166737 37,000 217 428 0
2021-10-13 19:09:50 GMT 29.580048 -13.162677 37,000 217 429 0
2021-10-13 19:09:48 GMT 29.583063 -13.160113 37,000 217 429 0
2021-10-13 19:09:42 GMT 29.591721 -13.152843 37,000 217 429 0
2021-10-13 19:09:39 GMT 29.597122 -13.148258 37,000 217 429 0
2021-10-13 19:09:32 GMT 29.608154 -13.138894 37,000 217 429 0
2021-10-13 19:09:29 GMT 29.613461 -13.134478 37,000 217 429 0
2021-10-13 19:09:22 GMT 29.624308 -13.125269 37,000 217 429 0
2021-10-13 19:09:19 GMT 29.629120 -13.121215 37,000 217 429 -64
2021-10-13 19:09:12 GMT 29.640509 -13.111590 37,000 217 430 0
2021-10-13 19:09:09 GMT 29.645966 -13.107006 37,000 217 429 0
2021-10-13 19:09:02 GMT 29.658142 -13.096707 37,000 217 430 0
2021-10-13 19:08:58 GMT 29.662491 -13.093062 37,000 217 430 0
2021-10-13 19:08:51 GMT 29.673885 -13.083424 37,000 217 431 0
2021-10-13 19:08:48 GMT 29.690277 -13.069558 37,000 217 431 0
2021-10-13 19:08:42 GMT 29.690277 -13.069558 37,000 217 431 0
2021-10-13 19:08:39 GMT 29.693810 -13.066568 37,000 217 431 0
2021-10-13 19:08:29 GMT 29.709915 -13.052973 37,000 217 431 0
2021-10-13 19:08:19 GMT 29.726629 -13.038779 37,000 217 432 0
2021-10-13 19:08:09 GMT 29.742416 -13.025401 37,000 217 432 0
2021-10-13 19:07:58 GMT 29.759171 -13.011205 37,000 217 432 0
2021-10-13 19:07:50 GMT 29.773508 -12.999034 37,000 217 433 0
2021-10-13 19:07:47 GMT 29.776720 -12.996288 37,000 217 433 0
2021-10-13 19:07:38 GMT 29.791580 -12.983727 37,000 217 433 0
2021-10-13 19:07:28 GMT 29.807350 -12.970276 37,000 217 433 0
2021-10-13 19:07:18 GMT 29.823690 -12.956435 37,000 217 434 0
2021-10-13 19:07:10 GMT 29.840635 -12.942002 37,000 217 434 0
2021-10-13 19:06:58 GMT 29.856125 -12.928795 37,000 217 434 0
2021-10-13 19:06:49 GMT 29.871780 -12.915432 37,000 217 434 0
2021-10-13 19:06:47 GMT 29.873268 -12.914213 37,000 217 434 0
2021-10-13 19:06:37 GMT 29.889771 -12.900168 37,000 217 435 0
2021-10-13 19:06:27 GMT 29.906136 -12.886209 37,000 217 436 0
2021-10-13 19:06:20 GMT 29.919588 -12.874768 37,000 217 436 0
2021-10-13 19:06:17 GMT 29.922335 -12.872406 37,000 217 436 0
2021-10-13 19:06:08 GMT 29.937929 -12.859167 37,000 217 436 0
2021-10-13 19:05:58 GMT 29.955807 -12.843896 37,000 217 437 0
2021-10-13 19:05:47 GMT 29.972397 -12.829769 37,000 217 436 0
2021-10-13 19:05:37 GMT 29.989151 -12.815498 37,000 217 438 0
2021-10-13 19:05:27 GMT 30.005310 -12.801765 37,000 217 438 0
2021-10-13 19:05:18 GMT 30.022110 -12.787494 37,000 217 439 0
2021-10-13 19:05:08 GMT 30.039276 -12.772899 37,000 217 439 0
2021-10-13 19:04:58 GMT 30.052505 -12.761643 37,000 217 438 0
2021-10-13 19:04:55 GMT 30.056076 -12.758574 37,000 217 438 0
2021-10-13 19:04:46 GMT 30.072094 -12.744855 37,000 217 439 0
2021-10-13 19:04:38 GMT 30.084476 -12.734198 37,000 217 439 0
2021-10-13 19:04:36 GMT 30.088669 -12.730515 37,000 217 439 0
2021-10-13 19:04:27 GMT 30.102722 -12.718829 37,000 214 442 0
2021-10-13 19:04:25 GMT 30.106110 -12.716190 37,000 213 441 64
2021-10-13 19:04:17 GMT 30.118195 -12.707358 37,000 212 443 -64
2021-10-13 19:04:15 GMT 30.124001 -12.703271 37,000 212 443 -64
2021-10-13 19:04:07 GMT 30.136244 -12.694647 37,000 212 443 -64
2021-10-13 19:04:04 GMT 30.141502 -12.690912 37,000 212 444 -64
2021-10-13 19:03:57 GMT 30.153978 -12.682123 37,000 212 444 0
2021-10-13 19:03:51 GMT 30.166269 -12.673499 37,000 212 444 0
2021-10-13 19:03:45 GMT 30.177814 -12.665314 37,000 212 444 0
2021-10-13 19:03:37 GMT 30.189405 -12.657184 37,000 212 444 0
2021-10-13 19:03:34 GMT 30.196106 -12.652426 37,000 212 444 0
2021-10-13 19:03:26 GMT 30.210306 -12.642407 37,000 212 444 0
2021-10-13 19:03:22 GMT 30.215927 -12.638478 37,000 212 444 0
2021-10-13 19:03:16 GMT 30.225449 -12.631746 37,000 212 445 64
2021-10-13 19:03:13 GMT 30.231256 -12.627686 37,000 212 445 64
2021-10-13 19:03:06 GMT 30.243406 -12.619116 37,000 212 445 0
2021-10-13 19:03:03 GMT 30.250574 -12.614008 37,000 212 445 0
2021-10-13 19:02:56 GMT 30.260971 -12.606704 37,000 212 445 0
2021-10-13 19:02:53 GMT 30.266449 -12.602856 37,000 212 445 0
2021-10-13 19:02:46 GMT 30.278595 -12.594263 37,000 212 445 0
2021-10-13 19:02:43 GMT 30.285278 -12.589524 37,000 212 445 0
2021-10-13 19:02:37 GMT 30.295624 -12.582200 37,000 212 446 0
2021-10-13 19:02:34 GMT 30.299332 -12.579561 37,000 212 446 0
2021-10-13 19:02:31 GMT 30.306198 -12.574714 37,000 212 445 0
2021-10-13 19:02:27 GMT 30.313065 -12.569867 37,000 212 446 0
2021-10-13 19:02:22 GMT 30.324005 -12.562112 37,000 212 446 0
2021-10-13 19:02:16 GMT 30.332973 -12.555780 37,000 212 446 0
2021-10-13 19:02:14 GMT 30.335266 -12.554142 37,000 212 446 0
2021-10-13 19:02:11 GMT 30.342133 -12.549241 37,000 212 446 0
2021-10-13 19:02:08 GMT 30.345474 -12.546871 37,000 212 447 0
2021-10-13 19:02:06 GMT 30.349173 -12.544299 37,000 212 447 0
2021-10-13 19:02:01 GMT 30.358343 -12.537762 37,000 212 447 0
2021-10-13 19:01:56 GMT 30.367329 -12.531390 37,000 212 447 0
2021-10-13 19:01:54 GMT 30.370680 -12.529028 37,000 212 447 0
2021-10-13 19:01:51 GMT 30.375986 -12.525293 37,000 212 447 0
2021-10-13 19:01:46 GMT 30.384979 -12.518921 37,000 212 447 0
2021-10-13 19:01:44 GMT 30.389208 -12.515900 37,000 212 447 0
2021-10-13 19:01:41 GMT 30.395554 -12.511381 37,000 212 447 0
2021-10-13 19:01:38 GMT 30.399263 -12.508759 37,000 212 447 0
2021-10-13 19:01:36 GMT 30.402786 -12.506265 37,000 212 447 0
2021-10-13 19:01:34 GMT 30.407913 -12.502657 37,000 212 447 0
2021-10-13 19:01:31 GMT 30.416348 -12.496619 37,000 212 447 0
2021-10-13 19:01:25 GMT 30.421646 -12.492855 37,000 212 447 0
2021-10-13 19:01:21 GMT 30.429428 -12.487362 37,000 212 447 0
2021-10-13 19:01:18 GMT 30.434875 -12.483490 37,000 212 447 0
2021-10-13 19:01:16 GMT 30.438927 -12.480579 37,000 212 447 0
2021-10-13 19:01:11 GMT 30.447584 -12.474426 37,000 212 447 0
2021-10-13 19:01:07 GMT 30.453032 -12.470526 37,000 212 447 0
2021-10-13 19:01:01 GMT 30.465366 -12.461792 37,000 212 447 0
2021-10-13 19:00:58 GMT 30.470673 -12.458011 37,000 212 447 0
2021-10-13 19:00:53 GMT 30.478226 -12.452626 37,000 212 447 0
2021-10-13 19:00:50 GMT 30.489016 -12.444983 37,000 212 447 0
2021-10-13 19:00:47 GMT 30.489016 -12.444983 37,000 212 447 0
2021-10-13 19:00:43 GMT 30.496418 -12.439709 37,000 212 447 0
2021-10-13 19:00:40 GMT 30.500980 -12.436414 37,000 212 447 0
2021-10-13 19:00:37 GMT 30.505920 -12.432915 37,000 212 447 0
2021-10-13 19:00:30 GMT 30.519506 -12.423230 37,000 212 447 0
2021-10-13 19:00:26 GMT 30.524256 -12.419879 37,000 212 447 0
2021-10-13 19:00:22 GMT 30.534302 -12.412720 37,000 212 447 0
2021-10-13 19:00:19 GMT 30.537506 -12.410458 37,000 212 447 0
2021-10-13 19:00:11 GMT 30.551582 -12.400433 37,000 212 447 0
2021-10-13 19:00:02 GMT 30.568712 -12.388239 37,000 212 447 0
2021-10-13 18:59:52 GMT 30.586124 -12.375824 37,000 212 447 0
2021-10-13 18:59:47 GMT 30.594589 -12.369744 37,000 212 447 0
2021-10-13 18:59:40 GMT 30.606421 -12.361322 37,000 212 447 0
2021-10-13 18:59:37 GMT 30.612564 -12.356927 37,000 212 447 0
2021-10-13 18:59:30 GMT 30.624577 -12.348358 37,000 212 447 0
2021-10-13 18:59:27 GMT 30.630720 -12.343964 37,000 212 447 0
2021-10-13 18:59:19 GMT 30.645386 -12.333472 37,000 212 447 0
2021-10-13 18:58:57 GMT 30.683304 -12.306411 37,000 212 447 0
2021-10-13 18:58:54 GMT 30.686508 -12.304149 37,000 212 447 0
2021-10-13 18:58:44 GMT 30.704180 -12.291559 37,000 212 448 0
2021-10-13 18:58:26 GMT 30.737045 -12.268066 37,000 212 449 0
2021-10-13 18:58:15 GMT 30.756319 -12.254315 37,000 212 449 0
2021-10-13 18:58:05 GMT 30.774399 -12.241408 37,000 212 449 -64
2021-10-13 18:57:49 GMT 30.802872 -12.220998 37,000 212 449 0
2021-10-13 18:57:45 GMT 30.809994 -12.215918 37,000 212 449 64
2021-10-13 18:57:35 GMT 30.827869 -12.203119 37,000 212 449 0
2021-10-13 18:57:18 GMT 30.858547 -12.181146 37,000 212 450 0
2021-10-13 18:55:51 GMT 31.012573 -12.070420 37,000 212 455 0
2021-10-13 18:55:48 GMT 31.017942 -12.066559 37,000 212 455 0
2021-10-13 18:55:39 GMT 31.034237 -12.054803 37,000 212 455 0
2021-10-13 18:55:25 GMT 31.059174 -12.036869 37,000 212 455 0
2021-10-13 18:55:19 GMT 31.070082 -12.029041 37,000 212 455 0
2021-10-13 18:55:09 GMT 31.088333 -12.015866 37,000 212 455 0
2021-10-13 18:54:58 GMT 31.107695 -12.001849 37,000 212 455 0
2021-10-13 18:54:49 GMT 31.124130 -11.989962 37,000 212 455 0
2021-10-13 18:54:38 GMT 31.143311 -11.976121 37,000 212 455 0
2021-10-13 18:54:28 GMT 31.160980 -11.963304 37,000 212 454 0
2021-10-13 18:54:18 GMT 31.179062 -11.950217 37,000 212 455 0
2021-10-13 18:54:09 GMT 31.195724 -11.938184 37,000 212 454 0
2021-10-13 18:53:57 GMT 31.217558 -11.922418 37,000 212 455 0
2021-10-13 18:53:29 GMT 31.267368 -11.886218 37,000 212 454 0
2021-10-13 18:53:28 GMT 31.269371 -11.884790 37,000 212 454 0
2021-10-13 18:52:51 GMT 31.334404 -11.837659 37,000 212 454 0
We lost coverage of the aircraft here for a total of 7 minutes
2021-10-13 18:45:31 GMT 32.122814 -11.259473 37,000 213 456 0
2021-10-13 18:45:29 GMT 32.126587 -11.256702 37,000 213 456 0
2021-10-13 18:45:19 GMT 32.144413 -11.243442 37,000 213 455 0
2021-10-13 18:45:09 GMT 32.162247 -11.230225 37,000 213 455 0
2021-10-13 18:44:42 GMT 32.209724 -11.195012 37,000 213 453 0
2021-10-13 18:44:29 GMT 32.232815 -11.177860 37,000 213 453 0
2021-10-13 18:44:21 GMT 32.247482 -11.166943 37,000 213 452 64
2021-10-13 18:43:58 GMT 32.288315 -11.136511 37,000 213 451 0
2021-10-13 18:43:53 GMT 32.297150 -11.129935 37,000 213 451 0
2021-10-13 18:43:37 GMT 32.325176 -11.109027 37,000 213 450 0
2021-10-13 18:43:31 GMT 32.336117 -11.100844 37,000 213 450 0
2021-10-13 18:43:20 GMT 32.355881 -11.086139 37,000 213 450 0
2021-10-13 18:42:08 GMT 32.482040 -10.992041 37,000 213 449 0
2021-10-13 18:42:01 GMT 32.494160 -10.982965 37,000 213 449 0
2021-10-13 18:41:57 GMT 32.501190 -10.977696 37,000 213 449 0
2021-10-13 18:41:45 GMT 32.522598 -10.961609 37,000 213 449 0
2021-10-13 18:41:20 GMT 32.566223 -10.928986 37,000 213 449 0
2021-10-13 18:41:12 GMT 32.581009 -10.917938 37,000 213 449 0
2021-10-13 18:40:58 GMT 32.605885 -10.899390 37,000 213 450 0
2021-10-13 18:40:47 GMT 32.624542 -10.885474 37,000 213 450 0
2021-10-13 18:40:35 GMT 32.644821 -10.870313 37,000 213 450 0
2021-10-13 18:40:24 GMT 32.664551 -10.855481 37,000 213 450 0
2021-10-13 18:40:16 GMT 32.680023 -10.843890 37,000 213 450 0
2021-10-13 18:39:51 GMT 32.723289 -10.811220 37,000 213 451 0
2021-10-13 18:39:44 GMT 32.735413 -10.802032 37,000 213 451 0
2021-10-13 18:39:32 GMT 32.756668 -10.785940 37,000 213 450 0
2021-10-13 18:39:23 GMT 32.772675 -10.773853 37,000 213 450 0
2021-10-13 18:39:12 GMT 32.792465 -10.758810 37,000 213 450 0
2021-10-13 18:38:53 GMT 32.824261 -10.734764 37,000 213 450 0
2021-10-13 18:38:51 GMT 32.827801 -10.732129 37,000 213 450 0
2021-10-13 18:38:32 GMT 32.861362 -10.706793 37,000 213 449 0
2021-10-13 18:38:31 GMT 32.863129 -10.705463 37,000 213 449 0
2021-10-13 18:37:51 GMT 32.933613 -10.652366 37,000 213 449 0
2021-10-13 18:37:31 GMT 32.969101 -10.625482 37,000 213 447 0
2021-10-13 18:37:22 GMT 32.983795 -10.614362 37,000 213 447 0
2021-10-13 18:34:59 GMT 33.232269 -10.425201 37,000 213 444 0
2021-10-13 18:34:45 GMT 33.256638 -10.406519 37,000 213 443 0
2021-10-13 18:34:34 GMT 33.276005 -10.391665 37,000 213 443 0
2021-10-13 18:34:23 GMT 33.295185 -10.376979 37,000 213 444 0
2021-10-13 18:34:14 GMT 33.310036 -10.365545 37,000 213 444 0
2021-10-13 18:34:04 GMT 33.328354 -10.351483 37,000 213 444 0
2021-10-13 18:33:53 GMT 33.346802 -10.337311 37,000 213 444 0
2021-10-13 18:33:50 GMT 33.351978 -10.333314 37,000 213 444 0
2021-10-13 18:33:38 GMT 33.372162 -10.317810 37,000 213 443 0
2021-10-13 18:33:26 GMT 33.392899 -10.301981 37,000 213 443 0
2021-10-13 18:33:17 GMT 33.408600 -10.289960 37,000 213 443 0
2021-10-13 18:33:06 GMT 33.428238 -10.274908 37,000 213 442 0
2021-10-13 18:32:55 GMT 33.447052 -10.260571 37,000 213 441 0
2021-10-13 18:32:45 GMT 33.464588 -10.247161 37,000 213 441 0
2021-10-13 18:32:41 GMT 33.472687 -10.241016 37,000 213 440 0
2021-10-13 18:32:37 GMT 33.478180 -10.236786 37,000 213 440 0
2021-10-13 18:32:33 GMT 33.486420 -10.230469 37,000 213 440 0
2021-10-13 18:32:24 GMT 33.500153 -10.219922 37,000 213 439 0
2021-10-13 18:32:22 GMT 33.503403 -10.217450 37,000 213 439 0
2021-10-13 18:32:17 GMT 33.511459 -10.211243 37,000 213 439 0
2021-10-13 18:32:12 GMT 33.521027 -10.203937 37,000 213 439 0
2021-10-13 18:32:07 GMT 33.528717 -10.198004 37,000 213 439 0
2021-10-13 18:32:02 GMT 33.537964 -10.190918 37,000 213 439 0
2021-10-13 18:31:57 GMT 33.545975 -10.184719 37,000 213 438 0
2021-10-13 18:31:52 GMT 33.555038 -10.177746 37,000 213 438 0
2021-10-13 18:31:47 GMT 33.564240 -10.170649 37,000 213 438 0
2021-10-13 18:31:41 GMT 33.573242 -10.163670 37,000 213 437 0
2021-10-13 18:31:37 GMT 33.580875 -10.157776 37,000 213 437 0
2021-10-13 18:31:30 GMT 33.591614 -10.149461 37,000 213 437 0
2021-10-13 18:31:27 GMT 33.597355 -10.145016 37,000 213 436 0
2021-10-13 18:31:25 GMT 33.600613 -10.142498 37,000 213 436 0
2021-10-13 18:31:22 GMT 33.606571 -10.137920 37,000 213 436 0
2021-10-13 18:31:17 GMT 33.615883 -10.130711 37,000 213 436 0
2021-10-13 18:31:11 GMT 33.625053 -10.123615 37,000 213 436 0
2021-10-13 18:31:07 GMT 33.632172 -10.118128 37,000 213 436 0
2021-10-13 18:31:01 GMT 33.642014 -10.110505 37,000 213 436 0
2021-10-13 18:30:58 GMT 33.648285 -10.105684 37,000 213 436 0
2021-10-13 18:30:53 GMT 33.655243 -10.100303 37,000 213 436 0
2021-10-13 18:30:48 GMT 33.665085 -10.092736 37,000 213 435 0
2021-10-13 18:30:44 GMT 33.670349 -10.088700 37,000 213 435 0
2021-10-13 18:30:38 GMT 33.682079 -10.079670 37,000 213 435 0
2021-10-13 18:30:33 GMT 33.688644 -10.074577 37,000 213 435 0
2021-10-13 18:30:28 GMT 33.699165 -10.066452 37,000 213 434 0
2021-10-13 18:30:24 GMT 33.715714 -10.053611 37,000 213 434 0
2021-10-13 18:30:18 GMT 33.715714 -10.053611 37,000 213 434 0
2021-10-13 18:30:12 GMT 33.724026 -10.047226 37,000 213 434 0
2021-10-13 18:30:06 GMT 33.735523 -10.038300 37,000 213 434 0
2021-10-13 18:30:01 GMT 33.743111 -10.032406 37,000 213 434 0
2021-10-13 18:29:57 GMT 33.750374 -10.026798 37,000 213 434 0
2021-10-13 18:29:52 GMT 33.759293 -10.019812 37,000 213 433 0
2021-10-13 18:29:46 GMT 33.768574 -10.012608 37,000 213 433 0
2021-10-13 18:29:41 GMT 33.776688 -10.006359 37,000 213 433 0
2021-10-13 18:29:31 GMT 33.793716 -9.993130 37,000 213 433 0
2021-10-13 18:29:24 GMT 33.806168 -9.983433 37,000 213 433 0
2021-10-13 18:29:21 GMT 33.810890 -9.979763 37,000 213 433 0
2021-10-13 18:29:17 GMT 33.818619 -9.973736 37,000 213 433 0
2021-10-13 18:29:11 GMT 33.828415 -9.966169 37,000 213 433 0
2021-10-13 18:29:06 GMT 33.835648 -9.960508 37,000 213 433 0
2021-10-13 18:28:59 GMT 33.847092 -9.951651 37,000 214 432 0
2021-10-13 18:28:55 GMT 33.854324 -9.946003 37,000 213 433 0
2021-10-13 18:28:49 GMT 33.863914 -9.938507 37,000 213 433 0
2021-10-13 18:28:45 GMT 33.870476 -9.933414 37,000 214 432 0
2021-10-13 18:28:40 GMT 33.880371 -9.925699 37,000 214 432 0
2021-10-13 18:28:35 GMT 33.887096 -9.920483 37,000 214 432 0
2021-10-13 18:28:29 GMT 33.898548 -9.911556 37,000 213 433 0
2021-10-13 18:28:25 GMT 33.904633 -9.906865 37,000 213 433 0
2021-10-13 18:28:19 GMT 33.915070 -9.898738 37,000 213 433 0
2021-10-13 18:28:15 GMT 33.921616 -9.893637 37,000 213 433 0
2021-10-13 18:28:06 GMT 33.937637 -9.881193 37,000 213 433 0
2021-10-13 18:27:58 GMT 33.949768 -9.871776 37,000 213 433 0
2021-10-13 18:27:55 GMT 33.954987 -9.867685 37,000 213 433 0
2021-10-13 18:27:48 GMT 33.967117 -9.858268 37,000 213 433 0
2021-10-13 18:27:45 GMT 33.972149 -9.854336 37,000 213 433 0
2021-10-13 18:27:38 GMT 33.984623 -9.844608 37,000 213 434 0
2021-10-13 18:27:35 GMT 33.989548 -9.840779 37,000 213 434 0
2021-10-13 18:27:25 GMT 34.006084 -9.827957 37,000 213 434 0
2021-10-13 18:27:15 GMT 34.022797 -9.814911 37,000 213 435 0
2021-10-13 18:27:05 GMT 34.040161 -9.801350 37,000 213 435 0
2021-10-13 18:26:55 GMT 34.056873 -9.788303 37,000 213 435 0
2021-10-13 18:26:48 GMT 34.068508 -9.779205 37,000 214 435 0
2021-10-13 18:26:45 GMT 34.073399 -9.775372 37,000 214 435 0
2021-10-13 18:26:35 GMT 34.090439 -9.761982 37,000 214 435 0
2021-10-13 18:26:25 GMT 34.108704 -9.747732 37,000 214 435 0
2021-10-13 18:26:18 GMT 34.119186 -9.739492 37,000 214 435 0
2021-10-13 18:26:15 GMT 34.125629 -9.734459 37,000 214 435 0
2021-10-13 18:26:05 GMT 34.142212 -9.721499 37,000 214 437 0
2021-10-13 18:25:58 GMT 34.153015 -9.712979 37,000 214 437 0
2021-10-13 18:25:55 GMT 34.159798 -9.707680 37,000 214 437 0
2021-10-13 18:25:44 GMT 34.177094 -9.694089 37,000 214 437 0
2021-10-13 18:25:38 GMT 34.187126 -9.686279 37,000 214 437 0
2021-10-13 18:25:33 GMT 34.194580 -9.680412 37,000 214 437 0
2021-10-13 18:25:27 GMT 34.206116 -9.671332 37,000 214 438 0
2021-10-13 18:25:23 GMT 34.211746 -9.666904 37,000 214 438 0
2021-10-13 18:25:17 GMT 34.222088 -9.658756 37,000 214 439 0
2021-10-13 18:25:13 GMT 34.229767 -9.652748 37,000 214 438 0
2021-10-13 18:25:10 GMT 34.235867 -9.647942 37,000 214 439 0
2021-10-13 18:25:03 GMT 34.247314 -9.639046 37,000 214 439 0
2021-10-13 18:24:58 GMT 34.254959 -9.632992 37,000 214 439 0
2021-10-13 18:24:54 GMT 34.261471 -9.627914 37,000 214 440 0
2021-10-13 18:24:52 GMT 34.265053 -9.625111 37,000 214 440 0
2021-10-13 18:24:48 GMT 34.272736 -9.619102 37,000 214 440 0
2021-10-13 18:24:42 GMT 34.282791 -9.611243 37,000 214 440 0
2021-10-13 18:24:38 GMT 34.289795 -9.605750 37,000 214 440 0
2021-10-13 18:24:32 GMT 34.300049 -9.597735 37,000 214 440 0
2021-10-13 18:24:27 GMT 34.307556 -9.591866 37,000 213 441 0
2021-10-13 18:24:24 GMT 34.313560 -9.587173 37,000 213 441 0
2021-10-13 18:24:21 GMT 34.317673 -9.583946 37,000 213 441 0
2021-10-13 18:24:16 GMT 34.326416 -9.577107 37,000 214 441 0
2021-10-13 18:24:14 GMT 34.330505 -9.573898 37,000 214 441 0
2021-10-13 18:24:11 GMT 34.335617 -9.569877 37,000 214 441 0
2021-10-13 18:24:08 GMT 34.341770 -9.565029 37,000 214 441 0
2021-10-13 18:24:01 GMT 34.353085 -9.556160 37,000 214 441 0
2021-10-13 18:23:58 GMT 34.358391 -9.551983 37,000 214 441 0
2021-10-13 18:23:48 GMT 34.375854 -9.538263 37,000 214 441 0
2021-10-13 18:23:38 GMT 34.391739 -9.525707 37,000 214 441 0
2021-10-13 18:23:29 GMT 34.408436 -9.512444 37,000 214 441 0
2021-10-13 18:23:26 GMT 34.410854 -9.510555 37,000 214 441 0
2021-10-13 18:23:19 GMT 34.423656 -9.500427 37,000 214 441 0
2021-10-13 18:23:16 GMT 34.429291 -9.495907 37,000 214 441 0
2021-10-13 18:23:09 GMT 34.441544 -9.486190 37,000 214 441 0
2021-10-13 18:23:06 GMT 34.445847 -9.482827 37,000 214 441 0
2021-10-13 18:22:57 GMT 34.462437 -9.469700 37,000 214 441 0
2021-10-13 18:22:46 GMT 34.480682 -9.455223 37,000 214 441 0
2021-10-13 18:22:37 GMT 34.496750 -9.442525 37,000 214 441 0
2021-10-13 18:22:33 GMT 34.503067 -9.437480 37,000 214 441 0
2021-10-13 18:22:30 GMT 34.509064 -9.432772 37,000 214 441 0
2021-10-13 18:22:26 GMT 34.514526 -9.428444 37,000 214 441 0
2021-10-13 18:22:17 GMT 34.530533 -9.415676 37,000 214 441 0
2021-10-13 18:22:06 GMT 34.549164 -9.400934 37,000 214 441 0
2021-10-13 18:21:56 GMT 34.566742 -9.387033 37,000 214 441 0
2021-10-13 18:21:47 GMT 34.583633 -9.373580 37,000 214 440 0
2021-10-13 18:21:36 GMT 34.600525 -9.360183 37,000 214 440 0
2021-10-13 18:21:34 GMT 34.603256 -9.358006 37,000 214 440 0
2021-10-13 18:21:24 GMT 34.620621 -9.344152 37,000 214 440 0
2021-10-13 18:21:16 GMT 34.634773 -9.332943 37,000 214 440 0
2021-10-13 18:21:13 GMT 34.639526 -9.329186 37,000 214 440 0
2021-10-13 18:21:06 GMT 34.653484 -9.318066 37,000 214 439 0
2021-10-13 18:21:03 GMT 34.656559 -9.315662 37,000 214 439 0
2021-10-13 18:20:55 GMT 34.668476 -9.306164 37,000 214 439 0
2021-10-13 18:20:52 GMT 34.674774 -9.301160 37,000 214 439 0
2021-10-13 18:20:45 GMT 34.686676 -9.291743 37,000 214 439 0
2021-10-13 18:20:42 GMT 34.692261 -9.287259 37,000 214 439 0
2021-10-13 18:20:35 GMT 34.704647 -9.277439 37,000 214 437 0
2021-10-13 18:20:31 GMT 34.710068 -9.273134 37,000 214 437 0
2021-10-13 18:20:25 GMT 34.722149 -9.263535 37,000 214 437 0
2021-10-13 18:20:21 GMT 34.727737 -9.259071 37,000 214 437 0
2021-10-13 18:20:16 GMT 34.736534 -9.252090 37,000 214 437 0
2021-10-13 18:20:14 GMT 34.739090 -9.250096 37,000 214 437 0
2021-10-13 18:20:11 GMT 34.744820 -9.245510 37,000 214 437 0
2021-10-13 18:20:04 GMT 34.756485 -9.236195 37,000 214 437 0
2021-10-13 18:20:01 GMT 34.762280 -9.231606 37,000 214 436 0
2021-10-13 18:19:56 GMT 34.770378 -9.225140 37,000 214 437 0
2021-10-13 18:19:54 GMT 34.774109 -9.222182 37,000 214 437 0
2021-10-13 18:19:50 GMT 34.779694 -9.217754 37,000 214 437 0
2021-10-13 18:19:46 GMT 34.787933 -9.211139 37,000 214 436 0
2021-10-13 18:19:43 GMT 34.792511 -9.207440 37,000 214 436 0
2021-10-13 18:19:40 GMT 34.797565 -9.203396 37,000 214 436 0
2021-10-13 18:19:34 GMT 34.808487 -9.194604 37,000 214 436 0
2021-10-13 18:19:30 GMT 34.814556 -9.189720 37,000 214 436 0
2021-10-13 18:19:25 GMT 34.822144 -9.183655 37,000 214 436 0
2021-10-13 18:19:23 GMT 34.825356 -9.181080 37,000 214 436 0
2021-10-13 18:19:19 GMT 34.832428 -9.175434 37,000 214 436 0
2021-10-13 18:19:15 GMT 34.839184 -9.170036 37,000 214 436 0
2021-10-13 18:19:12 GMT 34.844238 -9.165961 37,000 214 436 0
2021-10-13 18:19:09 GMT 34.849091 -9.162093 37,000 214 436 0
2021-10-13 18:19:04 GMT 34.857384 -9.155502 37,000 214 436 0
2021-10-13 18:19:02 GMT 34.860718 -9.152788 37,000 214 436 0
2021-10-13 18:18:59 GMT 34.866623 -9.148080 37,000 214 436 0
2021-10-13 18:18:55 GMT 34.873535 -9.142587 37,000 214 436 0
2021-10-13 18:18:52 GMT 34.877586 -9.139309 37,000 214 436 0
2021-10-13 18:18:48 GMT 34.884151 -9.134102 37,000 214 436 0
2021-10-13 18:18:45 GMT 34.889557 -9.129807 37,000 214 435 0
2021-10-13 18:18:43 GMT 34.895096 -9.125323 37,000 214 435 0
2021-10-13 18:18:35 GMT 34.907242 -9.115677 37,000 214 434 0
2021-10-13 18:18:32 GMT 34.911438 -9.112318 37,000 214 434 0
2021-10-13 18:18:25 GMT 34.924698 -9.101715 37,000 214 434 64
2021-10-13 18:18:22 GMT 34.928562 -9.098568 37,000 214 435 0
2021-10-13 18:18:18 GMT 34.934101 -9.094162 37,000 214 435 0
2021-10-13 18:18:14 GMT 34.942017 -9.087823 37,000 214 435 0
2021-10-13 18:18:09 GMT 34.950256 -9.081209 37,000 214 435 0
2021-10-13 18:18:05 GMT 34.956802 -9.075940 37,000 214 435 0
2021-10-13 18:18:00 GMT 34.965714 -9.068813 37,000 214 435 0
2021-10-13 18:17:54 GMT 34.975571 -9.060862 37,000 214 435 0
2021-10-13 18:17:52 GMT 34.980469 -9.056938 37,000 214 435 0
2021-10-13 18:17:48 GMT 34.985001 -9.053295 37,000 214 435 0
2021-10-13 18:17:44 GMT 34.991688 -9.047928 37,000 214 435 0
2021-10-13 18:17:39 GMT 35.000748 -9.040627 37,000 214 435 0
2021-10-13 18:17:33 GMT 35.010178 -9.033060 37,000 214 435 0
2021-10-13 18:17:31 GMT 35.014545 -9.029560 37,000 214 435 0
2021-10-13 18:17:28 GMT 35.018410 -9.026470 37,000 214 435 0
2021-10-13 18:17:24 GMT 35.025299 -9.020920 37,000 214 435 0
2021-10-13 18:17:19 GMT 35.034889 -9.013252 37,000 214 435 0
2021-10-13 18:17:14 GMT 35.042770 -9.006939 37,000 214 435 0
2021-10-13 18:17:07 GMT 35.055046 -8.997059 37,000 214 435 0
2021-10-13 18:17:04 GMT 35.060074 -8.993038 37,000 214 435 64
2021-10-13 18:17:01 GMT 35.065933 -8.988274 37,000 214 435 64
2021-10-13 18:16:56 GMT 35.072479 -8.983005 37,000 214 435 0
2021-10-13 18:16:53 GMT 35.077057 -8.979361 37,000 214 435 0
2021-10-13 18:16:50 GMT 35.083237 -8.974373 37,000 214 435 0
2021-10-13 18:16:47 GMT 35.088657 -8.970051 37,000 214 435 -64
2021-10-13 18:16:44 GMT 35.092987 -8.966525 37,000 214 435 -64
2021-10-13 18:16:40 GMT 35.099735 -8.961124 37,000 214 435 0
2021-10-13 18:16:34 GMT 35.109791 -8.953056 37,000 214 435 0
2021-10-13 18:16:30 GMT 35.117203 -8.947075 37,000 214 435 0
2021-10-13 18:16:27 GMT 35.122055 -8.943151 37,000 214 435 0
2021-10-13 18:16:23 GMT 35.127594 -8.938723 37,000 214 435 0
2021-10-13 18:16:19 GMT 35.134651 -8.933029 37,000 214 435 0
2021-10-13 18:16:13 GMT 35.144753 -8.924904 37,000 214 435 64
2021-10-13 18:16:10 GMT 35.151443 -8.919441 37,000 214 435 0
2021-10-13 18:16:04 GMT 35.160347 -8.912258 37,000 214 435 0
2021-10-13 18:15:59 GMT 35.169422 -8.904934 37,000 214 435 0
2021-10-13 18:15:53 GMT 35.178642 -8.897495 37,000 214 435 0
2021-10-13 18:15:49 GMT 35.185501 -8.891919 37,000 214 435 0
2021-10-13 18:15:44 GMT 35.194748 -8.884408 37,000 214 435 0
2021-10-13 18:15:39 GMT 35.202618 -8.878040 37,000 214 435 0
2021-10-13 18:15:33 GMT 35.212875 -8.869722 37,000 214 435 0
2021-10-13 18:15:29 GMT 35.218723 -8.864994 37,000 214 435 0
2021-10-13 18:15:26 GMT 35.224773 -8.860073 37,000 214 435 0
2021-10-13 18:15:22 GMT 35.231506 -8.854637 37,000 214 435 -64
2021-10-13 18:15:19 GMT 35.237732 -8.849602 37,000 214 435 0
2021-10-13 18:15:14 GMT 35.245285 -8.843479 37,000 214 435 0
2021-10-13 18:15:08 GMT 35.254349 -8.836155 37,000 214 435 0
2021-10-13 18:15:03 GMT 35.263733 -8.828602 37,000 214 435 0
2021-10-13 18:14:57 GMT 35.271980 -8.821905 37,000 214 435 64
2021-10-13 18:14:54 GMT 35.278702 -8.816471 37,000 214 435 64
2021-10-13 18:14:52 GMT 35.281197 -8.814425 37,000 214 435 64
2021-10-13 18:14:47 GMT 35.288773 -8.808346 37,000 214 435 -64
2021-10-13 18:14:44 GMT 35.295685 -8.802738 37,000 214 435 -64
2021-10-13 18:14:41 GMT 35.300903 -8.798504 37,000 214 435 0
2021-10-13 18:14:37 GMT 35.306240 -8.794147 37,000 214 435 0
2021-10-13 18:14:34 GMT 35.312477 -8.789121 37,000 214 436 64
2021-10-13 18:14:32 GMT 35.315365 -8.786842 37,000 214 436 64
2021-10-13 18:14:28 GMT 35.323105 -8.780537 37,000 214 436 0
2021-10-13 18:14:23 GMT 35.329330 -8.775501 37,000 214 436 0
2021-10-13 18:14:21 GMT 35.332672 -8.772755 37,000 214 436 0
2021-10-13 18:14:17 GMT 35.340454 -8.766518 37,000 214 437 0
2021-10-13 18:14:13 GMT 35.347000 -8.761196 37,000 214 437 -64
2021-10-13 18:14:11 GMT 35.350372 -8.758441 37,000 214 437 0
2021-10-13 18:14:06 GMT 35.358986 -8.751487 37,000 214 437 0
2021-10-13 18:14:03 GMT 35.363503 -8.747805 37,000 214 437 0
2021-10-13 18:14:00 GMT 35.368065 -8.744065 37,000 214 437 0
2021-10-13 18:13:56 GMT 35.374950 -8.738455 37,000 214 437 0
2021-10-13 18:13:53 GMT 35.380371 -8.734074 37,000 214 437 0
2021-10-13 18:13:50 GMT 35.385426 -8.729982 37,000 214 437 0
2021-10-13 18:13:46 GMT 35.391991 -8.724664 37,000 214 437 0
2021-10-13 18:13:43 GMT 35.397205 -8.720398 37,000 214 437 64
2021-10-13 18:13:40 GMT 35.402618 -8.715992 37,000 214 437 0
2021-10-13 18:13:33 GMT 35.414707 -8.706081 37,000 214 438 -64
2021-10-13 18:13:30 GMT 35.419601 -8.702087 37,000 214 437 -64
2021-10-13 18:13:26 GMT 35.426857 -8.696205 37,000 214 437 0
2021-10-13 18:13:23 GMT 35.431232 -8.692582 37,000 214 437 0
2021-10-13 18:13:18 GMT 35.439659 -8.685744 37,000 214 437 0
2021-10-13 18:13:15 GMT 35.444046 -8.682175 37,000 214 437 0
2021-10-13 18:13:12 GMT 35.449265 -8.677883 37,000 214 437 64
2021-10-13 18:13:08 GMT 35.456863 -8.671703 37,000 214 437 64
2021-10-13 18:13:03 GMT 35.465286 -8.664837 37,000 214 438 0
2021-10-13 18:13:01 GMT 35.469681 -8.661232 37,000 214 438 -64
2021-10-13 18:12:58 GMT 35.472385 -8.659038 37,000 214 438 0
2021-10-13 18:12:53 GMT 35.485519 -8.648300 37,000 214 438 0
2021-10-13 18:12:48 GMT 35.489426 -8.645130 37,000 214 438 0
2021-10-13 18:12:43 GMT 35.498875 -8.637475 37,000 214 438 0
2021-10-13 18:12:40 GMT 35.504089 -8.633209 37,000 214 438 0
2021-10-13 18:12:36 GMT 35.511349 -8.627306 37,000 214 438 0
2021-10-13 18:12:33 GMT 35.516052 -8.623466 37,000 214 437 0
2021-10-13 18:12:30 GMT 35.521126 -8.619300 37,000 214 437 0
2021-10-13 18:12:25 GMT 35.529419 -8.612595 37,000 214 437 64
2021-10-13 18:12:22 GMT 35.533630 -8.609161 37,000 214 437 0
2021-10-13 18:12:20 GMT 35.537651 -8.605860 37,000 214 437 0
2021-10-13 18:12:17 GMT 35.542694 -8.601723 37,000 214 437 0
2021-10-13 18:12:13 GMT 35.549477 -8.596217 37,000 214 437 64
2021-10-13 18:12:11 GMT 35.551987 -8.594170 37,000 214 437 64
2021-10-13 18:12:07 GMT 35.559578 -8.587919 37,000 214 438 0
2021-10-13 18:12:04 GMT 35.564987 -8.583527 37,000 214 437 0
2021-10-13 18:12:00 GMT 35.572906 -8.577061 37,000 214 438 0
2021-10-13 18:11:56 GMT 35.578293 -8.572667 37,000 214 437 0
2021-10-13 18:11:53 GMT 35.583023 -8.568821 37,000 214 438 0
2021-10-13 18:11:51 GMT 35.586548 -8.565903 37,000 214 438 0
2021-10-13 18:11:48 GMT 35.591446 -8.561897 37,000 214 437 0
2021-10-13 18:11:45 GMT 35.596344 -8.557892 37,000 214 437 0
2021-10-13 18:11:42 GMT 35.601379 -8.553772 37,000 214 437 0
2021-10-13 18:11:39 GMT 35.607296 -8.548941 37,000 214 437 0
2021-10-13 18:11:35 GMT 35.613693 -8.543701 37,000 214 437 0
2021-10-13 18:11:31 GMT 35.620605 -8.538036 37,000 214 437 0
2021-10-13 18:11:29 GMT 35.622299 -8.536663 37,000 214 437 0
2021-10-13 18:11:26 GMT 35.628708 -8.531399 37,000 214 438 0
2021-10-13 18:11:23 GMT 35.633926 -8.527164 37,000 214 438 0
2021-10-13 18:11:21 GMT 35.637634 -8.524132 37,000 214 438 0
2021-10-13 18:11:19 GMT 35.642021 -8.520482 37,000 214 438 0
2021-10-13 18:11:13 GMT 35.650635 -8.513432 37,000 214 438 0
2021-10-13 18:11:11 GMT 35.653976 -8.510685 37,000 214 438 0
2021-10-13 18:11:09 GMT 35.657547 -8.507767 37,000 214 438 0
2021-10-13 18:11:06 GMT 35.662926 -8.503360 37,000 214 439 0
2021-10-13 18:11:03 GMT 35.667812 -8.499386 37,000 214 439 0
2021-10-13 18:11:01 GMT 35.670364 -8.497295 37,000 214 439 0
2021-10-13 18:10:58 GMT 35.676590 -8.492203 37,000 214 438 0
2021-10-13 18:10:55 GMT 35.679794 -8.489571 37,000 214 438 0
2021-10-13 18:10:52 GMT 35.686707 -8.483906 37,000 214 439 0
2021-10-13 18:10:49 GMT 35.692291 -8.479328 37,000 214 438 0
2021-10-13 18:10:44 GMT 35.698864 -8.473965 37,000 214 438 0
2021-10-13 18:10:41 GMT 35.703938 -8.469816 37,000 214 438 0
2021-10-13 18:10:37 GMT 35.711338 -8.463739 37,000 214 438 0
2021-10-13 18:10:34 GMT 35.716274 -8.459706 37,000 214 438 0
2021-10-13 18:10:31 GMT 35.720993 -8.455868 37,000 214 438 0
2021-10-13 18:10:27 GMT 35.727398 -8.450590 37,000 214 438 0
2021-10-13 18:10:24 GMT 35.734661 -8.444688 37,000 214 438 0
2021-10-13 18:10:21 GMT 35.738022 -8.441906 37,000 214 438 0
2021-10-13 18:10:18 GMT 35.742062 -8.438610 37,000 214 438 0
2021-10-13 18:10:15 GMT 35.748138 -8.433609 37,000 214 438 0
2021-10-13 18:10:11 GMT 35.754913 -8.428091 37,000 214 438 0
2021-10-13 18:10:07 GMT 35.761990 -8.422248 37,000 214 438 0
2021-10-13 18:10:01 GMT 35.771904 -8.414125 37,000 214 438 0
2021-10-13 18:09:58 GMT 35.778854 -8.408432 37,000 214 438 0
2021-10-13 18:09:55 GMT 35.781876 -8.405914 37,000 215 438 0
2021-10-13 18:09:51 GMT 35.788788 -8.400249 37,000 214 438 0
2021-10-13 18:09:47 GMT 35.800690 -8.390350 37,000 215 438 0
2021-10-13 18:09:44 GMT 35.800690 -8.390350 37,000 212 439 0
2021-10-13 18:09:40 GMT 35.806072 -8.385841 37,000 214 439 0
2021-10-13 18:09:37 GMT 35.812180 -8.380966 37,000 212 439 0
2021-10-13 18:09:34 GMT 35.816639 -8.377484 37,000 211 439 64
2021-10-13 18:09:30 GMT 35.831268 -8.367176 37,000 209 440 0
2021-10-13 18:09:27 GMT 35.831268 -8.367176 37,000 208 440 0
2021-10-13 18:09:21 GMT 35.840515 -8.361397 37,000 206 440 0
2021-10-13 18:09:19 GMT 35.844200 -8.359193 37,000 205 441 0
2021-10-13 18:09:16 GMT 35.849926 -8.355979 37,000 204 441 0
2021-10-13 18:09:11 GMT 35.860245 -8.350639 37,000 201 441 0
2021-10-13 18:09:06 GMT 35.868267 -8.346921 37,000 199 442 0
2021-10-13 18:09:00 GMT 35.880112 -8.342113 37,000 196 443 0
2021-10-13 18:08:55 GMT 35.889400 -8.338915 37,000 195 443 0
2021-10-13 18:08:50 GMT 35.900482 -8.335409 37,000 195 442 0
2021-10-13 18:08:47 GMT 35.907837 -8.333071 37,000 195 442 0
2021-10-13 18:08:40 GMT 35.920498 -8.329039 37,000 194 443 0
2021-10-13 18:08:36 GMT 35.928452 -8.326664 37,000 192 443 64
2021-10-13 18:08:29 GMT 35.941494 -8.323312 37,000 187 444 0
2021-10-13 18:08:26 GMT 35.950569 -8.321325 37,000 189 444 0
2021-10-13 18:08:20 GMT 35.961975 -8.319339 37,000 187 444 0
2021-10-13 18:08:15 GMT 35.969936 -8.318228 37,000 185 446 -64
2021-10-13 18:08:10 GMT 35.980408 -8.317165 37,000 184 445 0
2021-10-13 18:08:05 GMT 35.991302 -8.316417 37,000 182 447 0
2021-10-13 18:08:01 GMT 35.999954 -8.316193 37,000 179 447 0
2021-10-13 18:07:58 GMT 36.005951 -8.316193 37,000 179 447 0
2021-10-13 18:07:55 GMT 36.010902 -8.316300 37,000 177 446 0
2021-10-13 18:07:50 GMT 36.022476 -8.316765 37,000 177 446 0
2021-10-13 18:07:48 GMT 36.026173 -8.316943 37,000 177 446 0
2021-10-13 18:07:45 GMT 36.032597 -8.317293 37,000 177 446 0
2021-10-13 18:07:40 GMT 36.043945 -8.317795 37,000 177 446 0
2021-10-13 18:07:38 GMT 36.047028 -8.317936 37,000 177 446 0
2021-10-13 18:07:32 GMT 36.058990 -8.318462 37,000 177 446 0
2021-10-13 18:07:29 GMT 36.068298 -8.318882 37,000 177 446 0
2021-10-13 18:07:24 GMT 36.075283 -8.319222 37,000 177 446 0
2021-10-13 18:07:21 GMT 36.081291 -8.319514 37,000 177 446 0
2021-10-13 18:07:19 GMT 36.085434 -8.319689 37,000 177 446 0
2021-10-13 18:07:17 GMT 36.089127 -8.319855 37,000 177 446 0
2021-10-13 18:07:14 GMT 36.095535 -8.320141 37,000 177 446 0
2021-10-13 18:07:11 GMT 36.101944 -8.320427 37,000 177 446 0
2021-10-13 18:07:08 GMT 36.110199 -8.320799 37,000 177 446 0
2021-10-13 18:07:04 GMT 36.117233 -8.321114 37,000 177 446 0
2021-10-13 18:07:01 GMT 36.122581 -8.321384 37,000 177 447 0
2021-10-13 18:06:59 GMT 36.126709 -8.321571 37,000 177 446 0
2021-10-13 18:06:56 GMT 36.132915 -8.321851 37,000 177 447 0
2021-10-13 18:06:52 GMT 36.143234 -8.322315 37,000 177 447 0
2021-10-13 18:06:49 GMT 36.147812 -8.322494 37,000 177 447 0
2021-10-13 18:06:47 GMT 36.152756 -8.322773 37,000 177 447 0
2021-10-13 18:06:44 GMT 36.159164 -8.323059 37,000 177 447 0
2021-10-13 18:06:41 GMT 36.164566 -8.323288 37,000 177 447 0
2021-10-13 18:06:39 GMT 36.168667 -8.323488 37,000 177 447 0
2021-10-13 18:06:36 GMT 36.174454 -8.323746 37,000 177 447 0
2021-10-13 18:06:33 GMT 36.180679 -8.324014 37,000 177 447 0
2021-10-13 18:06:29 GMT 36.188919 -8.324432 37,000 177 447 0
2021-10-13 18:06:27 GMT 36.194092 -8.324661 37,000 177 447 0
2021-10-13 18:06:21 GMT 36.206284 -8.325241 37,000 177 447 0
2021-10-13 18:06:19 GMT 36.210239 -8.325416 37,000 177 447 0
2021-10-13 18:06:16 GMT 36.216011 -8.325650 37,000 177 447 0
2021-10-13 18:06:13 GMT 36.222839 -8.325977 37,000 177 447 0
2021-10-13 18:06:09 GMT 36.231140 -8.326351 37,000 177 447 0
2021-10-13 18:06:05 GMT 36.238358 -8.326702 37,000 177 448 0
2021-10-13 18:06:02 GMT 36.245621 -8.327052 37,000 177 448 0
2021-10-13 18:05:59 GMT 36.252045 -8.327345 37,000 177 448 0
2021-10-13 18:05:55 GMT 36.259304 -8.327695 37,000 177 448 0
2021-10-13 18:05:52 GMT 36.264473 -8.327929 37,000 177 448 0
2021-10-13 18:05:49 GMT 36.272369 -8.328266 37,000 177 448 -64
2021-10-13 18:05:45 GMT 36.279190 -8.328609 37,000 177 448 0
2021-10-13 18:05:41 GMT 36.287285 -8.328981 37,000 177 449 0
2021-10-13 18:05:38 GMT 36.293518 -8.329239 37,000 177 449 0
2021-10-13 18:05:36 GMT 36.300133 -8.329565 37,000 177 449 0
2021-10-13 18:05:31 GMT 36.309071 -8.329974 37,000 177 449 0
2021-10-13 18:05:28 GMT 36.314484 -8.330212 37,000 177 449 0
2021-10-13 18:05:22 GMT 36.329407 -8.330956 37,000 177 449 0
2021-10-13 18:05:19 GMT 36.334393 -8.331201 37,000 177 449 0
2021-10-13 18:05:15 GMT 36.343147 -8.331610 37,000 177 449 0
2021-10-13 18:05:11 GMT 36.351665 -8.332020 37,000 177 450 0
2021-10-13 18:05:08 GMT 36.357300 -8.332312 37,000 177 450 -64
2021-10-13 18:05:04 GMT 36.364559 -8.332604 37,000 177 450 -64
2021-10-13 18:05:00 GMT 36.374130 -8.333073 37,000 177 450 0
2021-10-13 18:04:58 GMT 36.378292 -8.333305 37,000 177 450 0
2021-10-13 18:04:54 GMT 36.385601 -8.333597 37,000 177 450 0
2021-10-13 18:04:51 GMT 36.391846 -8.333931 37,000 177 450 0
2021-10-13 18:04:48 GMT 36.399124 -8.334274 37,000 177 451 0
2021-10-13 18:04:44 GMT 36.406643 -8.334591 37,000 177 451 0
2021-10-13 18:04:41 GMT 36.412491 -8.334904 37,000 177 451 0
2021-10-13 18:04:38 GMT 36.420422 -8.335292 37,000 177 451 0
2021-10-13 18:04:32 GMT 36.434601 -8.335934 37,000 177 451 0
2021-10-13 18:04:28 GMT 36.440861 -8.336227 37,000 177 451 0
2021-10-13 18:04:24 GMT 36.449425 -8.336636 37,000 177 452 0
2021-10-13 18:04:21 GMT 36.455704 -8.336906 37,000 177 452 0
2021-10-13 18:04:17 GMT 36.463203 -8.337279 37,000 177 452 0
2021-10-13 18:04:14 GMT 36.471130 -8.337650 37,000 177 452 0
2021-10-13 18:04:11 GMT 36.476395 -8.337879 37,000 177 452 0
2021-10-13 18:04:08 GMT 36.482849 -8.338165 37,000 177 452 0
2021-10-13 18:04:04 GMT 36.491226 -8.338566 37,000 177 452 0
2021-10-13 18:04:01 GMT 36.497086 -8.338795 37,000 177 452 0
2021-10-13 18:03:58 GMT 36.504215 -8.339149 37,000 177 452 0
2021-10-13 18:03:54 GMT 36.510452 -8.339424 37,000 177 453 0
2021-10-13 18:03:51 GMT 36.517578 -8.339733 37,000 177 453 0
2021-10-13 18:03:48 GMT 36.525120 -8.340084 37,000 177 453 0
2021-10-13 18:03:43 GMT 36.535400 -8.340569 37,000 177 453 0
2021-10-13 18:03:38 GMT 36.546478 -8.341084 37,000 177 453 0
2021-10-13 18:03:32 GMT 36.557194 -8.341545 37,000 177 453 0
2021-10-13 18:03:29 GMT 36.563244 -8.341837 37,000 177 453 0
2021-10-13 18:03:26 GMT 36.568924 -8.342071 37,000 177 453 0
2021-10-13 18:03:20 GMT 36.583832 -8.342800 37,000 177 454 0
2021-10-13 18:03:17 GMT 36.588848 -8.343064 37,000 177 454 0
2021-10-13 18:03:10 GMT 36.609421 -8.344002 37,000 177 454 0
2021-10-13 18:03:07 GMT 36.609421 -8.344002 37,000 177 454 0
2021-10-13 18:03:03 GMT 36.621185 -8.344574 37,000 177 454 0
2021-10-13 18:03:00 GMT 36.625393 -8.344759 37,000 177 454 0
2021-10-13 18:02:57 GMT 36.632282 -8.345051 37,000 177 454 0
2021-10-13 18:02:54 GMT 36.637543 -8.345343 37,000 177 454 0
2021-10-13 18:02:50 GMT 36.646362 -8.345718 37,000 177 454 0
2021-10-13 18:02:47 GMT 36.652672 -8.345986 37,000 177 454 0
2021-10-13 18:02:44 GMT 36.657513 -8.346220 37,000 177 454 0
2021-10-13 18:02:40 GMT 36.667381 -8.346687 37,000 177 454 0
2021-10-13 18:02:37 GMT 36.672642 -8.346921 37,000 177 454 0
2021-10-13 18:02:35 GMT 36.690891 -8.347798 37,000 177 455 0
2021-10-13 18:02:30 GMT 36.696152 -8.348032 37,000 177 454 0
2021-10-13 18:02:26 GMT 36.704544 -8.348408 37,000 177 454 0
2021-10-13 18:02:23 GMT 36.704544 -8.348408 37,000 177 454 0
2021-10-13 18:02:20 GMT 36.709808 -8.348694 37,000 177 454 0
2021-10-13 18:02:17 GMT 36.715054 -8.348908 37,000 177 454 0
2021-10-13 18:02:15 GMT 36.719894 -8.349142 37,000 177 454 0
2021-10-13 18:02:09 GMT 36.732510 -8.349726 37,000 177 455 0
2021-10-13 18:02:06 GMT 36.739700 -8.350067 37,000 177 455 0
2021-10-13 18:02:00 GMT 36.749592 -8.350544 37,000 177 455 0
2021-10-13 18:01:57 GMT 36.761353 -8.351097 37,000 177 455 0
2021-10-13 18:01:52 GMT 36.770821 -8.351538 37,000 177 455 0
2021-10-13 18:01:48 GMT 36.775246 -8.351772 37,000 177 455 0
2021-10-13 18:01:45 GMT 36.782413 -8.352122 37,000 177 455 0
2021-10-13 18:01:41 GMT 36.793354 -8.352648 37,000 177 455 0
2021-10-13 18:01:38 GMT 36.796516 -8.352823 37,000 177 455 0
2021-10-13 18:01:35 GMT 36.804340 -8.353174 37,000 177 456 0
2021-10-13 18:01:29 GMT 36.817200 -8.353844 37,000 177 456 0
2021-10-13 18:01:26 GMT 36.822464 -8.354130 37,000 177 456 0
2021-10-13 18:01:24 GMT 36.825623 -8.354244 37,000 177 456 0
2021-10-13 18:01:21 GMT 36.831944 -8.354577 37,000 177 456 0
2021-10-13 18:01:18 GMT 36.848602 -8.355331 37,000 177 456 0
2021-10-13 18:01:15 GMT 36.848602 -8.355331 37,000 177 456 0
2021-10-13 18:01:08 GMT 36.860622 -8.355879 37,000 177 456 0
2021-10-13 18:01:05 GMT 36.867783 -8.356213 37,000 177 456 0
2021-10-13 18:00:58 GMT 36.881287 -8.356856 37,000 177 456 0
2021-10-13 18:00:55 GMT 36.888474 -8.357206 37,000 177 456 0
2021-10-13 18:00:48 GMT 36.902802 -8.357849 37,000 177 456 0
2021-10-13 18:00:45 GMT 36.908291 -8.358088 37,000 177 456 0
2021-10-13 18:00:43 GMT 36.914612 -8.358375 37,000 177 456 0
2021-10-13 18:00:38 GMT 36.925415 -8.358901 37,000 177 456 0
2021-10-13 18:00:35 GMT 36.929810 -8.359076 37,000 177 456 0
2021-10-13 18:00:32 GMT 36.935944 -8.359369 37,000 177 456 0
2021-10-13 18:00:28 GMT 36.945648 -8.359894 37,000 177 456 0
2021-10-13 18:00:25 GMT 36.950729 -8.360128 37,000 177 456 0
2021-10-13 18:00:22 GMT 36.957867 -8.360476 37,000 177 456 0
2021-10-13 18:00:19 GMT 36.964645 -8.360771 37,000 177 456 0
2021-10-13 18:00:16 GMT 36.970997 -8.361073 37,000 177 456 0
2021-10-13 18:00:12 GMT 36.979202 -8.361531 37,000 177 456 0
2021-10-13 18:00:09 GMT 36.986572 -8.361881 37,000 177 456 0
2021-10-13 18:00:05 GMT 36.993988 -8.362232 37,000 177 456 0
2021-10-13 18:00:02 GMT 37.001358 -8.362583 37,000 177 456 0
2021-10-13 17:59:56 GMT 37.012985 -8.363103 37,000 177 456 0
2021-10-13 17:59:54 GMT 37.015919 -8.363223 37,000 177 456 0
2021-10-13 17:59:51 GMT 37.022903 -8.363581 37,000 177 456 0
2021-10-13 17:59:46 GMT 37.034500 -8.364160 37,000 177 456 0
2021-10-13 17:59:44 GMT 37.036819 -8.364238 37,000 177 456 0
2021-10-13 17:59:41 GMT 37.043976 -8.364569 37,000 177 456 0
2021-10-13 17:59:37 GMT 37.053486 -8.365074 37,000 177 456 0
2021-10-13 17:59:34 GMT 37.065731 -8.365611 37,000 177 455 0
2021-10-13 17:59:31 GMT 37.065731 -8.365611 37,000 177 456 0
2021-10-13 17:59:26 GMT 37.074188 -8.366030 37,000 177 456 0
2021-10-13 17:59:23 GMT 37.080906 -8.366387 37,000 177 456 0
2021-10-13 17:59:20 GMT 37.087692 -8.366732 37,000 177 456 0
2021-10-13 17:59:17 GMT 37.093567 -8.366984 37,000 177 456 0
2021-10-13 17:59:14 GMT 37.099915 -8.367316 37,000 177 456 0
2021-10-13 17:59:11 GMT 37.108749 -8.367725 37,000 177 456 0
2021-10-13 17:59:07 GMT 37.117401 -8.368134 37,000 177 456 0
2021-10-13 17:59:03 GMT 37.126667 -8.368597 37,000 177 455 0
2021-10-13 17:58:57 GMT 37.137405 -8.369128 37,000 177 455 0
2021-10-13 17:58:54 GMT 37.144775 -8.369478 37,000 177 455 0
2021-10-13 17:58:51 GMT 37.150269 -8.369731 37,000 177 455 0
2021-10-13 17:58:47 GMT 37.158279 -8.370121 37,000 177 455 0
2021-10-13 17:58:44 GMT 37.163956 -8.370355 37,000 177 455 0
2021-10-13 17:58:41 GMT 37.169632 -8.370589 37,000 177 455 0
2021-10-13 17:58:38 GMT 37.176590 -8.370939 37,000 177 455 0
2021-10-13 17:58:35 GMT 37.183136 -8.371231 37,000 177 455 0
2021-10-13 17:58:32 GMT 37.190723 -8.371582 37,000 177 455 0
2021-10-13 17:58:28 GMT 37.198078 -8.371940 37,000 177 455 0
2021-10-13 17:58:25 GMT 37.203552 -8.372166 37,000 177 455 0
2021-10-13 17:58:22 GMT 37.216187 -8.372809 37,000 177 455 0
2021-10-13 17:58:19 GMT 37.216187 -8.372809 37,000 177 455 0
2021-10-13 17:58:15 GMT 37.224792 -8.373218 37,000 177 455 0
2021-10-13 17:58:12 GMT 37.232155 -8.373612 37,000 177 455 0
2021-10-13 17:58:09 GMT 37.237839 -8.373861 37,000 177 455 0
2021-10-13 17:58:05 GMT 37.246864 -8.374329 37,000 177 455 0
2021-10-13 17:58:02 GMT 37.253384 -8.374627 37,000 177 455 0
2021-10-13 17:57:59 GMT 37.259480 -8.374926 37,000 177 455 0
2021-10-13 17:57:55 GMT 37.270844 -8.375497 37,000 177 454 0
2021-10-13 17:57:49 GMT 37.282654 -8.376082 37,000 177 454 0
2021-10-13 17:57:46 GMT 37.288948 -8.376359 37,000 177 454 0
2021-10-13 17:57:43 GMT 37.292534 -8.376538 37,000 177 454 0
2021-10-13 17:57:40 GMT 37.300507 -8.376958 37,000 177 454 0
2021-10-13 17:57:37 GMT 37.304077 -8.377075 37,000 177 454 0
2021-10-13 17:57:34 GMT 37.311218 -8.377426 37,000 177 454 0
2021-10-13 17:57:31 GMT 37.318817 -8.377776 37,000 177 454 0
2021-10-13 17:57:27 GMT 37.325729 -8.378069 37,000 177 454 0
2021-10-13 17:57:24 GMT 37.332047 -8.378361 37,000 177 454 0
2021-10-13 17:57:22 GMT 37.336662 -8.378568 37,000 177 454 0
2021-10-13 17:57:19 GMT 37.344223 -8.378887 37,000 177 454 0
2021-10-13 17:57:16 GMT 37.349899 -8.379121 37,000 177 454 0
2021-10-13 17:57:13 GMT 37.356216 -8.379404 37,000 177 455 0
2021-10-13 17:57:09 GMT 37.363571 -8.379762 37,000 177 455 0
2021-10-13 17:57:06 GMT 37.369671 -8.380001 37,000 177 455 0
2021-10-13 17:57:03 GMT 37.377869 -8.380348 37,000 177 455 0
2021-10-13 17:57:00 GMT 37.381447 -8.380538 37,000 177 455 0
2021-10-13 17:56:57 GMT 37.389679 -8.380874 37,000 177 455 -64
2021-10-13 17:56:54 GMT 37.396179 -8.381166 37,000 177 455 -64
2021-10-13 17:56:49 GMT 37.406067 -8.381633 37,000 177 455 0
2021-10-13 17:56:46 GMT 37.411331 -8.381926 37,000 177 455 64
2021-10-13 17:56:43 GMT 37.420807 -8.382335 37,000 177 455 0
2021-10-13 17:56:40 GMT 37.425018 -8.382568 37,000 177 455 -64
2021-10-13 17:56:37 GMT 37.432793 -8.382927 37,000 177 455 -64
2021-10-13 17:56:34 GMT 37.438473 -8.383225 37,000 177 455 0
2021-10-13 17:56:32 GMT 37.442459 -8.383445 37,000 177 455 0
2021-10-13 17:56:29 GMT 37.446899 -8.383679 37,000 177 455 0
2021-10-13 17:56:27 GMT 37.452393 -8.383942 37,000 177 455 0
2021-10-13 17:56:24 GMT 37.459328 -8.384300 37,000 177 455 0
2021-10-13 17:56:20 GMT 37.468361 -8.384718 37,000 177 455 0
2021-10-13 17:56:16 GMT 37.475342 -8.385076 37,000 177 455 0
2021-10-13 17:56:13 GMT 37.481441 -8.385375 37,000 177 455 0
2021-10-13 17:56:09 GMT 37.490067 -8.385841 37,000 177 455 0
2021-10-13 17:56:07 GMT 37.494507 -8.386016 37,000 177 455 0
2021-10-13 17:56:03 GMT 37.507553 -8.386659 37,000 177 455 0
2021-10-13 17:56:01 GMT 37.507553 -8.386659 37,000 177 455 0
2021-10-13 17:55:57 GMT 37.515984 -8.387106 37,000 177 455 0
2021-10-13 17:55:53 GMT 37.525909 -8.387594 37,000 177 456 64
2021-10-13 17:55:48 GMT 37.534325 -8.388002 37,000 177 456 0
2021-10-13 17:55:45 GMT 37.541679 -8.388360 37,000 177 456 0
2021-10-13 17:55:42 GMT 37.547405 -8.388659 37,000 177 456 0
2021-10-13 17:55:38 GMT 37.561325 -8.389315 37,000 177 456 0
2021-10-13 17:55:35 GMT 37.561325 -8.389315 37,000 177 456 0
2021-10-13 17:55:32 GMT 37.568913 -8.389733 37,000 177 456 0
2021-10-13 17:55:29 GMT 37.574173 -8.389972 37,000 177 456 0
2021-10-13 17:55:26 GMT 37.581573 -8.390390 37,000 177 456 0
2021-10-13 17:55:23 GMT 37.590233 -8.390808 37,000 177 456 0
2021-10-13 17:55:18 GMT 37.597824 -8.391217 37,000 177 457 0
2021-10-13 17:55:15 GMT 37.611137 -8.391883 37,000 177 457 0
2021-10-13 17:55:12 GMT 37.611137 -8.391883 37,000 177 457 0
2021-10-13 17:55:09 GMT 37.624008 -8.392503 37,000 177 457 0
2021-10-13 17:55:06 GMT 37.624008 -8.392503 37,000 177 457 0
2021-10-13 17:55:03 GMT 37.629730 -8.392795 37,000 177 457 0
2021-10-13 17:55:01 GMT 37.633526 -8.392958 37,000 177 457 0
2021-10-13 17:54:58 GMT 37.641766 -8.393376 37,000 177 457 0
2021-10-13 17:54:55 GMT 37.648544 -8.393672 37,000 177 457 0
2021-10-13 17:54:52 GMT 37.654846 -8.393973 37,000 177 457 0
2021-10-13 17:54:49 GMT 37.659119 -8.394198 37,000 177 457 0
2021-10-13 17:54:46 GMT 37.665043 -8.394510 37,000 177 457 0
2021-10-13 17:54:43 GMT 37.673080 -8.394899 37,000 177 457 0
2021-10-13 17:54:41 GMT 37.676449 -8.395047 37,000 177 457 0
2021-10-13 17:54:38 GMT 37.683010 -8.395346 37,000 177 457 0
2021-10-13 17:54:35 GMT 37.688278 -8.395600 37,000 177 457 0
2021-10-13 17:54:32 GMT 37.696564 -8.396009 37,000 177 458 0
2021-10-13 17:54:29 GMT 37.702698 -8.396301 37,000 177 458 0
2021-10-13 17:54:26 GMT 37.709034 -8.396600 37,000 177 458 0
2021-10-13 17:54:23 GMT 37.714760 -8.396839 37,000 177 458 0
2021-10-13 17:54:21 GMT 37.718346 -8.397018 37,000 177 458 0
2021-10-13 17:54:17 GMT 37.725540 -8.397353 37,000 177 458 0
2021-10-13 17:54:14 GMT 37.734650 -8.397821 37,000 177 458 0
2021-10-13 17:54:11 GMT 37.740143 -8.398054 37,000 177 458 0
2021-10-13 17:54:06 GMT 37.750328 -8.398570 37,000 177 458 0
2021-10-13 17:54:03 GMT 37.756256 -8.398873 37,000 177 458 0
2021-10-13 17:54:00 GMT 37.762390 -8.399165 37,000 177 458 0
2021-10-13 17:53:57 GMT 37.768570 -8.399457 37,000 177 459 0
2021-10-13 17:53:54 GMT 37.777046 -8.399884 37,000 177 458 0
2021-10-13 17:53:51 GMT 37.783192 -8.400123 37,000 177 458 0
2021-10-13 17:53:45 GMT 37.801208 -8.401018 37,000 177 458 0
2021-10-13 17:53:42 GMT 37.801208 -8.401018 37,000 177 458 0
2021-10-13 17:53:40 GMT 37.805237 -8.401210 37,000 177 459 0
2021-10-13 17:53:35 GMT 37.816059 -8.401735 37,000 177 459 0
2021-10-13 17:53:32 GMT 37.821579 -8.401970 37,000 177 459 0
2021-10-13 17:53:30 GMT 37.826206 -8.402212 37,000 177 459 0
2021-10-13 17:53:25 GMT 37.836823 -8.402671 37,000 177 459 0
2021-10-13 17:53:22 GMT 37.843430 -8.402989 37,000 177 459 0
2021-10-13 17:53:20 GMT 37.847443 -8.403197 37,000 177 459 0
2021-10-13 17:53:17 GMT 37.855534 -8.403526 37,000 177 459 0
2021-10-13 17:53:14 GMT 37.860168 -8.403781 37,000 177 459 0
2021-10-13 17:53:11 GMT 37.865685 -8.404004 37,000 177 459 0
2021-10-13 17:53:09 GMT 37.870152 -8.404242 37,000 177 459 0
2021-10-13 17:53:05 GMT 37.880768 -8.404720 37,000 178 459 0
2021-10-13 17:53:02 GMT 37.885887 -8.404899 37,000 178 459 0
2021-10-13 17:52:59 GMT 37.895199 -8.405377 37,000 177 459 0
2021-10-13 17:52:55 GMT 37.907536 -8.405914 37,000 177 459 0
2021-10-13 17:52:52 GMT 37.907536 -8.405914 37,000 177 459 0
2021-10-13 17:52:49 GMT 37.913910 -8.406236 37,000 177 459 0
2021-10-13 17:52:46 GMT 37.922848 -8.406631 37,000 177 459 -64
2021-10-13 17:52:42 GMT 37.930252 -8.406989 37,000 177 459 0
2021-10-13 17:52:38 GMT 37.936661 -8.407288 37,000 177 459 0
2021-10-13 17:52:34 GMT 37.944309 -8.407646 37,000 177 459 0
2021-10-13 17:52:31 GMT 37.950874 -8.407944 37,000 177 459 0
2021-10-13 17:52:28 GMT 37.956848 -8.408223 37,000 177 459 0
2021-10-13 17:52:24 GMT 37.967468 -8.408749 37,000 177 459 0
2021-10-13 17:52:21 GMT 37.973404 -8.409019 37,000 177 459 0
2021-10-13 17:52:18 GMT 37.979782 -8.409377 37,000 177 459 0
2021-10-13 17:52:14 GMT 37.987839 -8.409742 37,000 177 459 64
2021-10-13 17:52:11 GMT 37.993607 -8.410093 37,000 177 459 64
2021-10-13 17:52:09 GMT 37.999329 -8.410385 37,000 177 459 0
2021-10-13 17:52:06 GMT 38.005295 -8.410691 37,000 177 459 0
2021-10-13 17:52:03 GMT 38.010818 -8.410969 37,000 177 459 0
2021-10-13 17:52:00 GMT 38.016541 -8.411261 37,000 177 459 0
2021-10-13 17:51:58 GMT 38.021439 -8.411495 37,000 177 459 0
2021-10-13 17:51:54 GMT 38.032898 -8.412064 37,000 177 459 0
2021-10-13 17:51:51 GMT 38.038204 -8.412363 37,000 177 459 0
2021-10-13 17:51:47 GMT 38.044189 -8.412664 37,000 177 459 0
2021-10-13 17:51:43 GMT 38.055431 -8.413258 37,000 177 459 0
2021-10-13 17:51:40 GMT 38.060120 -8.413482 37,000 177 459 0
2021-10-13 17:51:37 GMT 38.066883 -8.413796 37,000 177 459 0
2021-10-13 17:51:33 GMT 38.075169 -8.414214 37,000 177 459 0
2021-10-13 17:51:30 GMT 38.081131 -8.414534 37,000 177 459 0
2021-10-13 17:51:27 GMT 38.086666 -8.414751 37,000 177 459 0
2021-10-13 17:51:24 GMT 38.096008 -8.415235 37,000 177 459 0
2021-10-13 17:51:21 GMT 38.101936 -8.415527 37,000 177 459 0
2021-10-13 17:51:18 GMT 38.108128 -8.415826 37,000 177 459 0
2021-10-13 17:51:14 GMT 38.114502 -8.416112 37,000 177 459 0
2021-10-13 17:51:11 GMT 38.122559 -8.416483 37,000 177 459 0
2021-10-13 17:51:09 GMT 38.129124 -8.416781 37,000 177 459 0
2021-10-13 17:51:04 GMT 38.136337 -8.417164 37,000 177 459 0
2021-10-13 17:51:01 GMT 38.143982 -8.417514 37,000 177 459 0
2021-10-13 17:50:58 GMT 38.150166 -8.417796 37,000 177 459 0
2021-10-13 17:50:52 GMT 38.161835 -8.418332 37,000 177 458 0
2021-10-13 17:50:49 GMT 38.169250 -8.418683 37,000 177 458 0
2021-10-13 17:50:46 GMT 38.174744 -8.418931 37,000 177 458 0
2021-10-13 17:50:43 GMT 38.182144 -8.419289 37,000 177 458 0
2021-10-13 17:50:39 GMT 38.190445 -8.419676 37,000 177 458 0
2021-10-13 17:50:36 GMT 38.196762 -8.419969 37,000 177 458 0
2021-10-13 17:50:33 GMT 38.207561 -8.420543 37,000 177 458 0
2021-10-13 17:50:30 GMT 38.207561 -8.420543 37,000 177 458 0
2021-10-13 17:50:27 GMT 38.214966 -8.420901 37,000 177 458 0
2021-10-13 17:50:23 GMT 38.223038 -8.421313 37,000 177 457 0
2021-10-13 17:50:20 GMT 38.229584 -8.421605 37,000 177 457 0
2021-10-13 17:50:17 GMT 38.236984 -8.421976 37,000 177 457 0
2021-10-13 17:50:13 GMT 38.243958 -8.422365 37,000 177 457 0
2021-10-13 17:50:10 GMT 38.250717 -8.422692 37,000 177 457 0
2021-10-13 17:50:08 GMT 38.261749 -8.423230 37,000 177 457 64
2021-10-13 17:50:05 GMT 38.261749 -8.423230 37,000 177 457 0
2021-10-13 17:50:02 GMT 38.266590 -8.423469 37,000 177 457 0
2021-10-13 17:49:59 GMT 38.273575 -8.423827 37,000 177 457 0
2021-10-13 17:49:56 GMT 38.287720 -8.424527 37,000 177 457 0
2021-10-13 17:49:52 GMT 38.287720 -8.424527 37,000 177 456 -64
2021-10-13 17:49:49 GMT 38.294266 -8.424877 37,000 177 456 0
2021-10-13 17:49:47 GMT 38.299316 -8.425140 37,000 177 456 0
2021-10-13 17:49:43 GMT 38.315140 -8.425929 37,000 177 455 0
2021-10-13 17:49:40 GMT 38.315140 -8.425929 37,000 177 455 0
2021-10-13 17:49:38 GMT 38.319534 -8.426163 37,000 177 454 0
2021-10-13 17:49:35 GMT 38.324783 -8.426454 37,000 177 454 0
2021-10-13 17:49:30 GMT 38.335510 -8.426981 37,000 177 453 0
2021-10-13 17:49:27 GMT 38.341820 -8.427290 37,000 177 453 64
2021-10-13 17:49:24 GMT 38.348099 -8.427624 37,000 177 453 64
2021-10-13 17:49:21 GMT 38.354389 -8.427887 37,000 177 452 64
2021-10-13 17:49:18 GMT 38.368168 -8.428603 37,000 177 452 0
2021-10-13 17:49:15 GMT 38.368168 -8.428603 37,000 177 451 0
2021-10-13 17:49:10 GMT 38.378223 -8.429021 37,000 177 451 0
2021-10-13 17:49:07 GMT 38.386139 -8.429436 37,000 177 450 0
2021-10-13 17:49:03 GMT 38.392376 -8.429678 37,000 177 450 0
2021-10-13 17:49:00 GMT 38.399460 -8.430020 37,000 177 449 0
2021-10-13 17:48:58 GMT 38.402573 -8.430195 37,000 177 449 0
2021-10-13 17:48:54 GMT 38.411087 -8.430546 37,000 177 449 64
2021-10-13 17:48:51 GMT 38.416069 -8.430786 37,000 177 449 64
2021-10-13 17:48:48 GMT 38.421051 -8.430969 37,000 177 448 64
2021-10-13 17:48:46 GMT 38.426640 -8.431213 37,000 177 448 64
2021-10-13 17:48:43 GMT 38.432644 -8.431519 37,000 177 448 64
2021-10-13 17:48:39 GMT 38.443634 -8.432007 37,000 177 448 0
2021-10-13 17:48:36 GMT 38.447342 -8.432186 37,000 177 448 0
2021-10-13 17:48:33 GMT 38.452927 -8.432425 37,000 177 447 -64
2021-10-13 17:48:30 GMT 38.460617 -8.432783 37,000 177 447 -64
2021-10-13 17:48:27 GMT 38.465973 -8.432983 37,000 177 447 -64
2021-10-13 17:48:24 GMT 38.475098 -8.433411 37,000 177 447 -64
2021-10-13 17:48:19 GMT 38.482735 -8.433777 37,000 177 447 0
2021-10-13 17:48:16 GMT 38.489136 -8.434097 37,000 177 447 0
2021-10-13 17:48:12 GMT 38.497581 -8.434509 37,000 177 447 0
2021-10-13 17:48:09 GMT 38.503784 -8.434753 37,000 177 446 -64
2021-10-13 17:48:06 GMT 38.508957 -8.435052 37,000 177 446 -64
2021-10-13 17:48:03 GMT 38.516602 -8.435410 37,000 177 446 -64
2021-10-13 17:47:59 GMT 38.524658 -8.435768 37,000 177 446 0
2021-10-13 17:47:55 GMT 38.532898 -8.436186 37,000 177 446 0
2021-10-13 17:47:50 GMT 38.544044 -8.436768 37,000 177 446 0
2021-10-13 17:47:47 GMT 38.549999 -8.437073 37,000 177 446 0
2021-10-13 17:47:43 GMT 38.558075 -8.437500 37,000 177 446 64
2021-10-13 17:47:39 GMT 38.566296 -8.437866 37,000 177 446 64
2021-10-13 17:47:37 GMT 38.571442 -8.438157 37,000 177 446 0
2021-10-13 17:47:33 GMT 38.579933 -8.438538 37,000 177 446 0
2021-10-13 17:47:28 GMT 38.588150 -8.438933 37,000 177 446 0
2021-10-13 17:47:24 GMT 38.598461 -8.439453 37,000 177 446 0
2021-10-13 17:47:20 GMT 38.603630 -8.439697 37,000 177 446 0
2021-10-13 17:47:17 GMT 38.609634 -8.440002 37,000 177 446 0
2021-10-13 17:47:14 GMT 38.617035 -8.440426 37,000 177 446 0
2021-10-13 17:47:10 GMT 38.624268 -8.440784 37,000 177 446 0
2021-10-13 17:47:07 GMT 38.631050 -8.441162 37,000 177 446 0
2021-10-13 17:47:04 GMT 38.639103 -8.441589 37,000 177 446 0
2021-10-13 17:47:00 GMT 38.645691 -8.441918 37,000 177 446 0
2021-10-13 17:46:57 GMT 38.651859 -8.442261 37,000 177 446 0
2021-10-13 17:46:54 GMT 38.658051 -8.442575 37,000 177 446 0
2021-10-13 17:46:51 GMT 38.664047 -8.442874 37,000 177 446 -64
2021-10-13 17:46:47 GMT 38.672516 -8.443292 37,000 177 446 0
2021-10-13 17:46:44 GMT 38.679508 -8.443665 37,000 177 446 0
2021-10-13 17:46:40 GMT 38.687748 -8.444092 37,000 177 446 0
2021-10-13 17:46:37 GMT 38.693710 -8.444426 37,000 177 446 0
2021-10-13 17:46:32 GMT 38.704227 -8.444946 37,000 177 446 0
2021-10-13 17:46:28 GMT 38.711445 -8.445312 37,000 177 446 0
2021-10-13 17:46:25 GMT 38.720524 -8.445801 37,000 177 446 0
2021-10-13 17:46:22 GMT 38.723602 -8.445919 37,000 177 446 0
2021-10-13 17:46:19 GMT 38.737015 -8.446635 37,000 177 446 0
2021-10-13 17:46:16 GMT 38.737015 -8.446635 37,000 177 446 0
2021-10-13 17:46:13 GMT 38.751068 -8.447352 37,000 177 446 0
2021-10-13 17:46:09 GMT 38.757019 -8.447650 37,000 177 446 0
2021-10-13 17:46:06 GMT 38.757019 -8.447650 37,000 177 446 0
2021-10-13 17:46:02 GMT 38.765724 -8.448059 37,000 177 446 0
2021-10-13 17:45:57 GMT 38.774570 -8.448486 37,000 177 446 0
2021-10-13 17:45:54 GMT 38.783230 -8.448914 37,000 177 446 0
2021-10-13 17:45:51 GMT 38.790863 -8.449280 37,000 177 446 0
2021-10-13 17:45:46 GMT 38.798916 -8.449646 37,000 177 446 0
2021-10-13 17:45:42 GMT 38.806778 -8.450039 37,000 177 446 0
2021-10-13 17:45:38 GMT 38.813782 -8.450397 37,000 177 446 0
2021-10-13 17:45:35 GMT 38.820190 -8.450755 37,000 177 446 0
2021-10-13 17:45:32 GMT 38.837128 -8.451591 37,000 177 446 0
2021-10-13 17:45:28 GMT 38.837128 -8.451591 37,000 177 447 0
2021-10-13 17:45:25 GMT 38.841652 -8.451782 37,000 177 447 0
2021-10-13 17:45:22 GMT 38.850540 -8.452271 37,000 177 447 0
2021-10-13 17:45:17 GMT 38.859009 -8.452666 37,000 177 447 0
2021-10-13 17:45:13 GMT 38.868713 -8.453144 37,000 177 447 0
2021-10-13 17:45:10 GMT 38.873062 -8.453382 37,000 177 447 0
2021-10-13 17:45:07 GMT 38.879471 -8.453681 37,000 177 447 0
2021-10-13 17:45:02 GMT 38.889599 -8.454163 37,000 177 447 0
2021-10-13 17:44:59 GMT 38.896637 -8.454517 37,000 177 447 -64
2021-10-13 17:44:56 GMT 38.900940 -8.454756 37,000 177 447 0
2021-10-13 17:44:52 GMT 38.910278 -8.455233 37,000 177 447 0
2021-10-13 17:44:49 GMT 38.916458 -8.455566 37,000 177 447 0
2021-10-13 17:44:46 GMT 38.922047 -8.455811 37,000 177 447 0
2021-10-13 17:44:42 GMT 38.932159 -8.456308 37,000 177 447 0
2021-10-13 17:44:39 GMT 38.937332 -8.456607 37,000 177 447 0
2021-10-13 17:44:36 GMT 38.943554 -8.456909 37,000 177 447 0
2021-10-13 17:44:33 GMT 38.948486 -8.457153 37,000 177 447 0
2021-10-13 17:44:30 GMT 38.963608 -8.457920 37,000 177 447 0
2021-10-13 17:44:26 GMT 38.963608 -8.457920 37,000 177 447 0
2021-10-13 17:44:23 GMT 38.968971 -8.458191 37,000 177 447 0
2021-10-13 17:44:19 GMT 38.979126 -8.458696 37,000 177 447 0
2021-10-13 17:44:15 GMT 38.985310 -8.459045 37,000 177 447 0
2021-10-13 17:44:11 GMT 38.995880 -8.459592 37,000 177 447 0
2021-10-13 17:44:08 GMT 39.000824 -8.459831 37,000 177 447 0
2021-10-13 17:44:05 GMT 39.005997 -8.460129 37,000 177 447 0
2021-10-13 17:44:01 GMT 39.022339 -8.461025 37,000 177 447 0
2021-10-13 17:43:58 GMT 39.022339 -8.461025 37,000 177 447 0
2021-10-13 17:43:55 GMT 39.027115 -8.461304 37,000 177 447 0
2021-10-13 17:43:51 GMT 39.042618 -8.462097 37,000 177 447 0
2021-10-13 17:43:48 GMT 39.042618 -8.462097 37,000 177 447 0
2021-10-13 17:43:45 GMT 39.048386 -8.462398 37,000 177 447 0
2021-10-13 17:43:42 GMT 39.053970 -8.462697 37,000 177 447 0
2021-10-13 17:43:39 GMT 39.059967 -8.462995 37,000 177 447 0
2021-10-13 17:43:35 GMT 39.069305 -8.463533 37,000 177 447 0
2021-10-13 17:43:30 GMT 39.081905 -8.464172 37,000 177 447 0
2021-10-13 17:43:27 GMT 39.085831 -8.464369 37,000 177 447 0
2021-10-13 17:43:24 GMT 39.090984 -8.464661 37,000 177 447 0
2021-10-13 17:43:21 GMT 39.097641 -8.464966 37,000 177 447 0
2021-10-13 17:43:18 GMT 39.110229 -8.465623 37,000 177 447 0
2021-10-13 17:43:15 GMT 39.110229 -8.465623 37,000 177 447 0
2021-10-13 17:43:12 GMT 39.116638 -8.465921 37,000 177 447 64
2021-10-13 17:43:09 GMT 39.124100 -8.466279 37,000 177 447 64
2021-10-13 17:43:04 GMT 39.133629 -8.466736 37,000 177 448 64
2021-10-13 17:43:01 GMT 39.139214 -8.466980 37,000 177 448 0
2021-10-13 17:42:58 GMT 39.147266 -8.467346 37,000 177 448 0
2021-10-13 17:42:54 GMT 39.154312 -8.467653 37,000 177 448 0
2021-10-13 17:42:49 GMT 39.164864 -8.468140 37,000 177 448 0
2021-10-13 17:42:46 GMT 39.171288 -8.468445 37,000 177 448 0
2021-10-13 17:42:43 GMT 39.175663 -8.468628 37,000 177 448 0
2021-10-13 17:42:39 GMT 39.185165 -8.469086 37,000 177 448 0
2021-10-13 17:42:36 GMT 39.190979 -8.469360 37,000 177 448 0
2021-10-13 17:42:33 GMT 39.196983 -8.469666 37,000 177 448 0
2021-10-13 17:42:30 GMT 39.203407 -8.469971 37,000 177 448 0
2021-10-13 17:42:26 GMT 39.213741 -8.470459 37,000 177 448 0
2021-10-13 17:42:23 GMT 39.218079 -8.470638 37,000 177 448 0
2021-10-13 17:42:19 GMT 39.228012 -8.471116 37,000 177 448 0
2021-10-13 17:42:16 GMT 39.233017 -8.471375 37,000 177 448 0
2021-10-13 17:42:13 GMT 39.238770 -8.471653 37,000 177 448 0
2021-10-13 17:42:08 GMT 39.249985 -8.472250 37,000 177 448 0
2021-10-13 17:42:05 GMT 39.256618 -8.472595 37,000 177 448 0
2021-10-13 17:42:02 GMT 39.260761 -8.472778 37,000 177 448 0
2021-10-13 17:41:58 GMT 39.270676 -8.473328 37,000 177 448 0
2021-10-13 17:41:55 GMT 39.276901 -8.473624 37,000 177 448 0
2021-10-13 17:41:52 GMT 39.281250 -8.473862 37,000 177 448 0
2021-10-13 17:41:48 GMT 39.291412 -8.474340 37,000 177 448 0
2021-10-13 17:41:45 GMT 39.296371 -8.474609 37,000 177 448 0
2021-10-13 17:41:42 GMT 39.302795 -8.474915 37,000 177 448 0
2021-10-13 17:41:38 GMT 39.312527 -8.475464 37,000 177 448 -64
2021-10-13 17:41:35 GMT 39.317917 -8.475713 37,000 177 448 -64
2021-10-13 17:41:32 GMT 39.323090 -8.476012 37,000 177 448 0
2021-10-13 17:41:28 GMT 39.331799 -8.476501 37,000 177 448 0
2021-10-13 17:41:25 GMT 39.345299 -8.477173 37,000 177 448 0
2021-10-13 17:41:22 GMT 39.345299 -8.477173 37,000 177 448 0
2021-10-13 17:41:19 GMT 39.351517 -8.477505 37,000 177 448 0
2021-10-13 17:41:15 GMT 39.361221 -8.478042 37,000 177 448 0
2021-10-13 17:41:12 GMT 39.365364 -8.478271 37,000 177 448 0
2021-10-13 17:41:07 GMT 39.376163 -8.478821 37,000 177 448 0
2021-10-13 17:41:04 GMT 39.382587 -8.479126 37,000 177 448 0
2021-10-13 17:41:01 GMT 39.387524 -8.479370 37,000 177 448 0
2021-10-13 17:40:58 GMT 39.393574 -8.479675 37,000 177 448 0
2021-10-13 17:40:55 GMT 39.401642 -8.480132 37,000 177 448 0
2021-10-13 17:40:52 GMT 39.409698 -8.480490 37,000 177 448 0
2021-10-13 17:40:47 GMT 39.418804 -8.480957 37,000 177 448 0
2021-10-13 17:40:44 GMT 39.423599 -8.481201 37,000 177 448 0
2021-10-13 17:40:41 GMT 39.429382 -8.481505 37,000 177 448 0
2021-10-13 17:40:36 GMT 39.439728 -8.481983 37,000 177 448 0
2021-10-13 17:40:33 GMT 39.445953 -8.482281 37,000 177 448 0
2021-10-13 17:40:29 GMT 39.461105 -8.482998 37,000 177 448 0
2021-10-13 17:40:26 GMT 39.467102 -8.483296 37,000 177 448 0
2021-10-13 17:40:23 GMT 39.467102 -8.483296 37,000 177 448 0
2021-10-13 17:40:20 GMT 39.472294 -8.483521 37,000 177 448 0
2021-10-13 17:40:17 GMT 39.479919 -8.483893 37,000 177 448 0
2021-10-13 17:40:14 GMT 39.486958 -8.484253 37,000 177 448 0
2021-10-13 17:40:11 GMT 39.492783 -8.484550 37,000 177 448 0
2021-10-13 17:40:08 GMT 39.497524 -8.484741 37,000 177 448 0
2021-10-13 17:40:05 GMT 39.502945 -8.485028 37,000 177 448 0
2021-10-13 17:40:02 GMT 39.509117 -8.485352 37,000 177 448 64
2021-10-13 17:39:59 GMT 39.515961 -8.485657 37,000 177 448 64
2021-10-13 17:39:56 GMT 39.523819 -8.486043 37,000 177 448 0
2021-10-13 17:39:52 GMT 39.529648 -8.486328 37,000 177 448 0
2021-10-13 17:39:48 GMT 39.539982 -8.486877 37,000 177 448 0
2021-10-13 17:39:45 GMT 39.550549 -8.487427 37,000 177 448 0
2021-10-13 17:39:42 GMT 39.550549 -8.487427 37,000 177 448 0
2021-10-13 17:39:39 GMT 39.558834 -8.487854 37,000 177 447 0
2021-10-13 17:39:36 GMT 39.571655 -8.488491 37,000 177 447 0
2021-10-13 17:39:33 GMT 39.571655 -8.488491 37,000 177 447 0
2021-10-13 17:39:30 GMT 39.576828 -8.488789 37,000 177 447 0
2021-10-13 17:39:25 GMT 39.587585 -8.489387 37,000 177 447 64
2021-10-13 17:39:22 GMT 39.593143 -8.489624 37,000 177 447 64
2021-10-13 17:39:18 GMT 39.602268 -8.490112 37,000 177 447 0
2021-10-13 17:39:15 GMT 39.609283 -8.490461 37,000 177 447 0
2021-10-13 17:39:12 GMT 39.614456 -8.490760 37,000 177 447 0
2021-10-13 17:39:09 GMT 39.620041 -8.491058 37,000 177 447 0
2021-10-13 17:39:06 GMT 39.625450 -8.491333 37,000 177 447 0
2021-10-13 17:39:03 GMT 39.632668 -8.491699 37,000 177 447 0
2021-10-13 17:38:59 GMT 39.641140 -8.492126 37,000 177 447 0
2021-10-13 17:38:55 GMT 39.648819 -8.492493 37,000 177 447 0
2021-10-13 17:38:52 GMT 39.656876 -8.492920 37,000 177 447 0
2021-10-13 17:38:48 GMT 39.662659 -8.493268 37,000 177 448 0
2021-10-13 17:38:45 GMT 39.669724 -8.493591 37,000 177 448 64
2021-10-13 17:38:41 GMT 39.678009 -8.494019 37,000 177 448 0
2021-10-13 17:38:38 GMT 39.683174 -8.494324 37,000 177 448 0
2021-10-13 17:38:34 GMT 39.693100 -8.494820 37,000 177 448 -64
2021-10-13 17:38:31 GMT 39.699749 -8.495178 37,000 177 448 0
2021-10-13 17:38:27 GMT 39.705753 -8.495483 37,000 177 448 0
2021-10-13 17:38:24 GMT 39.714645 -8.495911 37,000 177 448 0
2021-10-13 17:38:21 GMT 39.720650 -8.496277 37,000 177 448 0
2021-10-13 17:38:18 GMT 39.725819 -8.496521 37,000 177 448 0
2021-10-13 17:38:14 GMT 39.732662 -8.496887 37,000 177 448 0
2021-10-13 17:38:11 GMT 39.742401 -8.497328 37,000 177 448 0
2021-10-13 17:38:08 GMT 39.746750 -8.497567 37,000 177 448 0
2021-10-13 17:38:03 GMT 39.756912 -8.498044 37,000 177 448 0
2021-10-13 17:38:00 GMT 39.763733 -8.498402 37,000 177 448 0
2021-10-13 17:37:57 GMT 39.769112 -8.498657 37,000 177 448 0
2021-10-13 17:37:54 GMT 39.782799 -8.499329 37,000 177 448 0
2021-10-13 17:37:50 GMT 39.782799 -8.499329 37,000 177 448 0
2021-10-13 17:37:47 GMT 39.790432 -8.499756 37,000 177 448 0
2021-10-13 17:37:43 GMT 39.799347 -8.500194 37,000 177 448 0
2021-10-13 17:37:40 GMT 39.806168 -8.500549 37,000 177 448 0
2021-10-13 17:37:37 GMT 39.809704 -8.500732 37,000 177 448 0
2021-10-13 17:37:33 GMT 39.820038 -8.501282 37,000 177 448 0
2021-10-13 17:37:30 GMT 39.826881 -8.501648 37,000 177 448 0
2021-10-13 17:37:27 GMT 39.831676 -8.501892 37,000 177 448 0
2021-10-13 17:37:23 GMT 39.839951 -8.502284 37,000 177 448 0
2021-10-13 17:37:20 GMT 39.845947 -8.502642 37,000 177 448 0
2021-10-13 17:37:17 GMT 39.852161 -8.502930 37,000 177 448 0
2021-10-13 17:37:12 GMT 39.862106 -8.503478 37,000 177 448 0
2021-10-13 17:37:09 GMT 39.871014 -8.503906 37,000 177 448 0
2021-10-13 17:37:06 GMT 39.874134 -8.504089 37,000 177 448 0
2021-10-13 17:37:01 GMT 39.884079 -8.504552 37,000 177 448 0
2021-10-13 17:36:58 GMT 39.892136 -8.504970 37,000 177 448 0
2021-10-13 17:36:55 GMT 39.896484 -8.505150 37,000 177 448 0
2021-10-13 17:36:52 GMT 39.904762 -8.505615 37,000 177 448 0
2021-10-13 17:36:49 GMT 39.911407 -8.505926 37,000 177 448 0
2021-10-13 17:36:45 GMT 39.916992 -8.506224 37,000 177 448 0
2021-10-13 17:36:42 GMT 39.926102 -8.506653 37,000 177 448 0
2021-10-13 17:36:38 GMT 39.934158 -8.507080 37,000 177 448 0
2021-10-13 17:36:35 GMT 39.939541 -8.507351 37,000 177 448 0
2021-10-13 17:36:31 GMT 39.947021 -8.507690 37,000 177 448 0
2021-10-13 17:36:27 GMT 39.955490 -8.508118 37,000 177 448 0
2021-10-13 17:36:24 GMT 39.960251 -8.508362 37,000 177 448 0
2021-10-13 17:36:21 GMT 39.968540 -8.508786 37,000 177 448 0
2021-10-13 17:36:18 GMT 39.974964 -8.509098 37,000 177 448 -64
2021-10-13 17:36:15 GMT 39.979111 -8.509277 37,000 177 448 -64
2021-10-13 17:36:11 GMT 39.989071 -8.509785 37,000 177 448 0
2021-10-13 17:36:08 GMT 39.996918 -8.510193 37,000 177 448 0
2021-10-13 17:36:05 GMT 40.001678 -8.510437 37,000 177 448 0
2021-10-13 17:36:01 GMT 40.010193 -8.510864 37,000 177 448 0
2021-10-13 17:35:58 GMT 40.015366 -8.511169 37,000 177 448 0
2021-10-13 17:35:55 GMT 40.021362 -8.511475 37,000 177 447 -64
2021-10-13 17:35:51 GMT 40.031708 -8.512024 37,000 177 448 0
2021-10-13 17:35:48 GMT 40.042236 -8.512573 37,000 177 448 0
2021-10-13 17:35:45 GMT 40.042236 -8.512573 37,000 177 448 0
2021-10-13 17:35:40 GMT 40.052582 -8.513123 37,000 177 447 -64
2021-10-13 17:35:37 GMT 40.060062 -8.513530 37,000 177 447 -64
2021-10-13 17:35:34 GMT 40.065231 -8.513842 37,000 177 447 0
2021-10-13 17:35:30 GMT 40.073891 -8.514279 37,000 177 447 64
2021-10-13 17:35:26 GMT 40.083618 -8.514841 37,000 177 447 -64
2021-10-13 17:35:22 GMT 40.089798 -8.515137 37,000 177 447 0
2021-10-13 17:35:19 GMT 40.094791 -8.515403 37,000 177 447 0
2021-10-13 17:35:16 GMT 40.102844 -8.515840 37,000 177 447 0
2021-10-13 17:35:13 GMT 40.109024 -8.516174 37,000 177 447 0
2021-10-13 17:35:10 GMT 40.115646 -8.516527 37,000 177 447 0
2021-10-13 17:35:06 GMT 40.123489 -8.516907 37,000 177 447 0
2021-10-13 17:35:03 GMT 40.128250 -8.517151 37,000 177 447 0
2021-10-13 17:35:00 GMT 40.136719 -8.517578 37,000 177 447 0
2021-10-13 17:34:56 GMT 40.144554 -8.517962 37,000 177 447 0
2021-10-13 17:34:53 GMT 40.148884 -8.518150 37,000 177 447 0
2021-10-13 17:34:48 GMT 40.161266 -8.518774 37,000 177 447 64
2021-10-13 17:34:45 GMT 40.165421 -8.519043 37,000 177 447 64
2021-10-13 17:34:42 GMT 40.171371 -8.519348 37,000 177 447 0
2021-10-13 17:34:39 GMT 40.179237 -8.519773 37,000 177 447 -128
2021-10-13 17:34:35 GMT 40.187714 -8.520203 37,000 177 447 64
2021-10-13 17:34:32 GMT 40.191833 -8.520386 37,000 177 447 64
2021-10-13 17:34:29 GMT 40.199066 -8.520752 37,000 177 447 0
2021-10-13 17:34:26 GMT 40.204651 -8.521057 37,000 177 447 0
2021-10-13 17:34:23 GMT 40.212521 -8.521458 37,000 177 447 0
2021-10-13 17:34:19 GMT 40.220993 -8.521851 37,000 177 447 0
2021-10-13 17:34:15 GMT 40.227997 -8.522217 37,000 177 447 0
2021-10-13 17:34:12 GMT 40.236282 -8.522644 37,000 177 447 -64
2021-10-13 17:34:07 GMT 40.245571 -8.523081 37,000 177 447 -64
2021-10-13 17:34:04 GMT 40.251392 -8.523393 37,000 177 447 0
2021-10-13 17:34:01 GMT 40.256332 -8.523621 37,000 177 447 0
2021-10-13 17:33:58 GMT 40.262741 -8.523987 37,000 177 447 0
2021-10-13 17:33:55 GMT 40.269150 -8.524292 37,000 177 447 0
2021-10-13 17:33:52 GMT 40.276577 -8.524642 37,000 177 447 0
2021-10-13 17:33:48 GMT 40.284260 -8.525079 37,000 177 447 0
2021-10-13 17:33:45 GMT 40.296432 -8.525696 37,000 177 447 0
2021-10-13 17:33:42 GMT 40.296432 -8.525696 37,000 177 447 0
2021-10-13 17:33:38 GMT 40.305302 -8.526140 37,000 177 447 0
2021-10-13 17:33:34 GMT 40.312775 -8.526489 37,000 177 447 0
2021-10-13 17:33:31 GMT 40.319138 -8.526855 37,000 177 447 0
2021-10-13 17:33:28 GMT 40.327412 -8.527263 37,000 177 447 0
2021-10-13 17:33:24 GMT 40.335709 -8.527710 37,000 177 447 0
2021-10-13 17:33:21 GMT 40.340012 -8.527954 37,000 177 447 0
2021-10-13 17:33:18 GMT 40.347477 -8.528324 37,000 177 447 0
2021-10-13 17:33:15 GMT 40.353062 -8.528637 37,000 177 447 0
2021-10-13 17:33:12 GMT 40.359020 -8.528949 37,000 177 447 0
2021-10-13 17:33:09 GMT 40.364227 -8.529236 37,000 177 447 0
2021-10-13 17:33:06 GMT 40.373501 -8.529698 37,000 177 447 0
2021-10-13 17:33:03 GMT 40.377644 -8.529947 37,000 177 447 0
2021-10-13 17:33:00 GMT 40.384232 -8.530273 37,000 177 447 0
2021-10-13 17:32:57 GMT 40.396637 -8.530945 37,000 177 447 0
2021-10-13 17:32:54 GMT 40.396637 -8.530945 37,000 177 447 0
2021-10-13 17:32:50 GMT 40.404922 -8.531372 37,000 177 447 0
2021-10-13 17:32:47 GMT 40.410694 -8.531633 37,000 177 447 0
2021-10-13 17:32:43 GMT 40.420624 -8.532104 37,000 177 446 0
2021-10-13 17:32:40 GMT 40.424751 -8.532320 37,000 177 446 0
2021-10-13 17:32:37 GMT 40.433224 -8.532756 37,000 177 447 0
2021-10-13 17:32:34 GMT 40.438393 -8.533006 37,000 177 447 0
2021-10-13 17:32:31 GMT 40.446026 -8.533381 37,000 177 447 0
2021-10-13 17:32:28 GMT 40.448914 -8.533568 37,000 177 447 0
2021-10-13 17:32:25 GMT 40.458206 -8.533997 37,000 177 447 0
2021-10-13 17:32:22 GMT 40.461960 -8.534180 37,000 177 446 0
2021-10-13 17:32:19 GMT 40.469769 -8.534567 37,000 177 447 0
2021-10-13 17:32:16 GMT 40.474937 -8.534879 37,000 177 447 0
2021-10-13 17:32:13 GMT 40.480522 -8.535129 37,000 177 447 0
2021-10-13 17:32:10 GMT 40.487549 -8.535522 37,000 177 446 0
2021-10-13 17:32:05 GMT 40.497654 -8.536065 37,000 177 446 0
2021-10-13 17:32:02 GMT 40.504898 -8.536438 37,000 177 446 0
2021-10-13 17:31:58 GMT 40.511902 -8.536865 37,000 177 446 0
2021-10-13 17:31:53 GMT 40.522232 -8.537438 37,000 177 446 0
2021-10-13 17:31:49 GMT 40.529819 -8.537875 37,000 177 446 0
2021-10-13 17:31:46 GMT 40.537674 -8.538269 37,000 177 446 0
2021-10-13 17:31:43 GMT 40.543041 -8.538624 37,000 177 446 0
2021-10-13 17:31:40 GMT 40.548210 -8.538874 37,000 177 446 0
2021-10-13 17:31:37 GMT 40.553970 -8.539185 37,000 177 446 0
2021-10-13 17:31:33 GMT 40.563663 -8.539748 37,000 177 446 0
2021-10-13 17:31:30 GMT 40.567978 -8.539978 37,000 177 446 0
2021-10-13 17:31:27 GMT 40.580563 -8.540684 37,000 177 446 0
2021-10-13 17:31:24 GMT 40.580563 -8.540684 37,000 177 446 0
2021-10-13 17:31:21 GMT 40.590454 -8.541260 37,000 177 446 0
2021-10-13 17:31:17 GMT 40.595627 -8.541504 37,000 177 446 0
2021-10-13 17:31:13 GMT 40.606750 -8.542114 37,000 177 446 0
2021-10-13 17:31:10 GMT 40.610870 -8.542297 37,000 177 446 0
2021-10-13 17:31:07 GMT 40.617477 -8.542682 37,000 177 446 0
2021-10-13 17:31:04 GMT 40.623440 -8.542931 37,000 177 446 0
2021-10-13 17:31:01 GMT 40.629181 -8.543274 37,000 177 445 0
2021-10-13 17:30:58 GMT 40.636192 -8.543618 37,000 177 445 0
2021-10-13 17:30:55 GMT 40.642365 -8.543945 37,000 177 445 0
2021-10-13 17:30:52 GMT 40.647739 -8.544242 37,000 177 445 0
2021-10-13 17:30:49 GMT 40.653698 -8.544554 37,000 177 445 0
2021-10-13 17:30:46 GMT 40.658863 -8.544804 37,000 177 445 0
2021-10-13 17:30:43 GMT 40.666035 -8.545179 37,000 177 445 0
2021-10-13 17:30:40 GMT 40.672623 -8.545532 37,000 177 445 0
2021-10-13 17:30:37 GMT 40.678391 -8.545837 37,000 177 445 -64
2021-10-13 17:30:34 GMT 40.684376 -8.546115 37,000 177 445 0
2021-10-13 17:30:30 GMT 40.692215 -8.546509 37,000 177 445 0
2021-10-13 17:30:27 GMT 40.699402 -8.546875 37,000 177 445 0
2021-10-13 17:30:22 GMT 40.709885 -8.547363 37,000 177 445 0
2021-10-13 17:30:18 GMT 40.717102 -8.547738 37,000 177 445 0
2021-10-13 17:30:15 GMT 40.725529 -8.548175 37,000 177 445 0
2021-10-13 17:30:12 GMT 40.731068 -8.548424 37,000 177 445 0
2021-10-13 17:30:09 GMT 40.737259 -8.548706 37,000 177 445 0
2021-10-13 17:30:05 GMT 40.743210 -8.549011 37,000 177 444 0
2021-10-13 17:30:02 GMT 40.752247 -8.549486 37,000 177 444 0
2021-10-13 17:29:59 GMT 40.757370 -8.549735 37,000 177 444 0
2021-10-13 17:29:56 GMT 40.763763 -8.550049 37,000 177 444 0
2021-10-13 17:29:51 GMT 40.772358 -8.550484 37,000 177 444 0
2021-10-13 17:29:48 GMT 40.784695 -8.551171 37,000 177 444 0
2021-10-13 17:29:45 GMT 40.784695 -8.551171 37,000 177 444 0
2021-10-13 17:29:42 GMT 40.792511 -8.551575 37,000 177 444 0
2021-10-13 17:29:36 GMT 40.802994 -8.552124 37,000 177 444 0
2021-10-13 17:29:33 GMT 40.809769 -8.552490 37,000 177 444 0
2021-10-13 17:29:30 GMT 40.815884 -8.552856 37,000 177 444 0
2021-10-13 17:29:27 GMT 40.824509 -8.553284 37,000 177 444 0
2021-10-13 17:29:23 GMT 40.831528 -8.553668 37,000 177 444 0
2021-10-13 17:29:20 GMT 40.837280 -8.553955 37,000 177 444 0
2021-10-13 17:29:16 GMT 40.844833 -8.554382 37,000 177 444 0
2021-10-13 17:29:13 GMT 40.850189 -8.554626 37,000 177 444 0
2021-10-13 17:29:10 GMT 40.858387 -8.555104 37,000 177 444 0
2021-10-13 17:29:07 GMT 40.863743 -8.555416 37,000 177 444 0
2021-10-13 17:29:03 GMT 40.871513 -8.555853 37,000 177 444 -64
2021-10-13 17:29:00 GMT 40.878479 -8.556213 37,000 177 443 0
2021-10-13 17:28:57 GMT 40.883850 -8.556477 37,000 177 443 0
2021-10-13 17:28:54 GMT 40.900845 -8.557476 37,000 177 443 0
2021-10-13 17:28:50 GMT 40.900845 -8.557476 37,000 177 443 0
2021-10-13 17:28:47 GMT 40.910706 -8.557983 37,000 177 443 64
2021-10-13 17:28:44 GMT 40.910706 -8.557983 37,000 177 443 0
2021-10-13 17:28:41 GMT 40.915787 -8.558289 37,000 177 443 0
2021-10-13 17:28:38 GMT 40.924816 -8.558787 37,000 177 443 0
2021-10-13 17:28:35 GMT 40.928513 -8.558960 37,000 177 443 0
2021-10-13 17:28:32 GMT 40.936111 -8.559387 37,000 177 443 0
2021-10-13 17:28:29 GMT 40.941017 -8.559660 37,000 177 443 0
2021-10-13 17:28:26 GMT 40.947765 -8.560035 37,000 177 443 0
2021-10-13 17:28:23 GMT 40.954144 -8.560347 37,000 177 443 0
2021-10-13 17:28:19 GMT 40.962524 -8.560784 37,000 177 443 64
2021-10-13 17:28:16 GMT 40.970112 -8.561159 37,000 177 443 0
2021-10-13 17:28:13 GMT 40.974197 -8.561340 37,000 177 443 0
2021-10-13 17:28:09 GMT 40.988983 -8.562134 37,000 177 443 0
2021-10-13 17:28:06 GMT 40.988983 -8.562134 37,000 177 443 0
2021-10-13 17:28:03 GMT 40.995300 -8.562439 37,000 177 443 0
2021-10-13 17:27:59 GMT 41.005772 -8.562969 37,000 177 443 0
2021-10-13 17:27:55 GMT 41.009869 -8.563219 37,000 177 443 0
2021-10-13 17:27:52 GMT 41.017227 -8.563599 37,000 177 443 0
2021-10-13 17:27:49 GMT 41.032974 -8.564392 37,000 177 443 0
2021-10-13 17:27:46 GMT 41.032974 -8.564392 37,000 177 442 0
2021-10-13 17:27:42 GMT 41.036869 -8.564592 37,000 177 442 0
2021-10-13 17:27:39 GMT 41.044224 -8.564966 37,000 177 442 0
2021-10-13 17:27:36 GMT 41.049728 -8.565308 37,000 177 442 0
2021-10-13 17:27:33 GMT 41.056702 -8.565653 37,000 177 442 0
2021-10-13 17:27:30 GMT 41.061821 -8.565965 37,000 177 442 0
2021-10-13 17:27:27 GMT 41.066895 -8.566215 37,000 177 442 0
2021-10-13 17:27:24 GMT 41.073227 -8.566527 37,000 177 442 0
2021-10-13 17:27:21 GMT 41.081184 -8.566964 37,000 177 442 0
2021-10-13 17:27:18 GMT 41.085514 -8.567214 37,000 177 442 0
2021-10-13 17:27:15 GMT 41.093475 -8.567651 37,000 177 442 0
2021-10-13 17:27:12 GMT 41.099388 -8.567963 37,000 177 442 0
2021-10-13 17:27:09 GMT 41.105484 -8.568298 37,000 177 442 0
2021-10-13 17:27:06 GMT 41.111847 -8.568604 37,000 177 442 0
2021-10-13 17:27:03 GMT 41.117752 -8.568909 37,000 177 441 0
2021-10-13 17:27:00 GMT 41.124069 -8.569275 37,000 177 441 0
2021-10-13 17:26:57 GMT 41.130020 -8.569586 37,000 177 441 0
2021-10-13 17:26:53 GMT 41.137756 -8.570007 37,000 177 441 0
2021-10-13 17:26:50 GMT 41.145473 -8.570397 37,000 177 441 0
2021-10-13 17:26:46 GMT 41.153229 -8.570862 37,000 177 441 0
2021-10-13 17:26:42 GMT 41.160976 -8.571271 37,000 177 441 0
2021-10-13 17:26:38 GMT 41.168098 -8.571646 37,000 177 440 0
2021-10-13 17:26:35 GMT 41.174652 -8.571960 37,000 177 440 0
2021-10-13 17:26:32 GMT 41.186626 -8.572582 37,000 177 440 0
2021-10-13 17:26:29 GMT 41.192322 -8.572876 37,000 177 440 0
2021-10-13 17:26:26 GMT 41.192322 -8.572876 37,000 177 440 0
2021-10-13 17:26:23 GMT 41.198452 -8.573206 37,000 177 440 0
2021-10-13 17:26:20 GMT 41.203526 -8.573456 37,000 177 440 0
2021-10-13 17:26:17 GMT 41.210861 -8.573853 37,000 177 440 0
2021-10-13 17:26:13 GMT 41.218781 -8.574341 37,000 177 439 0
2021-10-13 17:26:10 GMT 41.226894 -8.574767 37,000 177 439 0
2021-10-13 17:26:07 GMT 41.236626 -8.575328 37,000 177 439 0
2021-10-13 17:26:04 GMT 41.236626 -8.575328 37,000 177 439 0
2021-10-13 17:26:01 GMT 41.243748 -8.575765 37,000 177 439 0
2021-10-13 17:25:56 GMT 41.254074 -8.576294 37,000 177 439 0
2021-10-13 17:25:53 GMT 41.261993 -8.576782 37,000 177 438 0
2021-10-13 17:25:50 GMT 41.266045 -8.577014 37,000 177 438 0
2021-10-13 17:25:46 GMT 41.276611 -8.577576 37,000 177 438 0
2021-10-13 17:25:42 GMT 41.290764 -8.578325 37,000 177 438 0
2021-10-13 17:25:39 GMT 41.290764 -8.578325 37,000 177 438 0
2021-10-13 17:25:36 GMT 41.294403 -8.578552 37,000 177 438 0
2021-10-13 17:25:33 GMT 41.299889 -8.578824 37,000 177 438 0
2021-10-13 17:25:30 GMT 41.305939 -8.579102 37,000 177 438 0
2021-10-13 17:25:27 GMT 41.312256 -8.579407 37,000 177 438 0
2021-10-13 17:25:23 GMT 41.319534 -8.579823 37,000 177 438 0
2021-10-13 17:25:20 GMT 41.326401 -8.580139 37,000 177 438 0
2021-10-13 17:25:16 GMT 41.333874 -8.580510 37,000 177 438 0
2021-10-13 17:25:13 GMT 41.342995 -8.581009 37,000 177 437 0
2021-10-13 17:25:10 GMT 41.346813 -8.581196 37,000 177 437 0
2021-10-13 17:25:07 GMT 41.352676 -8.581543 37,000 177 437 0
2021-10-13 17:25:04 GMT 41.360966 -8.582008 37,000 177 437 0
2021-10-13 17:25:00 GMT 41.367668 -8.582320 37,000 177 437 0
2021-10-13 17:24:57 GMT 41.374699 -8.582694 37,000 177 437 0
2021-10-13 17:24:52 GMT 41.382610 -8.583131 37,000 177 437 0
2021-10-13 17:24:49 GMT 41.387833 -8.583443 37,000 177 437 0
2021-10-13 17:24:46 GMT 41.394928 -8.583818 37,000 177 437 0
2021-10-13 17:24:43 GMT 41.402584 -8.584219 37,000 177 437 0
2021-10-13 17:24:40 GMT 41.407837 -8.584505 37,000 177 437 0
2021-10-13 17:24:37 GMT 41.415104 -8.584921 37,000 177 437 0
2021-10-13 17:24:32 GMT 41.423996 -8.585432 37,000 177 437 0
2021-10-13 17:24:29 GMT 41.430237 -8.585752 37,000 177 437 0
2021-10-13 17:24:25 GMT 41.436905 -8.586128 37,000 177 437 0
2021-10-13 17:24:22 GMT 41.445007 -8.586564 37,000 177 437 0
2021-10-13 17:24:19 GMT 41.449646 -8.586837 37,000 177 437 0
2021-10-13 17:24:15 GMT 41.456909 -8.587221 37,000 177 437 0
2021-10-13 17:24:10 GMT 41.467197 -8.587796 37,000 177 437 0
2021-10-13 17:24:06 GMT 41.477299 -8.588307 37,000 177 437 0
2021-10-13 17:24:02 GMT 41.485538 -8.588754 37,000 177 437 0
2021-10-13 17:23:58 GMT 41.491405 -8.589137 37,000 177 437 0
2021-10-13 17:23:55 GMT 41.497269 -8.589456 37,000 177 437 0
2021-10-13 17:23:52 GMT 41.505325 -8.589903 37,000 177 437 0
2021-10-13 17:23:49 GMT 41.513611 -8.590350 37,000 177 436 0
2021-10-13 17:23:37 GMT 41.546104 -8.592139 37,000 177 436 0
2021-10-13 17:23:32 GMT 41.546104 -8.592139 37,000 177 436 0
2021-10-13 17:23:29 GMT 41.549732 -8.592331 37,000 177 436 0
2021-10-13 17:23:25 GMT 41.558395 -8.592807 37,000 177 436 64
2021-10-13 17:23:22 GMT 41.564445 -8.593161 37,000 177 437 0
2021-10-13 17:23:19 GMT 41.570728 -8.593480 37,000 177 437 0
2021-10-13 17:23:16 GMT 41.576340 -8.593743 37,000 177 437 0
2021-10-13 17:23:13 GMT 41.584835 -8.594183 37,000 177 437 0
2021-10-13 17:23:10 GMT 41.589069 -8.594375 37,000 177 437 0
2021-10-13 17:23:07 GMT 41.596939 -8.594822 37,000 177 437 0
2021-10-13 17:23:04 GMT 41.610489 -8.595491 37,000 177 437 0
2021-10-13 17:23:00 GMT 41.610489 -8.595491 37,000 177 437 0
2021-10-13 17:22:56 GMT 41.616165 -8.595780 37,000 177 437 0
2021-10-13 17:22:53 GMT 41.622208 -8.596115 37,000 177 437 0
2021-10-13 17:22:49 GMT 41.638790 -8.596993 37,000 177 437 0
2021-10-13 17:22:45 GMT 41.638790 -8.596993 37,000 177 437 0
2021-10-13 17:22:42 GMT 41.646702 -8.597440 37,000 177 437 0
2021-10-13 17:22:39 GMT 41.651360 -8.597696 37,000 177 438 0
2021-10-13 17:22:36 GMT 41.660435 -8.598207 37,000 177 438 0
2021-10-13 17:22:33 GMT 41.664673 -8.598399 37,000 177 438 0
2021-10-13 17:22:30 GMT 41.670776 -8.598737 37,000 177 438 0
2021-10-13 17:22:27 GMT 41.677048 -8.599049 37,000 177 438 0
2021-10-13 17:22:24 GMT 41.682907 -8.599361 37,000 177 438 0
2021-10-13 17:22:21 GMT 41.695675 -8.600059 37,000 177 438 0
2021-10-13 17:22:17 GMT 41.695675 -8.600059 37,000 177 438 0
2021-10-13 17:22:13 GMT 41.707031 -8.600672 37,000 177 439 0
2021-10-13 17:22:10 GMT 41.710464 -8.600859 37,000 177 439 0
2021-10-13 17:22:07 GMT 41.723465 -8.601546 37,000 177 439 0
2021-10-13 17:22:03 GMT 41.723465 -8.601546 37,000 177 439 0
2021-10-13 17:22:00 GMT 41.730560 -8.601920 37,000 177 439 0
2021-10-13 17:21:57 GMT 41.744751 -8.602732 37,000 177 439 0
2021-10-13 17:21:53 GMT 41.744751 -8.602732 37,000 177 439 0
2021-10-13 17:21:50 GMT 41.751259 -8.603061 37,000 177 440 0
2021-10-13 17:21:46 GMT 41.760590 -8.603543 37,000 177 440 0
2021-10-13 17:21:43 GMT 41.765671 -8.603855 37,000 177 440 0
2021-10-13 17:21:40 GMT 41.772205 -8.604211 37,000 177 440 0
2021-10-13 17:21:36 GMT 41.779083 -8.604542 37,000 177 440 0
2021-10-13 17:21:33 GMT 41.786453 -8.604978 37,000 177 440 0
2021-10-13 17:21:30 GMT 41.798859 -8.605666 37,000 177 440 0
2021-10-13 17:21:27 GMT 41.798859 -8.605666 37,000 177 440 0
2021-10-13 17:21:24 GMT 41.804142 -8.605936 37,000 177 441 0
2021-10-13 17:21:19 GMT 41.813919 -8.606447 37,000 177 440 0
2021-10-13 17:21:16 GMT 41.819824 -8.606789 37,000 177 440 0
2021-10-13 17:21:12 GMT 41.827972 -8.607226 37,000 177 441 0
2021-10-13 17:21:08 GMT 41.836914 -8.607724 37,000 177 441 0
2021-10-13 17:21:04 GMT 41.843857 -8.608100 37,000 177 441 0
2021-10-13 17:21:01 GMT 41.858734 -8.608849 37,000 177 441 0
2021-10-13 17:20:57 GMT 41.858734 -8.608849 37,000 177 441 0
2021-10-13 17:20:52 GMT 41.870152 -8.609449 37,000 177 441 0
2021-10-13 17:20:48 GMT 41.878693 -8.609910 37,000 177 441 0
2021-10-13 17:20:42 GMT 41.890961 -8.610535 37,000 177 441 0
2021-10-13 17:20:38 GMT 41.897278 -8.610847 37,000 177 441 0
2021-10-13 17:20:35 GMT 41.902359 -8.611096 37,000 177 441 0
2021-10-13 17:20:31 GMT 41.911537 -8.611557 37,000 177 441 0
2021-10-13 17:20:27 GMT 41.920120 -8.612033 37,000 177 441 0
2021-10-13 17:20:23 GMT 41.928497 -8.612407 37,000 177 441 0
2021-10-13 17:20:20 GMT 41.932533 -8.612643 37,000 177 441 0
2021-10-13 17:20:16 GMT 41.942123 -8.613154 37,000 177 441 0
2021-10-13 17:20:11 GMT 41.953354 -8.613718 37,000 177 441 0
2021-10-13 17:20:08 GMT 41.959900 -8.614093 37,000 177 441 0
2021-10-13 17:20:05 GMT 41.964981 -8.614342 37,000 177 441 0
2021-10-13 17:20:01 GMT 41.973953 -8.614842 37,000 177 441 0
2021-10-13 17:19:58 GMT 41.978851 -8.615091 37,000 177 441 0
2021-10-13 17:19:55 GMT 41.984951 -8.615453 37,000 177 441 0
2021-10-13 17:19:52 GMT 41.993332 -8.615900 37,000 177 442 -64
2021-10-13 17:19:49 GMT 42.000046 -8.616278 37,000 176 442 0
2021-10-13 17:19:45 GMT 42.005947 -8.616730 37,000 175 442 0
2021-10-13 17:19:41 GMT 42.014694 -8.617651 37,000 174 440 0
2021-10-13 17:19:38 GMT 42.020554 -8.618400 37,000 174 440 0
2021-10-13 17:19:34 GMT 42.026871 -8.619149 37,000 174 440 0
2021-10-13 17:19:30 GMT 42.037582 -8.620397 37,000 174 440 0
2021-10-13 17:19:26 GMT 42.044724 -8.621271 37,000 174 440 0
2021-10-13 17:19:22 GMT 42.052593 -8.622224 37,000 174 440 0
2021-10-13 17:19:19 GMT 42.058685 -8.622957 37,000 174 440 0
2021-10-13 17:19:15 GMT 42.067795 -8.624018 37,000 174 440 0
2021-10-13 17:19:11 GMT 42.076332 -8.625098 37,000 174 440 0
2021-10-13 17:19:07 GMT 42.082809 -8.625891 37,000 174 440 0
2021-10-13 17:19:04 GMT 42.088482 -8.626567 37,000 174 440 0
2021-10-13 17:18:59 GMT 42.098633 -8.627781 37,000 174 440 0
2021-10-13 17:18:54 GMT 42.108967 -8.629058 37,000 174 440 0
2021-10-13 17:18:51 GMT 42.119293 -8.630323 37,000 174 439 0
2021-10-13 17:18:48 GMT 42.119293 -8.630323 37,000 174 440 0
2021-10-13 17:18:43 GMT 42.131058 -8.631758 37,000 174 439 0
2021-10-13 17:18:39 GMT 42.139969 -8.632891 37,000 174 439 0
2021-10-13 17:18:36 GMT 42.147263 -8.633756 37,000 174 439 0
2021-10-13 17:18:33 GMT 42.151329 -8.634232 37,000 174 439 0
2021-10-13 17:18:29 GMT 42.160873 -8.635446 37,000 174 439 0
2021-10-13 17:18:24 GMT 42.172394 -8.636814 37,000 174 439 0
2021-10-13 17:18:19 GMT 42.181549 -8.637938 37,000 174 439 0
2021-10-13 17:18:13 GMT 42.192673 -8.639311 37,000 174 439 0
2021-10-13 17:18:09 GMT 42.200768 -8.640300 37,000 174 439 0
2021-10-13 17:18:05 GMT 42.208878 -8.641309 37,000 174 439 0
2021-10-13 17:18:02 GMT 42.213757 -8.641897 37,000 174 439 0
2021-10-13 17:17:58 GMT 42.222462 -8.642983 37,000 174 440 0
2021-10-13 17:17:52 GMT 42.235016 -8.644492 37,000 174 439 0
2021-10-13 17:17:48 GMT 42.244125 -8.645616 37,000 174 439 0
2021-10-13 17:17:45 GMT 42.251465 -8.646496 37,000 174 439 0
2021-10-13 17:17:42 GMT 42.254471 -8.646864 37,000 174 439 0
2021-10-13 17:17:38 GMT 42.264404 -8.648093 37,000 174 439 0
2021-10-13 17:17:33 GMT 42.274521 -8.649361 37,000 174 439 0
2021-10-13 17:17:26 GMT 42.285259 -8.650711 37,000 174 439 0
2021-10-13 17:17:22 GMT 42.295826 -8.651989 37,000 174 439 0
2021-10-13 17:17:16 GMT 42.306534 -8.653330 37,000 174 439 0
2021-10-13 17:17:12 GMT 42.316261 -8.654544 37,000 174 439 0
2021-10-13 17:17:07 GMT 42.326180 -8.655757 37,000 174 439 0
2021-10-13 17:17:02 GMT 42.336700 -8.657099 37,000 174 439 0
2021-10-13 17:16:57 GMT 42.346989 -8.658376 37,000 174 439 0
2021-10-13 17:16:52 GMT 42.358521 -8.659786 37,000 174 438 0
2021-10-13 17:16:47 GMT 42.367813 -8.660909 37,000 174 438 0
2021-10-13 17:16:41 GMT 42.377945 -8.662145 37,000 174 438 0
2021-10-13 17:16:35 GMT 42.389256 -8.663550 37,000 174 438 0
2021-10-13 17:16:31 GMT 42.398941 -8.664764 37,000 174 438 0
2021-10-13 17:16:26 GMT 42.408436 -8.665913 37,000 174 438 0
2021-10-13 17:16:21 GMT 42.419750 -8.667255 37,000 174 438 0
2021-10-13 17:16:16 GMT 42.429657 -8.668463 37,000 174 438 0
2021-10-13 17:16:10 GMT 42.440140 -8.669746 37,000 174 437 0
2021-10-13 17:16:06 GMT 42.450439 -8.671022 37,000 174 437 0
2021-10-13 17:16:01 GMT 42.461739 -8.672365 37,000 174 437 0
2021-10-13 17:15:54 GMT 42.471176 -8.673519 37,000 174 437 0
2021-10-13 17:15:50 GMT 42.481243 -8.674728 37,000 174 437 0
2021-10-13 17:15:44 GMT 42.491135 -8.675953 37,000 174 436 0
2021-10-13 17:15:40 GMT 42.502007 -8.677283 37,000 174 436 0
2021-10-13 17:15:35 GMT 42.513062 -8.678637 37,000 174 436 0
2021-10-13 17:15:29 GMT 42.522675 -8.679838 37,000 174 436 0
2021-10-13 17:15:25 GMT 42.532310 -8.681052 37,000 174 435 0
2021-10-13 17:15:20 GMT 42.542553 -8.682265 37,000 174 435 0
2021-10-13 17:15:15 GMT 42.552982 -8.683607 37,000 174 435 0
2021-10-13 17:15:10 GMT 42.563416 -8.684880 37,000 174 435 0
2021-10-13 17:15:04 GMT 42.573257 -8.686128 37,000 174 434 0
2021-10-13 17:14:59 GMT 42.584061 -8.687439 37,000 174 434 0
2021-10-13 17:14:54 GMT 42.594864 -8.688812 37,000 174 434 0
2021-10-13 17:14:49 GMT 42.604294 -8.689998 37,000 174 434 0
2021-10-13 17:14:44 GMT 42.615097 -8.691309 37,000 174 434 0
2021-10-13 17:14:39 GMT 42.624481 -8.692495 37,000 174 434 0
2021-10-13 17:14:34 GMT 42.634872 -8.693806 37,000 174 433 0
2021-10-13 17:14:29 GMT 42.645859 -8.695242 37,000 174 433 0
2021-10-13 17:14:24 GMT 42.655258 -8.696381 37,000 174 433 0
2021-10-13 17:14:18 GMT 42.665451 -8.697723 37,000 174 433 0
2021-10-13 17:14:11 GMT 42.678040 -8.699299 37,000 174 433 0
2021-10-13 17:14:08 GMT 42.686417 -8.700360 37,000 174 433 0
2021-10-13 17:14:03 GMT 42.696781 -8.701683 37,000 174 433 0
2021-10-13 17:13:58 GMT 42.708572 -8.703169 37,000 174 433 0
2021-10-13 17:13:52 GMT 42.717545 -8.704293 37,000 174 433 0
2021-10-13 17:13:49 GMT 42.729126 -8.705729 37,000 174 433 0
2021-10-13 17:13:46 GMT 42.729126 -8.705729 37,000 174 433 0
2021-10-13 17:13:43 GMT 42.736305 -8.706665 37,000 174 433 0
2021-10-13 17:13:39 GMT 42.744682 -8.707687 37,000 174 433 0
2021-10-13 17:13:35 GMT 42.750641 -8.708390 37,000 174 433 0
2021-10-13 17:13:30 GMT 42.759247 -8.709474 37,000 174 433 0
2021-10-13 17:13:26 GMT 42.770195 -8.710817 37,000 174 433 0
2021-10-13 17:13:22 GMT 42.777969 -8.711775 37,000 174 433 0
2021-10-13 17:13:19 GMT 42.790970 -8.713344 37,000 174 433 0
2021-10-13 17:13:16 GMT 42.790970 -8.713344 37,000 174 433 0
2021-10-13 17:13:11 GMT 42.800125 -8.714458 37,000 174 433 0
2021-10-13 17:13:08 GMT 42.804317 -8.714969 37,000 174 433 0
2021-10-13 17:13:05 GMT 42.811111 -8.715863 37,000 174 433 0
2021-10-13 17:13:01 GMT 42.818893 -8.716821 37,000 174 433 0
2021-10-13 17:12:58 GMT 42.826660 -8.717782 37,000 174 433 0
2021-10-13 17:12:55 GMT 42.831039 -8.718305 37,000 174 433 0
2021-10-13 17:12:51 GMT 42.838860 -8.719286 37,000 174 433 0
2021-10-13 17:12:48 GMT 42.844631 -8.720006 37,000 174 432 0
2021-10-13 17:12:45 GMT 42.851395 -8.720845 37,000 174 432 0
2021-10-13 17:12:40 GMT 42.859573 -8.721902 37,000 174 432 0
2021-10-13 17:12:37 GMT 42.867554 -8.722889 37,000 174 432 0
2021-10-13 17:12:34 GMT 42.873539 -8.723668 37,000 174 432 0
2021-10-13 17:12:31 GMT 42.880104 -8.724452 37,000 174 432 0
2021-10-13 17:12:28 GMT 42.885086 -8.725125 37,000 174 433 0
2021-10-13 17:12:25 GMT 42.894653 -8.726338 37,000 174 433 0
2021-10-13 17:12:21 GMT 42.899841 -8.727003 37,000 174 433 0
2021-10-13 17:12:16 GMT 42.907837 -8.727999 37,000 174 433 0
2021-10-13 17:12:13 GMT 42.915436 -8.728957 37,000 174 433 0
2021-10-13 17:12:10 GMT 42.921394 -8.729749 37,000 174 433 0
2021-10-13 17:12:07 GMT 42.928619 -8.730618 37,000 174 433 0
2021-10-13 17:12:02 GMT 42.936401 -8.731640 37,000 174 433 0
2021-10-13 17:11:59 GMT 42.942169 -8.732406 37,000 174 433 0
2021-10-13 17:11:56 GMT 42.948956 -8.733281 37,000 174 433 0
2021-10-13 17:11:50 GMT 42.961945 -8.734961 37,000 174 433 0
2021-10-13 17:11:46 GMT 42.969158 -8.735897 37,000 174 433 0
2021-10-13 17:11:40 GMT 42.980942 -8.737388 37,000 174 434 0
2021-10-13 17:11:35 GMT 42.990944 -8.738643 37,000 174 434 0
2021-10-13 17:11:32 GMT 42.996918 -8.739432 37,000 174 434 0
2021-10-13 17:11:29 GMT 43.003513 -8.740278 37,000 174 434 0
2021-10-13 17:11:26 GMT 43.010918 -8.741193 37,000 174 434 0
2021-10-13 17:11:20 GMT 43.022095 -8.742626 37,000 174 434 0
2021-10-13 17:11:15 GMT 43.031120 -8.743744 37,000 174 434 0
2021-10-13 17:11:12 GMT 43.040104 -8.744921 37,000 174 434 0
2021-10-13 17:11:08 GMT 43.043503 -8.745313 37,000 174 434 0
2021-10-13 17:11:05 GMT 43.051697 -8.746360 37,000 174 434 0
2021-10-13 17:10:59 GMT 43.063705 -8.747864 37,000 174 434 0
2021-10-13 17:10:54 GMT 43.072739 -8.748975 37,000 174 434 0
2021-10-13 17:10:48 GMT 43.084946 -8.750483 37,000 174 434 0
2021-10-13 17:10:45 GMT 43.092361 -8.751377 37,000 174 434 0
2021-10-13 17:10:36 GMT 43.108582 -8.753422 37,000 174 434 0
2021-10-13 17:10:33 GMT 43.114197 -8.754123 37,000 174 434 0
2021-10-13 17:10:28 GMT 43.126190 -8.755656 37,000 174 434 0
2021-10-13 17:10:24 GMT 43.133396 -8.756561 37,000 174 434 0
2021-10-13 17:10:18 GMT 43.146423 -8.758275 37,000 174 434 0
2021-10-13 17:10:15 GMT 43.150433 -8.758785 37,000 174 434 0
2021-10-13 17:10:12 GMT 43.156448 -8.759553 37,000 174 434 0
2021-10-13 17:10:08 GMT 43.166245 -8.760766 37,000 174 434 0
2021-10-13 17:10:04 GMT 43.173847 -8.761727 37,000 174 434 0
2021-10-13 17:09:57 GMT 43.188492 -8.763577 37,000 174 434 0
2021-10-13 17:09:52 GMT 43.196503 -8.764599 37,000 174 434 0
2021-10-13 17:09:46 GMT 43.209507 -8.766174 37,000 174 434 0
2021-10-13 17:09:43 GMT 43.215500 -8.766962 37,000 174 434 0
2021-10-13 17:09:36 GMT 43.230331 -8.768751 37,000 174 434 0
2021-10-13 17:09:32 GMT 43.236366 -8.769509 37,000 174 434 0
2021-10-13 17:09:26 GMT 43.256378 -8.772008 37,000 174 434 0
2021-10-13 17:09:22 GMT 43.256378 -8.772008 37,000 174 434 0
2021-10-13 17:09:16 GMT 43.271004 -8.773826 37,000 174 434 0
2021-10-13 17:09:12 GMT 43.277195 -8.774610 37,000 174 434 0
2021-10-13 17:09:05 GMT 43.291809 -8.776479 37,000 174 434 0
2021-10-13 17:09:01 GMT 43.298611 -8.777291 37,000 174 434 0
2021-10-13 17:08:55 GMT 43.311829 -8.778992 37,000 174 434 0
2021-10-13 17:08:52 GMT 43.317650 -8.779711 37,000 174 434 0
2021-10-13 17:08:45 GMT 43.338867 -8.782420 37,000 174 434 0
2021-10-13 17:08:41 GMT 43.338867 -8.782420 37,000 174 434 0
2021-10-13 17:08:35 GMT 43.353882 -8.784336 37,000 174 434 0
2021-10-13 17:08:32 GMT 43.359695 -8.785038 37,000 174 434 0
2021-10-13 17:08:25 GMT 43.370903 -8.786512 37,000 174 434 0
2021-10-13 17:08:23 GMT 43.375095 -8.787035 37,000 174 434 0
2021-10-13 17:08:20 GMT 43.381119 -8.787785 37,000 174 434 0
2021-10-13 17:08:17 GMT 43.387104 -8.788539 37,000 174 434 0
2021-10-13 17:08:14 GMT 43.393936 -8.789446 37,000 174 434 0
2021-10-13 17:08:10 GMT 43.400745 -8.790305 37,000 174 434 0
2021-10-13 17:08:05 GMT 43.411777 -8.791744 37,000 174 434 0
2021-10-13 17:08:00 GMT 43.420761 -8.792855 37,000 174 434 0
2021-10-13 17:07:54 GMT 43.434170 -8.794621 37,000 174 434 0
2021-10-13 17:07:51 GMT 43.442184 -8.795642 37,000 174 434 0
2021-10-13 17:07:43 GMT 43.455212 -8.797302 37,000 174 434 0
2021-10-13 17:07:40 GMT 43.461823 -8.798152 37,000 174 434 0
2021-10-13 17:07:34 GMT 43.474411 -8.799793 37,000 174 435 0
2021-10-13 17:07:29 GMT 43.482239 -8.800815 37,000 174 435 0
2021-10-13 17:07:23 GMT 43.495468 -8.802540 37,000 174 435 0
2021-10-13 17:07:19 GMT 43.502884 -8.803498 37,000 174 435 0
2021-10-13 17:07:13 GMT 43.514511 -8.804967 37,000 174 434 0
2021-10-13 17:07:10 GMT 43.524109 -8.806261 37,000 174 434 0
2021-10-13 17:07:07 GMT 43.528107 -8.806756 37,000 174 434 0
2021-10-13 17:07:02 GMT 43.537949 -8.808033 37,000 174 434 0
2021-10-13 17:06:59 GMT 43.544357 -8.808877 37,000 174 434 0
2021-10-13 17:06:53 GMT 43.556740 -8.810447 37,000 174 434 0
2021-10-13 17:06:48 GMT 43.565140 -8.811546 37,000 174 434 0
2021-10-13 17:06:44 GMT 43.573334 -8.812632 37,000 174 434 0
2021-10-13 17:06:40 GMT 43.581573 -8.813654 37,000 174 434 0
2021-10-13 17:06:36 GMT 43.589951 -8.814740 37,000 174 434 0
2021-10-13 17:06:32 GMT 43.597569 -8.815678 37,000 174 434 0
2021-10-13 17:06:27 GMT 43.608170 -8.817039 37,000 174 434 0
2021-10-13 17:06:21 GMT 43.621582 -8.818764 37,000 174 434 0
2021-10-13 17:06:17 GMT 43.627762 -8.819530 37,000 174 434 0
2021-10-13 17:06:10 GMT 43.642365 -8.821383 37,000 174 434 0
2021-10-13 17:06:06 GMT 43.648956 -8.822213 37,000 174 434 0
2021-10-13 17:06:00 GMT 43.662369 -8.823918 37,000 174 434 0
2021-10-13 17:05:56 GMT 43.669968 -8.824896 37,000 174 434 0
2021-10-13 17:05:50 GMT 43.681175 -8.826338 37,000 174 434 0
2021-10-13 17:05:46 GMT 43.688950 -8.827318 37,000 174 434 0
2021-10-13 17:05:38 GMT 43.707150 -8.829673 37,000 174 433 0
2021-10-13 17:05:35 GMT 43.711533 -8.830261 37,000 174 433 0
2021-10-13 17:05:31 GMT 43.719536 -8.831308 37,000 174 433 0
2021-10-13 17:05:27 GMT 43.727913 -8.832419 37,000 174 433 0
2021-10-13 17:05:17 GMT 43.747513 -8.834904 37,000 174 433 0
2021-10-13 17:05:11 GMT 43.758869 -8.836408 37,000 174 433 0
2021-10-13 17:05:06 GMT 43.769066 -8.837716 37,000 174 433 0
2021-10-13 17:05:00 GMT 43.780838 -8.839204 37,000 174 433 0
2021-10-13 17:04:57 GMT 43.788849 -8.840201 37,000 174 433 0
2021-10-13 17:04:49 GMT 43.802216 -8.841886 37,000 174 433 0
2021-10-13 17:04:46 GMT 43.809219 -8.842781 37,000 174 433 0
2021-10-13 17:04:41 GMT 43.819809 -8.844190 37,000 174 433 0
2021-10-13 17:04:37 GMT 43.827999 -8.845237 37,000 174 433 0
2021-10-13 17:04:35 GMT 43.830795 -8.845564 37,000 174 433 0
2021-10-13 17:04:26 GMT 43.850159 -8.848049 37,000 174 433 0
2021-10-13 17:04:18 GMT 43.866920 -8.850207 37,000 174 433 0
2021-10-13 17:04:15 GMT 43.870926 -8.850765 37,000 174 433 0
2021-10-13 17:04:05 GMT 43.890892 -8.853346 37,000 174 433 0
2021-10-13 17:03:59 GMT 43.903519 -8.854917 37,000 174 433 0
2021-10-13 17:03:55 GMT 43.911667 -8.856002 37,000 174 433 0
2021-10-13 17:03:45 GMT 43.931671 -8.858512 37,000 174 433 0
2021-10-13 17:03:34 GMT 43.953224 -8.861324 37,000 174 433 0
2021-10-13 17:03:24 GMT 43.973011 -8.863874 37,000 174 433 0
2021-10-13 17:03:14 GMT 43.993214 -8.866555 37,000 174 433 0
2021-10-13 17:03:02 GMT 44.017002 -8.869629 37,000 174 434 0
2021-10-13 17:02:53 GMT 44.034554 -8.871918 37,000 174 434 0
2021-10-13 17:02:43 GMT 44.056366 -8.874781 37,000 174 435 0
2021-10-13 17:02:32 GMT 44.076965 -8.877528 37,000 174 435 0
2021-10-13 17:02:22 GMT 44.096931 -8.880288 37,000 174 434 0
2021-10-13 17:00:08 GMT 44.367096 -8.915732 37,000 174 434 0
2021-10-13 16:59:58 GMT 44.385681 -8.918217 37,000 174 434 0
2021-10-13 16:59:47 GMT 44.407104 -8.921029 37,000 174 434 0
2021-10-13 16:59:37 GMT 44.427475 -8.923645 37,000 174 434 0
2021-10-13 16:59:27 GMT 44.447067 -8.926261 37,000 174 434 0
2021-10-13 16:59:17 GMT 44.466843 -8.928877 37,025 174 433 64
2021-10-13 16:59:07 GMT 44.487411 -8.931617 36,900 174 433 832
2021-10-13 16:58:57 GMT 44.507767 -8.934304 36,775 174 433 832
2021-10-13 16:58:46 GMT 44.530148 -8.937244 36,600 174 434 896
2021-10-13 16:58:38 GMT 44.546162 -8.939321 36,475 174 435 960
2021-10-13 16:58:28 GMT 44.566414 -8.942000 36,325 174 435 896
2021-10-13 16:58:16 GMT 44.590530 -8.945160 36,125 174 436 1088
2021-10-13 16:57:49 GMT 44.644852 -8.952384 36,000 174 433 0
2021-10-13 16:57:47 GMT 44.649044 -8.952920 36,000 174 433 0
2021-10-13 16:57:37 GMT 44.667011 -8.955331 36,000 174 434 0
2021-10-13 16:57:22 GMT 44.696594 -8.959351 36,000 174 433 64
2021-10-13 16:57:12 GMT 44.716961 -8.962030 36,000 174 433 0
2021-10-13 16:57:05 GMT 44.730743 -8.963928 36,000 174 433 0
2021-10-13 16:56:56 GMT 44.748524 -8.966318 36,000 174 434 0
2021-10-13 16:56:47 GMT 44.767319 -8.968833 36,000 174 433 0
2021-10-13 16:56:36 GMT 44.788696 -8.971645 36,000 174 433 0
2021-10-13 16:56:26 GMT 44.808670 -8.974356 36,000 174 433 0
2021-10-13 16:56:16 GMT 44.830261 -8.977203 36,000 174 433 0
2021-10-13 16:56:06 GMT 44.849823 -8.979782 36,000 174 433 0
We lost coverage of the aircraft here for a total of 29 minutes
2021-10-13 16:27:34 GMT 48.261383 -8.999845 36,000 180 431 0
2021-10-13 16:24:02 GMT 48.682468 -8.974890 36,000 192 432 0
2021-10-13 16:23:56 GMT 48.694427 -8.971323 36,000 192 432 0
2021-10-13 16:23:47 GMT 48.712029 -8.966072 36,000 192 432 0
2021-10-13 16:23:16 GMT 48.773197 -8.947931 36,000 192 431 0
2021-10-13 16:23:07 GMT 48.789047 -8.943223 36,000 192 431 0
2021-10-13 16:22:56 GMT 48.811932 -8.936438 36,000 192 431 0
2021-10-13 16:22:47 GMT 48.828918 -8.931392 36,000 192 431 0
2021-10-13 16:22:24 GMT 48.873425 -8.918080 36,000 192 430 0
2021-10-13 16:22:13 GMT 48.894882 -8.911673 36,000 192 430 0
2021-10-13 16:22:03 GMT 48.913181 -8.906226 36,000 192 430 0
2021-10-13 16:21:55 GMT 48.946465 -8.896251 36,000 192 429 0
2021-10-13 16:21:46 GMT 48.946465 -8.896251 36,000 192 430 0
2021-10-13 16:21:33 GMT 48.971603 -8.888714 36,000 192 429 0
2021-10-13 16:21:26 GMT 48.987122 -8.883996 36,000 192 429 0
2021-10-13 16:21:16 GMT 49.006004 -8.878254 36,000 192 429 0
2021-10-13 16:21:07 GMT 49.023880 -8.872798 36,000 192 429 0
2021-10-13 16:20:56 GMT 49.044250 -8.866530 36,000 192 429 0
2021-10-13 16:20:46 GMT 49.063313 -8.860690 36,000 192 429 0
2021-10-13 16:20:36 GMT 49.082703 -8.854699 36,000 192 429 0
2021-10-13 16:20:25 GMT 49.105442 -8.847897 36,000 192 429 0
2021-10-13 16:20:17 GMT 49.120991 -8.843199 36,000 192 429 0
2021-10-13 16:20:07 GMT 49.140015 -8.837445 36,000 192 428 0
2021-10-13 16:19:56 GMT 49.160980 -8.831056 36,000 192 428 0
2021-10-13 16:19:47 GMT 49.179199 -8.825543 36,000 192 428 0
2021-10-13 16:19:44 GMT 49.186386 -8.823360 36,000 192 428 0
2021-10-13 16:19:39 GMT 49.195129 -8.820683 36,000 192 428 0
2021-10-13 16:19:36 GMT 49.200714 -8.818993 36,000 192 428 0
2021-10-13 16:19:33 GMT 49.205566 -8.817514 36,000 192 428 0
2021-10-13 16:19:27 GMT 49.218563 -8.813565 36,000 192 428 0
2021-10-13 16:19:23 GMT 49.225361 -8.811469 36,000 192 428 0
2021-10-13 16:19:16 GMT 49.239120 -8.807303 36,000 192 428 0
2021-10-13 16:19:13 GMT 49.245117 -8.805472 36,000 192 428 0
2021-10-13 16:19:09 GMT 49.254227 -8.802655 36,000 192 428 0
2021-10-13 16:19:06 GMT 49.258087 -8.801494 36,000 192 428 0
2021-10-13 16:19:03 GMT 49.264709 -8.799485 36,000 192 428 0
2021-10-13 16:18:56 GMT 49.278057 -8.795423 36,000 192 428 0
2021-10-13 16:18:52 GMT 49.285446 -8.793147 36,000 192 428 0
2021-10-13 16:18:47 GMT 49.296295 -8.789837 36,000 192 428 0
2021-10-13 16:18:42 GMT 49.305405 -8.787020 36,000 192 428 0
2021-10-13 16:18:36 GMT 49.316463 -8.783642 36,000 192 428 0
2021-10-13 16:18:31 GMT 49.326736 -8.780471 36,000 192 428 0
2021-10-13 16:18:26 GMT 49.344177 -8.775118 36,000 192 428 0
2021-10-13 16:18:23 GMT 49.344177 -8.775118 36,000 192 428 0
2021-10-13 16:18:17 GMT 49.352509 -8.772583 36,000 192 428 0
2021-10-13 16:18:14 GMT 49.360062 -8.770189 36,000 192 428 0
2021-10-13 16:18:11 GMT 49.364136 -8.768991 36,000 192 428 0
2021-10-13 16:18:06 GMT 49.375351 -8.765470 36,000 192 428 0
2021-10-13 16:18:01 GMT 49.383316 -8.763005 36,000 192 428 0
2021-10-13 16:17:56 GMT 49.393204 -8.759977 36,000 192 428 0
2021-10-13 16:17:52 GMT 49.401512 -8.757405 36,000 192 428 0
2021-10-13 16:17:45 GMT 49.414902 -8.753287 36,000 192 428 0
2021-10-13 16:17:41 GMT 49.423069 -8.750827 36,000 192 428 0
2021-10-13 16:17:36 GMT 49.433716 -8.747575 36,000 192 428 0
2021-10-13 16:17:31 GMT 49.442665 -8.744820 36,000 192 428 0
2021-10-13 16:17:25 GMT 49.454071 -8.741331 36,000 192 428 0
2021-10-13 16:17:22 GMT 49.460682 -8.739327 36,000 192 428 0
2021-10-13 16:17:15 GMT 49.472553 -8.735690 36,000 192 429 0
2021-10-13 16:17:09 GMT 49.485168 -8.731818 36,000 192 429 0
2021-10-13 16:17:06 GMT 49.490986 -8.730048 36,000 192 429 0
2021-10-13 16:17:02 GMT 49.501282 -8.726903 36,000 192 429 0
2021-10-13 16:16:57 GMT 49.509842 -8.724258 36,000 192 429 0
2021-10-13 16:16:54 GMT 49.513519 -8.723145 36,000 192 429 0
2021-10-13 16:16:51 GMT 49.520142 -8.721121 36,000 192 429 0
2021-10-13 16:16:48 GMT 49.525204 -8.719581 36,000 192 429 0
2021-10-13 16:16:45 GMT 49.531395 -8.717651 36,000 192 429 0
2021-10-13 16:16:41 GMT 49.539959 -8.715053 36,000 192 429 0
2021-10-13 16:16:38 GMT 49.544815 -8.713531 36,000 192 429 0
2021-10-13 16:16:35 GMT 49.551224 -8.711580 36,000 192 429 0
2021-10-13 16:16:31 GMT 49.559978 -8.708892 36,000 192 429 0
2021-10-13 16:16:28 GMT 49.564075 -8.707630 36,000 192 429 0
2021-10-13 16:16:25 GMT 49.570869 -8.705477 36,000 192 429 0
2021-10-13 16:16:21 GMT 49.578831 -8.703028 36,000 192 429 0
2021-10-13 16:16:15 GMT 49.590515 -8.699390 36,000 192 429 0
2021-10-13 16:16:10 GMT 49.599270 -8.696644 36,000 192 429 0
2021-10-13 16:16:05 GMT 49.609791 -8.693378 36,000 192 429 0
2021-10-13 16:16:00 GMT 49.618542 -8.690631 36,000 192 429 0
2021-10-13 16:15:56 GMT 49.627480 -8.687884 36,000 192 430 0
2021-10-13 16:15:54 GMT 49.631149 -8.686716 36,000 192 430 0
2021-10-13 16:15:50 GMT 49.638557 -8.684395 36,000 192 430 0
2021-10-13 16:15:47 GMT 49.644611 -8.682540 36,000 192 430 0
2021-10-13 16:15:44 GMT 49.649452 -8.681055 36,000 192 430 0
2021-10-13 16:15:41 GMT 49.657829 -8.678457 36,000 192 430 0
2021-10-13 16:15:37 GMT 49.664062 -8.676525 36,000 192 430 0
2021-10-13 16:15:34 GMT 49.669327 -8.674935 36,000 192 430 0
2021-10-13 16:15:28 GMT 49.682373 -8.670887 36,000 192 430 0
2021-10-13 16:15:25 GMT 49.688232 -8.669080 36,000 192 430 0
2021-10-13 16:15:20 GMT 49.697166 -8.666283 36,000 192 430 0
2021-10-13 16:15:17 GMT 49.701874 -8.664888 36,000 192 430 0
2021-10-13 16:15:14 GMT 49.708851 -8.662720 36,000 192 430 0
2021-10-13 16:15:08 GMT 49.720535 -8.659082 36,000 192 430 0
2021-10-13 16:15:05 GMT 49.727379 -8.657004 36,000 192 430 0
2021-10-13 16:14:57 GMT 49.741974 -8.652456 36,000 192 430 0
2021-10-13 16:14:54 GMT 49.747604 -8.650649 36,000 192 430 0
2021-10-13 16:14:49 GMT 49.757545 -8.647576 36,000 192 430 0
2021-10-13 16:14:43 GMT 49.767834 -8.644310 36,000 192 430 0
2021-10-13 16:14:39 GMT 49.776215 -8.641687 36,000 192 430 0
2021-10-13 16:14:33 GMT 49.786736 -8.638372 36,000 192 430 0
2021-10-13 16:14:29 GMT 49.796276 -8.635402 36,000 192 430 0
2021-10-13 16:14:24 GMT 49.815765 -8.629255 36,000 192 430 0
2021-10-13 16:14:20 GMT 49.815765 -8.629255 36,000 192 430 0
2021-10-13 16:14:14 GMT 49.825516 -8.626219 36,000 192 430 0
2021-10-13 16:14:12 GMT 49.829422 -8.625010 36,000 192 430 0
2021-10-13 16:14:09 GMT 49.835083 -8.623256 36,000 192 430 0
2021-10-13 16:14:04 GMT 49.845200 -8.620075 36,000 192 431 0
2021-10-13 16:14:02 GMT 49.848137 -8.619220 36,000 192 431 0
2021-10-13 16:13:59 GMT 49.855179 -8.617040 36,000 192 431 0
2021-10-13 16:13:54 GMT 49.864151 -8.614221 36,000 192 430 0
2021-10-13 16:13:52 GMT 49.870762 -8.612168 36,000 192 430 0
2021-10-13 16:13:49 GMT 49.874485 -8.611054 36,000 192 430 0
2021-10-13 16:13:42 GMT 49.887707 -8.606897 36,000 192 430 0
2021-10-13 16:13:38 GMT 49.895142 -8.604608 36,000 192 430 0
2021-10-13 16:13:33 GMT 49.904465 -8.601627 36,000 192 430 0
2021-10-13 16:13:31 GMT 49.910339 -8.599837 36,000 192 430 0
2021-10-13 16:13:28 GMT 49.914642 -8.598464 36,000 192 430 0
2021-10-13 16:13:22 GMT 49.927879 -8.594278 36,000 192 430 0
2021-10-13 16:13:17 GMT 49.937622 -8.591236 36,000 192 430 0
2021-10-13 16:13:14 GMT 49.942703 -8.589646 36,000 192 430 0
2021-10-13 16:13:12 GMT 49.946411 -8.588417 36,000 192 430 0
2021-10-13 16:13:08 GMT 49.955158 -8.585667 36,000 192 430 0
2021-10-13 16:13:04 GMT 49.962936 -8.583213 36,000 192 430 0
2021-10-13 16:13:02 GMT 49.974060 -8.579672 36,000 192 430 0
2021-10-13 16:12:59 GMT 49.974060 -8.579672 36,000 192 430 0
2021-10-13 16:12:54 GMT 49.981834 -8.577205 36,000 192 430 0
2021-10-13 16:12:51 GMT 49.986511 -8.575769 36,000 192 430 0
2021-10-13 16:12:48 GMT 49.993565 -8.573567 36,000 192 430 0
2021-10-13 16:12:44 GMT 50.001755 -8.570998 36,000 192 430 0
2021-10-13 16:12:42 GMT 50.005829 -8.569697 36,000 192 430 0
2021-10-13 16:12:38 GMT 50.013210 -8.567406 36,000 192 430 0
2021-10-13 16:12:32 GMT 50.027069 -8.563048 36,000 192 430 0
2021-10-13 16:12:24 GMT 50.040119 -8.558943 36,000 192 430 0
2021-10-13 16:12:21 GMT 50.045563 -8.557193 36,000 192 430 0
2021-10-13 16:12:13 GMT 50.060760 -8.552423 36,000 192 430 0
2021-10-13 16:12:10 GMT 50.066437 -8.550616 36,000 192 430 0
2021-10-13 16:12:04 GMT 50.079300 -8.546496 36,000 192 430 0
2021-10-13 16:12:01 GMT 50.084930 -8.544689 36,000 192 430 0
2021-10-13 16:11:56 GMT 50.094677 -8.541573 36,000 192 430 0
2021-10-13 16:11:53 GMT 50.100082 -8.539846 36,000 192 430 0
2021-10-13 16:11:50 GMT 50.105572 -8.538084 36,000 192 430 0
2021-10-13 16:11:44 GMT 50.119164 -8.533705 36,000 192 430 0
2021-10-13 16:11:41 GMT 50.125031 -8.531823 36,000 192 430 0
2021-10-13 16:11:38 GMT 50.129700 -8.530306 36,000 192 430 0
2021-10-13 16:11:34 GMT 50.138260 -8.527631 36,000 192 430 0
2021-10-13 16:11:30 GMT 50.144485 -8.525607 36,000 192 430 0
2021-10-13 16:11:27 GMT 50.151306 -8.523439 36,000 192 430 0
2021-10-13 16:11:23 GMT 50.159290 -8.520937 36,000 192 430 0
2021-10-13 16:11:21 GMT 50.164536 -8.519319 36,000 192 430 0
2021-10-13 16:11:17 GMT 50.170166 -8.517585 36,000 192 430 0
2021-10-13 16:11:14 GMT 50.177773 -8.515147 36,000 192 430 0
2021-10-13 16:11:10 GMT 50.184219 -8.513176 36,000 192 430 0
2021-10-13 16:11:06 GMT 50.190857 -8.511152 36,000 192 430 0
2021-10-13 16:11:04 GMT 50.196907 -8.509208 36,000 192 430 0
2021-10-13 16:11:00 GMT 50.204681 -8.506833 36,000 192 430 0
2021-10-13 16:10:54 GMT 50.218365 -8.502601 36,000 192 430 0
2021-10-13 16:10:49 GMT 50.224373 -8.500746 36,000 192 430 0
2021-10-13 16:10:46 GMT 50.230042 -8.498937 36,000 192 430 0
2021-10-13 16:10:43 GMT 50.237080 -8.496737 36,000 192 430 0
2021-10-13 16:10:40 GMT 50.242340 -8.495104 36,000 192 430 0
2021-10-13 16:10:38 GMT 50.247601 -8.493471 36,000 192 430 0
2021-10-13 16:10:33 GMT 50.257332 -8.490353 36,000 192 430 0
2021-10-13 16:10:29 GMT 50.263756 -8.488349 36,000 192 430 0
2021-10-13 16:10:25 GMT 50.272507 -8.485528 36,000 192 430 0
2021-10-13 16:10:23 GMT 50.275253 -8.484712 36,000 192 430 0
2021-10-13 16:10:21 GMT 50.280304 -8.483108 36,000 192 430 0
2021-10-13 16:10:16 GMT 50.289871 -8.480000 36,000 192 430 0
2021-10-13 16:10:13 GMT 50.295135 -8.478337 36,000 192 430 0
2021-10-13 16:10:10 GMT 50.302734 -8.475952 36,000 192 430 0
2021-10-13 16:10:07 GMT 50.307953 -8.474290 36,000 192 430 0
2021-10-13 16:10:05 GMT 50.311478 -8.473133 36,000 192 430 0
2021-10-13 16:10:02 GMT 50.322178 -8.469717 36,000 192 430 0
2021-10-13 16:09:59 GMT 50.322178 -8.469717 36,000 192 430 0
2021-10-13 16:09:56 GMT 50.329391 -8.467415 36,000 192 430 0
2021-10-13 16:09:53 GMT 50.334049 -8.465931 36,000 192 430 0
2021-10-13 16:09:50 GMT 50.340473 -8.463852 36,000 192 430 0
2021-10-13 16:09:47 GMT 50.346725 -8.461858 36,000 192 430 0
2021-10-13 16:09:45 GMT 50.353134 -8.459762 36,000 192 429 0
2021-10-13 16:09:41 GMT 50.357986 -8.458244 36,000 192 429 0
2021-10-13 16:09:39 GMT 50.361889 -8.456949 36,000 192 429 0
2021-10-13 16:09:36 GMT 50.372772 -8.453474 36,000 192 429 0
2021-10-13 16:09:33 GMT 50.372772 -8.453474 36,000 192 429 0
2021-10-13 16:09:30 GMT 50.378403 -8.451667 36,000 192 429 0
2021-10-13 16:09:28 GMT 50.382111 -8.450438 36,000 192 429 0
2021-10-13 16:09:23 GMT 50.392982 -8.446927 36,000 192 429 0
2021-10-13 16:09:21 GMT 50.396484 -8.445812 36,000 192 429 0
2021-10-13 16:09:18 GMT 50.401932 -8.444077 36,000 192 429 0
2021-10-13 16:09:15 GMT 50.407196 -8.442415 36,000 192 429 0
2021-10-13 16:09:12 GMT 50.416901 -8.439235 36,000 192 429 0
2021-10-13 16:09:09 GMT 50.428783 -8.435422 36,000 192 429 0
2021-10-13 16:09:04 GMT 50.428783 -8.435422 36,000 192 429 0
2021-10-13 16:09:01 GMT 50.435211 -8.433380 36,000 192 429 0
2021-10-13 16:08:58 GMT 50.441025 -8.431487 36,000 192 429 0
2021-10-13 16:08:53 GMT 50.451324 -8.428176 36,000 192 429 0
2021-10-13 16:08:51 GMT 50.455036 -8.426959 36,000 192 429 0
2021-10-13 16:08:48 GMT 50.466675 -8.423173 36,000 192 429 0
2021-10-13 16:08:45 GMT 50.466675 -8.423173 36,000 192 429 0
2021-10-13 16:08:42 GMT 50.472885 -8.421165 36,000 192 429 0
2021-10-13 16:08:40 GMT 50.476776 -8.419907 36,000 192 429 0
2021-10-13 16:08:38 GMT 50.481060 -8.418571 36,000 192 429 0
2021-10-13 16:08:35 GMT 50.485901 -8.416938 36,000 192 429 0
2021-10-13 16:08:31 GMT 50.493488 -8.414488 36,000 192 429 0
2021-10-13 16:08:29 GMT 50.497585 -8.413152 36,000 192 429 0
2021-10-13 16:08:27 GMT 50.501266 -8.411986 36,000 192 429 0
2021-10-13 16:08:23 GMT 50.510605 -8.408950 36,000 192 429 0
2021-10-13 16:08:21 GMT 50.512527 -8.408372 36,000 192 429 0
2021-10-13 16:08:19 GMT 50.518349 -8.406471 36,000 192 429 0
2021-10-13 16:08:17 GMT 50.520126 -8.405914 36,000 192 429 0
2021-10-13 16:08:13 GMT 50.529648 -8.402879 36,000 192 429 0
2021-10-13 16:08:11 GMT 50.531990 -8.402091 36,000 192 429 0
2021-10-13 16:08:09 GMT 50.537621 -8.400310 36,000 192 429 0
2021-10-13 16:08:06 GMT 50.541485 -8.399048 36,000 192 429 0
2021-10-13 16:08:02 GMT 50.551216 -8.395930 36,000 192 429 0
2021-10-13 16:08:00 GMT 50.555126 -8.394668 36,000 192 429 0
2021-10-13 16:07:55 GMT 50.568298 -8.390363 36,000 192 429 0
2021-10-13 16:07:53 GMT 50.574722 -8.388358 36,000 192 429 0
2021-10-13 16:07:50 GMT 50.574722 -8.388358 36,000 192 429 0
2021-10-13 16:07:47 GMT 50.579773 -8.386688 36,000 192 429 0
2021-10-13 16:07:45 GMT 50.588150 -8.384014 36,000 192 429 0
2021-10-13 16:07:43 GMT 50.588150 -8.384014 36,000 192 429 0
2021-10-13 16:07:41 GMT 50.591080 -8.383074 36,000 192 429 0
2021-10-13 16:07:39 GMT 50.594742 -8.381900 36,000 192 429 0
2021-10-13 16:07:35 GMT 50.603680 -8.379005 36,000 192 429 0
2021-10-13 16:07:32 GMT 50.613785 -8.375774 36,000 192 429 0
2021-10-13 16:07:29 GMT 50.613785 -8.375774 36,000 192 429 0
2021-10-13 16:07:26 GMT 50.628723 -8.370988 36,000 192 429 0
2021-10-13 16:07:22 GMT 50.628723 -8.370988 36,000 192 429 0
2021-10-13 16:07:20 GMT 50.632599 -8.369703 36,000 192 429 0
2021-10-13 16:07:17 GMT 50.640976 -8.367028 36,000 192 429 0
2021-10-13 16:07:12 GMT 50.646416 -8.365272 36,000 192 428 0
2021-10-13 16:07:09 GMT 50.653381 -8.363053 36,000 192 428 0
2021-10-13 16:07:06 GMT 50.660751 -8.360670 36,000 192 428 0
2021-10-13 16:07:01 GMT 50.668713 -8.358072 36,000 192 428 0
2021-10-13 16:06:57 GMT 50.677460 -8.355251 36,000 192 428 0
2021-10-13 16:06:52 GMT 50.685791 -8.352579 36,000 192 428 0
2021-10-13 16:06:49 GMT 50.691422 -8.350723 36,000 192 428 0
2021-10-13 16:06:46 GMT 50.697250 -8.348846 36,000 192 428 0
2021-10-13 16:06:42 GMT 50.713303 -8.343671 36,000 192 428 0
2021-10-13 16:06:39 GMT 50.713303 -8.343671 36,000 192 428 0
2021-10-13 16:06:34 GMT 50.723419 -8.340405 36,000 192 428 0
2021-10-13 16:06:31 GMT 50.727276 -8.339157 36,000 192 428 0
2021-10-13 16:06:28 GMT 50.732723 -8.337402 36,000 192 428 0
2021-10-13 16:06:24 GMT 50.740860 -8.334763 36,000 192 428 0
2021-10-13 16:06:21 GMT 50.745895 -8.333130 36,000 192 427 0
2021-10-13 16:06:18 GMT 50.751526 -8.331274 36,000 192 428 0
2021-10-13 16:06:16 GMT 50.756557 -8.329697 36,000 192 428 0
2021-10-13 16:06:12 GMT 50.770290 -8.325195 36,000 192 427 0
2021-10-13 16:06:06 GMT 50.775696 -8.323480 36,000 192 427 0
2021-10-13 16:06:02 GMT 50.783092 -8.321075 36,000 192 427 0
2021-10-13 16:06:00 GMT 50.785950 -8.320139 36,000 192 427 0
2021-10-13 16:05:58 GMT 50.789841 -8.318863 36,000 192 427 0
2021-10-13 16:05:56 GMT 50.804947 -8.313904 36,000 192 427 0
2021-10-13 16:05:51 GMT 50.804947 -8.313904 36,000 192 427 0
2021-10-13 16:05:48 GMT 50.808601 -8.312759 36,000 192 427 0
2021-10-13 16:05:45 GMT 50.815201 -8.310563 36,000 192 427 0
2021-10-13 16:05:41 GMT 50.824059 -8.307648 36,000 192 427 0
2021-10-13 16:05:38 GMT 50.829689 -8.305817 36,000 192 427 0
2021-10-13 16:05:35 GMT 50.835114 -8.304105 36,000 192 427 0
2021-10-13 16:05:31 GMT 50.843994 -8.301136 36,000 192 427 0
2021-10-13 16:05:27 GMT 50.850357 -8.299057 36,000 192 427 0
2021-10-13 16:05:25 GMT 50.854038 -8.297882 36,000 192 427 0
2021-10-13 16:05:22 GMT 50.861023 -8.295569 36,000 192 426 0
2021-10-13 16:05:19 GMT 50.865829 -8.293935 36,000 192 427 0
2021-10-13 16:05:17 GMT 50.870682 -8.292377 36,000 192 426 0
2021-10-13 16:05:14 GMT 50.880711 -8.289032 36,000 192 426 0
2021-10-13 16:05:12 GMT 50.880711 -8.289032 36,000 192 426 0
2021-10-13 16:05:08 GMT 50.887848 -8.286735 36,000 192 426 0
2021-10-13 16:05:04 GMT 50.895767 -8.284063 36,000 192 426 0
2021-10-13 16:05:01 GMT 50.901352 -8.282281 36,000 192 426 0
2021-10-13 16:04:58 GMT 50.907898 -8.280106 36,000 192 426 0
2021-10-13 16:04:55 GMT 50.912552 -8.278580 36,000 192 426 0
2021-10-13 16:04:53 GMT 50.916412 -8.277307 36,000 192 426 0
2021-10-13 16:04:51 GMT 50.920258 -8.275971 36,000 192 426 0
2021-10-13 16:04:48 GMT 50.929729 -8.272858 36,000 192 426 0
2021-10-13 16:04:46 GMT 50.929729 -8.272858 36,000 192 426 0
2021-10-13 16:04:43 GMT 50.935501 -8.270998 36,000 192 426 0
2021-10-13 16:04:41 GMT 50.941509 -8.268967 36,000 192 426 0
2021-10-13 16:04:38 GMT 50.949188 -8.266470 36,000 192 426 0
2021-10-13 16:04:34 GMT 50.954216 -8.264847 36,000 192 427 0
2021-10-13 16:04:31 GMT 50.964272 -8.261566 36,000 193 426 0
2021-10-13 16:04:28 GMT 50.964272 -8.261566 36,000 192 426 0
2021-10-13 16:04:26 GMT 50.967579 -8.260498 36,000 194 425 0
2021-10-13 16:04:24 GMT 50.971813 -8.259048 36,000 195 425 0
2021-10-13 16:04:21 GMT 50.978146 -8.256760 36,000 195 425 0
2021-10-13 16:04:19 GMT 50.982147 -8.255157 36,000 196 425 0
2021-10-13 16:04:15 GMT 50.996113 -8.248978 36,000 197 425 0
2021-10-13 16:04:12 GMT 51.001560 -8.246231 36,000 198 424 0
2021-10-13 16:04:09 GMT 51.001560 -8.246231 36,000 199 424 0
2021-10-13 16:04:07 GMT 51.004169 -8.244858 36,000 200 424 0
2021-10-13 16:04:04 GMT 51.009895 -8.241730 36,000 201 422 0
2021-10-13 16:04:01 GMT 51.016319 -8.237991 36,000 202 422 0
2021-10-13 16:03:58 GMT 51.020836 -8.235168 36,000 203 422 0
2021-10-13 16:03:56 GMT 51.024261 -8.232917 36,000 204 421 0
2021-10-13 16:03:54 GMT 51.028427 -8.230170 36,000 204 421 0
2021-10-13 16:03:49 GMT 51.037674 -8.223712 36,000 204 422 0
2021-10-13 16:03:47 GMT 51.040340 -8.221817 36,000 204 422 0
2021-10-13 16:03:45 GMT 51.044266 -8.219035 36,000 204 422 0
2021-10-13 16:03:41 GMT 51.051590 -8.213913 36,000 204 422 0
2021-10-13 16:03:39 GMT 51.059601 -8.208346 36,000 204 422 0
2021-10-13 16:03:37 GMT 51.059601 -8.208346 36,000 204 422 0
2021-10-13 16:03:35 GMT 51.062450 -8.206329 36,000 204 422 0
2021-10-13 16:03:31 GMT 51.069061 -8.201675 36,000 204 422 0
2021-10-13 16:03:29 GMT 51.073158 -8.198776 36,000 204 422 0
2021-10-13 16:03:26 GMT 51.079010 -8.194687 36,000 204 422 0
2021-10-13 16:03:24 GMT 51.084183 -8.191050 36,000 204 422 0
2021-10-13 16:03:21 GMT 51.087936 -8.188452 36,000 204 422 0
2021-10-13 16:03:18 GMT 51.093269 -8.184662 36,000 204 422 0
2021-10-13 16:03:14 GMT 51.099518 -8.180286 36,000 204 422 0
2021-10-13 16:03:11 GMT 51.104115 -8.177032 36,000 204 422 0
2021-10-13 16:03:09 GMT 51.109131 -8.173531 36,000 204 422 0
2021-10-13 16:03:06 GMT 51.114670 -8.169671 36,000 204 422 0
2021-10-13 16:03:04 GMT 51.117336 -8.167725 36,000 204 422 0
2021-10-13 16:03:01 GMT 51.122314 -8.164252 36,000 204 422 0
2021-10-13 16:02:59 GMT 51.127300 -8.160706 36,000 204 422 0
2021-10-13 16:02:56 GMT 51.132660 -8.156977 36,000 204 422 0
2021-10-13 16:02:54 GMT 51.135307 -8.155136 36,000 204 422 0
2021-10-13 16:02:51 GMT 51.139774 -8.151932 36,000 204 422 0
2021-10-13 16:02:49 GMT 51.144745 -8.148441 36,000 204 422 0
2021-10-13 16:02:46 GMT 51.150108 -8.144684 36,000 204 422 0
2021-10-13 16:02:44 GMT 51.157928 -8.139162 36,000 204 422 0
2021-10-13 16:02:41 GMT 51.157928 -8.139162 36,000 204 422 0
2021-10-13 16:02:39 GMT 51.163101 -8.135524 36,000 204 422 0
2021-10-13 16:02:35 GMT 51.169846 -8.130722 36,000 204 422 0
2021-10-13 16:02:31 GMT 51.180725 -8.123053 36,000 204 422 0
2021-10-13 16:02:29 GMT 51.180725 -8.123053 36,000 204 422 0
2021-10-13 16:02:24 GMT 51.190887 -8.115921 36,000 204 422 0
2021-10-13 16:02:20 GMT 51.195126 -8.112869 36,000 204 422 0
2021-10-13 16:02:18 GMT 51.198895 -8.110275 36,000 204 422 0
2021-10-13 16:02:16 GMT 51.205627 -8.105461 36,000 204 422 0
2021-10-13 16:02:12 GMT 51.210255 -8.102188 36,000 204 422 0
2021-10-13 16:02:10 GMT 51.212769 -8.100433 36,000 204 422 0
2021-10-13 16:02:08 GMT 51.216492 -8.097763 36,000 204 422 0
2021-10-13 16:02:05 GMT 51.222198 -8.093806 36,000 204 422 0
2021-10-13 16:02:01 GMT 51.229668 -8.088455 36,000 204 422 0
2021-10-13 16:01:58 GMT 51.234135 -8.085327 36,000 204 422 0
2021-10-13 16:01:55 GMT 51.246567 -8.076553 36,000 204 422 0
2021-10-13 16:01:52 GMT 51.246567 -8.076553 36,000 204 422 0
2021-10-13 16:01:50 GMT 51.248199 -8.075397 36,000 204 422 0
2021-10-13 16:01:48 GMT 51.251732 -8.072891 36,000 204 422 0
2021-10-13 16:01:46 GMT 51.256901 -8.069229 36,000 204 422 0
2021-10-13 16:01:43 GMT 51.262394 -8.065338 36,000 204 422 0
2021-10-13 16:01:40 GMT 51.267563 -8.061676 36,000 204 421 0
2021-10-13 16:01:37 GMT 51.270218 -8.059734 36,000 204 421 0
2021-10-13 16:01:34 GMT 51.277897 -8.054352 36,000 204 421 0
2021-10-13 16:01:31 GMT 51.283062 -8.050690 36,000 204 421 0
2021-10-13 16:01:28 GMT 51.289253 -8.046265 36,000 204 422 0
2021-10-13 16:01:24 GMT 51.296768 -8.040953 36,000 204 422 0
2021-10-13 16:01:21 GMT 51.301357 -8.037643 36,000 204 422 0
2021-10-13 16:01:18 GMT 51.306896 -8.033752 36,000 204 422 0
2021-10-13 16:01:14 GMT 51.315262 -8.027814 36,000 204 422 0
2021-10-13 16:01:11 GMT 51.319153 -8.025067 36,000 204 422 0
2021-10-13 16:01:08 GMT 51.323097 -8.022308 36,000 204 422 0
2021-10-13 16:01:06 GMT 51.328445 -8.018535 36,000 204 422 0
2021-10-13 16:01:03 GMT 51.333061 -8.015213 36,000 204 422 0
2021-10-13 16:01:00 GMT 51.338039 -8.011703 36,000 204 422 0
2021-10-13 16:00:57 GMT 51.343208 -8.008041 36,000 204 422 0
2021-10-13 16:00:54 GMT 51.348175 -8.004505 36,000 204 422 0
2021-10-13 16:00:52 GMT 51.353168 -8.000946 36,000 204 422 0
2021-10-13 16:00:47 GMT 51.362091 -7.994632 36,000 204 422 0
2021-10-13 16:00:45 GMT 51.365799 -7.992034 36,000 204 422 0
2021-10-13 16:00:41 GMT 51.372391 -7.987357 36,000 204 421 0
2021-10-13 16:00:37 GMT 51.380032 -7.981873 36,000 205 421 0
2021-10-13 16:00:34 GMT 51.383423 -7.979489 36,000 205 421 0
2021-10-13 16:00:31 GMT 51.389107 -7.975464 36,000 205 421 0
2021-10-13 16:00:28 GMT 51.394604 -7.971497 36,000 205 421 0
2021-10-13 16:00:26 GMT 51.398373 -7.968826 36,000 205 421 0
2021-10-13 16:00:24 GMT 51.401733 -7.966424 36,000 205 421 0
2021-10-13 16:00:21 GMT 51.413132 -7.958333 36,000 205 421 0
2021-10-13 16:00:18 GMT 51.413132 -7.958333 36,000 205 421 0
2021-10-13 16:00:14 GMT 51.420227 -7.953285 36,000 205 421 0
2021-10-13 16:00:11 GMT 51.425720 -7.949351 36,000 205 421 0
2021-10-13 16:00:08 GMT 51.430344 -7.946085 36,000 204 421 0
2021-10-13 16:00:04 GMT 51.438362 -7.940369 36,000 205 421 0
2021-10-13 16:00:01 GMT 51.443710 -7.936583 36,000 205 422 0
2021-10-13 15:59:58 GMT 51.448334 -7.933242 36,000 205 422 0
2021-10-13 15:59:54 GMT 51.456161 -7.927675 36,000 205 422 0
2021-10-13 15:59:51 GMT 51.462021 -7.923518 36,000 205 422 0
2021-10-13 15:59:48 GMT 51.465775 -7.920846 36,000 205 422 0
2021-10-13 15:59:44 GMT 51.473228 -7.915497 36,000 205 422 0
2021-10-13 15:59:42 GMT 51.476074 -7.913497 36,000 205 422 0
2021-10-13 15:59:40 GMT 51.480377 -7.910453 36,000 205 421 0
2021-10-13 15:59:37 GMT 51.484634 -7.907333 36,000 205 421 0
2021-10-13 15:59:34 GMT 51.490311 -7.903327 36,000 205 421 0
2021-10-13 15:59:32 GMT 51.502762 -7.894345 36,000 205 421 0
2021-10-13 15:59:28 GMT 51.502762 -7.894345 36,000 205 421 0
2021-10-13 15:59:23 GMT 51.510426 -7.888870 36,000 205 421 0
2021-10-13 15:59:19 GMT 51.517548 -7.883804 36,000 205 421 0
2021-10-13 15:59:17 GMT 51.520386 -7.881775 36,000 205 421 0
2021-10-13 15:59:13 GMT 51.528393 -7.875977 36,000 205 422 0
2021-10-13 15:59:09 GMT 51.534439 -7.871704 36,000 205 422 0
2021-10-13 15:59:07 GMT 51.538879 -7.868512 36,000 205 422 0
2021-10-13 15:59:04 GMT 51.543869 -7.864875 36,000 205 422 0
2021-10-13 15:59:00 GMT 51.553848 -7.857748 36,000 205 422 0
2021-10-13 15:58:57 GMT 51.556320 -7.855967 36,000 205 422 0
2021-10-13 15:58:54 GMT 51.565201 -7.849509 36,000 205 422 0
2021-10-13 15:58:48 GMT 51.572662 -7.844162 36,000 205 422 0
2021-10-13 15:58:46 GMT 51.574631 -7.842754 36,000 205 422 0
2021-10-13 15:58:44 GMT 51.580532 -7.838516 36,000 205 422 0
2021-10-13 15:58:42 GMT 51.582825 -7.836815 36,000 205 422 0
2021-10-13 15:58:38 GMT 51.591019 -7.830951 36,000 205 422 0
2021-10-13 15:58:34 GMT 51.597244 -7.826423 36,000 205 422 0
2021-10-13 15:58:32 GMT 51.600643 -7.824020 36,000 205 422 0
2021-10-13 15:58:28 GMT 51.609531 -7.817612 36,000 205 422 0
2021-10-13 15:58:23 GMT 51.617752 -7.811650 36,000 205 422 0
2021-10-13 15:58:21 GMT 51.623245 -7.807716 36,000 205 422 0
2021-10-13 15:58:18 GMT 51.626293 -7.805481 36,000 205 422 0
2021-10-13 15:58:16 GMT 51.629517 -7.803188 36,000 205 422 0
2021-10-13 15:58:13 GMT 51.636108 -7.798437 36,000 205 422 0
2021-10-13 15:58:08 GMT 51.644821 -7.792130 36,000 205 423 0
2021-10-13 15:58:06 GMT 51.648239 -7.789678 36,000 205 423 0
2021-10-13 15:58:03 GMT 51.653942 -7.785568 36,000 205 423 0
2021-10-13 15:57:59 GMT 51.660553 -7.780844 36,000 205 424 0
2021-10-13 15:57:57 GMT 51.664280 -7.778091 36,000 205 424 0
2021-10-13 15:57:53 GMT 51.670715 -7.773495 36,000 205 424 0
2021-10-13 15:57:48 GMT 51.680374 -7.766517 36,000 205 424 0
2021-10-13 15:57:45 GMT 51.686234 -7.762286 36,000 205 424 0
2021-10-13 15:57:42 GMT 51.691589 -7.758352 36,000 205 424 0
2021-10-13 15:57:37 GMT 51.698914 -7.753081 36,000 205 424 0
2021-10-13 15:57:35 GMT 51.702869 -7.750244 36,000 205 424 0
2021-10-13 15:57:32 GMT 51.708038 -7.746506 36,000 205 424 0
2021-10-13 15:57:29 GMT 51.714478 -7.741798 36,000 205 424 0
2021-10-13 15:57:27 GMT 51.717163 -7.739868 36,000 205 424 0
2021-10-13 15:57:25 GMT 51.720558 -7.737427 36,000 205 424 0
2021-10-13 15:57:22 GMT 51.726101 -7.733383 36,000 205 424 0
2021-10-13 15:57:18 GMT 51.734848 -7.727026 36,000 205 424 0
2021-10-13 15:57:16 GMT 51.736481 -7.725906 36,000 205 424 0
2021-10-13 15:57:14 GMT 51.741119 -7.722498 36,000 205 424 0
2021-10-13 15:57:12 GMT 51.743958 -7.720419 36,000 205 424 0
2021-10-13 15:57:08 GMT 51.752563 -7.714184 36,000 205 424 0
2021-10-13 15:57:03 GMT 51.761307 -7.707800 36,000 205 424 0
2021-10-13 15:56:59 GMT 51.768463 -7.702637 36,000 205 424 0
2021-10-13 15:56:57 GMT 51.770782 -7.700971 36,000 205 424 0
2021-10-13 15:56:54 GMT 51.776688 -7.696665 36,000 205 424 0
2021-10-13 15:56:52 GMT 51.784199 -7.691193 36,000 205 424 0
2021-10-13 15:56:47 GMT 51.789738 -7.687149 36,000 205 425 0
2021-10-13 15:56:44 GMT 51.798843 -7.680557 36,000 205 425 0
2021-10-13 15:56:38 GMT 51.805801 -7.675435 36,000 205 425 0
2021-10-13 15:56:35 GMT 51.811020 -7.671649 36,000 205 425 0
2021-10-13 15:56:32 GMT 51.815460 -7.668457 36,000 205 425 0
2021-10-13 15:56:28 GMT 51.823349 -7.662735 36,000 205 425 0
2021-10-13 15:56:26 GMT 51.826748 -7.660217 36,000 205 425 0
2021-10-13 15:56:24 GMT 51.834057 -7.654877 36,000 205 425 0
2021-10-13 15:56:22 GMT 51.834057 -7.654877 36,000 205 425 0
2021-10-13 15:56:17 GMT 51.841412 -7.649612 36,000 205 425 0
2021-10-13 15:56:15 GMT 51.846764 -7.645645 36,000 205 425 0
2021-10-13 15:56:12 GMT 51.852493 -7.641511 36,000 205 425 0
2021-10-13 15:56:08 GMT 51.858215 -7.637354 36,000 205 425 0
2021-10-13 15:56:05 GMT 51.863068 -7.633865 36,000 205 425 0
2021-10-13 15:56:03 GMT 51.866642 -7.631226 36,000 205 425 0
2021-10-13 15:56:01 GMT 51.871437 -7.627716 36,000 205 425 0
2021-10-13 15:55:57 GMT 51.884331 -7.618408 36,000 205 425 0
2021-10-13 15:55:54 GMT 51.884331 -7.618408 36,000 205 425 0
2021-10-13 15:55:51 GMT 51.889709 -7.614490 36,000 205 425 0
2021-10-13 15:55:49 GMT 51.896481 -7.609523 36,000 205 425 0
2021-10-13 15:55:47 GMT 51.896481 -7.609523 36,000 205 425 0
2021-10-13 15:55:45 GMT 51.899185 -7.607574 36,000 205 425 0
2021-10-13 15:55:43 GMT 51.904724 -7.603531 36,000 205 425 0
2021-10-13 15:55:40 GMT 51.908306 -7.600891 36,000 205 425 0
2021-10-13 15:55:38 GMT 51.911888 -7.598301 36,000 205 424 0
2021-10-13 15:55:36 GMT 51.916534 -7.594910 36,000 205 424 0
2021-10-13 15:55:33 GMT 51.920654 -7.591934 36,000 205 424 0
2021-10-13 15:55:31 GMT 51.924225 -7.589340 36,000 205 424 0
2021-10-13 15:55:29 GMT 51.928665 -7.586060 36,000 205 424 0
2021-10-13 15:55:27 GMT 51.931366 -7.584076 36,000 205 424 0
2021-10-13 15:55:25 GMT 51.934570 -7.581787 36,000 205 424 0
2021-10-13 15:55:23 GMT 51.938145 -7.579154 36,000 205 424 0
2021-10-13 15:55:21 GMT 51.942627 -7.575912 36,000 205 424 0
2021-10-13 15:55:18 GMT 51.951187 -7.569580 36,000 205 424 0
2021-10-13 15:55:16 GMT 51.951187 -7.569580 36,000 205 424 0
2021-10-13 15:55:13 GMT 51.956581 -7.565656 36,000 205 424 0
2021-10-13 15:55:11 GMT 51.960117 -7.563067 36,000 205 424 0
2021-10-13 15:55:09 GMT 51.962997 -7.560959 36,000 205 424 0
2021-10-13 15:55:06 GMT 51.969223 -7.556381 36,000 205 425 0
2021-10-13 15:55:03 GMT 51.975861 -7.551498 36,000 205 425 0
2021-10-13 15:55:00 GMT 51.980507 -7.548157 36,000 205 425 0
2021-10-13 15:54:57 GMT 51.986748 -7.543527 36,000 205 425 0
2021-10-13 15:54:54 GMT 51.989960 -7.541173 36,000 205 425 0
2021-10-13 15:54:51 GMT 51.997833 -7.535400 36,000 205 425 0
2021-10-13 15:54:47 GMT 52.004063 -7.530736 36,000 205 425 0
2021-10-13 15:54:45 GMT 52.009232 -7.526969 36,000 205 425 0
2021-10-13 15:54:40 GMT 52.016212 -7.521868 36,000 205 425 0
2021-10-13 15:54:37 GMT 52.022644 -7.517090 36,000 205 425 0
2021-10-13 15:54:35 GMT 52.026215 -7.514496 36,000 205 425 0
2021-10-13 15:54:31 GMT 52.031754 -7.510376 36,000 205 425 0
2021-10-13 15:54:27 GMT 52.039261 -7.504883 36,000 205 424 0
2021-10-13 15:54:24 GMT 52.045307 -7.500445 36,000 205 424 0
2021-10-13 15:54:21 GMT 52.049267 -7.497541 36,000 205 424 0
2021-10-13 15:54:17 GMT 52.056931 -7.491913 36,000 205 424 0
2021-10-13 15:54:15 GMT 52.063889 -7.486801 36,000 205 424 0
2021-10-13 15:54:11 GMT 52.067467 -7.484122 36,000 205 424 0
2021-10-13 15:54:08 GMT 52.073334 -7.479806 36,000 205 424 0
2021-10-13 15:54:06 GMT 52.076019 -7.477875 36,000 205 424 0
2021-10-13 15:54:04 GMT 52.081192 -7.474060 36,000 205 423 0
2021-10-13 15:54:00 GMT 52.086880 -7.469840 36,000 205 423 0
2021-10-13 15:53:57 GMT 52.097443 -7.462082 36,000 205 423 0
2021-10-13 15:53:55 GMT 52.097443 -7.462082 36,000 205 423 0
2021-10-13 15:53:53 GMT 52.099030 -7.460894 36,000 205 423 0
2021-10-13 15:53:50 GMT 52.106140 -7.455673 36,000 205 423 0
2021-10-13 15:53:48 GMT 52.108994 -7.453596 36,000 205 423 0
2021-10-13 15:53:46 GMT 52.111507 -7.451712 36,000 205 423 0
2021-10-13 15:53:44 GMT 52.114700 -7.449417 36,000 205 423 0
2021-10-13 15:53:42 GMT 52.118454 -7.446594 36,000 205 423 0
2021-10-13 15:53:39 GMT 52.125732 -7.441254 36,000 205 423 0
2021-10-13 15:53:36 GMT 52.129486 -7.438507 36,000 205 423 0
2021-10-13 15:53:33 GMT 52.134644 -7.434684 36,000 205 422 0
2021-10-13 15:53:31 GMT 52.144775 -7.427216 36,000 205 422 0
2021-10-13 15:53:28 GMT 52.144775 -7.427216 36,000 205 422 0
2021-10-13 15:53:26 GMT 52.148701 -7.424325 36,000 205 422 0
2021-10-13 15:53:23 GMT 52.153290 -7.420959 36,000 205 422 0
2021-10-13 15:53:21 GMT 52.158989 -7.416713 36,000 205 422 0
2021-10-13 15:53:17 GMT 52.163784 -7.413182 36,000 205 422 0
2021-10-13 15:53:15 GMT 52.166473 -7.411194 36,000 205 422 0
2021-10-13 15:53:13 GMT 52.171600 -7.407379 36,000 205 422 0
2021-10-13 15:53:09 GMT 52.177826 -7.402802 36,000 205 422 0
2021-10-13 15:53:07 GMT 52.180847 -7.400589 36,000 205 421 0
2021-10-13 15:53:05 GMT 52.185104 -7.397461 36,000 205 421 0
2021-10-13 15:53:02 GMT 52.189342 -7.394270 36,000 205 421 0
2021-10-13 15:53:00 GMT 52.194305 -7.390594 36,000 205 421 0
2021-10-13 15:52:57 GMT 52.200699 -7.385873 36,000 205 421 0
2021-10-13 15:52:54 GMT 52.210098 -7.378922 36,000 205 421 0
2021-10-13 15:52:51 GMT 52.212570 -7.377084 36,000 205 421 0
2021-10-13 15:52:47 GMT 52.216808 -7.373945 36,000 205 421 0
2021-10-13 15:52:45 GMT 52.219666 -7.371826 36,000 205 421 0
2021-10-13 15:52:43 GMT 52.223557 -7.368923 36,000 205 421 0
2021-10-13 15:52:41 GMT 52.228134 -7.365494 36,000 205 421 0
2021-10-13 15:52:38 GMT 52.233627 -7.361374 36,000 205 421 0
2021-10-13 15:52:36 GMT 52.236267 -7.359427 36,000 205 421 0
2021-10-13 15:52:33 GMT 52.241592 -7.355499 36,000 205 421 0
2021-10-13 15:52:31 GMT 52.245808 -7.352365 36,000 205 421 0
2021-10-13 15:52:29 GMT 52.248138 -7.350616 36,000 205 421 0
2021-10-13 15:52:26 GMT 52.255554 -7.345123 36,000 205 421 0
2021-10-13 15:52:23 GMT 52.259949 -7.341843 36,000 205 421 0
2021-10-13 15:52:20 GMT 52.264896 -7.338161 36,000 205 421 0
2021-10-13 15:52:15 GMT 52.272675 -7.332382 36,000 205 421 0
2021-10-13 15:52:13 GMT 52.276905 -7.329215 36,000 205 421 0
2021-10-13 15:52:11 GMT 52.281700 -7.325684 36,000 205 421 0
2021-10-13 15:52:09 GMT 52.283615 -7.324219 36,000 205 421 0
2021-10-13 15:52:06 GMT 52.290344 -7.319183 36,000 205 421 0
2021-10-13 15:52:04 GMT 52.293182 -7.317123 36,000 205 421 0
2021-10-13 15:52:02 GMT 52.300598 -7.311554 36,000 205 421 0
2021-10-13 15:52:00 GMT 52.303070 -7.309723 36,000 205 421 0
2021-10-13 15:51:58 GMT 52.303070 -7.309723 36,000 205 421 0
2021-10-13 15:51:56 GMT 52.307678 -7.306301 36,000 205 421 0
2021-10-13 15:51:53 GMT 52.312088 -7.303009 36,000 205 420 0
2021-10-13 15:51:49 GMT 52.318619 -7.298218 36,000 205 420 0
2021-10-13 15:51:47 GMT 52.323212 -7.294769 36,000 205 420 0
2021-10-13 15:51:44 GMT 52.328346 -7.290998 36,000 205 420 0
2021-10-13 15:51:42 GMT 52.337677 -7.284012 36,000 205 420 0
2021-10-13 15:51:39 GMT 52.337677 -7.284012 36,000 205 420 0
2021-10-13 15:51:36 GMT 52.343334 -7.279776 36,000 205 420 0
2021-10-13 15:51:33 GMT 52.348480 -7.276001 36,000 205 420 0
2021-10-13 15:51:30 GMT 52.352554 -7.272949 36,000 205 421 0
2021-10-13 15:51:28 GMT 52.356812 -7.269821 36,000 205 421 0
2021-10-13 15:51:26 GMT 52.361206 -7.266541 36,000 205 421 0
2021-10-13 15:51:23 GMT 52.365967 -7.262955 36,000 205 421 0
2021-10-13 15:51:20 GMT 52.370056 -7.259923 36,000 205 421 0
2021-10-13 15:51:17 GMT 52.375877 -7.255607 36,000 205 421 0
2021-10-13 15:51:15 GMT 52.380997 -7.251761 36,000 205 421 0
2021-10-13 15:51:12 GMT 52.385048 -7.248701 36,000 205 421 0
2021-10-13 15:51:09 GMT 52.390366 -7.244797 36,000 205 421 0
2021-10-13 15:51:06 GMT 52.396179 -7.240372 36,000 205 421 0
2021-10-13 15:51:04 GMT 52.399712 -7.237714 36,000 205 420 0
2021-10-13 15:51:02 GMT 52.403229 -7.235107 36,000 205 420 0
2021-10-13 15:50:59 GMT 52.411880 -7.228622 36,000 205 421 0
2021-10-13 15:50:57 GMT 52.411880 -7.228622 36,000 205 421 0
2021-10-13 15:50:54 GMT 52.417374 -7.224503 36,000 205 421 0
2021-10-13 15:50:52 GMT 52.420891 -7.221784 36,000 205 421 0
2021-10-13 15:50:48 GMT 52.427086 -7.217154 36,000 205 421 0
2021-10-13 15:50:45 GMT 52.431831 -7.213623 36,000 205 421 0
2021-10-13 15:50:43 GMT 52.437469 -7.209320 36,000 205 421 0
2021-10-13 15:50:40 GMT 52.441189 -7.206560 36,000 205 421 0
2021-10-13 15:50:37 GMT 52.446487 -7.202530 36,000 205 421 0
2021-10-13 15:50:35 GMT 52.449829 -7.200012 36,000 205 421 0
2021-10-13 15:50:33 GMT 52.454269 -7.196732 36,000 205 421 0
2021-10-13 15:50:30 GMT 52.459717 -7.192612 36,000 205 421 0
2021-10-13 15:50:27 GMT 52.464325 -7.189139 36,000 205 421 0
2021-10-13 15:50:25 GMT 52.466995 -7.187119 36,000 205 421 0
2021-10-13 15:50:22 GMT 52.474411 -7.181549 36,000 205 421 0
2021-10-13 15:50:19 GMT 52.479355 -7.177811 36,000 205 421 0
2021-10-13 15:50:16 GMT 52.488022 -7.171247 36,000 205 421 0
2021-10-13 15:50:14 GMT 52.488022 -7.171247 36,000 205 421 0
2021-10-13 15:50:10 GMT 52.494213 -7.166539 36,000 205 422 0
2021-10-13 15:50:07 GMT 52.500404 -7.161909 36,000 205 422 0
2021-10-13 15:50:05 GMT 52.503242 -7.159790 36,000 205 422 0
2021-10-13 15:50:02 GMT 52.507668 -7.156416 36,000 205 422 0
2021-10-13 15:50:00 GMT 52.513531 -7.152021 36,000 205 422 0
2021-10-13 15:49:57 GMT 52.517956 -7.148725 36,000 205 422 0
2021-10-13 15:49:54 GMT 52.522202 -7.145538 36,000 205 421 0
2021-10-13 15:49:51 GMT 52.530895 -7.138994 36,000 205 422 0
2021-10-13 15:49:49 GMT 52.530895 -7.138994 36,000 205 422 0
2021-10-13 15:49:47 GMT 52.539368 -7.132638 36,000 205 422 0
2021-10-13 15:49:45 GMT 52.539368 -7.132638 36,000 205 422 0
2021-10-13 15:49:42 GMT 52.543976 -7.129185 36,000 205 422 0
2021-10-13 15:49:40 GMT 52.548073 -7.126125 36,000 205 422 0
2021-10-13 15:49:38 GMT 52.550728 -7.124084 36,000 205 422 0
2021-10-13 15:49:36 GMT 52.557449 -7.119064 36,000 205 422 0
2021-10-13 15:49:34 GMT 52.557449 -7.119064 36,000 205 422 0
2021-10-13 15:49:32 GMT 52.561707 -7.115860 36,000 205 422 0
2021-10-13 15:49:29 GMT 52.566101 -7.112503 36,000 205 422 0
2021-10-13 15:49:27 GMT 52.571072 -7.108782 36,000 205 422 0
2021-10-13 15:49:25 GMT 52.573746 -7.106781 36,000 205 422 0
2021-10-13 15:49:22 GMT 52.579029 -7.102818 36,000 205 422 0
2021-10-13 15:49:19 GMT 52.584522 -7.098659 36,000 205 422 0
2021-10-13 15:49:17 GMT 52.588993 -7.095285 36,000 205 422 0
2021-10-13 15:49:15 GMT 52.591644 -7.093323 36,000 205 422 0
2021-10-13 15:49:12 GMT 52.601028 -7.086182 36,000 205 422 0
2021-10-13 15:49:10 GMT 52.601028 -7.086182 36,000 205 422 0
2021-10-13 15:49:08 GMT 52.604355 -7.083670 36,000 205 422 0
2021-10-13 15:49:06 GMT 52.608078 -7.080845 36,000 205 422 0
2021-10-13 15:49:02 GMT 52.618694 -7.072841 36,000 205 422 0
2021-10-13 15:49:00 GMT 52.618694 -7.072841 36,000 205 422 0
2021-10-13 15:48:57 GMT 52.624741 -7.068253 36,000 205 422 0
2021-10-13 15:48:55 GMT 52.632519 -7.062404 36,000 205 422 0
2021-10-13 15:48:52 GMT 52.632519 -7.062404 36,000 205 422 0
2021-10-13 15:48:50 GMT 52.636616 -7.059344 36,000 205 422 0
2021-10-13 15:48:47 GMT 52.645458 -7.052673 36,000 205 422 0
2021-10-13 15:48:42 GMT 52.650787 -7.048645 36,000 205 422 0
2021-10-13 15:48:40 GMT 52.654865 -7.045532 36,000 205 422 0
2021-10-13 15:48:38 GMT 52.657845 -7.043256 36,000 205 422 0
2021-10-13 15:48:36 GMT 52.664082 -7.038627 36,000 205 422 0
2021-10-13 15:48:34 GMT 52.668686 -7.035141 36,000 205 422 0
2021-10-13 15:48:32 GMT 52.668686 -7.035141 36,000 205 422 0
2021-10-13 15:48:30 GMT 52.672394 -7.032318 36,000 205 422 0
2021-10-13 15:48:27 GMT 52.676834 -7.028961 36,000 205 422 0
2021-10-13 15:48:25 GMT 52.681072 -7.025757 36,000 205 422 0
2021-10-13 15:48:21 GMT 52.688187 -7.020340 36,000 205 422 0
2021-10-13 15:48:19 GMT 52.690849 -7.018380 36,000 205 422 0
2021-10-13 15:48:15 GMT 52.700394 -7.011082 36,000 205 422 0
2021-10-13 15:48:12 GMT 52.704666 -7.007828 36,000 205 422 0
2021-10-13 15:48:09 GMT 52.709106 -7.004471 36,000 205 422 0
2021-10-13 15:48:06 GMT 52.714077 -7.000724 36,000 205 422 0
2021-10-13 15:48:04 GMT 52.717804 -6.997910 36,000 205 422 0
2021-10-13 15:48:01 GMT 52.724716 -6.992645 36,000 205 423 0
2021-10-13 15:47:58 GMT 52.727371 -6.990662 36,000 205 423 0
2021-10-13 15:47:56 GMT 52.731812 -6.987228 36,000 205 422 0
2021-10-13 15:47:54 GMT 52.735336 -6.984558 36,000 205 423 0
2021-10-13 15:47:51 GMT 52.739216 -6.981576 36,000 205 423 0
2021-10-13 15:47:49 GMT 52.744011 -6.977966 36,000 205 423 0
2021-10-13 15:47:46 GMT 52.748611 -6.974411 36,000 205 423 0
2021-10-13 15:47:44 GMT 52.752857 -6.971218 36,000 205 423 0
2021-10-13 15:47:41 GMT 52.758911 -6.966629 36,000 205 423 0
2021-10-13 15:47:39 GMT 52.762260 -6.963998 36,000 205 423 0
2021-10-13 15:47:36 GMT 52.769524 -6.958505 36,000 205 423 0
2021-10-13 15:47:33 GMT 52.773571 -6.955366 36,000 205 423 0
2021-10-13 15:47:31 GMT 52.776600 -6.953012 36,000 205 423 0
2021-10-13 15:47:28 GMT 52.780518 -6.950073 36,000 205 423 0
2021-10-13 15:47:26 GMT 52.785461 -6.946259 36,000 205 423 0
2021-10-13 15:47:24 GMT 52.788982 -6.943516 36,000 205 423 0
2021-10-13 15:47:21 GMT 52.794296 -6.939468 36,000 205 423 0
2021-10-13 15:47:19 GMT 52.798710 -6.936061 36,000 205 423 0
2021-10-13 15:47:16 GMT 52.802261 -6.933289 36,000 205 423 0
2021-10-13 15:47:14 GMT 52.805969 -6.930466 36,000 205 423 0
2021-10-13 15:47:11 GMT 52.812023 -6.925860 36,000 205 423 0
2021-10-13 15:47:09 GMT 52.815353 -6.923218 36,000 205 423 0
2021-10-13 15:47:07 GMT 52.821754 -6.918326 36,000 205 423 0
2021-10-13 15:47:05 GMT 52.821754 -6.918326 36,000 205 423 0
2021-10-13 15:47:02 GMT 52.827942 -6.913605 36,000 205 423 0
2021-10-13 15:46:59 GMT 52.834167 -6.908798 36,000 205 423 0
2021-10-13 15:46:56 GMT 52.838421 -6.905535 36,000 205 423 0
2021-10-13 15:46:54 GMT 52.843735 -6.901474 36,000 205 423 0
2021-10-13 15:46:51 GMT 52.846008 -6.899649 36,000 205 423 0
2021-10-13 15:46:49 GMT 52.854900 -6.892822 36,000 205 424 0
2021-10-13 15:46:47 GMT 52.854900 -6.892822 36,000 205 424 0
2021-10-13 15:46:44 GMT 52.859344 -6.889420 36,000 205 424 0
2021-10-13 15:46:41 GMT 52.864304 -6.885603 36,000 205 424 0
2021-10-13 15:46:38 GMT 52.870354 -6.880973 36,000 205 424 0
2021-10-13 15:46:35 GMT 52.874588 -6.877747 36,000 205 424 0
2021-10-13 15:46:32 GMT 52.881714 -6.872262 36,000 205 424 0
2021-10-13 15:46:29 GMT 52.886833 -6.868260 36,000 205 424 0
2021-10-13 15:46:27 GMT 52.889511 -6.866226 36,000 205 424 0
2021-10-13 15:46:24 GMT 52.895737 -6.861420 36,000 205 424 0
2021-10-13 15:46:21 GMT 52.904430 -6.854762 36,000 205 424 0
2021-10-13 15:46:19 GMT 52.904430 -6.854762 36,000 205 424 0
2021-10-13 15:46:16 GMT 52.909969 -6.850446 36,000 205 425 0
2021-10-13 15:46:13 GMT 52.913509 -6.847778 36,000 206 425 0
2021-10-13 15:46:10 GMT 52.919746 -6.842913 36,000 205 425 0
2021-10-13 15:46:08 GMT 52.924911 -6.838989 36,000 205 425 0
2021-10-13 15:46:04 GMT 52.930965 -6.834281 36,000 205 425 0
2021-10-13 15:46:02 GMT 52.933434 -6.832397 36,000 206 425 0
2021-10-13 15:46:00 GMT 52.937347 -6.829376 36,000 206 425 0
2021-10-13 15:45:58 GMT 52.940742 -6.826747 36,000 206 425 0
2021-10-13 15:45:56 GMT 52.944466 -6.823922 36,000 206 425 0
2021-10-13 15:45:54 GMT 52.950531 -6.819229 36,000 206 425 0
2021-10-13 15:45:51 GMT 52.953552 -6.816940 36,000 206 425 0
2021-10-13 15:45:49 GMT 52.957672 -6.813736 36,000 206 425 0
2021-10-13 15:45:46 GMT 52.962482 -6.810032 36,000 206 425 0
2021-10-13 15:45:43 GMT 52.967648 -6.806030 36,000 206 425 0
2021-10-13 15:45:41 GMT 52.971371 -6.803205 36,000 206 425 0
2021-10-13 15:45:38 GMT 52.975983 -6.799595 36,000 206 425 0
2021-10-13 15:45:35 GMT 52.986832 -6.791229 36,000 206 425 0
2021-10-13 15:45:33 GMT 52.986832 -6.791229 36,000 206 425 0
2021-10-13 15:45:30 GMT 52.991112 -6.787903 36,000 206 425 0
2021-10-13 15:45:28 GMT 52.994137 -6.785549 36,000 205 425 0
2021-10-13 15:45:26 GMT 53.002518 -6.779114 36,000 205 425 0
2021-10-13 15:45:23 GMT 53.002518 -6.779114 36,000 205 425 0
2021-10-13 15:45:21 GMT 53.007156 -6.775589 36,000 205 425 0
2021-10-13 15:45:18 GMT 53.012329 -6.771622 36,000 205 425 0
2021-10-13 15:45:15 GMT 53.018921 -6.766586 36,000 205 425 0
2021-10-13 15:45:12 GMT 53.023560 -6.763027 36,000 205 425 0
2021-10-13 15:45:09 GMT 53.029266 -6.758652 36,000 205 425 0
2021-10-13 15:45:06 GMT 53.034592 -6.754551 36,000 205 425 0
2021-10-13 15:45:02 GMT 53.041031 -6.749649 36,000 205 425 0
2021-10-13 15:44:59 GMT 53.046368 -6.745527 36,000 205 425 0
2021-10-13 15:44:57 GMT 53.055771 -6.738281 36,000 205 425 0
2021-10-13 15:44:54 GMT 53.055771 -6.738281 36,000 205 425 0
2021-10-13 15:44:51 GMT 53.065201 -6.731033 36,000 205 424 0
2021-10-13 15:44:49 GMT 53.065201 -6.731033 36,000 205 424 0
2021-10-13 15:44:45 GMT 53.070576 -6.726929 36,000 205 424 0
2021-10-13 15:44:43 GMT 53.074623 -6.723790 36,000 205 424 0
2021-10-13 15:44:41 GMT 53.078201 -6.721039 36,000 205 424 0
2021-10-13 15:44:39 GMT 53.081562 -6.718454 36,000 205 424 0
2021-10-13 15:44:37 GMT 53.085846 -6.715164 36,000 205 424 0
2021-10-13 15:44:34 GMT 53.089554 -6.712265 36,000 205 424 0
2021-10-13 15:44:32 GMT 53.094727 -6.708298 36,000 205 424 0
2021-10-13 15:44:30 GMT 53.098274 -6.705538 36,000 205 424 0
2021-10-13 15:44:27 GMT 53.102558 -6.702226 36,000 205 424 0
2021-10-13 15:44:25 GMT 53.110519 -6.696089 36,000 205 424 0
2021-10-13 15:44:23 GMT 53.110519 -6.696089 36,000 205 424 0
2021-10-13 15:44:20 GMT 53.115509 -6.692243 36,000 205 424 0
2021-10-13 15:44:17 GMT 53.122063 -6.687119 36,000 205 424 0
2021-10-13 15:44:14 GMT 53.128464 -6.682199 36,000 205 424 0
2021-10-13 15:44:11 GMT 53.131840 -6.679526 36,000 205 424 0
2021-10-13 15:44:09 GMT 53.138580 -6.674351 36,000 205 424 0
2021-10-13 15:44:07 GMT 53.138580 -6.674351 36,000 205 424 0
2021-10-13 15:44:03 GMT 53.145897 -6.668701 36,000 205 424 0
2021-10-13 15:44:01 GMT 53.149620 -6.665793 36,000 205 424 0
2021-10-13 15:43:58 GMT 53.154922 -6.661717 36,000 205 424 0
2021-10-13 15:43:55 GMT 53.160236 -6.657553 36,000 205 423 0
2021-10-13 15:43:51 GMT 53.167374 -6.652065 36,000 205 424 0
2021-10-13 15:43:48 GMT 53.173038 -6.647698 36,000 205 423 0
2021-10-13 15:43:45 GMT 53.177647 -6.644063 36,000 205 423 0
2021-10-13 15:43:41 GMT 53.190216 -6.634288 36,000 205 423 0
2021-10-13 15:43:38 GMT 53.190216 -6.634288 36,000 205 423 0
2021-10-13 15:43:36 GMT 53.193939 -6.631380 36,000 206 424 0
2021-10-13 15:43:34 GMT 53.196453 -6.629441 36,000 206 424 0
2021-10-13 15:43:31 GMT 53.203716 -6.623786 36,000 206 423 0
2021-10-13 15:43:28 GMT 53.209534 -6.619263 36,000 206 423 0
2021-10-13 15:43:25 GMT 53.213425 -6.616202 36,000 206 423 0
2021-10-13 15:43:23 GMT 53.218006 -6.612558 36,000 206 423 0
2021-10-13 15:43:20 GMT 53.221710 -6.609689 36,000 206 423 0
2021-10-13 15:43:17 GMT 53.226837 -6.605608 36,000 206 423 0
2021-10-13 15:43:15 GMT 53.234814 -6.599390 36,000 206 423 0
2021-10-13 15:43:13 GMT 53.234814 -6.599390 36,000 206 423 0
2021-10-13 15:43:11 GMT 53.239235 -6.595917 36,000 206 423 0
2021-10-13 15:43:08 GMT 53.243656 -6.592443 36,000 206 423 0
2021-10-13 15:43:06 GMT 53.246449 -6.590262 36,000 206 423 0
2021-10-13 15:43:03 GMT 53.252838 -6.585205 36,000 206 423 0
2021-10-13 15:43:01 GMT 53.256546 -6.582302 36,000 206 422 0
2021-10-13 15:42:58 GMT 53.261112 -6.578710 36,000 206 422 0
2021-10-13 15:42:56 GMT 53.265350 -6.575317 36,000 206 422 0
2021-10-13 15:42:53 GMT 53.270279 -6.571394 36,000 206 423 0
2021-10-13 15:42:51 GMT 53.275593 -6.567239 36,000 206 423 0
2021-10-13 15:42:48 GMT 53.279129 -6.564412 36,000 206 423 0
2021-10-13 15:42:45 GMT 53.282806 -6.561504 36,000 206 422 0
2021-10-13 15:42:43 GMT 53.287228 -6.558030 36,000 206 422 0
2021-10-13 15:42:40 GMT 53.294266 -6.552403 36,000 206 422 0
2021-10-13 15:42:37 GMT 53.298355 -6.549225 36,000 206 423 0
2021-10-13 15:42:34 GMT 53.303650 -6.545027 36,000 206 423 0
2021-10-13 15:42:31 GMT 53.309296 -6.540581 36,000 206 423 0
2021-10-13 15:42:28 GMT 53.314041 -6.536865 36,000 206 423 0
2021-10-13 15:42:26 GMT 53.316513 -6.534903 36,000 206 423 0
2021-10-13 15:42:23 GMT 53.323425 -6.529489 36,000 206 422 0
2021-10-13 15:42:20 GMT 53.327133 -6.526585 36,000 206 422 0
2021-10-13 15:42:18 GMT 53.332947 -6.522034 36,000 206 422 0
2021-10-13 15:42:15 GMT 53.337551 -6.518447 36,000 206 421 0
2021-10-13 15:42:13 GMT 53.345886 -6.511984 36,000 206 422 0
2021-10-13 15:42:11 GMT 53.349934 -6.508753 36,000 206 423 0
2021-10-13 15:42:08 GMT 53.356129 -6.503906 36,000 206 423 0
2021-10-13 15:42:05 GMT 53.356129 -6.503906 36,000 206 423 0
2021-10-13 15:42:02 GMT 53.359497 -6.501317 36,000 206 423 0
2021-10-13 15:42:00 GMT 53.362473 -6.498962 36,000 206 423 0
2021-10-13 15:41:58 GMT 53.367065 -6.495343 36,000 206 423 0
2021-10-13 15:41:54 GMT 53.378540 -6.486328 36,000 206 423 0
2021-10-13 15:41:52 GMT 53.378540 -6.486328 36,000 206 423 0
2021-10-13 15:41:50 GMT 53.385269 -6.481045 36,000 206 423 0
2021-10-13 15:41:48 GMT 53.385269 -6.481045 36,000 206 423 0
2021-10-13 15:41:46 GMT 53.387924 -6.478952 36,000 206 422 0
2021-10-13 15:41:44 GMT 53.391266 -6.476362 36,000 206 422 0
2021-10-13 15:41:42 GMT 53.395138 -6.473290 36,000 206 422 0
2021-10-13 15:41:40 GMT 53.399559 -6.469816 36,000 206 422 0
2021-10-13 15:41:37 GMT 53.403099 -6.466989 36,000 206 422 0
2021-10-13 15:41:34 GMT 53.413147 -6.459019 36,000 206 422 0
2021-10-13 15:41:32 GMT 53.413147 -6.459019 36,000 206 422 0
2021-10-13 15:41:30 GMT 53.417389 -6.455680 36,000 206 422 0
2021-10-13 15:41:27 GMT 53.420555 -6.453175 36,000 206 422 0
2021-10-13 15:41:25 GMT 53.425323 -6.449445 36,000 206 422 0
2021-10-13 15:41:22 GMT 53.430611 -6.445259 36,000 206 422 0
2021-10-13 15:41:20 GMT 53.433079 -6.443320 36,000 206 422 0
2021-10-13 15:41:18 GMT 53.438004 -6.439401 36,000 206 422 0
2021-10-13 15:41:16 GMT 53.440475 -6.437439 36,000 206 422 0
2021-10-13 15:41:13 GMT 53.446289 -6.432809 36,000 206 422 0
2021-10-13 15:41:11 GMT 53.449093 -6.430637 36,000 206 422 0
2021-10-13 15:41:09 GMT 53.453884 -6.426840 36,000 206 422 0
2021-10-13 15:41:06 GMT 53.457596 -6.423941 36,000 206 422 0
2021-10-13 15:41:04 GMT 53.462872 -6.419812 36,000 206 422 0
2021-10-13 15:41:02 GMT 53.466751 -6.416722 36,000 206 422 0
2021-10-13 15:41:00 GMT 53.469910 -6.414211 36,000 206 422 0
2021-10-13 15:40:57 GMT 53.474350 -6.410758 36,000 206 422 0
2021-10-13 15:40:55 GMT 53.477005 -6.408639 36,000 206 422 0
2021-10-13 15:40:52 GMT 53.484051 -6.403091 36,000 206 422 0
2021-10-13 15:40:49 GMT 53.488953 -6.399144 36,000 206 422 0
2021-10-13 15:40:46 GMT 53.494247 -6.395012 36,000 206 422 0
2021-10-13 15:40:43 GMT 53.501835 -6.388954 36,000 206 422 0
2021-10-13 15:40:39 GMT 53.506954 -6.384915 36,000 206 422 0
2021-10-13 15:40:36 GMT 53.517334 -6.376700 36,000 206 422 0
2021-10-13 15:40:33 GMT 53.519291 -6.375140 36,000 206 422 0
2021-10-13 15:40:29 GMT 53.523880 -6.371521 36,000 206 422 0
2021-10-13 15:40:26 GMT 53.529861 -6.366819 36,000 206 422 0
2021-10-13 15:40:23 GMT 53.534981 -6.362780 36,000 206 422 0
2021-10-13 15:40:21 GMT 53.537064 -6.361084 36,000 206 422 0
2021-10-13 15:40:19 GMT 53.542892 -6.356479 36,000 206 422 0
2021-10-13 15:40:16 GMT 53.547455 -6.352844 36,000 206 422 0
2021-10-13 15:40:13 GMT 53.552017 -6.349209 36,000 206 422 0
2021-10-13 15:40:11 GMT 53.554672 -6.347109 36,000 206 421 0
2021-10-13 15:40:07 GMT 53.565937 -6.338223 36,000 206 421 0
2021-10-13 15:40:05 GMT 53.565937 -6.338223 36,000 206 421 0
2021-10-13 15:40:02 GMT 53.570686 -6.334426 36,000 206 421 0
2021-10-13 15:40:00 GMT 53.574738 -6.331185 36,000 206 421 0
2021-10-13 15:39:57 GMT 53.580044 -6.326994 36,000 206 421 0
2021-10-13 15:39:55 GMT 53.583893 -6.323966 36,000 206 421 0
2021-10-13 15:39:52 GMT 53.588470 -6.320289 36,000 206 421 0
2021-10-13 15:39:50 GMT 53.593735 -6.316119 36,000 206 421 0
2021-10-13 15:39:47 GMT 53.597443 -6.313215 36,000 206 421 0
2021-10-13 15:39:45 GMT 53.602341 -6.309222 36,000 206 421 0
2021-10-13 15:39:41 GMT 53.608337 -6.304504 36,000 206 421 0
2021-10-13 15:39:39 GMT 53.613605 -6.300336 36,000 206 421 0
2021-10-13 15:39:36 GMT 53.617287 -6.297347 36,000 206 421 0
2021-10-13 15:39:34 GMT 53.621895 -6.293712 36,000 206 421 0
2021-10-13 15:39:31 GMT 53.626465 -6.290065 36,000 206 421 0
2021-10-13 15:39:29 GMT 53.629948 -6.287330 36,000 206 421 0
2021-10-13 15:39:26 GMT 53.635765 -6.282645 36,000 206 421 0
2021-10-13 15:39:23 GMT 53.640141 -6.279171 36,000 206 421 0
2021-10-13 15:39:21 GMT 53.643681 -6.276344 36,000 206 421 0
2021-10-13 15:39:19 GMT 53.646835 -6.273821 36,000 206 421 0
2021-10-13 15:39:16 GMT 53.652649 -6.269270 36,000 206 421 64
2021-10-13 15:39:14 GMT 53.655270 -6.267135 36,000 206 421 0
2021-10-13 15:39:11 GMT 53.664276 -6.260010 36,000 206 421 0
2021-10-13 15:39:09 GMT 53.664276 -6.260010 36,000 206 421 0
2021-10-13 15:39:06 GMT 53.670410 -6.255066 36,000 206 421 0
2021-10-13 15:39:04 GMT 53.673065 -6.252947 36,000 206 421 0
2021-10-13 15:39:01 GMT 53.679012 -6.248232 36,000 206 421 0
2021-10-13 15:38:59 GMT 53.681671 -6.246120 36,000 206 421 0
2021-10-13 15:38:57 GMT 53.686600 -6.242173 36,000 206 421 0
2021-10-13 15:38:55 GMT 53.688324 -6.240800 36,000 206 421 0
2021-10-13 15:38:53 GMT 53.692886 -6.237095 36,000 206 421 0
2021-10-13 15:38:50 GMT 53.698193 -6.232883 36,000 206 421 0
2021-10-13 15:38:47 GMT 53.708714 -6.224482 36,000 206 421 0
2021-10-13 15:38:44 GMT 53.708714 -6.224482 36,000 206 421 0
2021-10-13 15:38:41 GMT 53.716599 -6.218105 36,000 206 421 0
2021-10-13 15:38:39 GMT 53.716599 -6.218105 36,000 206 421 0
2021-10-13 15:38:37 GMT 53.721516 -6.214142 36,000 206 422 0
2021-10-13 15:38:35 GMT 53.725750 -6.210749 36,000 206 422 0
2021-10-13 15:38:31 GMT 53.731888 -6.205784 36,000 206 422 0
2021-10-13 15:38:29 GMT 53.735046 -6.203273 36,000 206 422 0
2021-10-13 15:38:27 GMT 53.738754 -6.200291 36,000 206 422 0
2021-10-13 15:38:25 GMT 53.742966 -6.196917 36,000 206 422 0
2021-10-13 15:38:22 GMT 53.748421 -6.192492 36,000 206 422 0
2021-10-13 15:38:20 GMT 53.749969 -6.191267 36,000 206 422 64
2021-10-13 15:38:18 GMT 53.753498 -6.188453 36,000 206 422 0
2021-10-13 15:38:16 GMT 53.756660 -6.185868 36,000 206 422 0
2021-10-13 15:38:14 GMT 53.761230 -6.182164 36,000 206 422 0
2021-10-13 15:38:11 GMT 53.767044 -6.177534 36,000 206 422 0
2021-10-13 15:38:09 GMT 53.770706 -6.174552 36,000 206 422 0
2021-10-13 15:38:06 GMT 53.774773 -6.171247 36,000 206 422 0
2021-10-13 15:38:04 GMT 53.778992 -6.167882 36,000 206 423 0
2021-10-13 15:38:01 GMT 53.784824 -6.163169 36,000 206 423 0
2021-10-13 15:37:59 GMT 53.792908 -6.156660 36,000 206 423 0
2021-10-13 15:37:56 GMT 53.792908 -6.156660 36,000 206 423 0
2021-10-13 15:37:54 GMT 53.795563 -6.154541 36,000 206 423 0
2021-10-13 15:37:52 GMT 53.799088 -6.151716 36,000 206 423 0
2021-10-13 15:37:49 GMT 53.805405 -6.146615 36,000 206 423 0
2021-10-13 15:37:47 GMT 53.812134 -6.141200 36,000 206 423 0
2021-10-13 15:37:43 GMT 53.815796 -6.138218 36,000 206 423 0
2021-10-13 15:37:40 GMT 53.822163 -6.133118 36,000 206 424 0
2021-10-13 15:37:38 GMT 53.831005 -6.126009 36,000 206 424 0
2021-10-13 15:37:35 GMT 53.831005 -6.126009 36,000 206 424 -64
2021-10-13 15:37:32 GMT 53.834171 -6.123505 36,000 206 424 -64
2021-10-13 15:37:29 GMT 53.840195 -6.118679 36,000 206 424 -64
2021-10-13 15:37:27 GMT 53.845139 -6.114676 36,000 206 423 -192
2021-10-13 15:37:24 GMT 53.851116 -6.109853 36,025 206 423 0
2021-10-13 15:37:21 GMT 53.853584 -6.107914 36,025 206 423 64
2021-10-13 15:37:19 GMT 53.858139 -6.104161 35,975 206 422 576
2021-10-13 15:37:15 GMT 53.866058 -6.097816 35,950 206 422 704
2021-10-13 15:37:13 GMT 53.870296 -6.094423 35,925 206 422 704
2021-10-13 15:37:10 GMT 53.875046 -6.090546 35,900 206 422 704
2021-10-13 15:37:08 GMT 53.878025 -6.088122 35,875 206 422 704
2021-10-13 15:37:05 GMT 53.886108 -6.081639 35,850 206 422 704
2021-10-13 15:37:03 GMT 53.886108 -6.081639 35,800 206 422 704
2021-10-13 15:37:00 GMT 53.892456 -6.076490 35,775 206 422 704
2021-10-13 15:36:58 GMT 53.895950 -6.073635 35,750 206 422 704
2021-10-13 15:36:55 GMT 53.900742 -6.069866 35,725 206 422 704
2021-10-13 15:36:52 GMT 53.905491 -6.065988 35,675 206 422 704
2021-10-13 15:36:49 GMT 53.912155 -6.060608 35,650 206 422 704
2021-10-13 15:36:46 GMT 53.920433 -6.053951 35,625 206 422 704
2021-10-13 15:36:44 GMT 53.920433 -6.053951 35,600 206 422 768
2021-10-13 15:36:42 GMT 53.922855 -6.051932 35,575 206 422 768
2021-10-13 15:36:39 GMT 53.929001 -6.047004 35,525 206 422 768
2021-10-13 15:36:36 GMT 53.933422 -6.043450 35,525 206 422 768
2021-10-13 15:36:34 GMT 53.938339 -6.039420 35,450 206 422 768
2021-10-13 15:36:31 GMT 53.941498 -6.036909 35,275 206 422 768
2021-10-13 15:36:28 GMT 53.946945 -6.032436 35,400 206 422 768
2021-10-13 15:36:25 GMT 53.953953 -6.026809 35,350 206 422 832
2021-10-13 15:36:23 GMT 53.955906 -6.025193 35,325 206 422 832
2021-10-13 15:36:21 GMT 53.965027 -6.017840 35,300 206 422 832
2021-10-13 15:36:18 GMT 53.965027 -6.017840 35,275 206 422 896
2021-10-13 15:36:16 GMT 53.969055 -6.014544 35,250 206 422 896
2021-10-13 15:36:14 GMT 53.973270 -6.011137 35,175 206 422 832
2021-10-13 15:36:11 GMT 53.977295 -6.007795 35,125 206 422 832
2021-10-13 15:36:08 GMT 53.987137 -5.999791 35,100 206 422 832
2021-10-13 15:36:06 GMT 53.987137 -5.999791 35,075 206 422 832
2021-10-13 15:36:03 GMT 53.991703 -5.996112 35,025 206 427 1088
2021-10-13 15:36:01 GMT 53.996979 -5.991786 35,000 206 422 896
2021-10-13 15:35:58 GMT 53.999451 -5.989825 34,975 206 422 896
2021-10-13 15:35:56 GMT 54.003845 -5.986215 34,900 206 423 960
2021-10-13 15:35:54 GMT 54.007347 -5.983348 34,900 206 423 960
2021-10-13 15:35:52 GMT 54.011948 -5.979623 34,875 206 423 960
2021-10-13 15:35:49 GMT 54.017029 -5.975385 34,825 206 423 960
2021-10-13 15:35:46 GMT 54.022987 -5.970504 34,775 206 423 1024
2021-10-13 15:35:43 GMT 54.027409 -5.966869 34,675 206 424 1024
2021-10-13 15:35:40 GMT 54.037792 -5.958387 34,275 206 425 1024
2021-10-13 15:35:37 GMT 54.040787 -5.955924 34,575 206 424 1024
2021-10-13 15:35:33 GMT 54.044308 -5.953055 34,550 206 424 1024
2021-10-13 15:35:31 GMT 54.048035 -5.949985 34,525 206 424 1024
2021-10-13 15:35:28 GMT 54.053146 -5.945801 34,475 206 424 1024
2021-10-13 15:35:26 GMT 54.056854 -5.942740 34,425 206 425 1024
2021-10-13 15:35:24 GMT 54.064407 -5.936462 34,375 206 425 1024
2021-10-13 15:35:22 GMT 54.064407 -5.936462 34,375 206 425 1024
2021-10-13 15:35:19 GMT 54.069725 -5.932132 34,325 206 425 960
2021-10-13 15:35:16 GMT 54.074848 -5.927932 34,275 206 425 1024
2021-10-13 15:35:13 GMT 54.080341 -5.923408 34,200 206 425 1024
2021-10-13 15:35:11 GMT 54.082993 -5.921238 34,050 206 425 1088
2021-10-13 15:35:09 GMT 54.087387 -5.917550 34,150 206 425 1088
2021-10-13 15:35:06 GMT 54.092880 -5.913077 34,100 206 425 1024
2021-10-13 15:35:04 GMT 54.098007 -5.908840 34,050 206 426 1024
2021-10-13 15:35:01 GMT 54.101212 -5.906172 34,000 206 426 1024
2021-10-13 15:34:58 GMT 54.106876 -5.901516 33,950 206 426 1024
2021-10-13 15:34:56 GMT 54.110733 -5.898246 33,925 206 426 1024
2021-10-13 15:34:54 GMT 54.113392 -5.896104 33,900 206 426 1024
2021-10-13 15:34:52 GMT 54.124557 -5.886867 33,825 206 426 1088
2021-10-13 15:34:49 GMT 54.124557 -5.886867 33,775 206 426 1088
2021-10-13 15:34:46 GMT 54.128101 -5.883906 33,725 206 426 1088
2021-10-13 15:34:44 GMT 54.132572 -5.880271 33,700 206 427 1088
2021-10-13 15:34:41 GMT 54.136108 -5.877362 33,625 206 427 1088
2021-10-13 15:34:39 GMT 54.140533 -5.873646 33,625 206 427 1088
2021-10-13 15:34:36 GMT 54.146027 -5.869123 33,550 206 427 1088
2021-10-13 15:34:34 GMT 54.149422 -5.866376 33,525 206 428 1088
2021-10-13 15:34:31 GMT 54.154919 -5.861852 33,450 206 428 1088
2021-10-13 15:34:28 GMT 54.159573 -5.858056 33,400 206 428 1152
2021-10-13 15:34:26 GMT 54.162415 -5.855713 33,400 206 428 1152
2021-10-13 15:34:24 GMT 54.167393 -5.851593 33,350 206 428 1152
2021-10-13 15:34:21 GMT 54.174179 -5.846061 33,275 206 429 1152
2021-10-13 15:34:18 GMT 54.177246 -5.843628 33,225 206 429 1088
2021-10-13 15:34:16 GMT 54.181549 -5.840097 33,200 206 429 1088
2021-10-13 15:34:14 GMT 54.185127 -5.837214 33,150 206 429 1152
2021-10-13 15:34:11 GMT 54.190109 -5.833191 33,075 206 430 1216
2021-10-13 15:34:09 GMT 54.193359 -5.830523 33,025 206 430 1280
2021-10-13 15:34:06 GMT 54.199978 -5.825177 32,975 206 431 1280
2021-10-13 15:34:04 GMT 54.202698 -5.822989 32,950 206 431 1280
2021-10-13 15:34:01 GMT 54.208969 -5.817967 32,875 206 431 1216
2021-10-13 15:33:58 GMT 54.213291 -5.814433 32,825 206 431 1280
2021-10-13 15:33:55 GMT 54.222649 -5.806840 32,750 206 432 1280
2021-10-13 15:33:53 GMT 54.222649 -5.806840 32,725 206 432 1280
2021-10-13 15:33:50 GMT 54.228241 -5.802351 32,675 206 432 1216
2021-10-13 15:33:47 GMT 54.232937 -5.798519 32,600 206 432 1216
2021-10-13 15:33:45 GMT 54.240097 -5.792620 32,525 207 432 1216
2021-10-13 15:33:43 GMT 54.240097 -5.792620 32,500 207 432 1216
2021-10-13 15:33:40 GMT 54.251221 -5.783282 32,400 207 432 1216
2021-10-13 15:33:37 GMT 54.251221 -5.783282 32,400 207 432 1216
2021-10-13 15:33:35 GMT 54.257812 -5.777631 32,325 207 433 1216
2021-10-13 15:33:33 GMT 54.257812 -5.777631 32,275 207 433 1216
2021-10-13 15:33:31 GMT 54.263199 -5.773073 32,225 207 432 1280
2021-10-13 15:33:28 GMT 54.267471 -5.769392 32,200 207 433 1472
2021-10-13 15:33:25 GMT 54.276398 -5.761623 32,075 207 433 1472
2021-10-13 15:33:23 GMT 54.276398 -5.761623 32,075 207 434 1472
2021-10-13 15:33:20 GMT 54.280842 -5.757751 32,000 207 434 1408
2021-10-13 15:33:17 GMT 54.286381 -5.753007 31,950 207 434 1344
2021-10-13 15:33:15 GMT 54.290314 -5.749566 31,900 207 435 1344
2021-10-13 15:33:13 GMT 54.293877 -5.746432 31,875 207 435 1344
2021-10-13 15:33:10 GMT 54.298203 -5.742687 31,800 207 435 1280
2021-10-13 15:33:07 GMT 54.304443 -5.737277 31,725 208 435 1280
2021-10-13 15:33:05 GMT 54.307140 -5.734947 31,650 208 435 1280
2021-10-13 15:33:03 GMT 54.312515 -5.730259 31,650 208 435 1280
2021-10-13 15:33:00 GMT 54.317524 -5.725874 31,575 208 435 1216
2021-10-13 15:32:57 GMT 54.321625 -5.722261 31,500 208 435 1280
2021-10-13 15:32:55 GMT 54.326111 -5.718384 31,475 207 436 1280
2021-10-13 15:32:52 GMT 54.331863 -5.713390 31,400 207 436 1344
2021-10-13 15:32:50 GMT 54.334900 -5.710710 31,375 207 436 1344
2021-10-13 15:32:47 GMT 54.340668 -5.705782 31,300 207 436 1280
2021-10-13 15:32:45 GMT 54.344059 -5.702820 31,275 207 436 1280
2021-10-13 15:32:42 GMT 54.349457 -5.698108 31,200 207 436 1280
2021-10-13 15:32:40 GMT 54.353416 -5.694663 31,100 207 436 1280
2021-10-13 15:32:37 GMT 54.359528 -5.689383 31,075 208 436 1280
2021-10-13 15:32:35 GMT 54.363464 -5.685909 31,025 208 436 1344
2021-10-13 15:32:32 GMT 54.367950 -5.681951 30,975 208 436 1344
2021-10-13 15:32:30 GMT 54.372437 -5.678074 30,900 208 436 1344
2021-10-13 15:32:27 GMT 54.376190 -5.674762 30,850 208 436 1344
2021-10-13 15:32:25 GMT 54.379807 -5.671611 30,800 208 436 1408
2021-10-13 15:32:22 GMT 54.386444 -5.665795 30,725 208 436 1408
2021-10-13 15:32:20 GMT 54.389305 -5.663202 30,700 208 437 1408
2021-10-13 15:32:17 GMT 54.395416 -5.657878 30,625 208 437 1408
2021-10-13 15:32:15 GMT 54.397934 -5.655697 30,575 208 437 1408
2021-10-13 15:32:13 GMT 54.407089 -5.647638 30,450 208 439 1472
2021-10-13 15:32:10 GMT 54.407089 -5.647638 30,425 208 437 1408
2021-10-13 15:32:07 GMT 54.412170 -5.643257 30,400 208 437 1472
2021-10-13 15:32:05 GMT 54.415741 -5.640106 30,325 208 439 1472
2021-10-13 15:32:03 GMT 54.426411 -5.630743 30,250 208 439 1472
2021-10-13 15:31:59 GMT 54.426411 -5.630743 30,075 208 440 1664
2021-10-13 15:31:56 GMT 54.432541 -5.625404 30,125 208 439 1472
2021-10-13 15:31:54 GMT 54.435242 -5.622980 30,075 208 439 1536
2021-10-13 15:31:52 GMT 54.439728 -5.619022 30,025 208 439 1536
2021-10-13 15:31:50 GMT 54.443539 -5.615678 29,950 208 440 1600
2021-10-13 15:31:47 GMT 54.448753 -5.611101 29,875 208 440 1664
2021-10-13 15:31:45 GMT 54.452408 -5.607874 29,850 208 440 1664
2021-10-13 15:31:43 GMT 54.456940 -5.603916 29,750 208 441 1728
2021-10-13 15:31:40 GMT 54.461651 -5.599781 29,675 208 441 1728
2021-10-13 15:31:38 GMT 54.464355 -5.597373 29,525 208 442 1792
2021-10-13 15:31:35 GMT 54.470913 -5.591625 29,525 208 442 1792
2021-10-13 15:31:33 GMT 54.474518 -5.588487 29,450 208 443 1792
2021-10-13 15:31:30 GMT 54.479992 -5.583718 29,375 208 444 1792
2021-10-13 15:31:28 GMT 54.481808 -5.582053 29,350 208 444 1792
2021-10-13 15:31:26 GMT 54.487289 -5.577258 29,200 208 444 1792
2021-10-13 15:31:23 GMT 54.492233 -5.572977 29,175 207 445 1792
2021-10-13 15:31:20 GMT 54.497540 -5.568321 29,100 208 445 1792
2021-10-13 15:31:18 GMT 54.502850 -5.563660 29,000 208 446 1792
2021-10-13 15:31:15 GMT 54.514252 -5.553672 28,900 207 447 1664
2021-10-13 15:31:12 GMT 54.514252 -5.553672 28,825 207 447 1408
2021-10-13 15:31:09 GMT 54.516998 -5.551258 28,800 207 447 1408
2021-10-13 15:31:07 GMT 54.521980 -5.546930 28,750 207 447 1216
2021-10-13 15:31:05 GMT 54.526031 -5.543352 28,700 208 446 1152
2021-10-13 15:31:03 GMT 54.529522 -5.540355 28,675 208 446 1088
2021-10-13 15:31:01 GMT 54.534271 -5.536111 28,600 208 446 1088
2021-10-13 15:30:58 GMT 54.538136 -5.532698 28,575 208 446 1152
2021-10-13 15:30:56 GMT 54.545105 -5.526608 28,525 208 445 1216
2021-10-13 15:30:54 GMT 54.545105 -5.526608 28,500 208 445 1216
2021-10-13 15:30:52 GMT 54.552612 -5.519984 28,450 208 445 1152
2021-10-13 15:30:50 GMT 54.556618 -5.516468 28,425 208 445 1152
2021-10-13 15:30:48 GMT 54.556618 -5.516468 28,375 208 445 1088
2021-10-13 15:30:46 GMT 54.560478 -5.513056 28,350 208 445 1088
2021-10-13 15:30:44 GMT 54.563786 -5.510143 28,325 208 444 1088
2021-10-13 15:30:42 GMT 54.567230 -5.507063 28,275 208 444 1152
2021-10-13 15:30:40 GMT 54.571976 -5.502858 28,225 208 444 1152
2021-10-13 15:30:38 GMT 54.579239 -5.496410 28,150 208 443 1152
2021-10-13 15:30:35 GMT 54.579239 -5.496410 28,150 208 443 1152
2021-10-13 15:30:33 GMT 54.584702 -5.491548 28,100 208 442 1024
2021-10-13 15:30:31 GMT 54.587631 -5.488963 28,025 208 442 960
2021-10-13 15:30:28 GMT 54.593262 -5.483874 28,025 208 442 960
2021-10-13 15:30:26 GMT 54.597584 -5.480014 27,975 208 441 1024
2021-10-13 15:30:22 GMT 54.609127 -5.469610 27,850 208 440 1088
2021-10-13 15:30:19 GMT 54.609127 -5.469610 27,850 208 440 1088
2021-10-13 15:30:17 GMT 54.611641 -5.467280 27,825 208 440 1088
2021-10-13 15:30:15 GMT 54.615601 -5.463679 27,800 208 439 1024
2021-10-13 15:30:13 GMT 54.620819 -5.458993 27,025 208 427 832
2021-10-13 15:30:10 GMT 54.625671 -5.454550 27,700 208 439 960
2021-10-13 15:30:08 GMT 54.629425 -5.451077 27,675 209 438 960
2021-10-13 15:30:06 GMT 54.633007 -5.447804 27,625 209 438 1088
2021-10-13 15:30:04 GMT 54.635475 -5.445557 27,625 209 438 1088
2021-10-13 15:30:02 GMT 54.640316 -5.441145 27,575 209 437 1088
2021-10-13 15:29:59 GMT 54.646362 -5.435567 27,525 209 437 960
2021-10-13 15:29:56 GMT 54.650604 -5.431657 27,475 209 435 832
2021-10-13 15:29:54 GMT 54.653118 -5.429327 27,425 209 435 768
2021-10-13 15:29:52 GMT 54.663208 -5.420057 27,400 209 434 832
2021-10-13 15:29:49 GMT 54.665874 -5.417591 27,375 208 432 832
2021-10-13 15:29:47 GMT 54.665874 -5.417591 27,325 208 432 832
2021-10-13 15:29:44 GMT 54.670441 -5.413352 27,300 208 432 832
2021-10-13 15:29:42 GMT 54.676254 -5.408020 27,275 208 431 832
2021-10-13 15:29:39 GMT 54.686638 -5.398532 27,225 208 431 896
2021-10-13 15:29:36 GMT 54.690170 -5.395337 27,175 208 429 960
2021-10-13 15:29:34 GMT 54.690170 -5.395337 27,150 208 429 960
2021-10-13 15:29:31 GMT 54.695251 -5.390733 27,100 208 428 896
2021-10-13 15:29:28 GMT 54.700653 -5.385724 27,050 208 427 832
2021-10-13 15:29:25 GMT 54.704327 -5.382385 27,050 208 427 832
2021-10-13 15:29:23 GMT 54.708004 -5.379056 26,750 208 425 1280
2021-10-13 15:29:21 GMT 54.709724 -5.377475 26,975 208 425 1024
2021-10-13 15:29:19 GMT 54.715485 -5.372314 26,900 208 425 1280
2021-10-13 15:29:16 GMT 54.719650 -5.368518 26,875 208 425 1280
2021-10-13 15:29:14 GMT 54.723312 -5.365206 26,800 208 425 1280
2021-10-13 15:29:12 GMT 54.731827 -5.357451 26,750 208 424 1216
2021-10-13 15:29:09 GMT 54.736313 -5.353412 26,700 208 424 1280
2021-10-13 15:29:07 GMT 54.736313 -5.353412 26,625 208 423 1344
2021-10-13 15:29:04 GMT 54.740845 -5.349292 26,550 208 423 1344
2021-10-13 15:29:01 GMT 54.747070 -5.343637 26,525 208 423 1408
2021-10-13 15:28:58 GMT 54.751389 -5.339688 26,425 208 423 1408
2021-10-13 15:28:56 GMT 54.758148 -5.333620 26,375 208 423 1408
2021-10-13 15:28:54 GMT 54.758148 -5.333620 26,350 208 423 1408
2021-10-13 15:28:52 GMT 54.761772 -5.330283 26,275 208 423 1408
2021-10-13 15:28:49 GMT 54.766800 -5.325789 26,250 208 423 1472
2021-10-13 15:28:47 GMT 54.772480 -5.320629 26,150 208 422 1472
2021-10-13 15:28:44 GMT 54.775784 -5.317633 26,125 208 421 1472
2021-10-13 15:28:42 GMT 54.784058 -5.310193 26,025 208 421 1536
2021-10-13 15:28:39 GMT 54.784058 -5.310193 26,000 208 421 1536
2021-10-13 15:28:37 GMT 54.789238 -5.305481 25,925 208 421 1536
2021-10-13 15:28:34 GMT 54.795101 -5.300237 25,850 208 421 1536
2021-10-13 15:28:31 GMT 54.799438 -5.296299 25,775 208 420 1408
2021-10-13 15:28:28 GMT 54.803741 -5.292421 25,725 208 420 1408
2021-10-13 15:28:26 GMT 54.806305 -5.290079 25,650 208 420 1408
2021-10-13 15:28:24 GMT 54.810608 -5.286201 25,525 208 420 1536
2021-10-13 15:28:22 GMT 54.813538 -5.283592 25,575 208 420 1536
2021-10-13 15:28:19 GMT 54.818520 -5.279097 25,500 208 420 1600
2021-10-13 15:28:17 GMT 54.822144 -5.275780 25,450 208 420 1600
2021-10-13 15:28:14 GMT 54.828480 -5.270025 25,375 208 420 1600
2021-10-13 15:28:12 GMT 54.831757 -5.267056 25,250 208 419 1600
2021-10-13 15:28:09 GMT 54.839264 -5.260189 25,175 208 419 1600
2021-10-13 15:28:07 GMT 54.839264 -5.260189 25,075 208 419 1664
2021-10-13 15:28:04 GMT 54.844074 -5.255876 25,075 208 419 1728
2021-10-13 15:28:02 GMT 54.853317 -5.247426 25,000 208 419 1728
2021-10-13 15:27:59 GMT 54.853317 -5.247426 24,950 208 419 1728
2021-10-13 15:27:56 GMT 54.861877 -5.239671 24,850 208 419 1728
2021-10-13 15:27:52 GMT 54.870609 -5.231656 24,700 208 419 1792
2021-10-13 15:27:49 GMT 54.870609 -5.231656 24,625 208 419 1792
2021-10-13 15:27:47 GMT 54.879181 -5.223837 24,550 208 419 1792
2021-10-13 15:27:44 GMT 54.879181 -5.223837 24,500 208 419 1792
2021-10-13 15:27:42 GMT 54.882431 -5.220929 24,450 208 419 1728
2021-10-13 15:27:39 GMT 54.890118 -5.213845 24,325 208 419 1664
2021-10-13 15:27:34 GMT 54.895050 -5.209351 24,250 208 418 1664
2021-10-13 15:27:32 GMT 54.899845 -5.204939 24,150 208 417 1664
2021-10-13 15:27:29 GMT 54.904827 -5.200445 24,075 208 417 1728
2021-10-13 15:27:26 GMT 54.910088 -5.195618 23,975 208 417 1728
2021-10-13 15:27:24 GMT 54.912506 -5.193463 23,950 208 417 1792
2021-10-13 15:27:22 GMT 54.916744 -5.189542 23,875 208 416 1792
2021-10-13 15:27:19 GMT 54.921524 -5.185224 23,750 208 417 1792
2021-10-13 15:27:17 GMT 54.926659 -5.180553 23,700 208 417 1728
2021-10-13 15:27:14 GMT 54.929214 -5.178196 23,650 208 416 1664
2021-10-13 15:27:12 GMT 54.938717 -5.169484 23,550 208 416 1664
2021-10-13 15:27:09 GMT 54.938717 -5.169484 23,475 208 416 1664
2021-10-13 15:27:07 GMT 54.944164 -5.164490 23,325 208 416 1728
2021-10-13 15:27:04 GMT 54.947048 -5.161826 23,300 208 415 1728
2021-10-13 15:27:01 GMT 54.952309 -5.156999 23,275 208 415 1728
2021-10-13 15:26:58 GMT 54.956863 -5.152830 23,200 208 415 1728
2021-10-13 15:26:55 GMT 54.962460 -5.147677 23,100 209 414 1728
2021-10-13 15:26:53 GMT 54.965652 -5.144671 23,050 209 413 1728
2021-10-13 15:26:51 GMT 54.969864 -5.140794 22,600 209 412 1728
2021-10-13 15:26:48 GMT 54.975128 -5.135947 22,625 209 413 1856
2021-10-13 15:26:45 GMT 54.979496 -5.131864 22,800 209 413 1856
2021-10-13 15:26:43 GMT 54.982361 -5.129242 22,700 208 413 1792
2021-10-13 15:26:41 GMT 54.986572 -5.125364 22,625 209 412 1728
2021-10-13 15:26:38 GMT 54.991276 -5.120961 22,525 209 412 1664
2021-10-13 15:26:35 GMT 54.999481 -5.113328 22,500 209 412 1728
2021-10-13 15:26:33 GMT 54.999481 -5.113328 22,450 208 412 1728
2021-10-13 15:26:31 GMT 55.002502 -5.110581 22,350 208 411 1792
2021-10-13 15:26:28 GMT 55.012733 -5.101069 22,250 208 411 1728
2021-10-13 15:26:25 GMT 55.016273 -5.097823 22,175 208 409 1664
2021-10-13 15:26:23 GMT 55.016273 -5.097823 22,150 208 409 1664
2021-10-13 15:26:21 GMT 55.019764 -5.094577 22,075 208 409 1728
2021-10-13 15:26:18 GMT 55.023972 -5.090709 22,025 208 409 1728
2021-10-13 15:26:16 GMT 55.031822 -5.083507 21,950 208 409 1856
2021-10-13 15:26:14 GMT 55.031822 -5.083507 21,900 208 408 1920
2021-10-13 15:26:11 GMT 55.036663 -5.079013 21,750 207 408 1856
2021-10-13 15:26:08 GMT 55.041687 -5.074553 21,500 205 408 1600
2021-10-13 15:26:05 GMT 55.046436 -5.070440 21,625 204 407 1600
2021-10-13 15:26:03 GMT 55.050064 -5.067605 21,575 202 408 1664
2021-10-13 15:26:01 GMT 55.053360 -5.065182 21,475 201 410 1984
2021-10-13 15:25:58 GMT 55.057800 -5.062274 21,375 201 408 1664
2021-10-13 15:25:55 GMT 55.064548 -5.057872 21,300 201 410 1856
2021-10-13 15:25:53 GMT 55.067715 -5.055875 21,250 201 409 1728
2021-10-13 15:25:51 GMT 55.071991 -5.053145 21,150 201 408 1664
2021-10-13 15:25:48 GMT 55.075516 -5.050803 21,100 201 408 1664
2021-10-13 15:25:46 GMT 55.080688 -5.047572 21,050 201 407 1728
2021-10-13 15:25:43 GMT 55.088791 -5.042321 20,850 201 406 1856
2021-10-13 15:25:41 GMT 55.088791 -5.042321 20,850 201 406 1920
2021-10-13 15:25:38 GMT 55.094055 -5.039009 20,800 201 405 1856
2021-10-13 15:25:35 GMT 55.097763 -5.036585 20,750 201 405 1792
2021-10-13 15:25:33 GMT 55.106049 -5.031334 20,575 201 403 1792
2021-10-13 15:25:31 GMT 55.106049 -5.031334 20,600 201 403 1792
2021-10-13 15:25:28 GMT 55.112000 -5.027538 20,500 201 403 1792
2021-10-13 15:25:25 GMT 55.117081 -5.024306 20,425 201 402 1920
2021-10-13 15:25:23 GMT 55.120548 -5.022000 20,400 201 402 1920
2021-10-13 15:25:21 GMT 55.124413 -5.019587 20,225 201 401 1984
2021-10-13 15:25:18 GMT 55.129990 -5.015986 20,175 201 401 1984
2021-10-13 15:25:15 GMT 55.138687 -5.010412 20,050 201 400 2048
2021-10-13 15:25:13 GMT 55.138687 -5.010412 20,000 201 400 2048
2021-10-13 15:25:11 GMT 55.146294 -5.005521 19,875 201 400 2112
2021-10-13 15:25:08 GMT 55.146294 -5.005521 19,800 201 400 2176
2021-10-13 15:25:06 GMT 55.149597 -5.003357 19,675 201 399 2176
2021-10-13 15:25:03 GMT 55.155167 -4.999829 19,675 201 399 2112
2021-10-13 15:25:01 GMT 55.158279 -4.997810 19,575 201 399 2048
2021-10-13 15:24:58 GMT 55.164825 -4.993609 19,475 201 398 1920
2021-10-13 15:24:55 GMT 55.168125 -4.991455 19,325 201 397 1984
2021-10-13 15:24:53 GMT 55.172974 -4.988358 19,325 201 397 1984
2021-10-13 15:24:50 GMT 55.176590 -4.986016 19,250 201 397 2240
2021-10-13 15:24:48 GMT 55.180508 -4.983465 19,175 201 397 2368
2021-10-13 15:24:45 GMT 55.185535 -4.980302 19,050 201 397 2368
2021-10-13 15:24:43 GMT 55.194473 -4.974559 18,825 201 397 2304
2021-10-13 15:24:41 GMT 55.194473 -4.974559 18,825 201 397 2240
2021-10-13 15:24:38 GMT 55.197739 -4.972444 18,800 201 397 2048
2021-10-13 15:24:36 GMT 55.202900 -4.969066 18,675 201 397 1664
2021-10-13 15:24:33 GMT 55.207718 -4.965982 18,625 201 397 1344
2021-10-13 15:24:30 GMT 55.217144 -4.959911 18,550 201 396 1088
2021-10-13 15:24:27 GMT 55.217144 -4.959911 18,525 201 396 1024
2021-10-13 15:24:24 GMT 55.221634 -4.957015 18,475 201 396 960
2021-10-13 15:24:22 GMT 55.225758 -4.954335 18,450 201 395 960
2021-10-13 15:24:20 GMT 55.229874 -4.951683 18,425 201 395 960
2021-10-13 15:24:18 GMT 55.232574 -4.949906 18,350 201 395 960
2021-10-13 15:24:15 GMT 55.237747 -4.946594 18,325 201 394 960
2021-10-13 15:24:13 GMT 55.240654 -4.944680 18,325 201 394 960
2021-10-13 15:24:11 GMT 55.244751 -4.942070 18,250 201 394 960
2021-10-13 15:24:09 GMT 55.247452 -4.940293 18,225 201 393 960
2021-10-13 15:24:06 GMT 55.252441 -4.937062 18,150 201 392 1088
2021-10-13 15:24:03 GMT 55.262283 -4.930680 18,100 201 391 1280
2021-10-13 15:24:01 GMT 55.262283 -4.930680 18,075 201 390 1472
2021-10-13 15:23:59 GMT 55.264999 -4.928950 18,025 201 390 1664
2021-10-13 15:23:56 GMT 55.269882 -4.925753 17,875 201 389 2048
2021-10-13 15:23:53 GMT 55.274780 -4.922602 17,850 201 389 2048
2021-10-13 15:23:51 GMT 55.279358 -4.919694 17,750 201 388 1984
2021-10-13 15:23:49 GMT 55.282040 -4.917880 17,675 201 388 2048
2021-10-13 15:23:46 GMT 55.287415 -4.914443 17,575 201 386 2112
2021-10-13 15:23:44 GMT 55.289906 -4.912803 17,550 201 386 2112
2021-10-13 15:23:42 GMT 55.292606 -4.911055 17,475 201 386 2176
2021-10-13 15:23:40 GMT 55.297623 -4.907819 17,400 201 386 2240
2021-10-13 15:23:37 GMT 55.301788 -4.905072 17,250 201 385 2304
2021-10-13 15:23:34 GMT 55.306480 -4.902066 17,150 201 385 2304
2021-10-13 15:23:32 GMT 55.309971 -4.899736 17,125 201 385 2304
2021-10-13 15:23:30 GMT 55.313141 -4.897721 16,725 201 384 2240
2021-10-13 15:23:27 GMT 55.318817 -4.894005 16,800 201 381 2240
2021-10-13 15:23:24 GMT 55.323608 -4.890914 16,800 201 383 2240
2021-10-13 15:23:22 GMT 55.326122 -4.889249 16,650 201 382 2176
2021-10-13 15:23:20 GMT 55.331406 -4.885846 16,550 201 381 2240
2021-10-13 15:23:17 GMT 55.335251 -4.883340 16,450 201 380 2304
2021-10-13 15:23:14 GMT 55.340042 -4.880177 16,400 201 380 2368
2021-10-13 15:23:12 GMT 55.342838 -4.878346 16,325 201 380 2368
2021-10-13 15:23:10 GMT 55.351868 -4.872437 16,175 201 379 2496
2021-10-13 15:23:07 GMT 55.351868 -4.872437 16,050 201 379 2496
2021-10-13 15:23:04 GMT 55.356987 -4.869107 15,975 201 379 2432
2021-10-13 15:23:02 GMT 55.359924 -4.867186 15,925 201 379 2432
2021-10-13 15:22:59 GMT 55.365372 -4.863712 15,775 201 378 2496
2021-10-13 15:22:57 GMT 55.367836 -4.862116 15,675 201 378 2496
2021-10-13 15:22:54 GMT 55.372879 -4.858784 15,575 201 378 2496
2021-10-13 15:22:52 GMT 55.376816 -4.856199 15,525 201 378 2496
2021-10-13 15:22:49 GMT 55.381893 -4.852961 15,350 201 377 2432
2021-10-13 15:22:47 GMT 55.384174 -4.851463 15,275 201 377 2496
2021-10-13 15:22:44 GMT 55.389900 -4.847717 15,150 201 377 2496
2021-10-13 15:22:42 GMT 55.392380 -4.846102 14,975 201 377 2496
2021-10-13 15:22:40 GMT 55.395626 -4.843972 15,000 201 377 2496
2021-10-13 15:22:37 GMT 55.400700 -4.840726 14,875 201 376 2368
2021-10-13 15:22:34 GMT 55.406055 -4.837230 14,750 201 375 2432
2021-10-13 15:22:32 GMT 55.409172 -4.835233 14,650 201 372 2752
2021-10-13 15:22:30 GMT 55.411926 -4.833419 14,600 201 375 2432
2021-10-13 15:22:27 GMT 55.417133 -4.830073 14,325 201 374 2624
2021-10-13 15:22:24 GMT 55.421997 -4.826876 14,325 201 374 2624
2021-10-13 15:22:22 GMT 55.425385 -4.824614 14,250 201 374 2624
2021-10-13 15:22:19 GMT 55.429611 -4.821916 14,125 201 374 2624
2021-10-13 15:22:17 GMT 55.433487 -4.819363 14,075 201 373 2624
2021-10-13 15:22:14 GMT 55.438686 -4.816007 13,875 201 373 2624
2021-10-13 15:22:12 GMT 55.441898 -4.813843 13,800 201 373 2688
2021-10-13 15:22:09 GMT 55.445297 -4.811668 13,700 201 373 2688
2021-10-13 15:22:07 GMT 55.449303 -4.809008 13,425 201 372 2752
2021-10-13 15:22:04 GMT 55.457565 -4.803689 13,400 201 372 2752
2021-10-13 15:22:02 GMT 55.460449 -4.801774 13,300 201 372 2752
2021-10-13 15:22:00 GMT 55.460449 -4.801774 13,275 201 372 2752
2021-10-13 15:21:57 GMT 55.465267 -4.798622 13,125 201 372 2752
2021-10-13 15:21:55 GMT 55.467690 -4.796991 12,950 201 371 2624
2021-10-13 15:21:52 GMT 55.474136 -4.792786 12,900 201 370 2560
2021-10-13 15:21:49 GMT 55.477478 -4.790622 12,800 201 369 2496
2021-10-13 15:21:47 GMT 55.480865 -4.788408 12,700 201 369 2496
2021-10-13 15:21:44 GMT 55.486954 -4.784463 12,550 201 367 2432
2021-10-13 15:21:42 GMT 55.490128 -4.782400 12,475 201 366 2368
2021-10-13 15:21:40 GMT 55.493317 -4.780301 12,400 201 366 2432
2021-10-13 15:21:36 GMT 55.498878 -4.776649 12,250 201 365 2560
2021-10-13 15:21:33 GMT 55.504715 -4.772894 12,100 201 364 2624
2021-10-13 15:21:31 GMT 55.512287 -4.767895 11,875 201 363 2688
2021-10-13 15:21:28 GMT 55.512287 -4.767895 11,875 201 363 2688
2021-10-13 15:21:26 GMT 55.514477 -4.766436 11,750 201 362 2752
2021-10-13 15:21:23 GMT 55.522995 -4.760857 11,600 201 362 2880
2021-10-13 15:21:21 GMT 55.528290 -4.757413 11,525 201 361 2688
2021-10-13 15:21:18 GMT 55.528290 -4.757413 11,400 201 360 2304
2021-10-13 15:21:14 GMT 55.535339 -4.752752 11,125 201 359 2048
2021-10-13 15:21:11 GMT 55.538448 -4.750729 11,175 201 358 1664
2021-10-13 15:21:06 GMT 55.546829 -4.745235 11,050 201 351 832
2021-10-13 15:21:03 GMT 55.549900 -4.743176 11,000 201 348 832
2021-10-13 15:21:01 GMT 55.553833 -4.740601 11,000 201 348 832
2021-10-13 15:20:58 GMT 55.562099 -4.735193 10,900 201 342 960
2021-10-13 15:20:55 GMT 55.562099 -4.735193 10,900 201 340 960
2021-10-13 15:20:52 GMT 55.567825 -4.731417 10,825 201 335 960
2021-10-13 15:20:49 GMT 55.572784 -4.728199 10,800 201 332 960
2021-10-13 15:20:46 GMT 55.575924 -4.726095 10,725 201 327 960
2021-10-13 15:20:43 GMT 55.581070 -4.722706 10,700 201 323 960
2021-10-13 15:20:40 GMT 55.583744 -4.720945 10,700 201 323 960
2021-10-13 15:20:37 GMT 55.588352 -4.717855 10,575 201 316 1152
2021-10-13 15:20:34 GMT 55.592468 -4.715132 10,500 201 313 1152
2021-10-13 15:20:31 GMT 55.597229 -4.711970 10,500 201 310 1088
2021-10-13 15:20:28 GMT 55.600456 -4.709787 10,425 201 303 704
2021-10-13 15:20:25 GMT 55.604321 -4.707212 10,425 201 304 704
2021-10-13 15:20:22 GMT 55.608810 -4.704312 10,350 201 297 1088
2021-10-13 15:20:19 GMT 55.617168 -4.698801 10,275 201 293 1984
2021-10-13 15:20:16 GMT 55.617168 -4.698801 10,200 201 293 2176
2021-10-13 15:20:13 GMT 55.619980 -4.696988 10,125 201 293 2176
2021-10-13 15:20:10 GMT 55.623642 -4.694491 10,025 201 291 2048
2021-10-13 15:20:07 GMT 55.628716 -4.691248 9,900 201 289 1984
2021-10-13 15:20:03 GMT 55.634583 -4.687334 9,575 201 283 2176
2021-10-13 15:20:00 GMT 55.636814 -4.685841 9,675 201 284 2112
2021-10-13 15:19:57 GMT 55.640633 -4.683352 9,250 201 283 2240
2021-10-13 15:19:54 GMT 55.644470 -4.680842 9,450 201 282 2240
2021-10-13 15:19:52 GMT 55.646805 -4.679343 9,350 201 282 2240
2021-10-13 15:19:49 GMT 55.649475 -4.677515 9,300 201 281 2240
2021-10-13 15:19:46 GMT 55.653759 -4.674768 9,000 201 278 2304
2021-10-13 15:19:43 GMT 55.657158 -4.672537 9,050 201 279 2304
2021-10-13 15:19:41 GMT 55.659904 -4.670649 8,875 201 277 2432
2021-10-13 15:19:38 GMT 55.664371 -4.667730 8,800 201 277 2560
2021-10-13 15:19:35 GMT 55.667267 -4.665860 8,700 201 276 2688
2021-10-13 15:19:32 GMT 55.671432 -4.663114 8,400 201 276 3136
2021-10-13 15:19:29 GMT 55.673824 -4.661551 8,425 201 276 3136
2021-10-13 15:19:25 GMT 55.679363 -4.657946 8,225 201 277 3200
2021-10-13 15:19:22 GMT 55.681137 -4.656705 8,075 201 277 3200
2021-10-13 15:19:20 GMT 55.685928 -4.653568 7,900 201 277 3136
2021-10-13 15:19:15 GMT 55.690861 -4.650307 7,675 201 277 3008
2021-10-13 15:19:12 GMT 55.694824 -4.647633 7,575 201 276 3008
2021-10-13 15:19:09 GMT 55.698078 -4.645500 7,375 201 276 2944
2021-10-13 15:19:05 GMT 55.702221 -4.642668 7,175 201 275 3072
2021-10-13 15:19:02 GMT 55.706039 -4.640142 6,900 201 276 3264
2021-10-13 15:18:59 GMT 55.710461 -4.637175 6,850 201 276 3200
2021-10-13 15:18:55 GMT 55.715744 -4.633734 6,625 201 276 3008
2021-10-13 15:18:52 GMT 55.718353 -4.631903 6,425 201 275 2816
2021-10-13 15:18:49 GMT 55.722153 -4.629322 6,350 201 275 2752
2021-10-13 15:18:44 GMT 55.727737 -4.625577 6,150 201 273 2624
2021-10-13 15:18:41 GMT 55.731735 -4.622927 6,000 201 271 2624
2021-10-13 15:18:38 GMT 55.734669 -4.620953 5,900 201 270 2688
2021-10-13 15:18:35 GMT 55.739136 -4.617920 5,700 201 268 2560
2021-10-13 15:18:32 GMT 55.742161 -4.615889 5,550 201 266 2432
2021-10-13 15:18:29 GMT 55.746445 -4.613142 5,475 201 265 2432
2021-10-13 15:18:25 GMT 55.750031 -4.610825 5,300 200 263 2624
2021-10-13 15:18:22 GMT 55.754379 -4.608016 5,125 200 262 2560
2021-10-13 15:18:19 GMT 55.757217 -4.606185 5,075 199 262 2432
2021-10-13 15:18:15 GMT 55.760643 -4.604044 4,950 199 260 2176
2021-10-13 15:18:11 GMT 55.766369 -4.600697 4,775 199 257 2240
2021-10-13 15:18:08 GMT 55.768707 -4.599360 4,700 199 256 2304
2021-10-13 15:18:04 GMT 55.773834 -4.596197 4,525 205 252 1984
2021-10-13 15:18:01 GMT 55.777176 -4.593783 4,350 213 240 1088
2021-10-13 15:17:58 GMT 55.779636 -4.591599 4,400 210 243 1024
2021-10-13 15:17:55 GMT 55.783035 -4.588079 4,325 215 237 1280
2021-10-13 15:17:53 GMT 55.784340 -4.586620 4,300 216 235 1408
2021-10-13 15:17:49 GMT 55.788620 -4.581041 4,075 224 227 2112
2021-10-13 15:17:43 GMT 55.792809 -4.574175 3,975 225 225 2304
2021-10-13 15:17:39 GMT 55.796585 -4.567649 3,800 225 222 1344
2021-10-13 15:17:34 GMT 55.800072 -4.561472 3,725 225 213 704
2021-10-13 15:17:30 GMT 55.803864 -4.554749 3,650 225 206 1152
2021-10-13 15:17:27 GMT 55.806961 -4.549284 3,550 225 203 1216
2021-10-13 15:17:23 GMT 55.806961 -4.549284 3,550 225 200 1216
2021-10-13 15:17:18 GMT 55.812103 -4.540267 3,450 225 188 896
2021-10-13 15:17:15 GMT 55.812103 -4.540267 3,400 225 185 960
2021-10-13 15:17:13 GMT 55.813526 -4.537697 3,375 225 183 1088
2021-10-13 15:17:08 GMT 55.818043 -4.529543 3,250 226 171 1024
2021-10-13 15:17:05 GMT 55.818043 -4.529543 3,250 226 172 960
2021-10-13 15:17:03 GMT 55.819576 -4.526796 3,200 226 169 1152
2021-10-13 15:16:59 GMT 55.821812 -4.522762 3,125 226 165 1536
2021-10-13 15:16:53 GMT 55.824692 -4.517545 2,950 226 163 2176
2021-10-13 15:16:49 GMT 55.826981 -4.513407 2,750 225 164 2368
2021-10-13 15:16:46 GMT 55.828354 -4.510970 2,750 225 164 2368
2021-10-13 15:16:43 GMT 55.830193 -4.507656 2,550 225 162 2048
2021-10-13 15:16:39 GMT 55.833637 -4.501476 2,375 226 160 1856
2021-10-13 15:16:36 GMT 55.835453 -4.498215 2,325 226 159 1920
2021-10-13 15:16:33 GMT 55.835453 -4.498215 2,225 226 157 2048
2021-10-13 15:16:29 GMT 55.837360 -4.494781 2,075 225 156 2176
2021-10-13 15:16:26 GMT 55.839176 -4.491606 1,900 225 156 2304
2021-10-13 15:16:23 GMT 55.840622 -4.489163 1,875 225 156 2368
2021-10-13 15:16:20 GMT 55.842453 -4.486001 1,725 225 156 2432
2021-10-13 15:16:16 GMT 55.844055 -4.483254 1,625 225 156 2432
2021-10-13 15:16:13 GMT 55.845928 -4.480019 1,450 225 156 2688
2021-10-13 15:16:10 GMT 55.847416 -4.477358 1,300 225 157 2688
2021-10-13 15:16:07 GMT 55.848675 -4.475212 650 225 156 2240
2021-10-13 15:16:02 GMT 55.851288 -4.470520 1,000 226 157 2496
2021-10-13 15:15:57 GMT 55.854080 -4.465526 800 225 156 2240
2021-10-13 15:15:52 GMT 55.856541 -4.461136 550 225 155 2432
2021-10-13 15:15:49 GMT 55.857742 -4.459034 500 226 155 2560
2021-10-13 15:15:45 GMT 55.860497 -4.454098 250 226 156 2816
2021-10-13 15:15:38 GMT 55.863922 -4.447965 -50 225 159 2304
2021-10-13 15:15:27 GMT 55.869202 -4.438391 -275 227 146 128
2021-10-13 15:15:09 GMT 55.876144 -4.425389 0 226 82 0
2021-10-13 15:14:57 GMT 55.878662 -4.420645 0 227 29 0
2021-10-13 15:14:47 GMT 55.879166 -4.419765 0 225 0 0
2021-10-13 15:14:36 GMT 55.879166 -4.419744 0 225 0 0
2021-10-13 15:14:27 GMT 55.879166 -4.419750 0 225 0 0
2021-10-13 15:14:16 GMT 55.879234 -4.419637 0 236 5 0
2021-10-13 15:14:03 GMT 55.879269 -4.419165 0 312 9 0
2021-10-13 15:13:57 GMT 55.879082 -4.418800 0 323 8 0
We lost coverage of the aircraft here for a total of 181 minutes
2021-10-13 12:12:47 GMT 55.866875 -4.438369 0 45 11
We lost coverage of the aircraft here for a total of 8 minutes
2021-10-13 12:05:09 GMT 55.865479 -4.440944 0 47 4 0
2021-10-13 12:05:05 GMT 55.865433 -4.441036 0 45 8 0
2021-10-13 12:04:56 GMT 55.865101 -4.441660 0 47 16 0
2021-10-13 12:04:46 GMT 55.864609 -4.442576 0 47 16 0
2021-10-13 12:04:36 GMT 55.864128 -4.443470 0 45 14 0
2021-10-13 12:04:24 GMT 55.863659 -4.444469 0 84 13 0
2021-10-13 12:04:16 GMT 55.863827 -4.445257 0 157 15 0
2021-10-13 12:04:05 GMT 55.864605 -4.445150 0 196 21 0
2021-10-13 12:03:55 GMT 55.865608 -4.444420 0 208 31 0
2021-10-13 12:03:46 GMT 55.866772 -4.442897 0 225 42 0
2021-10-13 12:03:35 GMT 55.868340 -4.439979 -250 227 62 0
2021-10-13 12:03:03 GMT 55.878887 -4.420280 -250 227 135 -640
2021-10-13 12:02:53 GMT 55.882980 -4.412556 -125 227 134 -704
2021-10-13 12:02:45 GMT 55.886490 -4.406017 -25 226 135 -768
2021-10-13 12:02:35 GMT 55.890987 -4.397707 75 227 137 -768
2021-10-13 12:02:24 GMT 55.895416 -4.389371 200 226 139 -768
2021-10-13 12:02:14 GMT 55.900223 -4.380465 350 227 139 -960
2021-10-13 12:02:05 GMT 55.904396 -4.372559 475 228 140 -704
2021-10-13 12:01:57 GMT 55.907776 -4.366067 575 228 141 -896
2021-10-13 12:01:54 GMT 55.908829 -4.363986 600 229 140 -1024
2021-10-13 12:01:44 GMT 55.912994 -4.355580 725 229 140 -640
2021-10-13 12:01:36 GMT 55.916656 -4.348505 825 227 143 -832
2021-10-13 12:01:32 GMT 55.918488 -4.345176 875 226 144 -704
2021-10-13 12:01:24 GMT 55.922516 -4.338018 1,000 224 143 -704
2021-10-13 12:01:14 GMT 55.927368 -4.330111 1,125 224 141 -896
2021-10-13 12:01:06 GMT 55.930885 -4.324064 1,200 228 141 -576
2021-10-13 12:01:03 GMT 55.932129 -4.321705 1,225 228 140 -640
2021-10-13 12:00:54 GMT 55.936432 -4.313216 1,350 230 138 -768
2021-10-13 12:00:51 GMT 55.937668 -4.310719 1,375 231 137 -640
2021-10-13 12:00:46 GMT 55.939590 -4.306474 1,425 231 137 -640
2021-10-13 12:00:43 GMT 55.940598 -4.304310 1,450 231 137 -640
2021-10-13 12:00:39 GMT 55.942757 -4.299517 1,525 233 137 -704
2021-10-13 12:00:36 GMT 55.943642 -4.297457 1,550 234 137 -832
2021-10-13 12:00:31 GMT 55.945496 -4.293074 1,625 232 139 -1024
2021-10-13 12:00:26 GMT 55.947502 -4.288359 1,700 234 144 -1088
2021-10-13 12:00:21 GMT 55.949226 -4.284239 1,775 235 143 -832
2021-10-13 12:00:18 GMT 55.950485 -4.281006 1,825 237 141 -576
2021-10-13 12:00:14 GMT 55.952160 -4.276342 1,850 239 137 -448
2021-10-13 12:00:08 GMT 55.953918 -4.271268 1,875 240 133 192
2021-10-13 12:00:05 GMT 55.954811 -4.268446 1,850 244 131 192
2021-10-13 12:00:01 GMT 55.956024 -4.263210 1,875 261 128 -192
2021-10-13 11:59:58 GMT 55.956207 -4.261065 1,875 264 128 -192
2021-10-13 11:59:53 GMT 55.956490 -4.256258 1,900 265 129 -320
2021-10-13 11:59:50 GMT 55.956665 -4.253124 1,900 265 130 -320
2021-10-13 11:59:46 GMT 55.956940 -4.247880 1,925 265 133 -384
2021-10-13 11:59:43 GMT 55.957092 -4.245272 1,950 265 133 -512
2021-10-13 11:59:40 GMT 55.957214 -4.242221 1,975 266 133 -704
2021-10-13 11:59:37 GMT 55.957375 -4.238920 2,000 265 133 -640
2021-10-13 11:59:33 GMT 55.957653 -4.234200 2,075 264 132 -768
2021-10-13 11:59:28 GMT 55.957993 -4.227989 2,125 264 133 -640
2021-10-13 11:59:23 GMT 55.958267 -4.223494 2,200 264 132 -768
2021-10-13 11:59:20 GMT 55.958443 -4.220209 2,200 265 132 -832
2021-10-13 11:59:16 GMT 55.958679 -4.216503 2,275 266 131 -896
2021-10-13 11:59:13 GMT 55.958817 -4.212508 2,325 265 130 -768
2021-10-13 11:59:09 GMT 55.959187 -4.205790 2,375 264 130 -704
2021-10-13 11:59:05 GMT 55.959503 -4.201105 2,400 264 130 -768
2021-10-13 11:59:02 GMT 55.959503 -4.201105 2,425 264 130 -896
2021-10-13 11:58:59 GMT 55.959732 -4.197610 2,500 263 128 -1216
2021-10-13 11:58:56 GMT 55.959885 -4.194975 2,550 263 124 -1600
2021-10-13 11:58:53 GMT 55.960190 -4.191118 2,625 264 124 -896
2021-10-13 11:58:45 GMT 55.960632 -4.182615 2,675 275 126 -64
2021-10-13 11:58:41 GMT 55.960537 -4.179354 2,675 284 124 -64
2021-10-13 11:58:38 GMT 55.960144 -4.176303 2,675 298 127 -128
2021-10-13 11:58:35 GMT 55.958817 -4.171892 2,700 315 129 -64
2021-10-13 11:58:32 GMT 55.958073 -4.170256 2,700 321 132 -64
2021-10-13 11:58:29 GMT 55.956768 -4.168367 2,700 329 136 0
2021-10-13 11:58:25 GMT 55.954422 -4.165733 2,700 334 139 -64
2021-10-13 11:58:22 GMT 55.952717 -4.164162 2,700 334 139 -192
2021-10-13 11:58:18 GMT 55.950851 -4.162487 2,700 333 139 -192
2021-10-13 11:58:15 GMT 55.947098 -4.159074 2,725 334 139 -192
2021-10-13 11:58:12 GMT 55.947098 -4.159074 2,725 335 140 128
2021-10-13 11:58:09 GMT 55.945312 -4.157576 2,725 335 140 256
2021-10-13 11:58:06 GMT 55.941265 -4.154119 2,700 335 141 448
2021-10-13 11:58:02 GMT 55.941265 -4.154119 2,975 334 146 64
2021-10-13 11:57:59 GMT 55.939171 -4.152317 2,675 334 151 -768
2021-10-13 11:57:55 GMT 55.936707 -4.150169 2,700 334 149 -640
2021-10-13 11:57:52 GMT 55.935150 -4.148754 2,750 334 152 -1088
2021-10-13 11:57:49 GMT 55.933537 -4.147339 2,750 334 152 -1088
2021-10-13 11:57:46 GMT 55.931396 -4.145425 2,850 333 153 -1152
2021-10-13 11:57:42 GMT 55.926510 -4.140987 2,925 333 156 -960
2021-10-13 11:57:39 GMT 55.926510 -4.140987 2,975 333 158 -960
2021-10-13 11:57:34 GMT 55.923798 -4.138433 3,050 333 160 -1088
2021-10-13 11:57:29 GMT 55.920132 -4.135151 3,150 334 163 -1216
2021-10-13 11:57:26 GMT 55.918121 -4.133356 3,200 334 163 -1408
2021-10-13 11:57:22 GMT 55.915466 -4.131026 3,350 335 165 -1344
2021-10-13 11:57:19 GMT 55.913681 -4.129528 3,350 335 165 -1344
2021-10-13 11:57:16 GMT 55.911285 -4.127426 3,425 335 166 -1280
2021-10-13 11:57:13 GMT 55.908817 -4.125366 3,500 335 169 -1152
2021-10-13 11:57:11 GMT 55.907982 -4.124680 3,525 334 169 -1088
2021-10-13 11:57:10 GMT 55.907364 -4.124118 3,550 334 169 -1088
2021-10-13 11:57:07 GMT 55.905281 -4.122276 3,600 334 171 -1088
2021-10-13 11:57:03 GMT 55.902420 -4.119707 3,675 334 172 -1280
2021-10-13 11:57:00 GMT 55.900440 -4.117899 3,750 334 173 -1536
2021-10-13 11:56:56 GMT 55.897018 -4.114879 3,875 334 174 -1408
2021-10-13 11:56:53 GMT 55.895233 -4.113298 3,950 334 175 -1088
2021-10-13 11:56:50 GMT 55.893269 -4.111547 4,050 333 177 -1088
2021-10-13 11:56:47 GMT 55.890656 -4.109220 4,050 333 177 -1088
2021-10-13 11:56:46 GMT 55.889919 -4.108543 4,075 332 178 -1088
2021-10-13 11:56:45 GMT 55.888824 -4.107472 4,100 333 178 -960
2021-10-13 11:56:43 GMT 55.887772 -4.106473 4,125 332 180 -960
2021-10-13 11:56:42 GMT 55.887314 -4.106057 4,125 332 180 -960
2021-10-13 11:56:41 GMT 55.885849 -4.104642 4,150 332 181 -896
2021-10-13 11:56:39 GMT 55.885170 -4.103994 4,175 332 182 -832
2021-10-13 11:56:38 GMT 55.884380 -4.103222 4,175 332 183 -832
2021-10-13 11:56:37 GMT 55.882645 -4.101646 4,225 332 186 -640
2021-10-13 11:56:35 GMT 55.881771 -4.100733 4,225 332 187 -576
2021-10-13 11:56:34 GMT 55.880630 -4.099648 4,225 332 189 -448
2021-10-13 11:56:32 GMT 55.879536 -4.098673 4,250 333 190 -512
2021-10-13 11:56:30 GMT 55.878067 -4.097235 4,275 332 191 -704
2021-10-13 11:56:29 GMT 55.877117 -4.096355 4,300 333 192 -1088
2021-10-13 11:56:28 GMT 55.876419 -4.095736 4,300 333 192 -1152
2021-10-13 11:56:27 GMT 55.875641 -4.094987 4,325 333 192 -1216
2021-10-13 11:56:26 GMT 55.873993 -4.093406 4,375 333 193 -1344
2021-10-13 11:56:23 GMT 55.872574 -4.092074 4,425 333 193 -1408
2021-10-13 11:56:22 GMT 55.871624 -4.091206 4,450 332 193 -1472
2021-10-13 11:56:21 GMT 55.870926 -4.090493 4,475 332 193 -1408
2021-10-13 11:56:20 GMT 55.870148 -4.089827 4,500 332 193 -1408
2021-10-13 11:56:18 GMT 55.868877 -4.088631 4,525 332 195 -1216
2021-10-13 11:56:15 GMT 55.866486 -4.086331 4,575 332 197 -704
2021-10-13 11:56:13 GMT 55.864792 -4.084750 4,700 332 198 -896
2021-10-13 11:56:10 GMT 55.861862 -4.082004 4,700 332 201 -1152
2021-10-13 11:56:07 GMT 55.860077 -4.080219 4,700 332 201 -1216
2021-10-13 11:56:05 GMT 55.858448 -4.078674 4,750 332 202 -1152
2021-10-13 11:56:04 GMT 55.856323 -4.076594 4,800 332 203 -1152
2021-10-13 11:56:02 GMT 55.855469 -4.075842 4,800 332 204 -1088
2021-10-13 11:56:01 GMT 55.854679 -4.075069 4,825 332 204 -1088
2021-10-13 11:55:58 GMT 55.852341 -4.072848 4,875 332 205 -1024
2021-10-13 11:55:55 GMT 55.850006 -4.070601 4,925 332 207 -896
2021-10-13 11:55:53 GMT 55.848301 -4.068975 4,950 332 208 -832
2021-10-13 11:55:50 GMT 55.845428 -4.066190 5,025 332 211 -704
2021-10-13 11:55:47 GMT 55.842773 -4.063610 5,025 332 212 -704
2021-10-13 11:55:45 GMT 55.841133 -4.062023 5,050 332 213 -768
2021-10-13 11:55:43 GMT 55.838432 -4.059448 5,100 332 215 -896
2021-10-13 11:55:40 GMT 55.837502 -4.058590 5,125 332 216 -896
2021-10-13 11:55:38 GMT 55.835358 -4.056530 5,175 332 217 -1152
2021-10-13 11:55:35 GMT 55.832062 -4.053289 5,250 332 217 -1152
2021-10-13 11:55:32 GMT 55.830284 -4.051552 5,550 332 218 -1344
2021-10-13 11:55:28 GMT 55.827118 -4.048545 5,350 332 217 -1344
2021-10-13 11:55:27 GMT 55.826141 -4.047604 5,375 332 217 -1344
2021-10-13 11:55:26 GMT 55.824234 -4.045887 5,425 332 218 -1408
2021-10-13 11:55:24 GMT 55.823822 -4.045466 5,450 332 218 -1408
2021-10-13 11:55:22 GMT 55.821487 -4.043226 5,500 332 218 -1408
2021-10-13 11:55:19 GMT 55.818554 -4.040480 5,600 332 217 -1344
2021-10-13 11:55:16 GMT 55.815903 -4.037892 5,650 332 218 -1344
2021-10-13 11:55:13 GMT 55.813248 -4.035395 5,825 332 218 -1408
2021-10-13 11:55:10 GMT 55.811005 -4.033231 5,775 332 218 -1408
2021-10-13 11:55:08 GMT 55.808075 -4.030401 5,850 332 218 -1408
2021-10-13 11:55:05 GMT 55.805878 -4.028320 5,900 332 218 -1472
2021-10-13 11:55:02 GMT 55.802582 -4.025158 6,025 332 218 -1408
2021-10-13 11:54:59 GMT 55.801346 -4.023992 6,025 332 218 -1408
2021-10-13 11:54:57 GMT 55.799332 -4.021995 6,075 332 217 -1344
2021-10-13 11:54:56 GMT 55.798416 -4.021163 6,100 332 217 -1344
2021-10-13 11:54:55 GMT 55.797466 -4.020224 6,125 332 217 -1344
2021-10-13 11:54:52 GMT 55.794983 -4.017833 6,200 332 218 -1280
2021-10-13 11:54:50 GMT 55.793182 -4.016190 6,225 332 219 -1280
2021-10-13 11:54:47 GMT 55.790344 -4.013443 6,300 332 220 -1216
2021-10-13 11:54:45 GMT 55.786572 -4.009838 6,375 332 220 -1152
2021-10-13 11:54:42 GMT 55.785130 -4.008465 6,400 332 220 -1088
2021-10-13 11:54:41 GMT 55.785130 -4.008465 6,400 332 221 -1024
2021-10-13 11:54:38 GMT 55.782074 -4.005515 6,475 332 223 -896
2021-10-13 11:54:35 GMT 55.779358 -4.002972 6,500 332 223 -960
2021-10-13 11:54:34 GMT 55.778549 -4.002103 6,525 332 225 -1088
2021-10-13 11:54:32 GMT 55.776672 -4.000272 6,550 332 225 -1088
2021-10-13 11:54:29 GMT 55.773834 -3.997525 6,625 331 225 -1344
2021-10-13 11:54:27 GMT 55.771133 -3.994779 6,675 331 225 -1408
2021-10-13 11:54:25 GMT 55.770309 -3.994030 6,700 331 225 -1408
2021-10-13 11:54:24 GMT 55.769489 -3.993187 6,725 331 225 -1408
2021-10-13 11:54:22 GMT 55.767857 -3.991556 6,775 331 225 -1344
2021-10-13 11:54:20 GMT 55.765205 -3.988895 6,825 331 225 -1344
2021-10-13 11:54:18 GMT 55.763763 -3.987455 6,850 331 225 -1344
2021-10-13 11:54:16 GMT 55.761932 -3.985623 6,925 331 226 -1216
2021-10-13 11:54:14 GMT 55.759689 -3.983293 6,950 331 226 -384
2021-10-13 11:54:11 GMT 55.755981 -3.979464 7,000 330 225 0
2021-10-13 11:54:08 GMT 55.755112 -3.978549 7,000 330 225 0
2021-10-13 11:54:03 GMT 55.750580 -3.973971 7,000 330 225 0
2021-10-13 11:54:01 GMT 55.748772 -3.972073 7,000 330 225 0
2021-10-13 11:54:00 GMT 55.747971 -3.971308 7,000 330 225 0
2021-10-13 11:53:59 GMT 55.746956 -3.970270 7,000 330 224 0
2021-10-13 11:53:58 GMT 55.745888 -3.969154 7,000 330 224 0
2021-10-13 11:53:56 GMT 55.744446 -3.967646 7,000 331 224 0
2021-10-13 11:53:53 GMT 55.741043 -3.964176 7,000 330 223 64
2021-10-13 11:53:50 GMT 55.738403 -3.961404 7,000 330 222 64
2021-10-13 11:53:47 GMT 55.735657 -3.958574 7,000 330 222 64
2021-10-13 11:53:43 GMT 55.732105 -3.954906 7,000 330 221 64
2021-10-13 11:53:40 GMT 55.729889 -3.952581 7,000 330 221 0
2021-10-13 11:53:37 GMT 55.722290 -3.944175 7,000 315 219 -64
2021-10-13 11:53:32 GMT 55.722290 -3.944175 7,000 323 220 -64
2021-10-13 11:53:29 GMT 55.720516 -3.941860 7,000 304 218 -64
2021-10-13 11:53:26 GMT 55.718655 -3.938856 7,000 304 218 -64
2021-10-13 11:53:23 GMT 55.716465 -3.934565 7,000 304 218 -64
2021-10-13 11:53:20 GMT 55.714558 -3.929758 7,000 296 218 0
2021-10-13 11:53:17 GMT 55.713345 -3.925810 7,000 290 219 64
2021-10-13 11:53:14 GMT 55.711857 -3.919287 7,000 286 221 0
2021-10-13 11:53:11 GMT 55.711029 -3.914462 7,000 285 221 0
2021-10-13 11:53:08 GMT 55.710434 -3.910633 7,000 285 221 0
2021-10-13 11:53:05 GMT 55.709702 -3.905556 7,000 286 221 0
2021-10-13 11:53:02 GMT 55.708691 -3.899288 7,000 286 222 64
2021-10-13 11:52:59 GMT 55.707851 -3.893881 7,000 286 221 64
2021-10-13 11:52:56 GMT 55.707092 -3.888994 7,000 286 221 0
2021-10-13 11:52:53 GMT 55.706268 -3.883924 7,000 285 222 0
2021-10-13 11:52:50 GMT 55.705620 -3.879461 7,000 285 222 -64
2021-10-13 11:52:47 GMT 55.704712 -3.873180 7,000 285 222 -64
2021-10-13 11:52:44 GMT 55.704037 -3.868647 7,000 285 222 -64
2021-10-13 11:52:42 GMT 55.703522 -3.865299 7,000 285 222 -128
2021-10-13 11:52:41 GMT 55.703293 -3.863497 7,000 285 221 -192
2021-10-13 11:52:40 GMT 55.702927 -3.861195 7,025 285 221 -256
2021-10-13 11:52:39 GMT 55.702423 -3.857533 7,025 285 221 -512
2021-10-13 11:52:37 GMT 55.702148 -3.855785 7,050 284 221 -704
2021-10-13 11:52:35 GMT 55.701569 -3.851566 7,075 283 221 -832
2021-10-13 11:52:32 GMT 55.700962 -3.846931 7,125 280 220 -1280
2021-10-13 11:52:31 GMT 55.700588 -3.843241 7,150 277 221 -1472
2021-10-13 11:52:28 GMT 55.700317 -3.840554 7,200 273 221 -1536
2021-10-13 11:52:27 GMT 55.700172 -3.838348 7,225 271 221 -1536
2021-10-13 11:52:25 GMT 55.700043 -3.834894 7,275 266 221 -1600
2021-10-13 11:52:22 GMT 55.700218 -3.828049 7,425 257 223 -1536
2021-10-13 11:52:19 GMT 55.700867 -3.821911 7,475 253 225 -1472
2021-10-13 11:52:16 GMT 55.701660 -3.817234 7,525 245 227 -1344
2021-10-13 11:52:13 GMT 55.702965 -3.811827 7,625 239 230 -1280
2021-10-13 11:52:10 GMT 55.706039 -3.803184 7,675 232 232 -1280
2021-10-13 11:52:07 GMT 55.706039 -3.803184 7,750 225 235 -1344
2021-10-13 11:52:04 GMT 55.707993 -3.799038 7,950 209 242 -1408
2021-10-13 11:52:01 GMT 55.710598 -3.794661 7,875 213 241 -1408
2021-10-13 11:51:58 GMT 55.713253 -3.791313 8,050 199 247 -1408
2021-10-13 11:51:55 GMT 55.716293 -3.788036 8,050 199 247 -1408
2021-10-13 11:51:52 GMT 55.718979 -3.785992 8,075 197 247 -1408
2021-10-13 11:51:49 GMT 55.721741 -3.784291 8,125 193 248 -1344
2021-10-13 11:51:46 GMT 55.725960 -3.782558 8,200 188 250 -1216
2021-10-13 11:51:43 GMT 55.729546 -3.781872 8,250 182 253 -1088
2021-10-13 11:51:41 GMT 55.730804 -3.781794 8,275 177 254 -1088
2021-10-13 11:51:40 GMT 55.732910 -3.781794 8,325 172 258 -1152
2021-10-13 11:51:39 GMT 55.734192 -3.781960 8,325 170 259 -1216
2021-10-13 11:51:38 GMT 55.736298 -3.782376 8,375 168 259 -1344
2021-10-13 11:51:36 GMT 55.737579 -3.782793 8,400 166 260 -1344
2021-10-13 11:51:35 GMT 55.738770 -3.783209 8,425 164 261 -1344
2021-10-13 11:51:34 GMT 55.740021 -3.783846 8,450 162 262 -1344
2021-10-13 11:51:31 GMT 55.742523 -3.785206 8,500 157 264 -1408
2021-10-13 11:51:30 GMT 55.743668 -3.785955 8,525 155 265 -1408
2021-10-13 11:51:29 GMT 55.745979 -3.787794 8,575 151 266 -1472
2021-10-13 11:51:26 GMT 55.749050 -3.790712 8,650 143 266 -1472
2021-10-13 11:51:25 GMT 55.750076 -3.791828 8,675 143 266 -1472
2021-10-13 11:51:22 GMT 55.752869 -3.795443 8,725 138 266 -1472
2021-10-13 11:51:21 GMT 55.753895 -3.796978 8,750 136 267 -1472
2021-10-13 11:51:20 GMT 55.755802 -3.800068 8,775 134 267 -1472
2021-10-13 11:51:17 GMT 55.757080 -3.802435 8,925 129 268 -1472
2021-10-13 11:51:14 GMT 55.759964 -3.808594 8,950 121 268 -1472
2021-10-13 11:51:10 GMT 55.762413 -3.815260 9,075 114 268 -1600
2021-10-13 11:51:07 GMT 55.765438 -3.826847 9,175 111 269 -1600
2021-10-13 11:51:04 GMT 55.765808 -3.828907 9,200 103 268 -1600
2021-10-13 11:51:02 GMT 55.766228 -3.831224 9,225 100 268 -1664
2021-10-13 11:51:01 GMT 55.766506 -3.833370 9,275 100 268 -1664
2021-10-13 11:51:00 GMT 55.767067 -3.837919 9,325 94 267 -1728
2021-10-13 11:50:58 GMT 55.767254 -3.840151 9,350 94 267 -1728
2021-10-13 11:50:57 GMT 55.767380 -3.842052 9,375 91 267 -1728
2021-10-13 11:50:55 GMT 55.767578 -3.846931 9,450 89 267 -1664
2021-10-13 11:50:53 GMT 55.767628 -3.850880 9,500 85 266 -1600
2021-10-13 11:50:51 GMT 55.767517 -3.855286 9,550 81 267 -1408
2021-10-13 11:50:49 GMT 55.767300 -3.859634 9,575 81 267 -1408
2021-10-13 11:50:46 GMT 55.766647 -3.866355 9,675 74 267 -1408
2021-10-13 11:50:43 GMT 55.765549 -3.874262 9,725 70 265 -1536
2021-10-13 11:50:40 GMT 55.764771 -3.878673 9,825 65 265 -1600
2021-10-13 11:50:37 GMT 55.763031 -3.885665 9,975 56 264 -1408
2021-10-13 11:50:34 GMT 55.761337 -3.891241 9,975 56 264 -1408
2021-10-13 11:50:32 GMT 55.760365 -3.893967 9,975 54 263 -1408
2021-10-13 11:50:29 GMT 55.757996 -3.899980 10,200 49 262 -1536
2021-10-13 11:50:26 GMT 55.753426 -3.908730 10,200 42 259 -1600
2021-10-13 11:50:23 GMT 55.753426 -3.908730 10,325 39 258 -1536
2021-10-13 11:50:20 GMT 55.746819 -3.917742 10,325 30 256 -1472
2021-10-13 11:50:16 GMT 55.746819 -3.917742 10,525 25 254 -1472
2021-10-13 11:50:13 GMT 55.743652 -3.921003 10,525 20 253 -1408
2021-10-13 11:50:10 GMT 55.739464 -3.924093 10,600 14 251 -1216
2021-10-13 11:50:07 GMT 55.737259 -3.925448 10,675 12 251 -1152
2021-10-13 11:50:04 GMT 55.734146 -3.926946 10,775 11 250 -1024
2021-10-13 11:50:01 GMT 55.726318 -3.929610 10,775 10 251 -896
2021-10-13 11:49:58 GMT 55.726318 -3.929610 10,775 10 251 -896
2021-10-13 11:49:56 GMT 55.724258 -3.930276 10,800 10 252 -896
2021-10-13 11:49:55 GMT 55.723160 -3.930692 10,825 10 252 -896
2021-10-13 11:49:54 GMT 55.720963 -3.931358 10,850 10 252 -960
2021-10-13 11:49:51 GMT 55.718887 -3.931990 10,900 10 253 -1024
2021-10-13 11:49:48 GMT 55.715790 -3.933022 10,975 10 253 -1024
2021-10-13 11:49:45 GMT 55.713409 -3.933855 10,975 10 253 -1024
2021-10-13 11:49:44 GMT 55.711670 -3.934393 11,000 10 253 -1024
2021-10-13 11:49:43 GMT 55.706364 -3.936110 11,025 10 253 -1024
2021-10-13 11:49:41 GMT 55.706364 -3.936110 11,075 10 254 -1088
2021-10-13 11:49:38 GMT 55.704548 -3.936796 11,100 10 254 -1024
2021-10-13 11:49:37 GMT 55.703617 -3.937054 11,100 10 254 -1024
2021-10-13 11:49:35 GMT 55.701195 -3.937912 11,150 10 254 -960
2021-10-13 11:49:34 GMT 55.700031 -3.938255 11,150 10 254 -960
2021-10-13 11:49:32 GMT 55.694962 -3.939930 11,225 10 254 -832
2021-10-13 11:49:30 GMT 55.694962 -3.939930 11,225 10 255 -832
2021-10-13 11:49:29 GMT 55.694046 -3.940263 11,225 10 255 -768
2021-10-13 11:49:28 GMT 55.691700 -3.941002 11,250 10 255 -768
2021-10-13 11:49:26 GMT 55.690582 -3.941345 11,275 10 255 -768
2021-10-13 11:49:25 GMT 55.689278 -3.941774 11,275 10 255 -768
2021-10-13 11:49:23 GMT 55.687088 -3.942510 11,300 10 256 -832
2021-10-13 11:49:22 GMT 55.685928 -3.942890 11,325 10 256 -832
2021-10-13 11:49:20 GMT 55.683598 -3.943663 11,350 10 256 -896
2021-10-13 11:49:19 GMT 55.682556 -3.944009 11,375 10 256 -896
2021-10-13 11:49:18 GMT 55.681274 -3.944425 11,375 10 256 -960
2021-10-13 11:49:17 GMT 55.680084 -3.944841 11,400 10 256 -960
2021-10-13 11:49:16 GMT 55.674988 -3.946581 11,425 11 256 -1024
2021-10-13 11:49:13 GMT 55.674988 -3.946581 11,475 11 256 -1024
2021-10-13 11:49:09 GMT 55.670658 -3.948040 11,550 11 256 -1024
2021-10-13 11:49:06 GMT 55.667072 -3.949327 11,625 10 257 -960
2021-10-13 11:49:03 GMT 55.663441 -3.950529 11,625 10 257 -896
2021-10-13 11:49:00 GMT 55.659393 -3.951902 11,725 10 257 -1152
2021-10-13 11:48:57 GMT 55.656460 -3.952932 11,725 10 257 -1152
2021-10-13 11:48:55 GMT 55.654083 -3.953663 11,775 10 257 -1152
2021-10-13 11:48:54 GMT 55.652939 -3.954079 11,875 10 256 -1280
2021-10-13 11:48:52 GMT 55.651432 -3.954563 11,875 10 256 -1280
2021-10-13 11:48:41 GMT 55.638153 -3.959073 12,050 10 255 -1280
2021-10-13 11:48:39 GMT 55.636185 -3.959739 12,100 10 255 -1280
2021-10-13 11:48:38 GMT 55.633511 -3.960657 12,150 11 254 -1344
2021-10-13 11:48:36 GMT 55.631786 -3.961172 12,175 11 254 -1408
2021-10-13 11:48:35 GMT 55.630646 -3.961570 12,200 11 253 -1408
2021-10-13 11:48:32 GMT 55.627396 -3.962735 12,275 11 253 -1472
2021-10-13 11:48:31 GMT 55.626385 -3.963060 12,300 11 252 -1472
2021-10-13 11:48:29 GMT 55.624100 -3.963900 12,350 11 252 -1408
2021-10-13 11:48:28 GMT 55.623035 -3.964262 12,375 11 252 -1408
2021-10-13 11:48:26 GMT 55.619293 -3.965565 12,425 11 251 -1344
2021-10-13 11:48:24 GMT 55.618240 -3.965979 12,450 11 251 -1344
2021-10-13 11:48:22 GMT 55.614002 -3.967438 12,525 11 251 -1344
2021-10-13 11:48:20 GMT 55.614002 -3.967438 12,525 11 251 -1344
2021-10-13 11:48:19 GMT 55.612419 -3.967953 12,550 11 251 -1344
2021-10-13 11:48:17 GMT 55.610279 -3.968725 12,600 11 251 -1344
2021-10-13 11:48:16 GMT 55.609116 -3.969154 12,625 11 251 -1344
2021-10-13 11:48:15 GMT 55.605808 -3.970270 12,675 11 251 -1344
2021-10-13 11:48:13 GMT 55.605808 -3.970270 12,700 11 251 -1344
2021-10-13 11:48:11 GMT 55.603996 -3.970957 12,725 10 251 -1344
2021-10-13 11:48:10 GMT 55.602173 -3.971558 12,775 10 251 -1280
2021-10-13 11:48:08 GMT 55.600113 -3.972307 12,800 10 251 -1280
2021-10-13 11:48:06 GMT 55.597385 -3.973188 12,850 10 252 -1216
2021-10-13 11:48:04 GMT 55.595287 -3.973961 12,900 10 252 -1216
2021-10-13 11:48:03 GMT 55.594032 -3.974304 12,900 10 252 -1152
2021-10-13 11:48:02 GMT 55.593018 -3.974720 12,925 10 252 -1152
2021-10-13 11:48:01 GMT 55.591984 -3.975077 12,950 10 252 -1152
2021-10-13 11:47:59 GMT 55.589722 -3.975802 12,975 10 253 -1088
2021-10-13 11:47:58 GMT 55.588680 -3.976107 13,000 10 253 -1088
2021-10-13 11:47:56 GMT 55.586258 -3.976965 13,025 10 253 -1088
2021-10-13 11:47:55 GMT 55.584778 -3.977467 13,050 10 253 -1088
2021-10-13 11:47:53 GMT 55.582352 -3.978216 13,100 10 253 -1088
2021-10-13 11:47:52 GMT 55.581436 -3.978549 13,100 10 253 -1088
2021-10-13 11:47:51 GMT 55.579227 -3.979197 13,150 9 253 -1088
2021-10-13 11:47:48 GMT 55.577866 -3.979631 13,175 9 253 -1088
2021-10-13 11:47:47 GMT 55.575550 -3.980398 13,175 9 253 -1088
2021-10-13 11:47:45 GMT 55.574432 -3.980742 13,225 9 253 -1088
2021-10-13 11:47:44 GMT 55.569920 -3.982115 13,275 9 253 -1088
2021-10-13 11:47:42 GMT 55.569920 -3.982115 13,300 9 253 -1088
2021-10-13 11:47:41 GMT 55.568893 -3.982461 13,350 9 253 -1152
2021-10-13 11:47:39 GMT 55.566101 -3.983231 13,350 9 253 -1152
2021-10-13 11:47:38 GMT 55.565048 -3.983543 13,375 9 253 -1152
2021-10-13 11:47:37 GMT 55.563774 -3.983917 13,400 9 253 -1152
2021-10-13 11:47:35 GMT 55.561352 -3.984690 13,425 9 253 -1152
2021-10-13 11:47:34 GMT 55.560234 -3.984947 13,450 9 254 -1152
2021-10-13 11:47:33 GMT 55.559189 -3.985291 13,475 9 254 -1152
2021-10-13 11:47:32 GMT 55.556305 -3.986123 13,500 9 254 -1088
2021-10-13 11:47:30 GMT 55.556305 -3.986123 13,550 8 254 -1024
2021-10-13 11:47:28 GMT 55.553375 -3.986872 13,550 8 254 -960
2021-10-13 11:47:26 GMT 55.548737 -3.988209 13,625 8 254 -960
2021-10-13 11:47:24 GMT 55.548737 -3.988209 13,625 8 254 -960
2021-10-13 11:47:22 GMT 55.546875 -3.988703 13,650 8 254 -1024
2021-10-13 11:47:21 GMT 55.545616 -3.988981 13,675 8 254 -1152
2021-10-13 11:47:19 GMT 55.543152 -3.989668 13,700 8 254 -1280
2021-10-13 11:47:18 GMT 55.539333 -3.990612 13,775 8 254 -1280
2021-10-13 11:47:16 GMT 55.539333 -3.990612 13,775 8 254 -1280
2021-10-13 11:47:15 GMT 55.537354 -3.991200 13,825 8 254 -1280
2021-10-13 11:47:13 GMT 55.536308 -3.991470 13,825 8 254 -1216
2021-10-13 11:47:11 GMT 55.533737 -3.992115 13,875 8 254 -1216
2021-10-13 11:47:09 GMT 55.529324 -3.993273 13,950 9 254 -1216
2021-10-13 11:47:07 GMT 55.529324 -3.993273 13,950 9 254 -1216
2021-10-13 11:47:04 GMT 55.525360 -3.994446 14,025 9 254 -1216
2021-10-13 11:47:02 GMT 55.523758 -3.994862 14,050 10 254 -1216
2021-10-13 11:47:01 GMT 55.522343 -3.995333 14,075 10 254 -1280
2021-10-13 11:47:00 GMT 55.521225 -3.995676 14,125 11 254 -1280
2021-10-13 11:46:59 GMT 55.520142 -3.996027 14,125 11 254 -1280
2021-10-13 11:46:58 GMT 55.516476 -3.997307 14,175 11 255 -1216
2021-10-13 11:46:56 GMT 55.516476 -3.997307 14,200 11 255 -1216
2021-10-13 11:46:55 GMT 55.515312 -3.997736 14,200 11 255 -1216
2021-10-13 11:46:53 GMT 55.511963 -3.998938 14,250 12 255 -1216
2021-10-13 11:46:52 GMT 55.511963 -3.998938 14,275 12 255 -1216
2021-10-13 11:46:51 GMT 55.510941 -3.999356 14,275 12 255 -1152
2021-10-13 11:46:49 GMT 55.508610 -4.000311 14,325 13 255 -1152
2021-10-13 11:46:48 GMT 55.507027 -4.000912 14,350 13 255 -1088
2021-10-13 11:46:47 GMT 55.506233 -4.001255 14,350 13 255 -1088
2021-10-13 11:46:46 GMT 55.505173 -4.001687 14,375 13 256 -1024
2021-10-13 11:46:45 GMT 55.501282 -4.003268 14,425 13 256 -1024
2021-10-13 11:46:43 GMT 55.501282 -4.003268 14,425 13 256 -960
2021-10-13 11:46:41 GMT 55.498974 -4.004259 14,450 13 256 -960
2021-10-13 11:46:39 GMT 55.497665 -4.004766 14,475 12 257 -960
2021-10-13 11:46:38 GMT 55.495388 -4.005718 14,525 12 257 -896
2021-10-13 11:46:36 GMT 55.493526 -4.006405 14,550 12 258 -832
2021-10-13 11:46:35 GMT 55.492126 -4.007013 14,550 12 258 -768
2021-10-13 11:46:33 GMT 55.490128 -4.007692 14,575 13 259 -768
2021-10-13 11:46:32 GMT 55.488373 -4.008428 14,600 14 259 -704
2021-10-13 11:46:31 GMT 55.487335 -4.008894 14,600 15 260 -768
2021-10-13 11:46:30 GMT 55.484913 -4.010010 14,625 17 261 -768
2021-10-13 11:46:28 GMT 55.484299 -4.010259 14,625 18 262 -768
2021-10-13 11:46:27 GMT 55.483154 -4.010842 14,650 20 263 -832
2021-10-13 11:46:25 GMT 55.479813 -4.012840 14,700 22 264 -832
2021-10-13 11:46:23 GMT 55.478210 -4.014005 14,700 25 267 -768
2021-10-13 11:46:21 GMT 55.476395 -4.015417 14,725 26 267 -768
2021-10-13 11:46:20 GMT 55.474960 -4.016668 14,750 29 269 -704
2021-10-13 11:46:19 GMT 55.473972 -4.017563 14,750 30 271 -640
2021-10-13 11:46:17 GMT 55.471645 -4.019794 14,775 32 273 -640
2021-10-13 11:46:16 GMT 55.470474 -4.020996 14,800 33 273 -640
2021-10-13 11:46:13 GMT 55.467178 -4.024825 14,825 37 277 -640
2021-10-13 11:46:11 GMT 55.464020 -4.028986 14,850 40 279 -832
2021-10-13 11:46:09 GMT 55.463013 -4.030401 14,875 40 280 -896
2021-10-13 11:46:08 GMT 55.462006 -4.031899 14,900 41 280 -896
2021-10-13 11:46:06 GMT 55.459869 -4.035158 14,925 43 281 -960
2021-10-13 11:46:04 GMT 55.458893 -4.036703 14,950 46 284 -832
2021-10-13 11:46:03 GMT 55.457474 -4.039057 14,975 46 284 -832
2021-10-13 11:46:01 GMT 55.454407 -4.044467 15,000 48 286 -768
2021-10-13 11:45:59 GMT 55.453491 -4.046131 15,025 49 286 -768
2021-10-13 11:45:57 GMT 55.451721 -4.049578 15,050 53 290 -832
2021-10-13 11:45:56 GMT 55.450886 -4.051380 15,075 53 290 -896
2021-10-13 11:45:55 GMT 55.450104 -4.053040 15,075 55 290 -960
2021-10-13 11:45:54 GMT 55.449326 -4.054871 15,100 56 292 -960
2021-10-13 11:45:52 GMT 55.447765 -4.058762 15,125 60 293 -960
2021-10-13 11:45:51 GMT 55.447128 -4.060613 15,150 61 295 -1024
2021-10-13 11:45:50 GMT 55.446396 -4.062861 15,150 62 296 -1024
2021-10-13 11:45:49 GMT 55.445019 -4.067259 15,200 66 298 -1088
2021-10-13 11:45:46 GMT 55.444107 -4.070767 15,225 67 299 -1088
2021-10-13 11:45:45 GMT 55.443558 -4.073020 15,250 71 300 -1152
2021-10-13 11:45:43 GMT 55.442829 -4.076427 15,275 74 301 -1216
2021-10-13 11:45:42 GMT 55.442413 -4.078758 15,300 76 301 -1216
2021-10-13 11:45:41 GMT 55.441910 -4.081502 15,325 79 303 -1280
2021-10-13 11:45:39 GMT 55.441086 -4.086995 15,350 79 303 -1344
2021-10-13 11:45:38 GMT 55.440994 -4.088449 15,375 81 304 -1344
2021-10-13 11:45:36 GMT 55.440491 -4.093296 15,425 85 305 -1408
2021-10-13 11:45:35 GMT 55.440308 -4.095719 15,450 87 306 -1408
2021-10-13 11:45:34 GMT 55.440083 -4.099149 15,475 88 307 -1408
2021-10-13 11:45:33 GMT 55.440037 -4.101646 15,500 90 308 -1472
2021-10-13 11:45:32 GMT 55.439991 -4.106889 15,550 95 309 -1472
2021-10-13 11:45:30 GMT 55.439991 -4.108887 15,575 95 309 -1472
2021-10-13 11:45:29 GMT 55.440269 -4.115628 15,650 97 309 -1408
2021-10-13 11:45:26 GMT 55.440735 -4.121787 15,700 100 310 -1408
2021-10-13 11:45:24 GMT 55.441013 -4.124284 15,725 103 311 -1408
2021-10-13 11:45:23 GMT 55.441360 -4.126982 15,750 105 311 -1408
2021-10-13 11:45:22 GMT 55.441589 -4.128921 15,775 106 311 -1408
2021-10-13 11:45:19 GMT 55.442738 -4.135770 15,850 111 311 -1408
2021-10-13 11:45:18 GMT 55.444321 -4.143047 15,900 114 312 -1408
2021-10-13 11:45:16 GMT 55.444321 -4.143047 15,900 114 312 -1408
2021-10-13 11:45:14 GMT 55.445251 -4.146507 15,950 117 312 -1408
2021-10-13 11:45:13 GMT 55.446487 -4.150835 15,975 120 312 -1344
2021-10-13 11:45:11 GMT 55.447811 -4.155064 16,025 123 313 -1344
2021-10-13 11:45:09 GMT 55.449417 -4.159324 16,100 127 314 -1280
2021-10-13 11:45:08 GMT 55.450058 -4.161072 16,100 130 314 -1280
2021-10-13 11:45:07 GMT 55.451019 -4.163319 16,125 130 314 -1280
2021-10-13 11:45:05 GMT 55.452934 -4.167509 16,150 135 314 -1344
2021-10-13 11:45:03 GMT 55.454285 -4.170084 16,200 135 314 -1344
2021-10-13 11:45:02 GMT 55.455585 -4.172573 16,225 136 316 -1344
2021-10-13 11:45:01 GMT 55.456512 -4.174222 16,275 138 315 -1344
2021-10-13 11:44:59 GMT 55.458481 -4.177218 16,300 141 314 -1408
2021-10-13 11:44:58 GMT 55.459717 -4.179049 16,300 144 313 -1408
2021-10-13 11:44:57 GMT 55.460861 -4.180631 16,325 144 313 -1408
2021-10-13 11:44:55 GMT 55.463242 -4.183627 16,375 147 312 -1472
2021-10-13 11:44:54 GMT 55.464569 -4.185208 16,400 149 312 -1472
2021-10-13 11:44:53 GMT 55.465687 -4.186392 16,425 151 313 -1472
2021-10-13 11:44:51 GMT 55.468109 -4.188795 16,475 152 314 -1408
2021-10-13 11:44:50 GMT 55.469364 -4.189997 16,525 153 313 -1344
2021-10-13 11:44:48 GMT 55.472343 -4.192743 16,550 154 314 -1216
2021-10-13 11:44:46 GMT 55.474823 -4.194863 16,575 154 315 -1216
2021-10-13 11:44:45 GMT 55.476151 -4.195945 16,625 154 314 -1216
2021-10-13 11:44:43 GMT 55.480225 -4.199357 16,675 154 315 -1216
2021-10-13 11:44:40 GMT 55.482727 -4.201498 16,725 154 315 -1280
2021-10-13 11:44:39 GMT 55.483749 -4.202356 16,725 154 315 -1280
2021-10-13 11:44:36 GMT 55.488873 -4.206734 16,850 154 315 -1344
2021-10-13 11:44:33 GMT 55.491760 -4.209179 16,850 154 315 -1344
2021-10-13 11:44:32 GMT 55.493362 -4.210427 16,875 154 315 -1344
2021-10-13 11:44:30 GMT 55.495712 -4.212484 16,925 154 315 -1344
2021-10-13 11:44:29 GMT 55.497162 -4.213673 16,950 154 317 -1344
2021-10-13 11:44:28 GMT 55.498367 -4.214716 16,975 154 317 -1344
2021-10-13 11:44:26 GMT 55.501007 -4.216919 17,025 154 317 -1280
2021-10-13 11:44:25 GMT 55.502838 -4.218500 17,050 154 317 -1280
2021-10-13 11:44:23 GMT 55.505211 -4.220467 17,075 154 317 -1280
2021-10-13 11:44:22 GMT 55.506561 -4.221582 17,125 154 317 -1344
2021-10-13 11:44:20 GMT 55.509064 -4.223661 17,150 154 317 -1344
2021-10-13 11:44:19 GMT 55.510239 -4.224672 17,225 154 317 -1408
2021-10-13 11:44:17 GMT 55.514336 -4.228191 17,250 154 317 -1472
2021-10-13 11:44:15 GMT 55.515778 -4.229393 17,275 154 317 -1472
2021-10-13 11:44:14 GMT 55.517082 -4.230509 17,325 154 317 -1472
2021-10-13 11:44:13 GMT 55.519733 -4.232740 17,350 154 317 -1472
2021-10-13 11:44:11 GMT 55.521179 -4.233942 17,375 154 316 -1472
2021-10-13 11:44:10 GMT 55.522659 -4.235229 17,400 154 316 -1472
2021-10-13 11:44:09 GMT 55.526184 -4.238226 17,450 154 316 -1408
2021-10-13 11:44:07 GMT 55.526184 -4.238226 17,450 155 316 -1408
2021-10-13 11:44:06 GMT 55.527416 -4.239178 17,500 155 316 -1344
2021-10-13 11:44:04 GMT 55.530304 -4.241555 17,525 156 316 -1280
2021-10-13 11:44:03 GMT 55.531513 -4.242525 17,550 158 313 -1280
2021-10-13 11:44:01 GMT 55.534214 -4.244671 17,600 159 313 -1280
2021-10-13 11:43:59 GMT 55.537331 -4.246817 17,650 162 312 -1344
2021-10-13 11:43:58 GMT 55.538544 -4.247631 17,675 164 311 -1408
2021-10-13 11:43:57 GMT 55.541473 -4.249212 17,700 167 310 -1472
2021-10-13 11:43:55 GMT 55.542892 -4.249795 17,775 170 309 -1408
2021-10-13 11:43:53 GMT 55.546268 -4.251022 17,800 175 307 -1408
2021-10-13 11:43:51 GMT 55.548981 -4.251792 17,825 175 307 -1408
2021-10-13 11:43:49 GMT 55.551296 -4.252310 17,850 177 307 -1344
2021-10-13 11:43:48 GMT 55.552551 -4.252458 17,900 181 306 -1344
2021-10-13 11:43:47 GMT 55.554291 -4.252541 17,925 183 305 -1280
2021-10-13 11:43:46 GMT 55.556000 -4.252481 17,950 184 304 -1280
2021-10-13 11:43:44 GMT 55.558838 -4.252310 17,975 188 303 -1280
2021-10-13 11:43:42 GMT 55.561539 -4.251795 18,025 191 303 -1280
2021-10-13 11:43:39 GMT 55.565277 -4.250793 18,075 196 301 -1280
2021-10-13 11:43:38 GMT 55.566788 -4.250128 18,100 198 300 -1280
2021-10-13 11:43:36 GMT 55.569489 -4.248879 18,150 201 299 -1344
2021-10-13 11:43:35 GMT 55.570942 -4.248018 18,175 203 299 -1344
2021-10-13 11:43:32 GMT 55.574844 -4.245300 18,250 207 297 -1408
2021-10-13 11:43:30 GMT 55.577454 -4.243136 18,300 209 297 -1344
2021-10-13 11:43:29 GMT 55.578690 -4.241971 18,325 210 297 -1280
2021-10-13 11:43:27 GMT 55.580486 -4.240208 18,350 211 297 -1216
2021-10-13 11:43:26 GMT 55.582031 -4.238642 18,375 212 297 -1152
2021-10-13 11:43:25 GMT 55.583313 -4.237310 18,400 212 297 -1152
2021-10-13 11:43:23 GMT 55.586746 -4.233648 18,475 212 298 -1152
2021-10-13 11:43:21 GMT 55.588261 -4.231968 18,475 212 298 -1152
2021-10-13 11:43:20 GMT 55.589310 -4.230818 18,500 212 299 -1152
2021-10-13 11:43:17 GMT 55.592636 -4.227247 18,550 212 299 -1152
2021-10-13 11:43:16 GMT 55.595104 -4.224586 18,575 212 300 -1152
2021-10-13 11:43:13 GMT 55.597824 -4.221580 18,625 212 300 -1152
2021-10-13 11:43:12 GMT 55.599945 -4.219265 18,675 212 301 -1152
2021-10-13 11:43:10 GMT 55.603714 -4.215145 18,725 212 302 -1216
2021-10-13 11:43:08 GMT 55.603714 -4.215145 18,750 212 302 -1216
2021-10-13 11:43:07 GMT 55.604919 -4.213839 18,750 212 302 -1216
2021-10-13 11:43:05 GMT 55.608215 -4.210261 18,825 212 303 -1280
2021-10-13 11:43:03 GMT 55.609314 -4.209095 18,850 212 303 -1280
2021-10-13 11:43:02 GMT 55.611694 -4.206515 18,875 212 303 -1344
2021-10-13 11:42:59 GMT 55.614441 -4.203519 18,925 212 303 -1344
2021-10-13 11:42:57 GMT 55.616592 -4.201189 18,975 212 303 -1344
2021-10-13 11:42:56 GMT 55.617783 -4.199857 19,000 212 304 -1408
2021-10-13 11:42:55 GMT 55.619217 -4.198322 19,025 212 305 -1408
2021-10-13 11:42:53 GMT 55.621490 -4.195862 19,050 212 305 -1408
2021-10-13 11:42:52 GMT 55.622681 -4.194530 19,100 212 305 -1472
2021-10-13 11:42:51 GMT 55.624619 -4.192486 19,125 212 305 -1536
2021-10-13 11:42:48 GMT 55.627037 -4.189825 19,175 212 305 -1536
2021-10-13 11:42:47 GMT 55.630829 -4.185625 19,250 212 305 -1536
2021-10-13 11:42:45 GMT 55.630829 -4.185625 19,250 212 305 -1536
2021-10-13 11:42:44 GMT 55.632065 -4.184376 19,300 212 305 -1536
2021-10-13 11:42:43 GMT 55.634583 -4.181546 19,350 212 305 -1472
2021-10-13 11:42:41 GMT 55.635773 -4.180298 19,375 212 305 -1472
2021-10-13 11:42:40 GMT 55.636963 -4.178966 19,400 212 305 -1472
2021-10-13 11:42:38 GMT 55.639374 -4.176350 19,425 212 305 -1408
2021-10-13 11:42:37 GMT 55.640587 -4.174976 19,450 212 305 -1408
2021-10-13 11:42:36 GMT 55.641632 -4.173806 19,475 212 305 -1344
2021-10-13 11:42:35 GMT 55.644150 -4.171059 19,550 212 306 -1344
2021-10-13 11:42:33 GMT 55.646450 -4.168539 19,575 212 307 -1344
2021-10-13 11:42:31 GMT 55.647675 -4.167231 19,625 212 307 -1344
2021-10-13 11:42:29 GMT 55.650284 -4.164318 19,650 212 307 -1344
2021-10-13 11:42:27 GMT 55.652847 -4.161571 19,700 212 308 -1344
2021-10-13 11:42:25 GMT 55.655273 -4.158908 19,725 212 308 -1344
2021-10-13 11:42:23 GMT 55.657669 -4.156265 19,775 212 308 -1280
2021-10-13 11:42:22 GMT 55.658752 -4.155079 19,800 212 308 -1280
2021-10-13 11:42:20 GMT 55.661068 -4.152575 19,825 212 308 -1280
2021-10-13 11:42:19 GMT 55.662277 -4.151287 19,850 212 308 -1280
2021-10-13 11:42:18 GMT 55.663582 -4.149828 19,875 212 308 -1280
2021-10-13 11:42:17 GMT 55.664703 -4.148587 19,900 212 308 -1216
2021-10-13 11:42:15 GMT 55.667130 -4.146007 19,950 212 308 -1216
2021-10-13 11:42:14 GMT 55.668457 -4.144509 19,975 212 310 -1216
2021-10-13 11:42:13 GMT 55.669418 -4.143427 19,975 212 310 -1280
2021-10-13 11:42:11 GMT 55.672119 -4.140514 20,025 212 310 -1280
2021-10-13 11:42:10 GMT 55.673309 -4.139185 20,050 212 310 -1280
2021-10-13 11:42:09 GMT 55.674522 -4.137897 20,075 212 310 -1344
2021-10-13 11:42:08 GMT 55.676991 -4.135237 20,125 212 310 -1344
2021-10-13 11:42:06 GMT 55.678070 -4.134022 20,125 212 310 -1408
2021-10-13 11:42:05 GMT 55.679169 -4.132774 20,150 212 311 -1408
2021-10-13 11:42:03 GMT 55.681366 -4.130443 20,225 212 311 -1408
2021-10-13 11:42:02 GMT 55.682327 -4.129361 20,250 212 311 -1408
2021-10-13 11:42:00 GMT 55.685394 -4.126032 20,275 212 311 -1408
2021-10-13 11:41:59 GMT 55.686127 -4.125200 20,300 212 311 -1408
2021-10-13 11:41:58 GMT 55.687454 -4.123702 20,325 212 311 -1408
2021-10-13 11:41:56 GMT 55.690304 -4.120646 20,375 212 311 -1408
2021-10-13 11:41:55 GMT 55.692722 -4.117985 20,425 212 311 -1408
2021-10-13 11:41:53 GMT 55.693466 -4.117126 20,425 212 311 -1408
2021-10-13 11:41:52 GMT 55.694817 -4.115667 20,475 212 312 -1408
2021-10-13 11:41:51 GMT 55.698349 -4.111800 20,525 212 313 -1344
2021-10-13 11:41:49 GMT 55.698349 -4.111800 20,525 212 313 -1344
2021-10-13 11:41:48 GMT 55.700226 -4.109802 20,575 212 313 -1408
2021-10-13 11:41:46 GMT 55.702423 -4.107389 20,600 212 313 -1408
2021-10-13 11:41:45 GMT 55.703522 -4.106140 20,625 212 313 -1408
2021-10-13 11:41:42 GMT 55.707340 -4.101934 20,700 212 313 -1472
2021-10-13 11:41:40 GMT 55.709793 -4.099315 20,775 212 313 -1472
2021-10-13 11:41:39 GMT 55.711029 -4.097900 20,775 212 313 -1472
2021-10-13 11:41:38 GMT 55.711761 -4.097151 20,800 212 313 -1472
2021-10-13 11:41:35 GMT 55.715443 -4.093094 20,850 212 313 -1536
2021-10-13 11:41:34 GMT 55.717304 -4.091034 20,900 212 313 -1472
2021-10-13 11:41:33 GMT 55.719490 -4.088631 20,950 212 313 -1472
2021-10-13 11:41:31 GMT 55.720749 -4.087257 20,975 212 313 -1472
2021-10-13 11:41:29 GMT 55.723309 -4.084425 21,025 212 313 -1472
2021-10-13 11:41:27 GMT 55.725677 -4.081920 21,075 212 314 -1408
2021-10-13 11:41:26 GMT 55.727005 -4.080422 21,100 212 314 -1408
2021-10-13 11:41:25 GMT 55.730618 -4.076443 21,150 212 314 -1344
2021-10-13 11:41:23 GMT 55.730618 -4.076443 21,150 212 314 -1344
2021-10-13 11:41:22 GMT 55.731968 -4.074984 21,200 212 314 -1344
2021-10-13 11:41:21 GMT 55.733322 -4.073514 21,200 212 314 -1344
2021-10-13 11:41:20 GMT 55.735783 -4.070778 21,225 212 316 -1280
2021-10-13 11:41:18 GMT 55.736938 -4.069602 21,275 212 316 -1280
2021-10-13 11:41:17 GMT 55.738297 -4.068117 21,300 212 316 -1280
2021-10-13 11:41:15 GMT 55.740738 -4.065358 21,325 212 316 -1280
2021-10-13 11:41:14 GMT 55.742020 -4.064026 21,350 212 316 -1280
2021-10-13 11:41:12 GMT 55.744350 -4.061422 21,450 212 316 -1280
2021-10-13 11:41:10 GMT 55.747002 -4.058590 21,450 212 317 -1344
2021-10-13 11:41:09 GMT 55.749470 -4.055929 21,500 212 317 -1344
2021-10-13 11:41:07 GMT 55.750866 -4.054384 21,525 212 318 -1408
2021-10-13 11:41:06 GMT 55.751999 -4.053206 21,550 212 318 -1408
2021-10-13 11:41:05 GMT 55.754379 -4.050626 21,575 212 318 -1472
2021-10-13 11:41:03 GMT 55.755615 -4.049294 21,625 211 318 -1536
2021-10-13 11:41:02 GMT 55.756897 -4.047963 21,625 211 318 -1536
2021-10-13 11:41:01 GMT 55.759277 -4.045382 21,675 211 318 -1472
2021-10-13 11:40:59 GMT 55.760410 -4.044170 21,700 211 318 -1472
2021-10-13 11:40:58 GMT 55.761665 -4.042797 21,725 211 319 -1472
2021-10-13 11:40:55 GMT 55.765575 -4.038677 21,800 211 319 -1472
2021-10-13 11:40:54 GMT 55.768230 -4.035845 21,850 211 319 -1472
2021-10-13 11:40:52 GMT 55.769489 -4.034472 21,875 211 319 -1536
2021-10-13 11:40:51 GMT 55.770744 -4.033184 21,900 211 319 -1536
2021-10-13 11:40:48 GMT 55.774189 -4.029493 21,975 212 319 -1536
2021-10-13 11:40:46 GMT 55.778458 -4.024908 22,075 212 319 -1536
2021-10-13 11:40:44 GMT 55.779739 -4.023576 22,100 212 319 -1536
2021-10-13 11:40:42 GMT 55.782394 -4.020746 22,125 212 319 -1536
2021-10-13 11:40:41 GMT 55.783546 -4.019537 22,150 212 319 -1536
2021-10-13 11:40:39 GMT 55.785686 -4.017220 22,200 212 320 -1536
2021-10-13 11:40:38 GMT 55.787064 -4.015753 22,225 212 321 -1536
2021-10-13 11:40:37 GMT 55.788200 -4.014559 22,250 212 321 -1536
2021-10-13 11:40:36 GMT 55.789856 -4.012756 22,275 212 321 -1536
2021-10-13 11:40:35 GMT 55.792511 -4.009927 22,375 212 321 -1536
2021-10-13 11:40:32 GMT 55.797325 -4.004688 22,425 212 321 -1472
2021-10-13 11:40:30 GMT 55.797325 -4.004688 22,425 212 321 -1472
2021-10-13 11:40:28 GMT 55.801285 -4.000483 22,500 212 321 -1536
2021-10-13 11:40:26 GMT 55.802540 -3.999109 22,525 212 321 -1472
2021-10-13 11:40:25 GMT 55.803799 -3.997736 22,550 212 321 -1472
2021-10-13 11:40:24 GMT 55.806728 -3.994646 22,625 212 321 -1472
2021-10-13 11:40:22 GMT 55.807987 -3.993273 22,650 212 321 -1472
2021-10-13 11:40:21 GMT 55.809010 -3.992157 22,650 212 322 -1472
2021-10-13 11:40:19 GMT 55.811829 -3.989119 22,725 212 322 -1408
2021-10-13 11:40:18 GMT 55.814346 -3.986373 22,775 212 322 -1408
2021-10-13 11:40:16 GMT 55.815529 -3.985205 22,775 212 323 -1408
2021-10-13 11:40:14 GMT 55.817947 -3.982544 22,800 212 323 -1408
2021-10-13 11:40:12 GMT 55.820343 -3.979964 22,875 212 323 -1408
2021-10-13 11:40:11 GMT 55.823044 -3.977134 22,925 211 324 -1472
2021-10-13 11:40:09 GMT 55.824051 -3.975969 22,950 211 325 -1472
2021-10-13 11:40:07 GMT 55.829353 -3.970442 23,050 211 325 -1472
2021-10-13 11:40:05 GMT 55.829353 -3.970442 23,050 211 324 -1472
2021-10-13 11:40:04 GMT 55.830734 -3.968894 23,075 211 324 -1472
2021-10-13 11:40:03 GMT 55.832016 -3.967563 23,100 211 324 -1472
2021-10-13 11:40:01 GMT 55.834892 -3.964520 23,150 211 325 -1472
2021-10-13 11:39:59 GMT 55.838745 -3.960405 23,225 211 326 -1472
2021-10-13 11:39:57 GMT 55.839920 -3.959198 23,250 211 326 -1472
2021-10-13 11:39:56 GMT 55.842621 -3.956366 23,300 211 326 -1472
2021-10-13 11:39:54 GMT 55.844055 -3.954828 23,325 211 326 -1472
2021-10-13 11:39:53 GMT 55.845062 -3.953746 23,350 211 326 -1472
2021-10-13 11:39:51 GMT 55.847649 -3.950958 23,400 211 326 -1472
2021-10-13 11:39:50 GMT 55.848816 -3.949751 23,400 211 326 -1472
2021-10-13 11:39:48 GMT 55.851288 -3.947171 23,450 211 327 -1472
2021-10-13 11:39:47 GMT 55.852722 -3.945637 23,475 211 328 -1408
2021-10-13 11:39:46 GMT 55.854027 -3.944263 23,500 211 328 -1408
2021-10-13 11:39:44 GMT 55.856369 -3.941761 23,575 211 328 -1344
2021-10-13 11:39:43 GMT 55.857651 -3.940430 23,575 211 328 -1344
2021-10-13 11:39:41 GMT 55.860123 -3.937766 23,625 211 329 -1280
2021-10-13 11:39:40 GMT 55.861450 -3.936435 23,625 211 329 -1280
2021-10-13 11:39:39 GMT 55.865479 -3.932190 23,700 211 329 -1280
2021-10-13 11:39:37 GMT 55.865479 -3.932190 23,700 211 329 -1280
2021-10-13 11:39:36 GMT 55.866806 -3.930775 23,725 211 330 -1344
2021-10-13 11:39:33 GMT 55.870739 -3.926668 23,800 211 331 -1408
2021-10-13 11:39:32 GMT 55.872208 -3.925115 23,825 211 331 -1536
2021-10-13 11:39:31 GMT 55.875626 -3.921604 23,875 211 331 -1536
2021-10-13 11:39:27 GMT 55.878387 -3.918707 23,950 211 331 -1600
2021-10-13 11:39:26 GMT 55.881027 -3.915939 24,000 211 332 -1600
2021-10-13 11:39:23 GMT 55.883011 -3.913879 24,025 211 332 -1600
2021-10-13 11:39:22 GMT 55.884472 -3.912334 24,075 211 332 -1600
2021-10-13 11:39:21 GMT 55.886581 -3.910134 24,100 211 333 -1664
2021-10-13 11:39:20 GMT 55.887775 -3.908901 24,125 211 333 -1664
2021-10-13 11:39:19 GMT 55.892155 -3.904266 24,225 211 333 -1728
2021-10-13 11:39:17 GMT 55.892155 -3.904266 24,225 211 333 -1728
2021-10-13 11:39:16 GMT 55.893311 -3.903060 24,250 211 333 -1728
2021-10-13 11:39:14 GMT 55.895969 -3.900232 24,300 211 333 -1728
2021-10-13 11:39:13 GMT 55.897430 -3.898732 24,350 211 333 -1920
2021-10-13 11:39:12 GMT 55.898895 -3.897150 24,375 211 333 -1920
2021-10-13 11:39:11 GMT 55.902206 -3.893709 24,450 211 333 -1920
2021-10-13 11:39:09 GMT 55.902206 -3.893709 24,450 211 333 -1920
2021-10-13 11:39:07 GMT 55.905624 -3.890076 24,525 211 333 -1984
2021-10-13 11:39:05 GMT 55.907227 -3.888411 24,575 211 333 -1984
2021-10-13 11:39:04 GMT 55.909332 -3.886156 24,625 211 333 -1984
2021-10-13 11:39:03 GMT 55.910400 -3.885040 24,650 211 333 -1984
2021-10-13 11:39:02 GMT 55.914219 -3.881006 24,725 211 333 -1856
2021-10-13 11:39:00 GMT 55.914219 -3.881006 24,750 211 333 -1728
2021-10-13 11:38:58 GMT 55.917297 -3.877841 24,800 211 333 -1600
2021-10-13 11:38:57 GMT 55.918762 -3.876343 24,825 211 334 -1344
2021-10-13 11:38:56 GMT 55.920223 -3.874826 24,850 211 334 -1152
2021-10-13 11:38:54 GMT 55.923660 -3.871183 24,875 211 336 -576
2021-10-13 11:38:52 GMT 55.925537 -3.869185 24,900 211 338 -384
2021-10-13 11:38:50 GMT 55.930885 -3.863583 24,925 211 340 -512
2021-10-13 11:38:48 GMT 55.930885 -3.863583 24,925 211 340 -512
2021-10-13 11:38:46 GMT 55.933044 -3.861278 24,925 211 340 -512
2021-10-13 11:38:45 GMT 55.934418 -3.859863 24,950 211 341 -512
2021-10-13 11:38:44 GMT 55.935745 -3.858448 24,950 211 342 -448
2021-10-13 11:38:43 GMT 55.937119 -3.857033 24,975 211 343 -384
2021-10-13 11:38:41 GMT 55.941330 -3.852539 24,975 211 343 -192
2021-10-13 11:38:40 GMT 55.941330 -3.852539 24,975 211 344 -64
2021-10-13 11:38:38 GMT 55.943527 -3.850292 24,975 211 345 -64
2021-10-13 11:38:37 GMT 55.945175 -3.848476 24,975 211 346 0
2021-10-13 11:38:35 GMT 55.948483 -3.845043 24,975 211 346 0
2021-10-13 11:38:33 GMT 55.950668 -3.842718 24,975 211 347 0
2021-10-13 11:38:32 GMT 55.952042 -3.841220 24,975 211 348 0
2021-10-13 11:38:31 GMT 55.953415 -3.839805 24,975 211 348 0
2021-10-13 11:38:29 GMT 55.956024 -3.836975 24,975 211 350 0
2021-10-13 11:38:28 GMT 55.957558 -3.835430 24,975 211 350 0
2021-10-13 11:38:26 GMT 55.961609 -3.831139 24,975 211 352 0
2021-10-13 11:38:23 GMT 55.965775 -3.826738 24,975 211 352 64
2021-10-13 11:38:22 GMT 55.968452 -3.823843 24,975 211 353 64
2021-10-13 11:38:19 GMT 55.970123 -3.822077 24,975 211 354 64
2021-10-13 11:38:18 GMT 55.971497 -3.820579 24,975 211 354 64
2021-10-13 11:38:17 GMT 55.972916 -3.819081 24,975 211 355 64
2021-10-13 11:38:15 GMT 55.976318 -3.815517 24,975 212 357 64
2021-10-13 11:38:13 GMT 55.979828 -3.811756 24,975 211 357 0
2021-10-13 11:38:11 GMT 55.982803 -3.808511 24,975 211 359 0
2021-10-13 11:38:10 GMT 55.982803 -3.808511 24,975 212 360 0
2021-10-13 11:38:09 GMT 55.987213 -3.803844 24,975 212 360 0
2021-10-13 11:38:07 GMT 55.987213 -3.803844 24,975 212 360 0
2021-10-13 11:38:06 GMT 55.990036 -3.800770 24,975 212 362 0
2021-10-13 11:38:04 GMT 55.991634 -3.799124 24,975 212 362 0
2021-10-13 11:38:03 GMT 55.993031 -3.797579 24,975 212 362 64
2021-10-13 11:38:01 GMT 55.995777 -3.794661 24,975 212 363 64
2021-10-13 11:38:00 GMT 55.997223 -3.793116 24,975 212 364 64
2021-10-13 11:37:59 GMT 56.000061 -3.789950 24,975 212 365 64
2021-10-13 11:37:57 GMT 56.001644 -3.788309 24,975 212 365 64
2021-10-13 11:37:56 GMT 56.003086 -3.786764 24,975 212 365 0
2021-10-13 11:37:54 GMT 56.006012 -3.783625 24,975 212 367 0
2021-10-13 11:37:53 GMT 56.007278 -3.782215 24,975 212 367 0
2021-10-13 11:37:52 GMT 56.008766 -3.780670 24,975 212 367 0
2021-10-13 11:37:51 GMT 56.011791 -3.777323 24,975 212 369 0
2021-10-13 11:37:49 GMT 56.013382 -3.775635 24,975 212 369 0
2021-10-13 11:37:48 GMT 56.014847 -3.774053 24,975 212 370 0
2021-10-13 11:37:46 GMT 56.017471 -3.771229 24,975 212 370 0
2021-10-13 11:37:45 GMT 56.018963 -3.769684 24,975 212 371 0
2021-10-13 11:37:44 GMT 56.020569 -3.767894 24,975 212 371 0
2021-10-13 11:37:42 GMT 56.023476 -3.764706 24,975 212 372 64
2021-10-13 11:37:39 GMT 56.027153 -3.760757 24,975 212 374 64
2021-10-13 11:37:36 GMT 56.031300 -3.756294 24,975 212 376 64
2021-10-13 11:37:34 GMT 56.038879 -3.748086 24,975 212 379 0
2021-10-13 11:37:31 GMT 56.038879 -3.748086 24,975 212 382 -64
2021-10-13 11:37:29 GMT 56.042332 -3.744278 24,975 212 389 -64
2021-10-13 11:37:26 GMT 56.046570 -3.739680 24,975 212 386 0
2021-10-13 11:37:23 GMT 56.052200 -3.733521 24,975 212 389 -64
2021-10-13 11:37:21 GMT 56.054482 -3.731060 24,975 212 391 -64
2021-10-13 11:37:18 GMT 56.058346 -3.726768 24,975 212 396 -128
2021-10-13 11:37:15 GMT 56.063599 -3.721036 24,975 212 396 -128
2021-10-13 11:37:12 GMT 56.069237 -3.714838 24,975 212 399 -64
2021-10-13 11:37:09 GMT 56.074905 -3.708552 24,975 212 405 -64
2021-10-13 11:37:06 GMT 56.079483 -3.703391 24,975 212 409 0
2021-10-13 11:37:03 GMT 56.083008 -3.699563 24,975 212 411 -64
2021-10-13 11:37:01 GMT 56.084793 -3.697565 24,975 212 412 -64
2021-10-13 11:36:59 GMT 56.089161 -3.692780 24,975 212 420 0
2021-10-13 11:36:56 GMT 56.094360 -3.686912 24,975 212 420 0
2021-10-13 11:36:52 GMT 56.100613 -3.679991 24,975 212 423 -64
2021-10-13 11:36:49 GMT 56.107773 -3.672097 24,975 212 427 -64
2021-10-13 11:36:46 GMT 56.110947 -3.668575 25,000 212 429 -64
2021-10-13 11:36:43 GMT 56.115692 -3.663358 25,000 212 429 0
2021-10-13 11:36:41 GMT 56.117840 -3.660936 25,000 212 429 0
2021-10-13 11:36:39 GMT 56.122238 -3.656117 25,000 212 429 0
2021-10-13 11:36:36 GMT 56.127457 -3.650291 25,000 212 429 0
2021-10-13 11:36:33 GMT 56.131664 -3.645658 25,000 212 429 0
2021-10-13 11:36:31 GMT 56.141602 -3.634644 25,000 212 429 0
2021-10-13 11:36:28 GMT 56.141602 -3.634644 25,000 212 429 0
2021-10-13 11:36:25 GMT 56.146866 -3.628817 25,000 212 429 0
2021-10-13 11:36:22 GMT 56.151402 -3.623772 25,000 212 430 64
2021-10-13 11:36:19 GMT 56.156479 -3.618164 25,000 212 430 64
2021-10-13 11:36:16 GMT 56.162704 -3.611256 25,000 212 430 64
2021-10-13 11:36:13 GMT 56.166763 -3.606777 25,000 212 430 64
2021-10-13 11:36:11 GMT 56.169140 -3.604116 25,000 212 430 64
2021-10-13 11:36:09 GMT 56.174026 -3.598709 25,000 212 431 0
2021-10-13 11:36:06 GMT 56.178406 -3.593861 25,000 212 431 0
2021-10-13 11:36:03 GMT 56.182823 -3.589010 25,000 212 430 0
2021-10-13 11:36:01 GMT 56.185524 -3.586006 25,000 212 430 0
2021-10-13 11:35:58 GMT 56.191269 -3.579712 25,000 212 430 -64
2021-10-13 11:35:55 GMT 56.197220 -3.573137 25,000 212 429 -64
2021-10-13 11:35:52 GMT 56.203308 -3.566437 25,000 212 430 -64
2021-10-13 11:35:48 GMT 56.208569 -3.560686 25,000 212 429 -64
2021-10-13 11:35:44 GMT 56.214294 -3.554335 25,000 212 429 -64
2021-10-13 11:35:41 GMT 56.219742 -3.548334 25,000 212 429 -64
2021-10-13 11:35:38 GMT 56.225140 -3.542404 25,000 212 428 0
2021-10-13 11:35:35 GMT 56.229656 -3.537340 25,000 212 428 0
2021-10-13 11:35:33 GMT 56.236771 -3.529524 25,000 212 428 64
2021-10-13 11:35:31 GMT 56.236771 -3.529524 25,000 212 428 64
2021-10-13 11:35:28 GMT 56.242630 -3.523032 25,000 212 428 0
2021-10-13 11:35:25 GMT 56.246338 -3.518954 25,000 212 428 0
2021-10-13 11:35:23 GMT 56.250549 -3.514293 25,000 212 428 0
2021-10-13 11:35:21 GMT 56.254234 -3.510218 25,000 212 427 0
2021-10-13 11:35:18 GMT 56.263500 -3.500004 25,000 212 427 64
2021-10-13 11:35:15 GMT 56.267853 -3.495150 25,000 212 427 64
2021-10-13 11:35:13 GMT 56.267853 -3.495150 25,000 212 427 64
2021-10-13 11:35:11 GMT 56.271423 -3.491239 25,000 212 427 64
2021-10-13 11:35:08 GMT 56.275276 -3.486958 25,000 212 427 64
2021-10-13 11:35:05 GMT 56.279793 -3.481894 25,000 212 427 64
2021-10-13 11:35:03 GMT 56.285007 -3.476143 25,000 212 428 64
2021-10-13 11:35:01 GMT 56.287334 -3.473482 25,000 212 428 64
2021-10-13 11:34:58 GMT 56.292549 -3.467731 25,000 212 428 0
2021-10-13 11:34:55 GMT 56.297287 -3.462441 25,000 212 429 0
2021-10-13 11:34:52 GMT 56.306351 -3.452370 25,000 212 429 0
2021-10-13 11:34:50 GMT 56.306351 -3.452370 25,000 212 429 0
2021-10-13 11:34:47 GMT 56.310562 -3.447647 25,000 212 430 0
2021-10-13 11:34:44 GMT 56.316803 -3.440695 25,000 212 429 0
2021-10-13 11:34:41 GMT 56.321182 -3.435891 25,000 212 429 0
2021-10-13 11:34:39 GMT 56.329975 -3.426104 25,000 212 429 0
2021-10-13 11:34:36 GMT 56.336540 -3.418808 25,000 212 429 0
2021-10-13 11:34:33 GMT 56.336540 -3.418808 25,000 212 429 0
2021-10-13 11:34:30 GMT 56.346222 -3.408165 25,000 212 429 0
2021-10-13 11:34:27 GMT 56.349762 -3.404217 25,000 212 430 0
2021-10-13 11:34:24 GMT 56.349762 -3.404217 25,000 212 430 0
2021-10-13 11:34:21 GMT 56.354649 -3.398809 25,000 212 430 0
2021-10-13 11:34:18 GMT 56.360935 -3.391857 25,000 212 429 0
2021-10-13 11:34:15 GMT 56.365498 -3.386879 25,000 212 431 -64
2021-10-13 11:34:12 GMT 56.369545 -3.382330 25,000 212 431 64
2021-10-13 11:34:10 GMT 56.373596 -3.377880 25,000 212 431 64
2021-10-13 11:34:08 GMT 56.376984 -3.374051 25,000 212 431 64
2021-10-13 11:34:05 GMT 56.381882 -3.368641 25,000 212 431 0
2021-10-13 11:34:03 GMT 56.385269 -3.364896 25,000 212 431 -64
2021-10-13 11:34:00 GMT 56.390488 -3.358987 25,000 212 431 -64
2021-10-13 11:33:58 GMT 56.394058 -3.355075 25,000 212 431 -64
2021-10-13 11:33:55 GMT 56.399323 -3.349249 25,000 212 431 -64
2021-10-13 11:33:53 GMT 56.402504 -3.345594 25,000 212 431 -64
2021-10-13 11:33:50 GMT 56.407608 -3.340010 25,000 212 431 -64
2021-10-13 11:33:48 GMT 56.411163 -3.335981 25,000 212 432 -64
2021-10-13 11:33:45 GMT 56.416260 -3.330356 25,000 212 432 -64
2021-10-13 11:33:43 GMT 56.419830 -3.326361 25,000 212 431 0
2021-10-13 11:33:40 GMT 56.424755 -3.320961 25,000 212 431 0
2021-10-13 11:33:38 GMT 56.427971 -3.317356 25,000 212 431 0
2021-10-13 11:33:35 GMT 56.431870 -3.313044 25,000 212 432 64
2021-10-13 11:33:33 GMT 56.436954 -3.307400 25,000 212 432 192
2021-10-13 11:33:30 GMT 56.445969 -3.297397 24,950 212 431 832
2021-10-13 11:33:28 GMT 56.445969 -3.297397 24,950 212 431 832
2021-10-13 11:33:25 GMT 56.450089 -3.292902 24,925 212 430 1088
2021-10-13 11:33:23 GMT 56.453613 -3.288990 24,850 212 429 1536
2021-10-13 11:33:20 GMT 56.458878 -3.283248 24,800 212 429 1600
2021-10-13 11:33:17 GMT 56.463135 -3.278503 24,750 212 429 1664
2021-10-13 11:33:14 GMT 56.469040 -3.272011 24,600 212 429 1664
2021-10-13 11:33:11 GMT 56.480026 -3.259860 24,500 212 429 1664
2021-10-13 11:33:08 GMT 56.480026 -3.259860 24,350 212 429 1664
2021-10-13 11:33:05 GMT 56.483597 -3.255948 24,400 212 429 1664
2021-10-13 11:33:03 GMT 56.487808 -3.251287 24,325 212 429 1664
2021-10-13 11:33:00 GMT 56.492523 -3.246044 24,275 212 429 1728
2021-10-13 11:32:58 GMT 56.495087 -3.243214 24,125 212 428 1920
2021-10-13 11:32:55 GMT 56.500626 -3.237055 24,100 212 428 1984
2021-10-13 11:32:53 GMT 56.504883 -3.232477 24,025 212 428 1920
2021-10-13 11:32:50 GMT 56.509762 -3.227062 23,925 212 428 1856
2021-10-13 11:32:48 GMT 56.513855 -3.222656 23,850 212 427 1536
2021-10-13 11:32:45 GMT 56.518234 -3.217793 23,800 212 427 1472
2021-10-13 11:32:42 GMT 56.523449 -3.212128 23,750 212 427 1472
2021-10-13 11:32:39 GMT 56.527679 -3.207508 23,650 212 426 1600
2021-10-13 11:32:35 GMT 56.534435 -3.200197 23,550 212 425 1664
2021-10-13 11:32:33 GMT 56.539974 -3.194103 23,450 212 423 1792
2021-10-13 11:32:30 GMT 56.541458 -3.192444 23,375 212 423 1792
2021-10-13 11:32:28 GMT 56.546165 -3.187323 23,300 212 423 1728
2021-10-13 11:32:25 GMT 56.551334 -3.181658 23,250 212 423 1728
2021-10-13 11:32:23 GMT 56.555695 -3.176880 23,175 211 423 1728
2021-10-13 11:32:20 GMT 56.560043 -3.172136 23,100 212 422 1728
2021-10-13 11:32:18 GMT 56.563248 -3.168723 23,000 212 422 1792
2021-10-13 11:32:15 GMT 56.568230 -3.163204 22,975 212 422 1792
2021-10-13 11:32:13 GMT 56.572403 -3.158736 22,875 212 421 1856
2021-10-13 11:32:10 GMT 56.576614 -3.154158 22,825 212 421 1856
2021-10-13 11:32:07 GMT 56.581741 -3.148499 22,725 212 421 1792
2021-10-13 11:32:04 GMT 56.586758 -3.143034 22,625 212 421 1792
2021-10-13 11:32:02 GMT 56.589413 -3.140116 22,575 212 420 1792
2021-10-13 11:32:00 GMT 56.593231 -3.135976 22,525 212 420 1856
2021-10-13 11:31:57 GMT 56.597900 -3.130846 22,400 212 420 1856
2021-10-13 11:31:54 GMT 56.602386 -3.125954 22,350 212 419 1920
2021-10-13 11:31:52 GMT 56.605682 -3.122263 22,275 212 419 1856
2021-10-13 11:31:50 GMT 56.610168 -3.117371 22,200 212 419 1856
2021-10-13 11:31:48 GMT 56.612640 -3.114713 22,100 212 418 1856
2021-10-13 11:31:45 GMT 56.618591 -3.108187 22,025 212 418 1856
2021-10-13 11:31:42 GMT 56.622883 -3.103460 21,975 212 418 1856
2021-10-13 11:31:38 GMT 56.629486 -3.096170 21,800 212 416 1792
2021-10-13 11:31:35 GMT 56.634613 -3.090591 21,725 212 415 1792
2021-10-13 11:31:33 GMT 56.639053 -3.085699 21,650 212 415 1792
2021-10-13 11:31:30 GMT 56.642155 -3.082285 21,600 212 415 1792
2021-10-13 11:31:28 GMT 56.646252 -3.077767 21,500 212 414 1792
2021-10-13 11:31:25 GMT 56.650490 -3.073159 21,375 212 414 1792
2021-10-13 11:31:23 GMT 56.658508 -3.064327 21,325 212 412 1792
2021-10-13 11:31:20 GMT 56.658508 -3.064327 21,300 212 412 1792
2021-10-13 11:31:18 GMT 56.661896 -3.060578 21,200 212 411 1856
2021-10-13 11:31:15 GMT 56.667294 -3.054642 21,125 212 411 1856
2021-10-13 11:31:13 GMT 56.671509 -3.049994 21,050 212 411 1792
2021-10-13 11:31:11 GMT 56.673298 -3.047997 21,025 212 410 1728
2021-10-13 11:31:08 GMT 56.678467 -3.042269 20,900 212 409 1792
2021-10-13 11:31:04 GMT 56.683960 -3.036302 20,850 212 409 1792
2021-10-13 11:31:02 GMT 56.687851 -3.031969 20,575 212 407 2048
2021-10-13 11:30:59 GMT 56.696388 -3.022658 20,650 212 407 2048
2021-10-13 11:30:57 GMT 56.696388 -3.022658 20,575 212 407 2112
2021-10-13 11:30:54 GMT 56.700253 -3.018405 20,500 212 407 2112
2021-10-13 11:30:52 GMT 56.704304 -3.013975 20,425 212 407 2048
2021-10-13 11:30:49 GMT 56.707993 -3.009911 20,325 212 406 1920
2021-10-13 11:30:47 GMT 56.716827 -3.000154 20,250 212 406 1792
2021-10-13 11:30:44 GMT 56.716827 -3.000154 20,175 212 405 1792
2021-10-13 11:30:42 GMT 56.720032 -2.996607 20,100 212 404 1856
2021-10-13 11:30:39 GMT 56.724182 -2.992002 20,025 212 404 2112
2021-10-13 11:30:37 GMT 56.727997 -2.987838 19,900 212 403 2240
2021-10-13 11:30:34 GMT 56.732933 -2.982345 19,825 212 403 2304
2021-10-13 11:30:32 GMT 56.736740 -2.978153 19,750 212 403 2304
2021-10-13 11:30:29 GMT 56.742149 -2.972156 19,600 212 402 2496
2021-10-13 11:30:25 GMT 56.747738 -2.965954 19,450 212 402 2496
2021-10-13 11:30:23 GMT 56.751846 -2.961416 19,325 212 402 2432
2021-10-13 11:30:21 GMT 56.754089 -2.958927 19,275 212 402 2240
2021-10-13 11:30:18 GMT 56.759308 -2.953176 19,150 212 401 2048
2021-10-13 11:30:14 GMT 56.764683 -2.947260 18,975 212 400 1984
2021-10-13 11:30:12 GMT 56.767868 -2.943735 18,975 212 399 1984
2021-10-13 11:30:09 GMT 56.772129 -2.939020 18,875 212 398 2176
2021-10-13 11:30:07 GMT 56.776367 -2.934324 18,775 212 398 2304
2021-10-13 11:30:04 GMT 56.780323 -2.929983 18,700 212 398 2368
2021-10-13 11:30:02 GMT 56.783443 -2.926527 18,600 212 397 2304
2021-10-13 11:29:59 GMT 56.788147 -2.921333 18,500 212 397 2304
2021-10-13 11:29:55 GMT 56.794895 -2.913858 18,350 212 397 2240
2021-10-13 11:29:52 GMT 56.801468 -2.906570 18,175 212 396 2176
2021-10-13 11:29:49 GMT 56.803833 -2.904023 18,125 212 396 2048
2021-10-13 11:29:44 GMT 56.811653 -2.895340 17,975 212 395 1920
2021-10-13 11:29:42 GMT 56.814445 -2.892239 17,900 212 395 1984
2021-10-13 11:29:39 GMT 56.818962 -2.887278 17,800 212 393 2048
2021-10-13 11:29:37 GMT 56.823029 -2.882795 17,725 212 393 2112
2021-10-13 11:29:34 GMT 56.827698 -2.877645 17,600 212 392 2240
2021-10-13 11:29:32 GMT 56.834839 -2.869749 17,500 212 392 2240
2021-10-13 11:29:29 GMT 56.834839 -2.869749 17,375 212 392 2176
2021-10-13 11:29:24 GMT 56.843033 -2.860651 17,250 212 390 1920
2021-10-13 11:29:21 GMT 56.847198 -2.856102 17,175 212 389 1856
2021-10-13 11:29:18 GMT 56.851501 -2.851307 17,075 212 388 1984
2021-10-13 11:29:14 GMT 56.858871 -2.843142 16,900 212 387 2304
2021-10-13 11:29:12 GMT 56.861618 -2.840052 16,825 212 387 2368
2021-10-13 11:29:09 GMT 56.866333 -2.834816 16,725 212 386 2368
2021-10-13 11:29:04 GMT 56.873798 -2.826410 16,525 212 386 2176
2021-10-13 11:29:02 GMT 56.876549 -2.823398 16,125 213 383 2176
2021-10-13 11:28:59 GMT 56.881668 -2.817564 16,350 212 384 2048
2021-10-13 11:28:54 GMT 56.889221 -2.808981 16,175 213 383 2176
2021-10-13 11:28:51 GMT 56.893524 -2.803917 16,050 215 381 2112
2021-10-13 11:28:47 GMT 56.900848 -2.794561 15,900 218 377 1856
2021-10-13 11:28:44 GMT 56.907532 -2.785378 15,825 218 374 1920
2021-10-13 11:28:41 GMT 56.907532 -2.785378 15,725 218 374 2048
2021-10-13 11:28:38 GMT 56.911926 -2.779275 15,625 218 373 2368
2021-10-13 11:28:34 GMT 56.917233 -2.771833 15,450 218 372 2560
2021-10-13 11:28:32 GMT 56.919846 -2.768211 15,225 218 372 2240
2021-10-13 11:28:29 GMT 56.923279 -2.763405 15,275 218 372 2240
2021-10-13 11:28:27 GMT 56.926025 -2.759628 15,200 218 371 2112
2021-10-13 11:28:24 GMT 56.930920 -2.752784 15,075 218 370 1984
2021-10-13 11:28:22 GMT 56.933247 -2.749506 14,875 218 369 2048
2021-10-13 11:28:19 GMT 56.937012 -2.744265 14,875 218 369 2240
2021-10-13 11:28:17 GMT 56.939068 -2.741443 14,875 218 369 2240
2021-10-13 11:28:14 GMT 56.945164 -2.732938 14,700 218 368 2304
2021-10-13 11:28:11 GMT 56.949352 -2.727090 14,625 218 367 1856
2021-10-13 11:28:08 GMT 56.953266 -2.721597 14,500 218 366 1472
2021-10-13 11:28:05 GMT 56.956787 -2.716799 14,450 217 364 1280
2021-10-13 11:28:03 GMT 56.959316 -2.713269 14,425 217 363 1344
2021-10-13 11:27:59 GMT 56.964157 -2.706671 14,300 217 361 2240
2021-10-13 11:27:57 GMT 56.971481 -2.696543 14,100 218 359 2304
2021-10-13 11:27:54 GMT 56.971481 -2.696543 14,075 217 359 2112
2021-10-13 11:27:51 GMT 56.974121 -2.692891 14,025 217 357 1920
2021-10-13 11:27:48 GMT 56.983475 -2.680063 13,875 217 355 2112
2021-10-13 11:27:45 GMT 56.983475 -2.680063 13,750 217 355 2688
2021-10-13 11:27:43 GMT 56.984528 -2.678604 13,400 217 355 2880
2021-10-13 11:27:41 GMT 56.987946 -2.673931 13,600 217 355 2880
2021-10-13 11:27:38 GMT 56.992126 -2.668133 13,425 217 354 2880
2021-10-13 11:27:35 GMT 56.996605 -2.662058 13,300 217 354 2752
2021-10-13 11:27:32 GMT 56.998672 -2.659121 13,225 217 354 2688
2021-10-13 11:27:29 GMT 57.004028 -2.651825 13,050 217 352 2624
2021-10-13 11:27:27 GMT 57.006409 -2.648563 12,950 217 352 2688
2021-10-13 11:27:23 GMT 57.011082 -2.642123 12,800 217 351 2880
2021-10-13 11:27:21 GMT 57.014294 -2.637605 12,675 217 351 3008
2021-10-13 11:27:18 GMT 57.018448 -2.631912 12,475 217 351 3072
2021-10-13 11:27:15 GMT 57.024445 -2.623695 12,325 218 350 3072
2021-10-13 11:27:13 GMT 57.024445 -2.623695 12,275 218 350 3072
2021-10-13 11:27:08 GMT 57.031567 -2.613860 12,075 218 351 3136
2021-10-13 11:27:05 GMT 57.035431 -2.608480 11,825 218 352 3008
2021-10-13 11:27:03 GMT 57.037384 -2.605798 11,775 218 351 2880
2021-10-13 11:27:01 GMT 57.040085 -2.601988 11,675 218 350 2624
2021-10-13 11:26:58 GMT 57.049114 -2.589495 11,475 217 349 2432
2021-10-13 11:26:54 GMT 57.049114 -2.589495 11,400 218 347 2240
2021-10-13 11:26:52 GMT 57.051041 -2.586851 11,325 218 347 2112
2021-10-13 11:26:49 GMT 57.055664 -2.580500 11,225 218 344 1600
2021-10-13 11:26:47 GMT 57.058182 -2.576981 11,175 218 341 1024
2021-10-13 11:26:44 GMT 57.061684 -2.572041 11,150 218 339 768
2021-10-13 11:26:41 GMT 57.065826 -2.566282 11,100 218 334 1024
2021-10-13 11:26:38 GMT 57.068756 -2.562218 11,050 218 331 1280
2021-10-13 11:26:35 GMT 57.073368 -2.555739 10,975 218 328 1216
2021-10-13 11:26:33 GMT 57.075558 -2.552726 10,925 218 324 1024
2021-10-13 11:26:28 GMT 57.081161 -2.544794 10,850 218 321 896
2021-10-13 11:26:25 GMT 57.085968 -2.538013 10,800 218 316 768
2021-10-13 11:26:23 GMT 57.087112 -2.536383 10,800 218 316 768
2021-10-13 11:26:21 GMT 57.090454 -2.531662 10,750 218 310 1024
2021-10-13 11:26:18 GMT 57.093433 -2.527476 10,675 218 306 1152
2021-10-13 11:26:15 GMT 57.099289 -2.519217 10,600 218 303 1024
2021-10-13 11:26:13 GMT 57.099289 -2.519217 10,600 218 299 896
2021-10-13 11:26:09 GMT 57.103134 -2.513809 10,550 218 295 768
2021-10-13 11:26:07 GMT 57.105724 -2.510110 10,525 218 292 896
2021-10-13 11:26:04 GMT 57.108490 -2.506170 10,475 218 289 1152
2021-10-13 11:26:02 GMT 57.109867 -2.504174 10,450 218 287 1472
2021-10-13 11:25:59 GMT 57.114384 -2.497795 10,300 218 284 2496
2021-10-13 11:25:56 GMT 57.116455 -2.494841 10,200 218 283 2816
2021-10-13 11:25:53 GMT 57.120758 -2.488832 10,000 218 283 3008
2021-10-13 11:25:49 GMT 57.124146 -2.484026 9,825 218 284 3008
2021-10-13 11:25:47 GMT 57.126114 -2.481194 9,700 219 283 2944
2021-10-13 11:25:44 GMT 57.129227 -2.476730 9,600 219 283 2880
2021-10-13 11:25:38 GMT 57.135361 -2.467804 9,350 219 282 2816
2021-10-13 11:25:34 GMT 57.139343 -2.462053 9,125 219 281 2624
2021-10-13 11:25:32 GMT 57.141380 -2.459077 9,050 219 281 2688
2021-10-13 11:25:28 GMT 57.145660 -2.452784 8,900 219 279 2816
2021-10-13 11:25:22 GMT 57.151669 -2.443926 8,550 219 278 3200
2021-10-13 11:25:19 GMT 57.154789 -2.439319 8,375 219 278 3264
2021-10-13 11:25:17 GMT 57.155907 -2.437724 8,325 219 278 3264
2021-10-13 11:25:14 GMT 57.159958 -2.431877 8,100 219 278 3200
2021-10-13 11:25:12 GMT 57.161865 -2.429042 8,025 219 278 3136
2021-10-13 11:25:08 GMT 57.165665 -2.423429 7,800 219 278 2944
2021-10-13 11:25:04 GMT 57.169685 -2.417612 7,625 219 276 2816
2021-10-13 11:25:02 GMT 57.171825 -2.414511 7,575 219 276 2816
2021-10-13 11:24:58 GMT 57.175922 -2.408487 7,325 219 276 3072
2021-10-13 11:24:53 GMT 57.184582 -2.396083 6,950 218 276 3072
2021-10-13 11:24:50 GMT 57.184582 -2.396083 6,725 218 276 2688
2021-10-13 11:24:47 GMT 57.185978 -2.394134 6,800 218 276 2624
2021-10-13 11:24:43 GMT 57.191238 -2.386691 6,575 217 275 2432
2021-10-13 11:24:38 GMT 57.196518 -2.379398 6,350 218 273 2880
2021-10-13 11:24:33 GMT 57.201435 -2.372604 6,150 218 272 3136
2021-10-13 11:24:27 GMT 57.206741 -2.365162 5,825 218 270 3200
2021-10-13 11:24:23 GMT 57.211441 -2.358713 5,625 217 270 3200
2021-10-13 11:24:17 GMT 57.217216 -2.350720 5,300 216 268 2624
2021-10-13 11:24:14 GMT 57.220333 -2.346556 5,175 214 267 2304
2021-10-13 11:24:12 GMT 57.221451 -2.345138 5,125 213 266 2240
2021-10-13 11:24:07 GMT 57.227085 -2.338936 4,950 206 262 1856
2021-10-13 11:24:04 GMT 57.230904 -2.335481 4,850 204 261 1856
2021-10-13 11:24:02 GMT 57.232018 -2.334595 4,825 203 260 1984
2021-10-13 11:23:57 GMT 57.238586 -2.329702 4,575 200 258 2944
2021-10-13 11:23:52 GMT 57.243565 -2.326532 4,350 198 259 3072
2021-10-13 11:23:49 GMT 57.247334 -2.324406 4,200 198 258 2752
2021-10-13 11:23:46 GMT 57.250259 -2.322664 4,075 199 256 2752
2021-10-13 11:23:42 GMT 57.254425 -2.320089 3,950 203 253 2688
2021-10-13 11:23:37 GMT 57.260651 -2.314483 3,650 217 247 2816
2021-10-13 11:23:32 GMT 57.264633 -2.308674 3,425 228 245 2944
2021-10-13 11:23:29 GMT 57.267399 -2.303053 3,250 240 244 2880
2021-10-13 11:23:26 GMT 57.269394 -2.297430 3,100 244 244 2560
2021-10-13 11:23:22 GMT 57.271042 -2.290821 3,025 252 241 2048
2021-10-13 11:23:17 GMT 57.272518 -2.278334 2,800 272 232 1216
2021-10-13 11:23:12 GMT 57.272381 -2.271069 2,750 279 227 1152
2021-10-13 11:23:06 GMT 57.270889 -2.259462 2,600 294 220 1728
2021-10-13 11:23:02 GMT 57.269356 -2.253792 2,475 305 217 2112
2021-10-13 11:22:56 GMT 57.265045 -2.244215 2,200 323 218 2752
2021-10-13 11:22:52 GMT 57.262138 -2.240236 2,025 332 219 2432
2021-10-13 11:22:51 GMT 57.260696 -2.238553 1,975 335 218 1920
2021-10-13 11:22:49 GMT 57.259811 -2.237667 1,925 335 218 1728
2021-10-13 11:22:48 GMT 57.258728 -2.236662 1,900 336 217 1344
2021-10-13 11:22:47 GMT 57.256786 -2.235009 1,850 337 211 896
2021-10-13 11:22:45 GMT 57.255810 -2.234212 1,850 337 211 768
2021-10-13 11:22:44 GMT 57.254925 -2.233503 1,825 338 210 704
2021-10-13 11:22:42 GMT 57.253201 -2.232174 1,800 338 206 704
2021-10-13 11:22:41 GMT 57.252316 -2.231554 1,800 338 204 768
2021-10-13 11:22:40 GMT 57.251431 -2.230845 1,775 338 203 832
2021-10-13 11:22:38 GMT 57.249527 -2.229366 1,750 338 199 960
2021-10-13 11:22:37 GMT 57.248734 -2.228807 1,725 339 198 1088
2021-10-13 11:22:36 GMT 57.247894 -2.228187 1,725 339 196 1088
2021-10-13 11:22:34 GMT 57.246124 -2.226858 1,675 340 193 1280
2021-10-13 11:22:33 GMT 57.245361 -2.226362 1,650 340 192 1280
2021-10-13 11:22:32 GMT 57.244446 -2.225761 1,625 341 191 1280
2021-10-13 11:22:30 GMT 57.242867 -2.224643 1,600 341 188 1280
2021-10-13 11:22:29 GMT 57.241882 -2.224045 1,575 342 185 1216
2021-10-13 11:22:28 GMT 57.240677 -2.223225 1,525 342 184 1152
2021-10-13 11:22:26 GMT 57.239841 -2.222782 1,525 342 182 1152
2021-10-13 11:22:25 GMT 57.238724 -2.222071 1,500 342 179 1088
2021-10-13 11:22:24 GMT 57.237305 -2.221212 1,450 342 178 1088
2021-10-13 11:22:22 GMT 57.236534 -2.220744 1,450 342 176 1088
2021-10-13 11:22:20 GMT 57.234951 -2.219770 1,400 342 173 1024
2021-10-13 11:22:19 GMT 57.234207 -2.219327 1,400 342 170 960
2021-10-13 11:22:18 GMT 57.233368 -2.218795 1,375 342 170 896
2021-10-13 11:22:16 GMT 57.231720 -2.217779 1,350 342 167 960
2021-10-13 11:22:14 GMT 57.230904 -2.217289 1,325 342 166 960
2021-10-13 11:22:13 GMT 57.229877 -2.216669 1,300 342 164 1024
2021-10-13 11:22:12 GMT 57.228973 -2.216148 1,275 342 161 1152
2021-10-13 11:22:11 GMT 57.228149 -2.215633 1,250 342 160 1152
2021-10-13 11:22:10 GMT 57.227551 -2.215251 1,250 342 160 1216
2021-10-13 11:22:08 GMT 57.226246 -2.214454 1,200 342 158 1408
2021-10-13 11:22:07 GMT 57.225224 -2.213834 1,150 342 157 1536
2021-10-13 11:22:05 GMT 57.223846 -2.212973 1,100 342 156 1920
2021-10-13 11:21:56 GMT 57.217346 -2.208853 675 340 154 2944
2021-10-13 11:21:45 GMT 57.210251 -2.203875 100 339 160 2496
2021-10-13 11:21:27 GMT 57.199677 -2.196064 -25 339 96 -64
2021-10-13 11:21:24 GMT 57.198223 -2.195034 0 339 91 -64
2021-10-13 11:21:15 GMT 57.195641 -2.193124 0 337 42
2021-10-13 11:20:02 GMT 57.194462 -2.192260 0 36 6
2021-10-13 11:16:09 GMT 57.195179 -2.195055 0 140 3 0
2021-10-13 11:15:55 GMT 57.195431 -2.195463 0 140 10 0
2021-10-13 11:15:51 GMT 57.195568 -2.195671 0 140 10 0
2021-10-13 11:15:41 GMT 57.195896 -2.196202 0 140 9 0
2021-10-13 11:15:31 GMT 57.196220 -2.196708 0 151 10 0
2021-10-13 11:15:20 GMT 57.196663 -2.197066 0 160 11 0
2021-10-13 11:15:11 GMT 57.197124 -2.197394 0 160 11 0
2021-10-13 11:14:54 GMT 57.197845 -2.197952 0 160 10 0
2021-10-13 11:14:50 GMT 57.198006 -2.198060 0 160 10 0
2021-10-13 11:14:39 GMT 57.198399 -2.198351 0 157 8 0
2021-10-13 11:14:30 GMT 57.198692 -2.198617 0 137 7 0
2021-10-13 11:14:20 GMT 57.198887 -2.198982 0 137 6 0
2021-10-13 11:14:10 GMT 57.199081 -2.199304 0 137 6 0
2021-10-13 11:13:59 GMT 57.199276 -2.199647 0 135 6 0
2021-10-13 11:13:50 GMT 57.199490 -2.200034 0 137 8 0
2021-10-13 11:13:36 GMT 57.199860 -2.200634 0 143 8 0
2021-10-13 11:13:29 GMT 57.200050 -2.200876 0 146 7 0
2021-10-13 11:13:12 GMT 57.200397 -2.201257 0 213 4 0
2021-10-13 11:13:03 GMT 57.200489 -2.201171 0 247 0 0
2021-10-13 11:12:48 GMT 57.200500 -2.201149 0 247 0 0
2021-10-13 11:12:38 GMT 57.200493 -2.201142 0 247 0 0
2021-10-13 11:12:25 GMT 57.200500 -2.201149 0 247 0 0
2021-10-13 11:12:08 GMT 57.200504 -2.201142 0 247 0 0
2021-10-13 11:11:58 GMT 57.200493 -2.201142 0 247 0 0
2021-10-13 11:10:55 GMT 57.200500 -2.201149 0 247 0
2021-10-13 11:10:45 GMT 57.200504 -2.201142 0 247 0
2021-10-13 11:10:25 GMT 57.200500 -2.201149 0 247 0
2021-10-13 11:10:15 GMT 57.200504 -2.201142 0 247 0
2021-10-13 11:09:42 GMT 57.200500 -2.201149 0 247 0
2021-10-13 11:09:26 GMT 57.200504 -2.201142 0 247 0
2021-10-13 11:09:14 GMT 57.200500 -2.201149 0 247 0
2021-10-13 11:09:03 GMT 57.200478 -2.201214 0 247 2
2021-10-13 11:08:55 GMT 57.200455 -2.201321 0 247 3
2021-10-13 11:08:44 GMT 57.200420 -2.201536 0 247 3
2021-10-13 11:08:27 GMT 57.200329 -2.201895 0 247 3
2021-10-13 11:08:26 GMT 57.200329 -2.201922 0 250 3

Making use of Plane Finder data

You are free to use the raw flight data, aircraft information and images provided in this report for your own purposes provided the data is correctly attributed to Plane Finder. We ask that you please credit Plane Finder and link to planefinder.net in close proximity to the content.

Optionally one of the following logos (no smaller then 150x24px) can be used and must link to planefinder.net

Embedding the Plane Finder map

You are welcome to embed the Plane Finder playback map on your website to offer visitors a more interactive experience. We suggest using the following HTML code:

<iframe src="//planefinder.net/data/report/BY322-G-FDZZ-7700-squawk-2021-10-13/map" width="800" height="600" seamless="seamless"></iframe>

Where our data comes from

Plane Finder has a global network of data feeds and antenna radars that receive data broadcast directly from aircraft. The primary technologies used are ADS-B and MLAT. We also show feeds from the FAA and a FLARM glider feed.

Click here to find out more about the Plane Finder network.

How we collect our data